<?xml version="1.0" encoding="UTF-8" standalone="no" ?><gpx xmlns="http://www.topografix.com/GPX/1/1" xmlns:gpxx="http://www.garmin.com/xmlschemas/GpxExtensions/v3" xmlns:wptx1="http://www.garmin.com/xmlschemas/WaypointExtension/v1" xmlns:gpxtpx="http://www.garmin.com/xmlschemas/TrackPointExtension/v1" creator="GuideVTT.com" version="1.1" xmlns:xsi="http://www.w3.org/2001/XMLSchema-instance" xsi:schemaLocation="http://www.topografix.com/GPX/1/1 http://www.topografix.com/GPX/1/1/gpx.xsd http://www.garmin.com/xmlschemas/GpxExtensions/v3 http://www8.garmin.com/xmlschemas/GpxExtensionsv3.xsd http://www.garmin.com/xmlschemas/WaypointExtension/v1 http://www8.garmin.com/xmlschemas/WaypointExtensionv1.xsd http://www.garmin.com/xmlschemas/TrackPointExtension/v1 http://www.garmin.com/xmlschemas/TrackPointExtensionv1.xsd">
<metadata><link href="http://www.garmin.com"><text>Garmin International</text></link><time>2013-06-22T15:13:50Z</time></metadata>
<trk><name>2024rp06.gpx</name><extensions><gpxx:TrackExtension><gpxx:DisplayColor>Cyan</gpxx:DisplayColor></gpxx:TrackExtension></extensions><trkseg>
<trkpt lat="46.60043" lon="6.36935"><ele>780.8</ele><time>2024-05-20T10:37:47Z</time></trkpt>
<trkpt lat="46.60043" lon="6.36917"><ele>781.8</ele><time>2024-05-20T10:37:55Z</time></trkpt>
<trkpt lat="46.60043" lon="6.36914"><ele>781.8</ele><time>2024-05-20T10:37:56Z</time></trkpt>
<trkpt lat="46.60045" lon="6.36902"><ele>782.2</ele><time>2024-05-20T10:38:02Z</time></trkpt>
<trkpt lat="46.60045" lon="6.36887"><ele>783</ele><time>2024-05-20T10:38:08Z</time></trkpt>
<trkpt lat="46.60045" lon="6.36885"><ele>783</ele><time>2024-05-20T10:38:09Z</time></trkpt>
<trkpt lat="46.60045" lon="6.36874"><ele>783.6</ele><time>2024-05-20T10:38:14Z</time></trkpt>
<trkpt lat="46.60045" lon="6.36867"><ele>783.8</ele><time>2024-05-20T10:38:17Z</time></trkpt>
<trkpt lat="46.60045" lon="6.36865"><ele>784</ele><time>2024-05-20T10:38:18Z</time></trkpt>
<trkpt lat="46.60047" lon="6.36851"><ele>785</ele><time>2024-05-20T10:38:25Z</time></trkpt>
<trkpt lat="46.60048" lon="6.36836"><ele>785.8</ele><time>2024-05-20T10:38:32Z</time></trkpt>
<trkpt lat="46.60049" lon="6.36832"><ele>786.2</ele><time>2024-05-20T10:38:34Z</time></trkpt>
<trkpt lat="46.60048" lon="6.36817"><ele>787</ele><time>2024-05-20T10:38:40Z</time></trkpt>
<trkpt lat="46.60049" lon="6.36807"><ele>787.2</ele><time>2024-05-20T10:38:44Z</time></trkpt>
<trkpt lat="46.6005" lon="6.36794"><ele>787.8</ele><time>2024-05-20T10:38:49Z</time></trkpt>
<trkpt lat="46.60051" lon="6.36781"><ele>788.4</ele><time>2024-05-20T10:38:54Z</time></trkpt>
<trkpt lat="46.60055" lon="6.36764"><ele>789</ele><time>2024-05-20T10:39:01Z</time></trkpt>
<trkpt lat="46.60057" lon="6.36753"><ele>789.4</ele><time>2024-05-20T10:39:06Z</time></trkpt>
<trkpt lat="46.60058" lon="6.36743"><ele>789.6</ele><time>2024-05-20T10:39:09Z</time></trkpt>
<trkpt lat="46.60061" lon="6.36725"><ele>790.6</ele><time>2024-05-20T10:39:15Z</time></trkpt>
<trkpt lat="46.60062" lon="6.3672"><ele>790.6</ele><time>2024-05-20T10:39:17Z</time></trkpt>
<trkpt lat="46.60065" lon="6.367"><ele>791.2</ele><time>2024-05-20T10:39:24Z</time></trkpt>
<trkpt lat="46.60066" lon="6.36692"><ele>791.6</ele><time>2024-05-20T10:39:27Z</time></trkpt>
<trkpt lat="46.60066" lon="6.36683"><ele>792</ele><time>2024-05-20T10:39:30Z</time></trkpt>
<trkpt lat="46.60066" lon="6.3667"><ele>792.6</ele><time>2024-05-20T10:39:35Z</time></trkpt>
<trkpt lat="46.60067" lon="6.36667"><ele>792.8</ele><time>2024-05-20T10:39:37Z</time></trkpt>
<trkpt lat="46.6007" lon="6.36653"><ele>793.4</ele><time>2024-05-20T10:39:42Z</time></trkpt>
<trkpt lat="46.6007" lon="6.36648"><ele>793.8</ele><time>2024-05-20T10:39:44Z</time></trkpt>
<trkpt lat="46.60071" lon="6.36635"><ele>794.4</ele><time>2024-05-20T10:39:49Z</time></trkpt>
<trkpt lat="46.60072" lon="6.36625"><ele>795</ele><time>2024-05-20T10:39:53Z</time></trkpt>
<trkpt lat="46.60073" lon="6.36621"><ele>795.6</ele><time>2024-05-20T10:39:55Z</time></trkpt>
<trkpt lat="46.60076" lon="6.36606"><ele>796.2</ele><time>2024-05-20T10:40:01Z</time></trkpt>
<trkpt lat="46.6008" lon="6.36592"><ele>797.2</ele><time>2024-05-20T10:40:07Z</time></trkpt>
<trkpt lat="46.60081" lon="6.36587"><ele>797.4</ele><time>2024-05-20T10:40:09Z</time></trkpt>
<trkpt lat="46.60081" lon="6.36572"><ele>798.2</ele><time>2024-05-20T10:40:14Z</time></trkpt>
<trkpt lat="46.60082" lon="6.36566"><ele>798.4</ele><time>2024-05-20T10:40:16Z</time></trkpt>
<trkpt lat="46.60083" lon="6.36552"><ele>799.4</ele><time>2024-05-20T10:40:22Z</time></trkpt>
<trkpt lat="46.60083" lon="6.3655"><ele>799.4</ele><time>2024-05-20T10:40:23Z</time></trkpt>
<trkpt lat="46.60085" lon="6.36538"><ele>800.4</ele><time>2024-05-20T10:40:29Z</time></trkpt>
<trkpt lat="46.60086" lon="6.36536"><ele>800.6</ele><time>2024-05-20T10:40:30Z</time></trkpt>
<trkpt lat="46.60089" lon="6.36522"><ele>801.6</ele><time>2024-05-20T10:40:37Z</time></trkpt>
<trkpt lat="46.60089" lon="6.36521"><ele>801.8</ele><time>2024-05-20T10:40:38Z</time></trkpt>
<trkpt lat="46.60093" lon="6.36509"><ele>802.8</ele><time>2024-05-20T10:40:44Z</time></trkpt>
<trkpt lat="46.60096" lon="6.36499"><ele>804</ele><time>2024-05-20T10:40:51Z</time></trkpt>
<trkpt lat="46.60098" lon="6.36494"><ele>804.2</ele><time>2024-05-20T10:40:54Z</time></trkpt>
<trkpt lat="46.60101" lon="6.36483"><ele>805</ele><time>2024-05-20T10:40:59Z</time></trkpt>
<trkpt lat="46.60103" lon="6.36475"><ele>805.6</ele><time>2024-05-20T10:41:03Z</time></trkpt>
<trkpt lat="46.60103" lon="6.36474"><ele>805.6</ele><time>2024-05-20T10:41:04Z</time></trkpt>
<trkpt lat="46.60104" lon="6.3647"><ele>806</ele><time>2024-05-20T10:41:06Z</time></trkpt>
<trkpt lat="46.60105" lon="6.36465"><ele>806.4</ele><time>2024-05-20T10:41:08Z</time></trkpt>
<trkpt lat="46.60107" lon="6.36456"><ele>807.2</ele><time>2024-05-20T10:41:12Z</time></trkpt>
<trkpt lat="46.60109" lon="6.36448"><ele>807.6</ele><time>2024-05-20T10:41:16Z</time></trkpt>
<trkpt lat="46.60111" lon="6.3644"><ele>808.2</ele><time>2024-05-20T10:41:20Z</time></trkpt>
<trkpt lat="46.60113" lon="6.3643"><ele>808.8</ele><time>2024-05-20T10:41:24Z</time></trkpt>
<trkpt lat="46.60115" lon="6.36423"><ele>809.4</ele><time>2024-05-20T10:41:28Z</time></trkpt>
<trkpt lat="46.60118" lon="6.3641"><ele>810.4</ele><time>2024-05-20T10:41:35Z</time></trkpt>
<trkpt lat="46.60119" lon="6.36409"><ele>810.6</ele><time>2024-05-20T10:41:36Z</time></trkpt>
<trkpt lat="46.60122" lon="6.364"><ele>811.6</ele><time>2024-05-20T10:41:42Z</time></trkpt>
<trkpt lat="46.60122" lon="6.36398"><ele>811.6</ele><time>2024-05-20T10:41:43Z</time></trkpt>
<trkpt lat="46.60125" lon="6.36385"><ele>812.6</ele><time>2024-05-20T10:41:50Z</time></trkpt>
<trkpt lat="46.60122" lon="6.36369"><ele>813.8</ele><time>2024-05-20T10:41:57Z</time></trkpt>
<trkpt lat="46.60116" lon="6.36357"><ele>814.8</ele><time>2024-05-20T10:42:04Z</time></trkpt>
<trkpt lat="46.60115" lon="6.36355"><ele>814.8</ele><time>2024-05-20T10:42:05Z</time></trkpt>
<trkpt lat="46.60105" lon="6.36351"><ele>815.8</ele><time>2024-05-20T10:42:12Z</time></trkpt>
<trkpt lat="46.60093" lon="6.36354"><ele>816.8</ele><time>2024-05-20T10:42:20Z</time></trkpt>
<trkpt lat="46.60091" lon="6.36355"><ele>817</ele><time>2024-05-20T10:42:21Z</time></trkpt>
<trkpt lat="46.60086" lon="6.36357"><ele>817.4</ele><time>2024-05-20T10:42:24Z</time></trkpt>
<trkpt lat="46.60085" lon="6.36357"><ele>817.6</ele><time>2024-05-20T10:42:25Z</time></trkpt>
<trkpt lat="46.60081" lon="6.36359"><ele>818</ele><time>2024-05-20T10:42:27Z</time></trkpt>
<trkpt lat="46.6008" lon="6.3636"><ele>818</ele><time>2024-05-20T10:42:28Z</time></trkpt>
<trkpt lat="46.6007" lon="6.36368"><ele>819.2</ele><time>2024-05-20T10:42:35Z</time></trkpt>
<trkpt lat="46.60063" lon="6.36376"><ele>820.2</ele><time>2024-05-20T10:42:41Z</time></trkpt>
<trkpt lat="46.60061" lon="6.36379"><ele>820.6</ele><time>2024-05-20T10:42:43Z</time></trkpt>
<trkpt lat="46.60055" lon="6.36385"><ele>821.4</ele><time>2024-05-20T10:42:48Z</time></trkpt>
<trkpt lat="46.60051" lon="6.36388"><ele>821.8</ele><time>2024-05-20T10:42:51Z</time></trkpt>
<trkpt lat="46.60047" lon="6.36392"><ele>822.4</ele><time>2024-05-20T10:42:54Z</time></trkpt>
<trkpt lat="46.60042" lon="6.36397"><ele>823</ele><time>2024-05-20T10:42:58Z</time></trkpt>
<trkpt lat="46.60037" lon="6.364"><ele>823.6</ele><time>2024-05-20T10:43:01Z</time></trkpt>
<trkpt lat="46.60032" lon="6.36401"><ele>824.2</ele><time>2024-05-20T10:43:04Z</time></trkpt>
<trkpt lat="46.60028" lon="6.36401"><ele>824.6</ele><time>2024-05-20T10:43:07Z</time></trkpt>
<trkpt lat="46.60022" lon="6.36402"><ele>825</ele><time>2024-05-20T10:43:10Z</time></trkpt>
<trkpt lat="46.60018" lon="6.36402"><ele>825.4</ele><time>2024-05-20T10:43:12Z</time></trkpt>
<trkpt lat="46.6001" lon="6.36401"><ele>826</ele><time>2024-05-20T10:43:17Z</time></trkpt>
<trkpt lat="46.60007" lon="6.36401"><ele>826.4</ele><time>2024-05-20T10:43:19Z</time></trkpt>
<trkpt lat="46.60001" lon="6.36402"><ele>827.2</ele><time>2024-05-20T10:43:23Z</time></trkpt>
<trkpt lat="46.59999" lon="6.36401"><ele>827.6</ele><time>2024-05-20T10:43:25Z</time></trkpt>
<trkpt lat="46.59996" lon="6.36401"><ele>828</ele><time>2024-05-20T10:43:28Z</time></trkpt>
<trkpt lat="46.59995" lon="6.364"><ele>828.2</ele><time>2024-05-20T10:43:29Z</time></trkpt>
<trkpt lat="46.59992" lon="6.364"><ele>828.6</ele><time>2024-05-20T10:43:31Z</time></trkpt>
<trkpt lat="46.59983" lon="6.36397"><ele>829.4</ele><time>2024-05-20T10:43:37Z</time></trkpt>
<trkpt lat="46.5998" lon="6.36397"><ele>829.8</ele><time>2024-05-20T10:43:39Z</time></trkpt>
<trkpt lat="46.59975" lon="6.36401"><ele>830.4</ele><time>2024-05-20T10:43:43Z</time></trkpt>
<trkpt lat="46.59973" lon="6.36404"><ele>830.8</ele><time>2024-05-20T10:43:46Z</time></trkpt>
<trkpt lat="46.5997" lon="6.36406"><ele>831.4</ele><time>2024-05-20T10:43:49Z</time></trkpt>
<trkpt lat="46.59969" lon="6.36409"><ele>832</ele><time>2024-05-20T10:43:53Z</time></trkpt>
<trkpt lat="46.59969" lon="6.36413"><ele>832.2</ele><time>2024-05-20T10:43:55Z</time></trkpt>
<trkpt lat="46.59967" lon="6.3642"><ele>833</ele><time>2024-05-20T10:44:00Z</time></trkpt>
<trkpt lat="46.59966" lon="6.36424"><ele>833.2</ele><time>2024-05-20T10:44:02Z</time></trkpt>
<trkpt lat="46.59964" lon="6.3643"><ele>834</ele><time>2024-05-20T10:44:06Z</time></trkpt>
<trkpt lat="46.59962" lon="6.36433"><ele>834.2</ele><time>2024-05-20T10:44:08Z</time></trkpt>
<trkpt lat="46.59959" lon="6.36443"><ele>835.2</ele><time>2024-05-20T10:44:14Z</time></trkpt>
<trkpt lat="46.59958" lon="6.36444"><ele>835.4</ele><time>2024-05-20T10:44:15Z</time></trkpt>
<trkpt lat="46.59955" lon="6.36453"><ele>836.2</ele><time>2024-05-20T10:44:20Z</time></trkpt>
<trkpt lat="46.59953" lon="6.36456"><ele>836.4</ele><time>2024-05-20T10:44:22Z</time></trkpt>
<trkpt lat="46.59948" lon="6.36465"><ele>837.2</ele><time>2024-05-20T10:44:27Z</time></trkpt>
<trkpt lat="46.59946" lon="6.36469"><ele>837.4</ele><time>2024-05-20T10:44:29Z</time></trkpt>
<trkpt lat="46.59941" lon="6.36477"><ele>838.2</ele><time>2024-05-20T10:44:34Z</time></trkpt>
<trkpt lat="46.5994" lon="6.3648"><ele>838.6</ele><time>2024-05-20T10:44:36Z</time></trkpt>
<trkpt lat="46.59934" lon="6.3649"><ele>839.4</ele><time>2024-05-20T10:44:43Z</time></trkpt>
<trkpt lat="46.59928" lon="6.36499"><ele>840.2</ele><time>2024-05-20T10:44:49Z</time></trkpt>
<trkpt lat="46.59927" lon="6.36503"><ele>840.8</ele><time>2024-05-20T10:44:51Z</time></trkpt>
<trkpt lat="46.59925" lon="6.36506"><ele>841.2</ele><time>2024-05-20T10:44:53Z</time></trkpt>
<trkpt lat="46.59924" lon="6.36509"><ele>841.4</ele><time>2024-05-20T10:44:55Z</time></trkpt>
<trkpt lat="46.59921" lon="6.36513"><ele>841.8</ele><time>2024-05-20T10:44:58Z</time></trkpt>
<trkpt lat="46.59917" lon="6.36519"><ele>842.6</ele><time>2024-05-20T10:45:02Z</time></trkpt>
<trkpt lat="46.59914" lon="6.36523"><ele>843</ele><time>2024-05-20T10:45:05Z</time></trkpt>
<trkpt lat="46.59909" lon="6.36528"><ele>843.8</ele><time>2024-05-20T10:45:09Z</time></trkpt>
<trkpt lat="46.59906" lon="6.3653"><ele>844</ele><time>2024-05-20T10:45:11Z</time></trkpt>
<trkpt lat="46.59899" lon="6.36531"><ele>845</ele><time>2024-05-20T10:45:16Z</time></trkpt>
<trkpt lat="46.59891" lon="6.36526"><ele>846.2</ele><time>2024-05-20T10:45:22Z</time></trkpt>
<trkpt lat="46.59889" lon="6.36524"><ele>846.4</ele><time>2024-05-20T10:45:23Z</time></trkpt>
<trkpt lat="46.59886" lon="6.36517"><ele>847.4</ele><time>2024-05-20T10:45:27Z</time></trkpt>
<trkpt lat="46.59883" lon="6.36514"><ele>847.6</ele><time>2024-05-20T10:45:29Z</time></trkpt>
<trkpt lat="46.59878" lon="6.36507"><ele>848.4</ele><time>2024-05-20T10:45:34Z</time></trkpt>
<trkpt lat="46.59874" lon="6.36502"><ele>849</ele><time>2024-05-20T10:45:38Z</time></trkpt>
<trkpt lat="46.59871" lon="6.36498"><ele>849.6</ele><time>2024-05-20T10:45:41Z</time></trkpt>
<trkpt lat="46.59865" lon="6.36493"><ele>850.2</ele><time>2024-05-20T10:45:46Z</time></trkpt>
<trkpt lat="46.59863" lon="6.36489"><ele>850.6</ele><time>2024-05-20T10:45:49Z</time></trkpt>
<trkpt lat="46.59858" lon="6.36483"><ele>851.6</ele><time>2024-05-20T10:45:54Z</time></trkpt>
<trkpt lat="46.59857" lon="6.36481"><ele>851.8</ele><time>2024-05-20T10:45:56Z</time></trkpt>
<trkpt lat="46.5985" lon="6.36469"><ele>852.8</ele><time>2024-05-20T10:46:03Z</time></trkpt>
<trkpt lat="46.59843" lon="6.3646"><ele>853.8</ele><time>2024-05-20T10:46:10Z</time></trkpt>
<trkpt lat="46.5984" lon="6.36453"><ele>854.6</ele><time>2024-05-20T10:46:15Z</time></trkpt>
<trkpt lat="46.59839" lon="6.36452"><ele>854.6</ele><time>2024-05-20T10:46:16Z</time></trkpt>
<trkpt lat="46.59838" lon="6.36448"><ele>855</ele><time>2024-05-20T10:46:18Z</time></trkpt>
<trkpt lat="46.59836" lon="6.36443"><ele>855.4</ele><time>2024-05-20T10:46:21Z</time></trkpt>
<trkpt lat="46.59832" lon="6.36435"><ele>856</ele><time>2024-05-20T10:46:26Z</time></trkpt>
<trkpt lat="46.59831" lon="6.36432"><ele>856.4</ele><time>2024-05-20T10:46:28Z</time></trkpt>
<trkpt lat="46.59825" lon="6.36424"><ele>857</ele><time>2024-05-20T10:46:33Z</time></trkpt>
<trkpt lat="46.59822" lon="6.36419"><ele>857.6</ele><time>2024-05-20T10:46:36Z</time></trkpt>
<trkpt lat="46.59819" lon="6.36414"><ele>858</ele><time>2024-05-20T10:46:39Z</time></trkpt>
<trkpt lat="46.59816" lon="6.36405"><ele>858.8</ele><time>2024-05-20T10:46:44Z</time></trkpt>
<trkpt lat="46.59815" lon="6.36402"><ele>859.2</ele><time>2024-05-20T10:46:46Z</time></trkpt>
<trkpt lat="46.59813" lon="6.36395"><ele>860</ele><time>2024-05-20T10:46:51Z</time></trkpt>
<trkpt lat="46.59812" lon="6.36391"><ele>860.2</ele><time>2024-05-20T10:46:53Z</time></trkpt>
<trkpt lat="46.59808" lon="6.36381"><ele>861.2</ele><time>2024-05-20T10:46:59Z</time></trkpt>
<trkpt lat="46.59807" lon="6.3638"><ele>861.4</ele><time>2024-05-20T10:47:00Z</time></trkpt>
<trkpt lat="46.59803" lon="6.3637"><ele>862.2</ele><time>2024-05-20T10:47:06Z</time></trkpt>
<trkpt lat="46.598" lon="6.36366"><ele>862.6</ele><time>2024-05-20T10:47:09Z</time></trkpt>
<trkpt lat="46.59798" lon="6.36363"><ele>863.2</ele><time>2024-05-20T10:47:12Z</time></trkpt>
<trkpt lat="46.59795" lon="6.36358"><ele>863.8</ele><time>2024-05-20T10:47:16Z</time></trkpt>
<trkpt lat="46.59791" lon="6.36353"><ele>864.4</ele><time>2024-05-20T10:47:20Z</time></trkpt>
<trkpt lat="46.59788" lon="6.3635"><ele>865</ele><time>2024-05-20T10:47:23Z</time></trkpt>
<trkpt lat="46.59782" lon="6.36342"><ele>866</ele><time>2024-05-20T10:47:29Z</time></trkpt>
<trkpt lat="46.5978" lon="6.36341"><ele>866.2</ele><time>2024-05-20T10:47:30Z</time></trkpt>
<trkpt lat="46.59775" lon="6.36329"><ele>867.2</ele><time>2024-05-20T10:47:37Z</time></trkpt>
<trkpt lat="46.59774" lon="6.36326"><ele>867.6</ele><time>2024-05-20T10:47:39Z</time></trkpt>
<trkpt lat="46.59771" lon="6.36315"><ele>868.4</ele><time>2024-05-20T10:47:45Z</time></trkpt>
<trkpt lat="46.5977" lon="6.3631"><ele>868.8</ele><time>2024-05-20T10:47:48Z</time></trkpt>
<trkpt lat="46.59768" lon="6.36302"><ele>869.6</ele><time>2024-05-20T10:47:52Z</time></trkpt>
<trkpt lat="46.59766" lon="6.36294"><ele>870.2</ele><time>2024-05-20T10:47:56Z</time></trkpt>
<trkpt lat="46.59764" lon="6.36288"><ele>870.6</ele><time>2024-05-20T10:47:59Z</time></trkpt>
<trkpt lat="46.59761" lon="6.36278"><ele>871.2</ele><time>2024-05-20T10:48:04Z</time></trkpt>
<trkpt lat="46.59761" lon="6.36274"><ele>871.6</ele><time>2024-05-20T10:48:06Z</time></trkpt>
<trkpt lat="46.59759" lon="6.36271"><ele>871.8</ele><time>2024-05-20T10:48:08Z</time></trkpt>
<trkpt lat="46.59759" lon="6.3627"><ele>872</ele><time>2024-05-20T10:48:09Z</time></trkpt>
<trkpt lat="46.59758" lon="6.36268"><ele>872.2</ele><time>2024-05-20T10:48:10Z</time></trkpt>
<trkpt lat="46.59757" lon="6.36265"><ele>872.4</ele><time>2024-05-20T10:48:12Z</time></trkpt>
<trkpt lat="46.59755" lon="6.36261"><ele>872.6</ele><time>2024-05-20T10:48:14Z</time></trkpt>
<trkpt lat="46.59751" lon="6.36252"><ele>873.8</ele><time>2024-05-20T10:48:21Z</time></trkpt>
<trkpt lat="46.59745" lon="6.36243"><ele>874.8</ele><time>2024-05-20T10:48:28Z</time></trkpt>
<trkpt lat="46.59743" lon="6.36241"><ele>875</ele><time>2024-05-20T10:48:30Z</time></trkpt>
<trkpt lat="46.59741" lon="6.36236"><ele>875.6</ele><time>2024-05-20T10:48:33Z</time></trkpt>
<trkpt lat="46.59738" lon="6.36233"><ele>875.8</ele><time>2024-05-20T10:48:35Z</time></trkpt>
<trkpt lat="46.59737" lon="6.36232"><ele>876</ele><time>2024-05-20T10:48:36Z</time></trkpt>
<trkpt lat="46.59729" lon="6.36228"><ele>877</ele><time>2024-05-20T10:48:42Z</time></trkpt>
<trkpt lat="46.59726" lon="6.36226"><ele>877.2</ele><time>2024-05-20T10:48:44Z</time></trkpt>
<trkpt lat="46.59717" lon="6.36224"><ele>878.2</ele><time>2024-05-20T10:48:50Z</time></trkpt>
<trkpt lat="46.59716" lon="6.36224"><ele>878.2</ele><time>2024-05-20T10:48:51Z</time></trkpt>
<trkpt lat="46.59707" lon="6.36223"><ele>879.4</ele><time>2024-05-20T10:48:57Z</time></trkpt>
<trkpt lat="46.59704" lon="6.36223"><ele>879.6</ele><time>2024-05-20T10:48:59Z</time></trkpt>
<trkpt lat="46.59696" lon="6.36223"><ele>880.4</ele><time>2024-05-20T10:49:04Z</time></trkpt>
<trkpt lat="46.59692" lon="6.36223"><ele>880.8</ele><time>2024-05-20T10:49:06Z</time></trkpt>
<trkpt lat="46.59685" lon="6.3622"><ele>881.6</ele><time>2024-05-20T10:49:10Z</time></trkpt>
<trkpt lat="46.59683" lon="6.36219"><ele>881.8</ele><time>2024-05-20T10:49:12Z</time></trkpt>
<trkpt lat="46.59673" lon="6.36215"><ele>882.6</ele><time>2024-05-20T10:49:18Z</time></trkpt>
<trkpt lat="46.59663" lon="6.3621"><ele>883.8</ele><time>2024-05-20T10:49:25Z</time></trkpt>
<trkpt lat="46.59663" lon="6.36208"><ele>884.2</ele><time>2024-05-20T10:49:26Z</time></trkpt>
<trkpt lat="46.5966" lon="6.36196"><ele>885</ele><time>2024-05-20T10:49:31Z</time></trkpt>
<trkpt lat="46.5966" lon="6.36193"><ele>885.2</ele><time>2024-05-20T10:49:32Z</time></trkpt>
<trkpt lat="46.59666" lon="6.3618"><ele>886.2</ele><time>2024-05-20T10:49:38Z</time></trkpt>
<trkpt lat="46.59671" lon="6.36178"><ele>886.8</ele><time>2024-05-20T10:49:41Z</time></trkpt>
<trkpt lat="46.59679" lon="6.36176"><ele>887.2</ele><time>2024-05-20T10:49:45Z</time></trkpt>
<trkpt lat="46.59682" lon="6.36177"><ele>887.6</ele><time>2024-05-20T10:49:47Z</time></trkpt>
<trkpt lat="46.5969" lon="6.36178"><ele>888.2</ele><time>2024-05-20T10:49:52Z</time></trkpt>
<trkpt lat="46.59695" lon="6.36178"><ele>888.8</ele><time>2024-05-20T10:49:55Z</time></trkpt>
<trkpt lat="46.597" lon="6.36179"><ele>889.4</ele><time>2024-05-20T10:49:59Z</time></trkpt>
<trkpt lat="46.59706" lon="6.36179"><ele>889.8</ele><time>2024-05-20T10:50:03Z</time></trkpt>
<trkpt lat="46.59709" lon="6.36178"><ele>890.2</ele><time>2024-05-20T10:50:05Z</time></trkpt>
<trkpt lat="46.5971" lon="6.36178"><ele>890.4</ele><time>2024-05-20T10:50:06Z</time></trkpt>
<trkpt lat="46.59711" lon="6.36177"><ele>890.6</ele><time>2024-05-20T10:50:07Z</time></trkpt>
<trkpt lat="46.59712" lon="6.36177"><ele>890.6</ele><time>2024-05-20T10:50:08Z</time></trkpt>
<trkpt lat="46.59716" lon="6.36179"><ele>891.2</ele><time>2024-05-20T10:50:11Z</time></trkpt>
<trkpt lat="46.59719" lon="6.36179"><ele>891.4</ele><time>2024-05-20T10:50:13Z</time></trkpt>
<trkpt lat="46.59728" lon="6.3618"><ele>892.2</ele><time>2024-05-20T10:50:19Z</time></trkpt>
<trkpt lat="46.59731" lon="6.3618"><ele>892.6</ele><time>2024-05-20T10:50:21Z</time></trkpt>
<trkpt lat="46.59738" lon="6.36179"><ele>893.4</ele><time>2024-05-20T10:50:26Z</time></trkpt>
<trkpt lat="46.59741" lon="6.36178"><ele>893.6</ele><time>2024-05-20T10:50:28Z</time></trkpt>
<trkpt lat="46.59748" lon="6.36177"><ele>894.2</ele><time>2024-05-20T10:50:33Z</time></trkpt>
<trkpt lat="46.59751" lon="6.36176"><ele>894.6</ele><time>2024-05-20T10:50:35Z</time></trkpt>
<trkpt lat="46.59759" lon="6.36175"><ele>895.4</ele><time>2024-05-20T10:50:41Z</time></trkpt>
<trkpt lat="46.59763" lon="6.36174"><ele>895.8</ele><time>2024-05-20T10:50:43Z</time></trkpt>
<trkpt lat="46.59771" lon="6.36172"><ele>897</ele><time>2024-05-20T10:50:50Z</time></trkpt>
<trkpt lat="46.59778" lon="6.36173"><ele>897.8</ele><time>2024-05-20T10:50:55Z</time></trkpt>
<trkpt lat="46.59781" lon="6.36174"><ele>898.2</ele><time>2024-05-20T10:50:57Z</time></trkpt>
<trkpt lat="46.59782" lon="6.36174"><ele>898.4</ele><time>2024-05-20T10:50:58Z</time></trkpt>
<trkpt lat="46.59791" lon="6.36173"><ele>899.2</ele><time>2024-05-20T10:51:04Z</time></trkpt>
<trkpt lat="46.59793" lon="6.36172"><ele>899.4</ele><time>2024-05-20T10:51:06Z</time></trkpt>
<trkpt lat="46.598" lon="6.36172"><ele>900.2</ele><time>2024-05-20T10:51:11Z</time></trkpt>
<trkpt lat="46.59804" lon="6.36173"><ele>900.6</ele><time>2024-05-20T10:51:14Z</time></trkpt>
<trkpt lat="46.59809" lon="6.36172"><ele>901.4</ele><time>2024-05-20T10:51:18Z</time></trkpt>
<trkpt lat="46.59816" lon="6.36168"><ele>902.2</ele><time>2024-05-20T10:51:23Z</time></trkpt>
<trkpt lat="46.5982" lon="6.36169"><ele>902.4</ele><time>2024-05-20T10:51:26Z</time></trkpt>
<trkpt lat="46.59826" lon="6.36169"><ele>903.2</ele><time>2024-05-20T10:51:30Z</time></trkpt>
<trkpt lat="46.59831" lon="6.36169"><ele>903.6</ele><time>2024-05-20T10:51:33Z</time></trkpt>
<trkpt lat="46.59838" lon="6.3617"><ele>904.4</ele><time>2024-05-20T10:51:38Z</time></trkpt>
<trkpt lat="46.5984" lon="6.3617"><ele>904.6</ele><time>2024-05-20T10:51:40Z</time></trkpt>
<trkpt lat="46.59849" lon="6.36171"><ele>905.6</ele><time>2024-05-20T10:51:47Z</time></trkpt>
<trkpt lat="46.59857" lon="6.36166"><ele>906.6</ele><time>2024-05-20T10:51:54Z</time></trkpt>
<trkpt lat="46.59863" lon="6.36158"><ele>907.8</ele><time>2024-05-20T10:52:00Z</time></trkpt>
<trkpt lat="46.59864" lon="6.36156"><ele>908</ele><time>2024-05-20T10:52:01Z</time></trkpt>
<trkpt lat="46.59867" lon="6.36144"><ele>909</ele><time>2024-05-20T10:52:08Z</time></trkpt>
<trkpt lat="46.5987" lon="6.36131"><ele>910</ele><time>2024-05-20T10:52:16Z</time></trkpt>
<trkpt lat="46.59871" lon="6.36129"><ele>910</ele><time>2024-05-20T10:52:17Z</time></trkpt>
<trkpt lat="46.59873" lon="6.36117"><ele>911</ele><time>2024-05-20T10:52:24Z</time></trkpt>
<trkpt lat="46.59873" lon="6.36115"><ele>911.2</ele><time>2024-05-20T10:52:25Z</time></trkpt>
<trkpt lat="46.59875" lon="6.36106"><ele>912</ele><time>2024-05-20T10:52:31Z</time></trkpt>
<trkpt lat="46.59876" lon="6.36103"><ele>912.2</ele><time>2024-05-20T10:52:33Z</time></trkpt>
<trkpt lat="46.59878" lon="6.36092"><ele>913</ele><time>2024-05-20T10:52:38Z</time></trkpt>
<trkpt lat="46.5988" lon="6.36085"><ele>913.6</ele><time>2024-05-20T10:52:42Z</time></trkpt>
<trkpt lat="46.5988" lon="6.3608"><ele>914.2</ele><time>2024-05-20T10:52:45Z</time></trkpt>
<trkpt lat="46.59881" lon="6.36078"><ele>914.2</ele><time>2024-05-20T10:52:46Z</time></trkpt>
<trkpt lat="46.59881" lon="6.36076"><ele>914.4</ele><time>2024-05-20T10:52:47Z</time></trkpt>
<trkpt lat="46.59883" lon="6.36065"><ele>915.2</ele><time>2024-05-20T10:52:53Z</time></trkpt>
<trkpt lat="46.59884" lon="6.36062"><ele>915.6</ele><time>2024-05-20T10:52:55Z</time></trkpt>
<trkpt lat="46.59887" lon="6.36054"><ele>916.2</ele><time>2024-05-20T10:53:00Z</time></trkpt>
<trkpt lat="46.59889" lon="6.36049"><ele>916.6</ele><time>2024-05-20T10:53:04Z</time></trkpt>
<trkpt lat="46.59891" lon="6.36042"><ele>917.4</ele><time>2024-05-20T10:53:08Z</time></trkpt>
<trkpt lat="46.59894" lon="6.36034"><ele>918.2</ele><time>2024-05-20T10:53:13Z</time></trkpt>
<trkpt lat="46.59894" lon="6.36032"><ele>918.4</ele><time>2024-05-20T10:53:14Z</time></trkpt>
<trkpt lat="46.59896" lon="6.36027"><ele>918.4</ele><time>2024-05-20T10:53:16Z</time></trkpt>
<trkpt lat="46.59898" lon="6.3602"><ele>919</ele><time>2024-05-20T10:53:20Z</time></trkpt>
<trkpt lat="46.59901" lon="6.36015"><ele>919.6</ele><time>2024-05-20T10:53:23Z</time></trkpt>
<trkpt lat="46.59903" lon="6.3601"><ele>920.2</ele><time>2024-05-20T10:53:27Z</time></trkpt>
<trkpt lat="46.59906" lon="6.36005"><ele>920.8</ele><time>2024-05-20T10:53:31Z</time></trkpt>
<trkpt lat="46.59909" lon="6.36"><ele>921.2</ele><time>2024-05-20T10:53:35Z</time></trkpt>
<trkpt lat="46.59911" lon="6.35995"><ele>921.8</ele><time>2024-05-20T10:53:38Z</time></trkpt>
<trkpt lat="46.59915" lon="6.35986"><ele>922.6</ele><time>2024-05-20T10:53:44Z</time></trkpt>
<trkpt lat="46.59917" lon="6.35984"><ele>922.8</ele><time>2024-05-20T10:53:46Z</time></trkpt>
<trkpt lat="46.59921" lon="6.35977"><ele>923.6</ele><time>2024-05-20T10:53:52Z</time></trkpt>
<trkpt lat="46.59923" lon="6.35974"><ele>923.8</ele><time>2024-05-20T10:53:54Z</time></trkpt>
<trkpt lat="46.59926" lon="6.35967"><ele>924.6</ele><time>2024-05-20T10:53:59Z</time></trkpt>
<trkpt lat="46.59928" lon="6.35962"><ele>925</ele><time>2024-05-20T10:54:02Z</time></trkpt>
<trkpt lat="46.59932" lon="6.35957"><ele>925.6</ele><time>2024-05-20T10:54:06Z</time></trkpt>
<trkpt lat="46.59935" lon="6.35951"><ele>926.2</ele><time>2024-05-20T10:54:10Z</time></trkpt>
<trkpt lat="46.59939" lon="6.35945"><ele>927</ele><time>2024-05-20T10:54:15Z</time></trkpt>
<trkpt lat="46.5994" lon="6.35942"><ele>927.4</ele><time>2024-05-20T10:54:17Z</time></trkpt>
<trkpt lat="46.59943" lon="6.35933"><ele>928</ele><time>2024-05-20T10:54:22Z</time></trkpt>
<trkpt lat="46.59946" lon="6.3593"><ele>928.4</ele><time>2024-05-20T10:54:25Z</time></trkpt>
<trkpt lat="46.5995" lon="6.35921"><ele>929.2</ele><time>2024-05-20T10:54:31Z</time></trkpt>
<trkpt lat="46.59951" lon="6.3592"><ele>929.4</ele><time>2024-05-20T10:54:32Z</time></trkpt>
<trkpt lat="46.59955" lon="6.3591"><ele>930.4</ele><time>2024-05-20T10:54:38Z</time></trkpt>
<trkpt lat="46.5996" lon="6.35899"><ele>931.6</ele><time>2024-05-20T10:54:46Z</time></trkpt>
<trkpt lat="46.59966" lon="6.35891"><ele>932.6</ele><time>2024-05-20T10:54:53Z</time></trkpt>
<trkpt lat="46.59967" lon="6.35889"><ele>932.8</ele><time>2024-05-20T10:54:54Z</time></trkpt>
<trkpt lat="46.59974" lon="6.3588"><ele>933.8</ele><time>2024-05-20T10:55:00Z</time></trkpt>
<trkpt lat="46.59976" lon="6.35879"><ele>934</ele><time>2024-05-20T10:55:02Z</time></trkpt>
<trkpt lat="46.5998" lon="6.35877"><ele>934.6</ele><time>2024-05-20T10:55:06Z</time></trkpt>
<trkpt lat="46.59985" lon="6.35875"><ele>935.4</ele><time>2024-05-20T10:55:11Z</time></trkpt>
<trkpt lat="46.59986" lon="6.35875"><ele>935.6</ele><time>2024-05-20T10:55:12Z</time></trkpt>
<trkpt lat="46.59994" lon="6.35882"><ele>936.6</ele><time>2024-05-20T10:55:18Z</time></trkpt>
<trkpt lat="46.59995" lon="6.35884"><ele>936.8</ele><time>2024-05-20T10:55:19Z</time></trkpt>
<trkpt lat="46.60001" lon="6.35898"><ele>937.8</ele><time>2024-05-20T10:55:27Z</time></trkpt>
<trkpt lat="46.60005" lon="6.3591"><ele>938.8</ele><time>2024-05-20T10:55:34Z</time></trkpt>
<trkpt lat="46.60006" lon="6.35912"><ele>938.8</ele><time>2024-05-20T10:55:35Z</time></trkpt>
<trkpt lat="46.60008" lon="6.35915"><ele>939</ele><time>2024-05-20T10:55:37Z</time></trkpt>
<trkpt lat="46.60009" lon="6.35917"><ele>939.4</ele><time>2024-05-20T10:55:39Z</time></trkpt>
<trkpt lat="46.60009" lon="6.35918"><ele>939.6</ele><time>2024-05-20T10:55:40Z</time></trkpt>
<trkpt lat="46.6001" lon="6.3592"><ele>940</ele><time>2024-05-20T10:55:43Z</time></trkpt>
<trkpt lat="46.60011" lon="6.35923"><ele>940.2</ele><time>2024-05-20T10:55:45Z</time></trkpt>
<trkpt lat="46.60013" lon="6.35929"><ele>940.8</ele><time>2024-05-20T10:55:49Z</time></trkpt>
<trkpt lat="46.60013" lon="6.35931"><ele>941</ele><time>2024-05-20T10:55:51Z</time></trkpt>
<trkpt lat="46.60016" lon="6.35932"><ele>941.6</ele><time>2024-05-20T10:55:55Z</time></trkpt>
<trkpt lat="46.60018" lon="6.35932"><ele>942.2</ele><time>2024-05-20T10:55:58Z</time></trkpt>
<trkpt lat="46.60018" lon="6.35931"><ele>942.4</ele><time>2024-05-20T10:55:59Z</time></trkpt>
<trkpt lat="46.6002" lon="6.35928"><ele>942.8</ele><time>2024-05-20T10:56:02Z</time></trkpt>
<trkpt lat="46.60022" lon="6.35929"><ele>943</ele><time>2024-05-20T10:56:04Z</time></trkpt>
<trkpt lat="46.60023" lon="6.35929"><ele>943.4</ele><time>2024-05-20T10:56:05Z</time></trkpt>
<trkpt lat="46.60025" lon="6.35924"><ele>943.8</ele><time>2024-05-20T10:56:09Z</time></trkpt>
<trkpt lat="46.60026" lon="6.35918"><ele>944.4</ele><time>2024-05-20T10:56:13Z</time></trkpt>
<trkpt lat="46.60025" lon="6.35912"><ele>945</ele><time>2024-05-20T10:56:17Z</time></trkpt>
<trkpt lat="46.60024" lon="6.35907"><ele>945.4</ele><time>2024-05-20T10:56:20Z</time></trkpt>
<trkpt lat="46.6002" lon="6.35903"><ele>945.8</ele><time>2024-05-20T10:56:24Z</time></trkpt>
<trkpt lat="46.60016" lon="6.35896"><ele>946.6</ele><time>2024-05-20T10:56:29Z</time></trkpt>
<trkpt lat="46.60015" lon="6.35893"><ele>946.8</ele><time>2024-05-20T10:56:31Z</time></trkpt>
<trkpt lat="46.60013" lon="6.35882"><ele>947.6</ele><time>2024-05-20T10:56:38Z</time></trkpt>
<trkpt lat="46.60013" lon="6.35868"><ele>948.4</ele><time>2024-05-20T10:56:44Z</time></trkpt>
<trkpt lat="46.60013" lon="6.35866"><ele>948.4</ele><time>2024-05-20T10:56:45Z</time></trkpt>
<trkpt lat="46.60013" lon="6.35861"><ele>948.8</ele><time>2024-05-20T10:56:47Z</time></trkpt>
<trkpt lat="46.60013" lon="6.35851"><ele>949.6</ele><time>2024-05-20T10:56:53Z</time></trkpt>
<trkpt lat="46.60013" lon="6.35848"><ele>949.8</ele><time>2024-05-20T10:56:55Z</time></trkpt>
<trkpt lat="46.60013" lon="6.35839"><ele>950.6</ele><time>2024-05-20T10:57:01Z</time></trkpt>
<trkpt lat="46.60014" lon="6.35835"><ele>951</ele><time>2024-05-20T10:57:04Z</time></trkpt>
<trkpt lat="46.60015" lon="6.35827"><ele>951.6</ele><time>2024-05-20T10:57:10Z</time></trkpt>
<trkpt lat="46.60014" lon="6.35821"><ele>952</ele><time>2024-05-20T10:57:13Z</time></trkpt>
<trkpt lat="46.60014" lon="6.35814"><ele>952.4</ele><time>2024-05-20T10:57:16Z</time></trkpt>
<trkpt lat="46.60013" lon="6.35802"><ele>953</ele><time>2024-05-20T10:57:22Z</time></trkpt>
<trkpt lat="46.60013" lon="6.35799"><ele>953.2</ele><time>2024-05-20T10:57:24Z</time></trkpt>
<trkpt lat="46.60008" lon="6.35792"><ele>954.2</ele><time>2024-05-20T10:57:31Z</time></trkpt>
<trkpt lat="46.60008" lon="6.35793"><ele>954.2</ele><time>2024-05-20T10:57:32Z</time></trkpt>
<trkpt lat="46.60003" lon="6.35796"><ele>955.2</ele><time>2024-05-20T10:57:39Z</time></trkpt>
<trkpt lat="46.59998" lon="6.358"><ele>956.2</ele><time>2024-05-20T10:57:47Z</time></trkpt>
<trkpt lat="46.59997" lon="6.35802"><ele>956.4</ele><time>2024-05-20T10:57:48Z</time></trkpt>
<trkpt lat="46.59992" lon="6.35805"><ele>957.4</ele><time>2024-05-20T10:57:54Z</time></trkpt>
<trkpt lat="46.59991" lon="6.35805"><ele>957.4</ele><time>2024-05-20T10:57:55Z</time></trkpt>
<trkpt lat="46.59988" lon="6.3581"><ele>958</ele><time>2024-05-20T10:57:59Z</time></trkpt>
<trkpt lat="46.59987" lon="6.35812"><ele>958.2</ele><time>2024-05-20T10:58:01Z</time></trkpt>
<trkpt lat="46.59985" lon="6.35812"><ele>958.6</ele><time>2024-05-20T10:58:03Z</time></trkpt>
<trkpt lat="46.59981" lon="6.35815"><ele>958.8</ele><time>2024-05-20T10:58:06Z</time></trkpt>
<trkpt lat="46.59975" lon="6.35818"><ele>959.4</ele><time>2024-05-20T10:58:09Z</time></trkpt>
<trkpt lat="46.59973" lon="6.3582"><ele>959.6</ele><time>2024-05-20T10:58:11Z</time></trkpt>
<trkpt lat="46.59966" lon="6.35825"><ele>960.6</ele><time>2024-05-20T10:58:17Z</time></trkpt>
<trkpt lat="46.59964" lon="6.35826"><ele>960.6</ele><time>2024-05-20T10:58:19Z</time></trkpt>
<trkpt lat="46.59955" lon="6.3583"><ele>961.8</ele><time>2024-05-20T10:58:25Z</time></trkpt>
<trkpt lat="46.59943" lon="6.35836"><ele>962.8</ele><time>2024-05-20T10:58:31Z</time></trkpt>
<trkpt lat="46.59937" lon="6.35837"><ele>963.4</ele><time>2024-05-20T10:58:34Z</time></trkpt>
<trkpt lat="46.59931" lon="6.35838"><ele>963.8</ele><time>2024-05-20T10:58:38Z</time></trkpt>
<trkpt lat="46.59927" lon="6.35838"><ele>964.6</ele><time>2024-05-20T10:58:42Z</time></trkpt>
<trkpt lat="46.59923" lon="6.35837"><ele>965</ele><time>2024-05-20T10:58:45Z</time></trkpt>
<trkpt lat="46.59921" lon="6.35838"><ele>965.2</ele><time>2024-05-20T10:58:47Z</time></trkpt>
<trkpt lat="46.59919" lon="6.3584"><ele>965.6</ele><time>2024-05-20T10:58:49Z</time></trkpt>
<trkpt lat="46.59916" lon="6.35842"><ele>966</ele><time>2024-05-20T10:58:53Z</time></trkpt>
<trkpt lat="46.59911" lon="6.35844"><ele>966.6</ele><time>2024-05-20T10:58:57Z</time></trkpt>
<trkpt lat="46.59906" lon="6.35849"><ele>967.2</ele><time>2024-05-20T10:59:01Z</time></trkpt>
<trkpt lat="46.59903" lon="6.35852"><ele>967.6</ele><time>2024-05-20T10:59:05Z</time></trkpt>
<trkpt lat="46.59901" lon="6.35856"><ele>968.2</ele><time>2024-05-20T10:59:09Z</time></trkpt>
<trkpt lat="46.59897" lon="6.35859"><ele>968.8</ele><time>2024-05-20T10:59:13Z</time></trkpt>
<trkpt lat="46.59894" lon="6.35863"><ele>969.2</ele><time>2024-05-20T10:59:16Z</time></trkpt>
<trkpt lat="46.59886" lon="6.35869"><ele>970.2</ele><time>2024-05-20T10:59:22Z</time></trkpt>
<trkpt lat="46.59885" lon="6.3587"><ele>970.2</ele><time>2024-05-20T10:59:23Z</time></trkpt>
<trkpt lat="46.59876" lon="6.35876"><ele>971.4</ele><time>2024-05-20T10:59:30Z</time></trkpt>
<trkpt lat="46.59867" lon="6.35878"><ele>972.4</ele><time>2024-05-20T10:59:38Z</time></trkpt>
<trkpt lat="46.59858" lon="6.35878"><ele>973.4</ele><time>2024-05-20T10:59:44Z</time></trkpt>
<trkpt lat="46.59853" lon="6.3588"><ele>973.8</ele><time>2024-05-20T10:59:48Z</time></trkpt>
<trkpt lat="46.59847" lon="6.35881"><ele>974.4</ele><time>2024-05-20T10:59:52Z</time></trkpt>
<trkpt lat="46.5984" lon="6.35882"><ele>975.2</ele><time>2024-05-20T10:59:57Z</time></trkpt>
<trkpt lat="46.59835" lon="6.35881"><ele>975.6</ele><time>2024-05-20T11:00:01Z</time></trkpt>
<trkpt lat="46.59829" lon="6.35881"><ele>976</ele><time>2024-05-20T11:00:05Z</time></trkpt>
<trkpt lat="46.59825" lon="6.35879"><ele>976.8</ele><time>2024-05-20T11:00:09Z</time></trkpt>
<trkpt lat="46.59821" lon="6.35877"><ele>977.2</ele><time>2024-05-20T11:00:12Z</time></trkpt>
<trkpt lat="46.59817" lon="6.35875"><ele>977.8</ele><time>2024-05-20T11:00:16Z</time></trkpt>
<trkpt lat="46.5981" lon="6.35874"><ele>978.4</ele><time>2024-05-20T11:00:21Z</time></trkpt>
<trkpt lat="46.59806" lon="6.35872"><ele>979</ele><time>2024-05-20T11:00:25Z</time></trkpt>
<trkpt lat="46.59802" lon="6.35871"><ele>979.6</ele><time>2024-05-20T11:00:29Z</time></trkpt>
<trkpt lat="46.59796" lon="6.3587"><ele>980.2</ele><time>2024-05-20T11:00:33Z</time></trkpt>
<trkpt lat="46.59792" lon="6.3587"><ele>980.6</ele><time>2024-05-20T11:00:36Z</time></trkpt>
<trkpt lat="46.59787" lon="6.3587"><ele>981.2</ele><time>2024-05-20T11:00:40Z</time></trkpt>
<trkpt lat="46.59783" lon="6.35871"><ele>981.8</ele><time>2024-05-20T11:00:44Z</time></trkpt>
<trkpt lat="46.59778" lon="6.35875"><ele>982.4</ele><time>2024-05-20T11:00:48Z</time></trkpt>
<trkpt lat="46.59774" lon="6.35877"><ele>983</ele><time>2024-05-20T11:00:52Z</time></trkpt>
<trkpt lat="46.59772" lon="6.35879"><ele>983.4</ele><time>2024-05-20T11:00:55Z</time></trkpt>
<trkpt lat="46.59767" lon="6.35882"><ele>984</ele><time>2024-05-20T11:01:00Z</time></trkpt>
<trkpt lat="46.59762" lon="6.35883"><ele>984.4</ele><time>2024-05-20T11:01:03Z</time></trkpt>
<trkpt lat="46.59756" lon="6.35883"><ele>985</ele><time>2024-05-20T11:01:07Z</time></trkpt>
<trkpt lat="46.59752" lon="6.35881"><ele>985.6</ele><time>2024-05-20T11:01:10Z</time></trkpt>
<trkpt lat="46.59749" lon="6.35877"><ele>986.2</ele><time>2024-05-20T11:01:14Z</time></trkpt>
<trkpt lat="46.59748" lon="6.35872"><ele>986.8</ele><time>2024-05-20T11:01:17Z</time></trkpt>
<trkpt lat="46.59748" lon="6.35866"><ele>987.4</ele><time>2024-05-20T11:01:20Z</time></trkpt>
<trkpt lat="46.5975" lon="6.35861"><ele>987.8</ele><time>2024-05-20T11:01:23Z</time></trkpt>
<trkpt lat="46.59753" lon="6.35855"><ele>988.6</ele><time>2024-05-20T11:01:27Z</time></trkpt>
<trkpt lat="46.59757" lon="6.35851"><ele>989</ele><time>2024-05-20T11:01:30Z</time></trkpt>
<trkpt lat="46.59761" lon="6.35847"><ele>989.6</ele><time>2024-05-20T11:01:34Z</time></trkpt>
<trkpt lat="46.59766" lon="6.35844"><ele>990</ele><time>2024-05-20T11:01:37Z</time></trkpt>
<trkpt lat="46.59774" lon="6.35841"><ele>991</ele><time>2024-05-20T11:01:43Z</time></trkpt>
<trkpt lat="46.59776" lon="6.3584"><ele>991.2</ele><time>2024-05-20T11:01:44Z</time></trkpt>
<trkpt lat="46.59788" lon="6.35837"><ele>992.2</ele><time>2024-05-20T11:01:52Z</time></trkpt>
<trkpt lat="46.59789" lon="6.35836"><ele>992.4</ele><time>2024-05-20T11:01:53Z</time></trkpt>
<trkpt lat="46.59802" lon="6.3583"><ele>993</ele><time>2024-05-20T11:02:01Z</time></trkpt>
<trkpt lat="46.59807" lon="6.35827"><ele>993.4</ele><time>2024-05-20T11:02:04Z</time></trkpt>
<trkpt lat="46.59813" lon="6.35821"><ele>994</ele><time>2024-05-20T11:02:08Z</time></trkpt>
<trkpt lat="46.59816" lon="6.35817"><ele>994.4</ele><time>2024-05-20T11:02:11Z</time></trkpt>
<trkpt lat="46.59824" lon="6.35812"><ele>995</ele><time>2024-05-20T11:02:16Z</time></trkpt>
<trkpt lat="46.59828" lon="6.35809"><ele>995.6</ele><time>2024-05-20T11:02:19Z</time></trkpt>
<trkpt lat="46.59834" lon="6.35803"><ele>996.2</ele><time>2024-05-20T11:02:24Z</time></trkpt>
<trkpt lat="46.59837" lon="6.35798"><ele>996.6</ele><time>2024-05-20T11:02:27Z</time></trkpt>
<trkpt lat="46.59841" lon="6.35792"><ele>997.4</ele><time>2024-05-20T11:02:31Z</time></trkpt>
<trkpt lat="46.59845" lon="6.35786"><ele>998</ele><time>2024-05-20T11:02:35Z</time></trkpt>
<trkpt lat="46.59847" lon="6.3578"><ele>998.4</ele><time>2024-05-20T11:02:38Z</time></trkpt>
<trkpt lat="46.59849" lon="6.35773"><ele>999</ele><time>2024-05-20T11:02:42Z</time></trkpt>
<trkpt lat="46.59852" lon="6.35768"><ele>999.8</ele><time>2024-05-20T11:02:46Z</time></trkpt>
<trkpt lat="46.59854" lon="6.35764"><ele>1000.2</ele><time>2024-05-20T11:02:48Z</time></trkpt>
<trkpt lat="46.59859" lon="6.35749"><ele>1001.2</ele><time>2024-05-20T11:02:55Z</time></trkpt>
<trkpt lat="46.5986" lon="6.35745"><ele>1001.4</ele><time>2024-05-20T11:02:57Z</time></trkpt>
<trkpt lat="46.59863" lon="6.35736"><ele>1002.2</ele><time>2024-05-20T11:03:03Z</time></trkpt>
<trkpt lat="46.59863" lon="6.3573"><ele>1002.8</ele><time>2024-05-20T11:03:06Z</time></trkpt>
<trkpt lat="46.59865" lon="6.35725"><ele>1003.4</ele><time>2024-05-20T11:03:09Z</time></trkpt>
<trkpt lat="46.59866" lon="6.35715"><ele>1004</ele><time>2024-05-20T11:03:14Z</time></trkpt>
<trkpt lat="46.59867" lon="6.3571"><ele>1004.4</ele><time>2024-05-20T11:03:17Z</time></trkpt>
<trkpt lat="46.59869" lon="6.357"><ele>1005.2</ele><time>2024-05-20T11:03:22Z</time></trkpt>
<trkpt lat="46.5987" lon="6.35694"><ele>1005.6</ele><time>2024-05-20T11:03:25Z</time></trkpt>
<trkpt lat="46.59873" lon="6.35684"><ele>1006</ele><time>2024-05-20T11:03:29Z</time></trkpt>
<trkpt lat="46.59875" lon="6.35678"><ele>1006.6</ele><time>2024-05-20T11:03:32Z</time></trkpt>
<trkpt lat="46.59879" lon="6.35669"><ele>1007.4</ele><time>2024-05-20T11:03:37Z</time></trkpt>
<trkpt lat="46.59879" lon="6.35667"><ele>1007.6</ele><time>2024-05-20T11:03:38Z</time></trkpt>
<trkpt lat="46.59883" lon="6.35658"><ele>1008.6</ele><time>2024-05-20T11:03:44Z</time></trkpt>
<trkpt lat="46.59885" lon="6.35655"><ele>1009</ele><time>2024-05-20T11:03:46Z</time></trkpt>
<trkpt lat="46.59888" lon="6.35647"><ele>1009.8</ele><time>2024-05-20T11:03:51Z</time></trkpt>
<trkpt lat="46.5989" lon="6.35643"><ele>1010.2</ele><time>2024-05-20T11:03:54Z</time></trkpt>
<trkpt lat="46.59893" lon="6.35636"><ele>1010.8</ele><time>2024-05-20T11:03:59Z</time></trkpt>
<trkpt lat="46.59894" lon="6.35635"><ele>1011</ele><time>2024-05-20T11:04:00Z</time></trkpt>
<trkpt lat="46.59899" lon="6.35628"><ele>1012</ele><time>2024-05-20T11:04:07Z</time></trkpt>
<trkpt lat="46.599" lon="6.35627"><ele>1012.2</ele><time>2024-05-20T11:04:08Z</time></trkpt>
<trkpt lat="46.59907" lon="6.35624"><ele>1012.8</ele><time>2024-05-20T11:04:13Z</time></trkpt>
<trkpt lat="46.59909" lon="6.35623"><ele>1013</ele><time>2024-05-20T11:04:15Z</time></trkpt>
<trkpt lat="46.5991" lon="6.35622"><ele>1013</ele><time>2024-05-20T11:04:16Z</time></trkpt>
<trkpt lat="46.59916" lon="6.35622"><ele>1013.8</ele><time>2024-05-20T11:04:22Z</time></trkpt>
<trkpt lat="46.59918" lon="6.35621"><ele>1014.2</ele><time>2024-05-20T11:04:24Z</time></trkpt>
<trkpt lat="46.59924" lon="6.3562"><ele>1014.8</ele><time>2024-05-20T11:04:29Z</time></trkpt>
<trkpt lat="46.5993" lon="6.35617"><ele>1015.4</ele><time>2024-05-20T11:04:34Z</time></trkpt>
<trkpt lat="46.59933" lon="6.35617"><ele>1015.8</ele><time>2024-05-20T11:04:37Z</time></trkpt>
<trkpt lat="46.59933" lon="6.35616"><ele>1016</ele><time>2024-05-20T11:04:38Z</time></trkpt>
<trkpt lat="46.59937" lon="6.35613"><ele>1016.4</ele><time>2024-05-20T11:04:42Z</time></trkpt>
<trkpt lat="46.59938" lon="6.35612"><ele>1016.6</ele><time>2024-05-20T11:04:43Z</time></trkpt>
<trkpt lat="46.5994" lon="6.35611"><ele>1016.8</ele><time>2024-05-20T11:04:45Z</time></trkpt>
<trkpt lat="46.59941" lon="6.35611"><ele>1017.2</ele><time>2024-05-20T11:04:47Z</time></trkpt>
<trkpt lat="46.59945" lon="6.35611"><ele>1017.4</ele><time>2024-05-20T11:04:50Z</time></trkpt>
<trkpt lat="46.59946" lon="6.3561"><ele>1017.8</ele><time>2024-05-20T11:04:51Z</time></trkpt>
<trkpt lat="46.5995" lon="6.35609"><ele>1018.6</ele><time>2024-05-20T11:04:56Z</time></trkpt>
<trkpt lat="46.59953" lon="6.35608"><ele>1018.8</ele><time>2024-05-20T11:04:58Z</time></trkpt>
<trkpt lat="46.5996" lon="6.35604"><ele>1019.6</ele><time>2024-05-20T11:05:04Z</time></trkpt>
<trkpt lat="46.59962" lon="6.35601"><ele>1020</ele><time>2024-05-20T11:05:06Z</time></trkpt>
<trkpt lat="46.59967" lon="6.35597"><ele>1020.6</ele><time>2024-05-20T11:05:11Z</time></trkpt>
<trkpt lat="46.5997" lon="6.35597"><ele>1021.2</ele><time>2024-05-20T11:05:14Z</time></trkpt>
<trkpt lat="46.59975" lon="6.35596"><ele>1021.8</ele><time>2024-05-20T11:05:17Z</time></trkpt>
<trkpt lat="46.5998" lon="6.35594"><ele>1022.2</ele><time>2024-05-20T11:05:20Z</time></trkpt>
<trkpt lat="46.59984" lon="6.35589"><ele>1022.8</ele><time>2024-05-20T11:05:25Z</time></trkpt>
<trkpt lat="46.59986" lon="6.35586"><ele>1023</ele><time>2024-05-20T11:05:27Z</time></trkpt>
<trkpt lat="46.5999" lon="6.35578"><ele>1023.8</ele><time>2024-05-20T11:05:33Z</time></trkpt>
<trkpt lat="46.59993" lon="6.35571"><ele>1024.4</ele><time>2024-05-20T11:05:37Z</time></trkpt>
<trkpt lat="46.59996" lon="6.35567"><ele>1024.8</ele><time>2024-05-20T11:05:40Z</time></trkpt>
<trkpt lat="46.59997" lon="6.35566"><ele>1025</ele><time>2024-05-20T11:05:41Z</time></trkpt>
<trkpt lat="46.6" lon="6.35561"><ele>1025.4</ele><time>2024-05-20T11:05:45Z</time></trkpt>
<trkpt lat="46.60003" lon="6.35556"><ele>1026</ele><time>2024-05-20T11:05:49Z</time></trkpt>
<trkpt lat="46.60005" lon="6.35553"><ele>1026.4</ele><time>2024-05-20T11:05:51Z</time></trkpt>
<trkpt lat="46.6001" lon="6.35546"><ele>1027</ele><time>2024-05-20T11:05:57Z</time></trkpt>
<trkpt lat="46.60011" lon="6.35544"><ele>1027.2</ele><time>2024-05-20T11:05:58Z</time></trkpt>
<trkpt lat="46.60016" lon="6.35535"><ele>1028.2</ele><time>2024-05-20T11:06:05Z</time></trkpt>
<trkpt lat="46.60016" lon="6.35534"><ele>1028.2</ele><time>2024-05-20T11:06:06Z</time></trkpt>
<trkpt lat="46.6002" lon="6.35524"><ele>1029.2</ele><time>2024-05-20T11:06:13Z</time></trkpt>
<trkpt lat="46.60021" lon="6.35521"><ele>1029.4</ele><time>2024-05-20T11:06:15Z</time></trkpt>
<trkpt lat="46.60025" lon="6.35509"><ele>1030.2</ele><time>2024-05-20T11:06:22Z</time></trkpt>
<trkpt lat="46.60029" lon="6.35499"><ele>1031.2</ele><time>2024-05-20T11:06:29Z</time></trkpt>
<trkpt lat="46.60029" lon="6.35497"><ele>1031.4</ele><time>2024-05-20T11:06:30Z</time></trkpt>
<trkpt lat="46.60032" lon="6.35484"><ele>1032.4</ele><time>2024-05-20T11:06:37Z</time></trkpt>
<trkpt lat="46.60033" lon="6.35483"><ele>1032.6</ele><time>2024-05-20T11:06:38Z</time></trkpt>
<trkpt lat="46.60041" lon="6.35477"><ele>1033.4</ele><time>2024-05-20T11:06:45Z</time></trkpt>
<trkpt lat="46.60044" lon="6.35476"><ele>1033.6</ele><time>2024-05-20T11:06:47Z</time></trkpt>
<trkpt lat="46.60055" lon="6.35476"><ele>1034.4</ele><time>2024-05-20T11:06:54Z</time></trkpt>
<trkpt lat="46.60057" lon="6.35476"><ele>1034.4</ele><time>2024-05-20T11:06:55Z</time></trkpt>
<trkpt lat="46.60063" lon="6.35479"><ele>1035</ele><time>2024-05-20T11:07:01Z</time></trkpt>
<trkpt lat="46.6007" lon="6.35487"><ele>1035.6</ele><time>2024-05-20T11:07:08Z</time></trkpt>
<trkpt lat="46.60077" lon="6.35495"><ele>1036</ele><time>2024-05-20T11:07:15Z</time></trkpt>
<trkpt lat="46.60082" lon="6.35504"><ele>1036.6</ele><time>2024-05-20T11:07:20Z</time></trkpt>
<trkpt lat="46.60084" lon="6.35508"><ele>1036.8</ele><time>2024-05-20T11:07:22Z</time></trkpt>
<trkpt lat="46.60092" lon="6.3552"><ele>1037.6</ele><time>2024-05-20T11:07:30Z</time></trkpt>
<trkpt lat="46.60093" lon="6.35521"><ele>1037.8</ele><time>2024-05-20T11:07:31Z</time></trkpt>
<trkpt lat="46.60099" lon="6.3553"><ele>1038.8</ele><time>2024-05-20T11:07:38Z</time></trkpt>
<trkpt lat="46.601" lon="6.35531"><ele>1038.8</ele><time>2024-05-20T11:07:39Z</time></trkpt>
<trkpt lat="46.60107" lon="6.3554"><ele>1039.8</ele><time>2024-05-20T11:07:47Z</time></trkpt>
<trkpt lat="46.60113" lon="6.35547"><ele>1040.8</ele><time>2024-05-20T11:07:54Z</time></trkpt>
<trkpt lat="46.60115" lon="6.35548"><ele>1041</ele><time>2024-05-20T11:07:55Z</time></trkpt>
<trkpt lat="46.60123" lon="6.35555"><ele>1041.6</ele><time>2024-05-20T11:08:01Z</time></trkpt>
<trkpt lat="46.60126" lon="6.35558"><ele>1042.2</ele><time>2024-05-20T11:08:04Z</time></trkpt>
<trkpt lat="46.60132" lon="6.35561"><ele>1042.8</ele><time>2024-05-20T11:08:09Z</time></trkpt>
<trkpt lat="46.60134" lon="6.35561"><ele>1043.2</ele><time>2024-05-20T11:08:11Z</time></trkpt>
<trkpt lat="46.60141" lon="6.35562"><ele>1044</ele><time>2024-05-20T11:08:16Z</time></trkpt>
<trkpt lat="46.60143" lon="6.35562"><ele>1044.2</ele><time>2024-05-20T11:08:18Z</time></trkpt>
<trkpt lat="46.60149" lon="6.35562"><ele>1045</ele><time>2024-05-20T11:08:24Z</time></trkpt>
<trkpt lat="46.60151" lon="6.35561"><ele>1045.2</ele><time>2024-05-20T11:08:26Z</time></trkpt>
<trkpt lat="46.60158" lon="6.35553"><ele>1046.2</ele><time>2024-05-20T11:08:32Z</time></trkpt>
<trkpt lat="46.60159" lon="6.35553"><ele>1046.4</ele><time>2024-05-20T11:08:33Z</time></trkpt>
<trkpt lat="46.60165" lon="6.35547"><ele>1047.2</ele><time>2024-05-20T11:08:40Z</time></trkpt>
<trkpt lat="46.60167" lon="6.35545"><ele>1047.4</ele><time>2024-05-20T11:08:42Z</time></trkpt>
<trkpt lat="46.60172" lon="6.35541"><ele>1048.2</ele><time>2024-05-20T11:08:47Z</time></trkpt>
<trkpt lat="46.60174" lon="6.35538"><ele>1048.6</ele><time>2024-05-20T11:08:49Z</time></trkpt>
<trkpt lat="46.60181" lon="6.35535"><ele>1049.6</ele><time>2024-05-20T11:08:56Z</time></trkpt>
<trkpt lat="46.60191" lon="6.35541"><ele>1050.6</ele><time>2024-05-20T11:09:04Z</time></trkpt>
<trkpt lat="46.60197" lon="6.35552"><ele>1051.8</ele><time>2024-05-20T11:09:12Z</time></trkpt>
<trkpt lat="46.60202" lon="6.35562"><ele>1052.8</ele><time>2024-05-20T11:09:19Z</time></trkpt>
<trkpt lat="46.60203" lon="6.35564"><ele>1053</ele><time>2024-05-20T11:09:20Z</time></trkpt>
<trkpt lat="46.60209" lon="6.35571"><ele>1053.6</ele><time>2024-05-20T11:09:25Z</time></trkpt>
<trkpt lat="46.60212" lon="6.35572"><ele>1054</ele><time>2024-05-20T11:09:28Z</time></trkpt>
<trkpt lat="46.60218" lon="6.35569"><ele>1054.6</ele><time>2024-05-20T11:09:33Z</time></trkpt>
<trkpt lat="46.60218" lon="6.35565"><ele>1055</ele><time>2024-05-20T11:09:35Z</time></trkpt>
<trkpt lat="46.60219" lon="6.35563"><ele>1055.2</ele><time>2024-05-20T11:09:36Z</time></trkpt>
<trkpt lat="46.60219" lon="6.3556"><ele>1055.6</ele><time>2024-05-20T11:09:38Z</time></trkpt>
<trkpt lat="46.60219" lon="6.35555"><ele>1056.2</ele><time>2024-05-20T11:09:42Z</time></trkpt>
<trkpt lat="46.60218" lon="6.35552"><ele>1056.6</ele><time>2024-05-20T11:09:45Z</time></trkpt>
<trkpt lat="46.60217" lon="6.35546"><ele>1057.2</ele><time>2024-05-20T11:09:50Z</time></trkpt>
<trkpt lat="46.60215" lon="6.35541"><ele>1057.6</ele><time>2024-05-20T11:09:53Z</time></trkpt>
<trkpt lat="46.60211" lon="6.35531"><ele>1058.2</ele><time>2024-05-20T11:09:59Z</time></trkpt>
<trkpt lat="46.60211" lon="6.35529"><ele>1058.4</ele><time>2024-05-20T11:10:00Z</time></trkpt>
<trkpt lat="46.60206" lon="6.35518"><ele>1059.2</ele><time>2024-05-20T11:10:08Z</time></trkpt>
<trkpt lat="46.60205" lon="6.35515"><ele>1059.6</ele><time>2024-05-20T11:10:10Z</time></trkpt>
<trkpt lat="46.60203" lon="6.35509"><ele>1059.8</ele><time>2024-05-20T11:10:13Z</time></trkpt>
<trkpt lat="46.60201" lon="6.35505"><ele>1060.2</ele><time>2024-05-20T11:10:16Z</time></trkpt>
<trkpt lat="46.60201" lon="6.35504"><ele>1060.4</ele><time>2024-05-20T11:10:17Z</time></trkpt>
<trkpt lat="46.60194" lon="6.35494"><ele>1061.4</ele><time>2024-05-20T11:10:25Z</time></trkpt>
<trkpt lat="46.60191" lon="6.35492"><ele>1061.8</ele><time>2024-05-20T11:10:28Z</time></trkpt>
<trkpt lat="46.60185" lon="6.3549"><ele>1062.4</ele><time>2024-05-20T11:10:32Z</time></trkpt>
<trkpt lat="46.6018" lon="6.35488"><ele>1063</ele><time>2024-05-20T11:10:36Z</time></trkpt>
<trkpt lat="46.60176" lon="6.35488"><ele>1063.4</ele><time>2024-05-20T11:10:39Z</time></trkpt>
<trkpt lat="46.60168" lon="6.35487"><ele>1064</ele><time>2024-05-20T11:10:44Z</time></trkpt>
<trkpt lat="46.60164" lon="6.35484"><ele>1064.6</ele><time>2024-05-20T11:10:47Z</time></trkpt>
<trkpt lat="46.60158" lon="6.35479"><ele>1065.2</ele><time>2024-05-20T11:10:52Z</time></trkpt>
<trkpt lat="46.60156" lon="6.35473"><ele>1065.6</ele><time>2024-05-20T11:10:55Z</time></trkpt>
<trkpt lat="46.60153" lon="6.35465"><ele>1066.4</ele><time>2024-05-20T11:11:00Z</time></trkpt>
<trkpt lat="46.60151" lon="6.35459"><ele>1066.8</ele><time>2024-05-20T11:11:03Z</time></trkpt>
<trkpt lat="46.6015" lon="6.35453"><ele>1067.2</ele><time>2024-05-20T11:11:06Z</time></trkpt>
<trkpt lat="46.60148" lon="6.35448"><ele>1067.6</ele><time>2024-05-20T11:11:10Z</time></trkpt>
<trkpt lat="46.60148" lon="6.35447"><ele>1067.8</ele><time>2024-05-20T11:11:11Z</time></trkpt>
<trkpt lat="46.60148" lon="6.35443"><ele>1068</ele><time>2024-05-20T11:11:13Z</time></trkpt>
<trkpt lat="46.60149" lon="6.35434"><ele>1068.6</ele><time>2024-05-20T11:11:18Z</time></trkpt>
<trkpt lat="46.60149" lon="6.35427"><ele>1069</ele><time>2024-05-20T11:11:21Z</time></trkpt>
<trkpt lat="46.60148" lon="6.35418"><ele>1069.8</ele><time>2024-05-20T11:11:26Z</time></trkpt>
<trkpt lat="46.60149" lon="6.35412"><ele>1070.2</ele><time>2024-05-20T11:11:29Z</time></trkpt>
<trkpt lat="46.60149" lon="6.354"><ele>1071</ele><time>2024-05-20T11:11:34Z</time></trkpt>
<trkpt lat="46.60149" lon="6.35393"><ele>1071.4</ele><time>2024-05-20T11:11:37Z</time></trkpt>
<trkpt lat="46.60149" lon="6.35389"><ele>1071.6</ele><time>2024-05-20T11:11:39Z</time></trkpt>
<trkpt lat="46.60149" lon="6.35388"><ele>1071.8</ele><time>2024-05-20T11:11:40Z</time></trkpt>
<trkpt lat="46.60148" lon="6.35378"><ele>1072.6</ele><time>2024-05-20T11:11:46Z</time></trkpt>
<trkpt lat="46.60148" lon="6.35377"><ele>1072.8</ele><time>2024-05-20T11:11:47Z</time></trkpt>
<trkpt lat="46.60146" lon="6.35373"><ele>1073.4</ele><time>2024-05-20T11:11:51Z</time></trkpt>
<trkpt lat="46.60145" lon="6.35372"><ele>1073.6</ele><time>2024-05-20T11:11:52Z</time></trkpt>
<trkpt lat="46.60144" lon="6.35371"><ele>1073.6</ele><time>2024-05-20T11:11:53Z</time></trkpt>
<trkpt lat="46.60144" lon="6.35361"><ele>1074.6</ele><time>2024-05-20T11:11:58Z</time></trkpt>
<trkpt lat="46.60143" lon="6.35361"><ele>1074.6</ele><time>2024-05-20T11:11:59Z</time></trkpt>
<trkpt lat="46.60139" lon="6.35355"><ele>1075.2</ele><time>2024-05-20T11:12:04Z</time></trkpt>
<trkpt lat="46.60138" lon="6.35355"><ele>1075.6</ele><time>2024-05-20T11:12:05Z</time></trkpt>
<trkpt lat="46.60137" lon="6.35353"><ele>1075.6</ele><time>2024-05-20T11:12:06Z</time></trkpt>
<trkpt lat="46.60136" lon="6.35351"><ele>1075.6</ele><time>2024-05-20T11:12:07Z</time></trkpt>
<trkpt lat="46.60134" lon="6.35343"><ele>1076.6</ele><time>2024-05-20T11:12:12Z</time></trkpt>
<trkpt lat="46.60133" lon="6.35342"><ele>1076.8</ele><time>2024-05-20T11:12:13Z</time></trkpt>
<trkpt lat="46.60131" lon="6.35332"><ele>1077.4</ele><time>2024-05-20T11:12:19Z</time></trkpt>
<trkpt lat="46.6013" lon="6.35326"><ele>1077.8</ele><time>2024-05-20T11:12:22Z</time></trkpt>
<trkpt lat="46.60128" lon="6.3532"><ele>1078.2</ele><time>2024-05-20T11:12:26Z</time></trkpt>
<trkpt lat="46.60126" lon="6.35313"><ele>1078.8</ele><time>2024-05-20T11:12:30Z</time></trkpt>
<trkpt lat="46.60126" lon="6.35308"><ele>1079.2</ele><time>2024-05-20T11:12:33Z</time></trkpt>
<trkpt lat="46.60124" lon="6.35297"><ele>1080</ele><time>2024-05-20T11:12:39Z</time></trkpt>
<trkpt lat="46.60123" lon="6.35295"><ele>1080</ele><time>2024-05-20T11:12:40Z</time></trkpt>
<trkpt lat="46.60122" lon="6.35287"><ele>1080.8</ele><time>2024-05-20T11:12:45Z</time></trkpt>
<trkpt lat="46.6012" lon="6.35281"><ele>1081.2</ele><time>2024-05-20T11:12:48Z</time></trkpt>
<trkpt lat="46.60119" lon="6.35276"><ele>1081.4</ele><time>2024-05-20T11:12:51Z</time></trkpt>
<trkpt lat="46.60115" lon="6.35273"><ele>1082.2</ele><time>2024-05-20T11:12:55Z</time></trkpt>
<trkpt lat="46.60112" lon="6.35274"><ele>1082.6</ele><time>2024-05-20T11:12:57Z</time></trkpt>
<trkpt lat="46.60105" lon="6.35274"><ele>1083.2</ele><time>2024-05-20T11:13:02Z</time></trkpt>
<trkpt lat="46.60104" lon="6.35275"><ele>1083.2</ele><time>2024-05-20T11:13:03Z</time></trkpt>
<trkpt lat="46.60094" lon="6.35277"><ele>1084.2</ele><time>2024-05-20T11:13:10Z</time></trkpt>
<trkpt lat="46.60085" lon="6.35278"><ele>1085.2</ele><time>2024-05-20T11:13:17Z</time></trkpt>
<trkpt lat="46.60083" lon="6.35278"><ele>1085.4</ele><time>2024-05-20T11:13:18Z</time></trkpt>
<trkpt lat="46.60075" lon="6.35273"><ele>1086.2</ele><time>2024-05-20T11:13:24Z</time></trkpt>
<trkpt lat="46.60074" lon="6.35272"><ele>1086.6</ele><time>2024-05-20T11:13:25Z</time></trkpt>
<trkpt lat="46.60067" lon="6.35266"><ele>1087.6</ele><time>2024-05-20T11:13:32Z</time></trkpt>
<trkpt lat="46.60062" lon="6.35254"><ele>1088.6</ele><time>2024-05-20T11:13:39Z</time></trkpt>
<trkpt lat="46.6006" lon="6.35252"><ele>1088.8</ele><time>2024-05-20T11:13:41Z</time></trkpt>
<trkpt lat="46.60055" lon="6.35243"><ele>1089.6</ele><time>2024-05-20T11:13:47Z</time></trkpt>
<trkpt lat="46.60054" lon="6.35241"><ele>1089.8</ele><time>2024-05-20T11:13:49Z</time></trkpt>
<trkpt lat="46.6005" lon="6.35234"><ele>1090.6</ele><time>2024-05-20T11:13:54Z</time></trkpt>
<trkpt lat="46.6005" lon="6.35232"><ele>1090.6</ele><time>2024-05-20T11:13:55Z</time></trkpt>
<trkpt lat="46.60049" lon="6.35229"><ele>1091</ele><time>2024-05-20T11:13:57Z</time></trkpt>
<trkpt lat="46.60047" lon="6.35227"><ele>1091.2</ele><time>2024-05-20T11:13:59Z</time></trkpt>
<trkpt lat="46.60044" lon="6.35223"><ele>1091.8</ele><time>2024-05-20T11:14:03Z</time></trkpt>
<trkpt lat="46.60042" lon="6.3522"><ele>1092</ele><time>2024-05-20T11:14:05Z</time></trkpt>
<trkpt lat="46.60038" lon="6.35213"><ele>1092.8</ele><time>2024-05-20T11:14:11Z</time></trkpt>
<trkpt lat="46.60035" lon="6.35205"><ele>1093.6</ele><time>2024-05-20T11:14:17Z</time></trkpt>
<trkpt lat="46.60033" lon="6.352"><ele>1094</ele><time>2024-05-20T11:14:20Z</time></trkpt>
<trkpt lat="46.60033" lon="6.35198"><ele>1094.4</ele><time>2024-05-20T11:14:23Z</time></trkpt>
<trkpt lat="46.60032" lon="6.35197"><ele>1094.6</ele><time>2024-05-20T11:14:24Z</time></trkpt>
<trkpt lat="46.6003" lon="6.35194"><ele>1095</ele><time>2024-05-20T11:14:27Z</time></trkpt>
<trkpt lat="46.60025" lon="6.35189"><ele>1095.8</ele><time>2024-05-20T11:14:32Z</time></trkpt>
<trkpt lat="46.60023" lon="6.35187"><ele>1096</ele><time>2024-05-20T11:14:34Z</time></trkpt>
<trkpt lat="46.60017" lon="6.35183"><ele>1096.8</ele><time>2024-05-20T11:14:39Z</time></trkpt>
<trkpt lat="46.60015" lon="6.35183"><ele>1097.2</ele><time>2024-05-20T11:14:41Z</time></trkpt>
<trkpt lat="46.6001" lon="6.35181"><ele>1097.6</ele><time>2024-05-20T11:14:46Z</time></trkpt>
<trkpt lat="46.60008" lon="6.35181"><ele>1098.2</ele><time>2024-05-20T11:14:48Z</time></trkpt>
<trkpt lat="46.60008" lon="6.35182"><ele>1098.2</ele><time>2024-05-20T11:14:49Z</time></trkpt>
<trkpt lat="46.60003" lon="6.35183"><ele>1098.8</ele><time>2024-05-20T11:14:53Z</time></trkpt>
<trkpt lat="46.6" lon="6.35183"><ele>1099.2</ele><time>2024-05-20T11:14:56Z</time></trkpt>
<trkpt lat="46.59997" lon="6.35185"><ele>1099.8</ele><time>2024-05-20T11:15:00Z</time></trkpt>
<trkpt lat="46.59992" lon="6.35184"><ele>1100.4</ele><time>2024-05-20T11:15:04Z</time></trkpt>
<trkpt lat="46.59989" lon="6.35183"><ele>1100.8</ele><time>2024-05-20T11:15:07Z</time></trkpt>
<trkpt lat="46.59985" lon="6.35186"><ele>1101.4</ele><time>2024-05-20T11:15:11Z</time></trkpt>
<trkpt lat="46.5998" lon="6.35188"><ele>1102</ele><time>2024-05-20T11:15:16Z</time></trkpt>
<trkpt lat="46.59977" lon="6.35187"><ele>1102.6</ele><time>2024-05-20T11:15:19Z</time></trkpt>
<trkpt lat="46.59972" lon="6.3519"><ele>1103.2</ele><time>2024-05-20T11:15:25Z</time></trkpt>
<trkpt lat="46.59968" lon="6.35191"><ele>1103.6</ele><time>2024-05-20T11:15:28Z</time></trkpt>
<trkpt lat="46.59962" lon="6.35195"><ele>1104.4</ele><time>2024-05-20T11:15:34Z</time></trkpt>
<trkpt lat="46.59961" lon="6.35196"><ele>1104.6</ele><time>2024-05-20T11:15:35Z</time></trkpt>
<trkpt lat="46.59957" lon="6.35198"><ele>1105.4</ele><time>2024-05-20T11:15:39Z</time></trkpt>
<trkpt lat="46.59955" lon="6.352"><ele>1105.6</ele><time>2024-05-20T11:15:41Z</time></trkpt>
<trkpt lat="46.59953" lon="6.35202"><ele>1105.8</ele><time>2024-05-20T11:15:43Z</time></trkpt>
<trkpt lat="46.59948" lon="6.35207"><ele>1106.2</ele><time>2024-05-20T11:15:47Z</time></trkpt>
<trkpt lat="46.59944" lon="6.35209"><ele>1106.8</ele><time>2024-05-20T11:15:49Z</time></trkpt>
<trkpt lat="46.59938" lon="6.35211"><ele>1107.8</ele><time>2024-05-20T11:15:55Z</time></trkpt>
<trkpt lat="46.59937" lon="6.35212"><ele>1108</ele><time>2024-05-20T11:15:56Z</time></trkpt>
<trkpt lat="46.5993" lon="6.35215"><ele>1109</ele><time>2024-05-20T11:16:02Z</time></trkpt>
<trkpt lat="46.59928" lon="6.35215"><ele>1109</ele><time>2024-05-20T11:16:03Z</time></trkpt>
<trkpt lat="46.5992" lon="6.35215"><ele>1110</ele><time>2024-05-20T11:16:09Z</time></trkpt>
<trkpt lat="46.59919" lon="6.35216"><ele>1110.2</ele><time>2024-05-20T11:16:10Z</time></trkpt>
<trkpt lat="46.5991" lon="6.35221"><ele>1111.2</ele><time>2024-05-20T11:16:17Z</time></trkpt>
<trkpt lat="46.59907" lon="6.35222"><ele>1111.6</ele><time>2024-05-20T11:16:19Z</time></trkpt>
<trkpt lat="46.59901" lon="6.35224"><ele>1112.2</ele><time>2024-05-20T11:16:23Z</time></trkpt>
<trkpt lat="46.59898" lon="6.35226"><ele>1112.8</ele><time>2024-05-20T11:16:26Z</time></trkpt>
<trkpt lat="46.59892" lon="6.35228"><ele>1113.2</ele><time>2024-05-20T11:16:30Z</time></trkpt>
<trkpt lat="46.59886" lon="6.35229"><ele>1113.8</ele><time>2024-05-20T11:16:34Z</time></trkpt>
<trkpt lat="46.59881" lon="6.35231"><ele>1114.4</ele><time>2024-05-20T11:16:38Z</time></trkpt>
<trkpt lat="46.59879" lon="6.35231"><ele>1114.8</ele><time>2024-05-20T11:16:40Z</time></trkpt>
<trkpt lat="46.59877" lon="6.35233"><ele>1115</ele><time>2024-05-20T11:16:42Z</time></trkpt>
<trkpt lat="46.59872" lon="6.35235"><ele>1115.4</ele><time>2024-05-20T11:16:46Z</time></trkpt>
<trkpt lat="46.59871" lon="6.35236"><ele>1115.6</ele><time>2024-05-20T11:16:47Z</time></trkpt>
<trkpt lat="46.59865" lon="6.35238"><ele>1116.2</ele><time>2024-05-20T11:16:51Z</time></trkpt>
<trkpt lat="46.59862" lon="6.35239"><ele>1116.6</ele><time>2024-05-20T11:16:54Z</time></trkpt>
<trkpt lat="46.5986" lon="6.3524"><ele>1116.8</ele><time>2024-05-20T11:16:56Z</time></trkpt>
<trkpt lat="46.59853" lon="6.35242"><ele>1117.6</ele><time>2024-05-20T11:17:02Z</time></trkpt>
<trkpt lat="46.59851" lon="6.35243"><ele>1117.8</ele><time>2024-05-20T11:17:04Z</time></trkpt>
<trkpt lat="46.59845" lon="6.35244"><ele>1118.6</ele><time>2024-05-20T11:17:09Z</time></trkpt>
<trkpt lat="46.59843" lon="6.35244"><ele>1118.8</ele><time>2024-05-20T11:17:11Z</time></trkpt>
<trkpt lat="46.59836" lon="6.35247"><ele>1119.6</ele><time>2024-05-20T11:17:16Z</time></trkpt>
<trkpt lat="46.59835" lon="6.35248"><ele>1119.8</ele><time>2024-05-20T11:17:17Z</time></trkpt>
<trkpt lat="46.59828" lon="6.35253"><ele>1120.8</ele><time>2024-05-20T11:17:23Z</time></trkpt>
<trkpt lat="46.59827" lon="6.35254"><ele>1121</ele><time>2024-05-20T11:17:24Z</time></trkpt>
<trkpt lat="46.59822" lon="6.35259"><ele>1121.6</ele><time>2024-05-20T11:17:29Z</time></trkpt>
<trkpt lat="46.59822" lon="6.35261"><ele>1121.8</ele><time>2024-05-20T11:17:30Z</time></trkpt>
<trkpt lat="46.59813" lon="6.35269"><ele>1123</ele><time>2024-05-20T11:17:37Z</time></trkpt>
<trkpt lat="46.59806" lon="6.35274"><ele>1124</ele><time>2024-05-20T11:17:44Z</time></trkpt>
<trkpt lat="46.59805" lon="6.35275"><ele>1124.2</ele><time>2024-05-20T11:17:45Z</time></trkpt>
<trkpt lat="46.59797" lon="6.35281"><ele>1125.2</ele><time>2024-05-20T11:17:51Z</time></trkpt>
<trkpt lat="46.59796" lon="6.35281"><ele>1125.4</ele><time>2024-05-20T11:17:52Z</time></trkpt>
<trkpt lat="46.59789" lon="6.35288"><ele>1126</ele><time>2024-05-20T11:17:59Z</time></trkpt>
<trkpt lat="46.59786" lon="6.35289"><ele>1126.4</ele><time>2024-05-20T11:18:01Z</time></trkpt>
<trkpt lat="46.5978" lon="6.35295"><ele>1127.2</ele><time>2024-05-20T11:18:07Z</time></trkpt>
<trkpt lat="46.59778" lon="6.35297"><ele>1127.8</ele><time>2024-05-20T11:18:09Z</time></trkpt>
<trkpt lat="46.59771" lon="6.35303"><ele>1128.4</ele><time>2024-05-20T11:18:15Z</time></trkpt>
<trkpt lat="46.59769" lon="6.35306"><ele>1128.8</ele><time>2024-05-20T11:18:17Z</time></trkpt>
<trkpt lat="46.59763" lon="6.35312"><ele>1129.6</ele><time>2024-05-20T11:18:23Z</time></trkpt>
<trkpt lat="46.59762" lon="6.35313"><ele>1129.8</ele><time>2024-05-20T11:18:24Z</time></trkpt>
<trkpt lat="46.59754" lon="6.35319"><ele>1130.8</ele><time>2024-05-20T11:18:31Z</time></trkpt>
<trkpt lat="46.59753" lon="6.3532"><ele>1131</ele><time>2024-05-20T11:18:32Z</time></trkpt>
<trkpt lat="46.59742" lon="6.35326"><ele>1132</ele><time>2024-05-20T11:18:39Z</time></trkpt>
<trkpt lat="46.59739" lon="6.35327"><ele>1132</ele><time>2024-05-20T11:18:40Z</time></trkpt>
<trkpt lat="46.59729" lon="6.35332"><ele>1133</ele><time>2024-05-20T11:18:47Z</time></trkpt>
<trkpt lat="46.59728" lon="6.35332"><ele>1133.2</ele><time>2024-05-20T11:18:48Z</time></trkpt>
<trkpt lat="46.59719" lon="6.35332"><ele>1134.2</ele><time>2024-05-20T11:18:54Z</time></trkpt>
<trkpt lat="46.59716" lon="6.3533"><ele>1134.6</ele><time>2024-05-20T11:18:56Z</time></trkpt>
<trkpt lat="46.59711" lon="6.35328"><ele>1135.4</ele><time>2024-05-20T11:19:00Z</time></trkpt>
<trkpt lat="46.59705" lon="6.35325"><ele>1136</ele><time>2024-05-20T11:19:04Z</time></trkpt>
<trkpt lat="46.59701" lon="6.35322"><ele>1136.6</ele><time>2024-05-20T11:19:07Z</time></trkpt>
<trkpt lat="46.59696" lon="6.35319"><ele>1137.2</ele><time>2024-05-20T11:19:11Z</time></trkpt>
<trkpt lat="46.59693" lon="6.35317"><ele>1137.6</ele><time>2024-05-20T11:19:13Z</time></trkpt>
<trkpt lat="46.59687" lon="6.35312"><ele>1138.4</ele><time>2024-05-20T11:19:18Z</time></trkpt>
<trkpt lat="46.59686" lon="6.35311"><ele>1138.6</ele><time>2024-05-20T11:19:19Z</time></trkpt>
<trkpt lat="46.59683" lon="6.3531"><ele>1139</ele><time>2024-05-20T11:19:21Z</time></trkpt>
<trkpt lat="46.59679" lon="6.35306"><ele>1139.4</ele><time>2024-05-20T11:19:25Z</time></trkpt>
<trkpt lat="46.59678" lon="6.35304"><ele>1139.8</ele><time>2024-05-20T11:19:26Z</time></trkpt>
<trkpt lat="46.59672" lon="6.353"><ele>1140.4</ele><time>2024-05-20T11:19:31Z</time></trkpt>
<trkpt lat="46.5967" lon="6.35298"><ele>1140.8</ele><time>2024-05-20T11:19:33Z</time></trkpt>
<trkpt lat="46.59666" lon="6.35293"><ele>1141.4</ele><time>2024-05-20T11:19:37Z</time></trkpt>
<trkpt lat="46.59665" lon="6.3529"><ele>1141.6</ele><time>2024-05-20T11:19:39Z</time></trkpt>
<trkpt lat="46.59664" lon="6.35289"><ele>1141.8</ele><time>2024-05-20T11:19:40Z</time></trkpt>
<trkpt lat="46.59659" lon="6.35278"><ele>1143</ele><time>2024-05-20T11:19:47Z</time></trkpt>
<trkpt lat="46.59651" lon="6.35268"><ele>1144</ele><time>2024-05-20T11:19:55Z</time></trkpt>
<trkpt lat="46.59649" lon="6.35266"><ele>1144</ele><time>2024-05-20T11:19:56Z</time></trkpt>
<trkpt lat="46.59643" lon="6.3526"><ele>1145</ele><time>2024-05-20T11:20:02Z</time></trkpt>
<trkpt lat="46.59641" lon="6.35258"><ele>1145.2</ele><time>2024-05-20T11:20:04Z</time></trkpt>
<trkpt lat="46.59634" lon="6.35253"><ele>1146.2</ele><time>2024-05-20T11:20:10Z</time></trkpt>
<trkpt lat="46.59631" lon="6.3525"><ele>1146.6</ele><time>2024-05-20T11:20:13Z</time></trkpt>
<trkpt lat="46.59626" lon="6.35244"><ele>1147.4</ele><time>2024-05-20T11:20:18Z</time></trkpt>
<trkpt lat="46.59625" lon="6.35244"><ele>1147.4</ele><time>2024-05-20T11:20:19Z</time></trkpt>
<trkpt lat="46.59624" lon="6.35243"><ele>1147.6</ele><time>2024-05-20T11:20:20Z</time></trkpt>
<trkpt lat="46.59617" lon="6.35238"><ele>1148.4</ele><time>2024-05-20T11:20:25Z</time></trkpt>
<trkpt lat="46.59614" lon="6.35235"><ele>1148.8</ele><time>2024-05-20T11:20:28Z</time></trkpt>
<trkpt lat="46.59608" lon="6.35232"><ele>1149.4</ele><time>2024-05-20T11:20:32Z</time></trkpt>
<trkpt lat="46.59605" lon="6.35228"><ele>1149.8</ele><time>2024-05-20T11:20:35Z</time></trkpt>
<trkpt lat="46.596" lon="6.35223"><ele>1150.4</ele><time>2024-05-20T11:20:39Z</time></trkpt>
<trkpt lat="46.59597" lon="6.35219"><ele>1151</ele><time>2024-05-20T11:20:42Z</time></trkpt>
<trkpt lat="46.59592" lon="6.35213"><ele>1151.6</ele><time>2024-05-20T11:20:47Z</time></trkpt>
<trkpt lat="46.59589" lon="6.3521"><ele>1152</ele><time>2024-05-20T11:20:50Z</time></trkpt>
<trkpt lat="46.59584" lon="6.35204"><ele>1152.6</ele><time>2024-05-20T11:20:54Z</time></trkpt>
<trkpt lat="46.5958" lon="6.35198"><ele>1153.2</ele><time>2024-05-20T11:20:58Z</time></trkpt>
<trkpt lat="46.59578" lon="6.35195"><ele>1153.6</ele><time>2024-05-20T11:21:00Z</time></trkpt>
<trkpt lat="46.59574" lon="6.35189"><ele>1154.4</ele><time>2024-05-20T11:21:05Z</time></trkpt>
<trkpt lat="46.59574" lon="6.35187"><ele>1154.6</ele><time>2024-05-20T11:21:06Z</time></trkpt>
<trkpt lat="46.59569" lon="6.35177"><ele>1155.6</ele><time>2024-05-20T11:21:12Z</time></trkpt>
<trkpt lat="46.59568" lon="6.35176"><ele>1155.8</ele><time>2024-05-20T11:21:13Z</time></trkpt>
<trkpt lat="46.59563" lon="6.3517"><ele>1157</ele><time>2024-05-20T11:21:19Z</time></trkpt>
<trkpt lat="46.59561" lon="6.35168"><ele>1157.2</ele><time>2024-05-20T11:21:21Z</time></trkpt>
<trkpt lat="46.59556" lon="6.3516"><ele>1158</ele><time>2024-05-20T11:21:26Z</time></trkpt>
<trkpt lat="46.59553" lon="6.35155"><ele>1158.6</ele><time>2024-05-20T11:21:29Z</time></trkpt>
<trkpt lat="46.59549" lon="6.35149"><ele>1159.2</ele><time>2024-05-20T11:21:33Z</time></trkpt>
<trkpt lat="46.59548" lon="6.35148"><ele>1159.4</ele><time>2024-05-20T11:21:34Z</time></trkpt>
<trkpt lat="46.59548" lon="6.35148"><ele>1159.4</ele><time>2024-05-20T11:21:35Z</time></trkpt>
<trkpt lat="46.59546" lon="6.35145"><ele>1159.6</ele><time>2024-05-20T11:21:37Z</time></trkpt>
<trkpt lat="46.59543" lon="6.35137"><ele>1160.2</ele><time>2024-05-20T11:21:41Z</time></trkpt>
<trkpt lat="46.59541" lon="6.3513"><ele>1161</ele><time>2024-05-20T11:21:45Z</time></trkpt>
<trkpt lat="46.5954" lon="6.35124"><ele>1161.4</ele><time>2024-05-20T11:21:48Z</time></trkpt>
<trkpt lat="46.59535" lon="6.35118"><ele>1162.2</ele><time>2024-05-20T11:21:53Z</time></trkpt>
<trkpt lat="46.59532" lon="6.35113"><ele>1162.6</ele><time>2024-05-20T11:21:56Z</time></trkpt>
<trkpt lat="46.5953" lon="6.35108"><ele>1163</ele><time>2024-05-20T11:21:59Z</time></trkpt>
<trkpt lat="46.59528" lon="6.35103"><ele>1163.6</ele><time>2024-05-20T11:22:02Z</time></trkpt>
<trkpt lat="46.59523" lon="6.35097"><ele>1164</ele><time>2024-05-20T11:22:07Z</time></trkpt>
<trkpt lat="46.59522" lon="6.35092"><ele>1164.6</ele><time>2024-05-20T11:22:10Z</time></trkpt>
<trkpt lat="46.5952" lon="6.35089"><ele>1165</ele><time>2024-05-20T11:22:13Z</time></trkpt>
<trkpt lat="46.59518" lon="6.35085"><ele>1165.6</ele><time>2024-05-20T11:22:16Z</time></trkpt>
<trkpt lat="46.59515" lon="6.3508"><ele>1165.8</ele><time>2024-05-20T11:22:19Z</time></trkpt>
<trkpt lat="46.59509" lon="6.3507"><ele>1166.8</ele><time>2024-05-20T11:22:26Z</time></trkpt>
<trkpt lat="46.59504" lon="6.35059"><ele>1167.8</ele><time>2024-05-20T11:22:33Z</time></trkpt>
<trkpt lat="46.595" lon="6.35046"><ele>1169</ele><time>2024-05-20T11:22:40Z</time></trkpt>
<trkpt lat="46.59499" lon="6.35045"><ele>1169</ele><time>2024-05-20T11:22:41Z</time></trkpt>
<trkpt lat="46.59498" lon="6.35042"><ele>1169.6</ele><time>2024-05-20T11:22:43Z</time></trkpt>
<trkpt lat="46.59498" lon="6.35035"><ele>1170.2</ele><time>2024-05-20T11:22:47Z</time></trkpt>
<trkpt lat="46.59497" lon="6.35033"><ele>1170.2</ele><time>2024-05-20T11:22:48Z</time></trkpt>
<trkpt lat="46.59495" lon="6.35023"><ele>1171.2</ele><time>2024-05-20T11:22:54Z</time></trkpt>
<trkpt lat="46.59494" lon="6.35019"><ele>1171.4</ele><time>2024-05-20T11:22:56Z</time></trkpt>
<trkpt lat="46.59492" lon="6.35011"><ele>1172.2</ele><time>2024-05-20T11:23:02Z</time></trkpt>
<trkpt lat="46.59491" lon="6.35"><ele>1173.2</ele><time>2024-05-20T11:23:09Z</time></trkpt>
<trkpt lat="46.59491" lon="6.34997"><ele>1173.4</ele><time>2024-05-20T11:23:11Z</time></trkpt>
<trkpt lat="46.5949" lon="6.34994"><ele>1173.6</ele><time>2024-05-20T11:23:13Z</time></trkpt>
<trkpt lat="46.5949" lon="6.3499"><ele>1174</ele><time>2024-05-20T11:23:15Z</time></trkpt>
<trkpt lat="46.5949" lon="6.34983"><ele>1174.4</ele><time>2024-05-20T11:23:19Z</time></trkpt>
<trkpt lat="46.5949" lon="6.3498"><ele>1174.8</ele><time>2024-05-20T11:23:22Z</time></trkpt>
<trkpt lat="46.59489" lon="6.34969"><ele>1175.4</ele><time>2024-05-20T11:23:28Z</time></trkpt>
<trkpt lat="46.59489" lon="6.34965"><ele>1175.8</ele><time>2024-05-20T11:23:30Z</time></trkpt>
<trkpt lat="46.59489" lon="6.34954"><ele>1176.6</ele><time>2024-05-20T11:23:36Z</time></trkpt>
<trkpt lat="46.5949" lon="6.3495"><ele>1177</ele><time>2024-05-20T11:23:39Z</time></trkpt>
<trkpt lat="46.59489" lon="6.34943"><ele>1177.8</ele><time>2024-05-20T11:23:45Z</time></trkpt>
<trkpt lat="46.5949" lon="6.34941"><ele>1178</ele><time>2024-05-20T11:23:47Z</time></trkpt>
<trkpt lat="46.59489" lon="6.34928"><ele>1179</ele><time>2024-05-20T11:23:55Z</time></trkpt>
<trkpt lat="46.5949" lon="6.34926"><ele>1179.2</ele><time>2024-05-20T11:23:56Z</time></trkpt>
<trkpt lat="46.5949" lon="6.34916"><ele>1180</ele><time>2024-05-20T11:24:03Z</time></trkpt>
<trkpt lat="46.59489" lon="6.34904"><ele>1181</ele><time>2024-05-20T11:24:11Z</time></trkpt>
<trkpt lat="46.59489" lon="6.34902"><ele>1181</ele><time>2024-05-20T11:24:12Z</time></trkpt>
<trkpt lat="46.59486" lon="6.34893"><ele>1182.2</ele><time>2024-05-20T11:24:18Z</time></trkpt>
<trkpt lat="46.5948" lon="6.34885"><ele>1183</ele><time>2024-05-20T11:24:24Z</time></trkpt>
<trkpt lat="46.59479" lon="6.34884"><ele>1183.2</ele><time>2024-05-20T11:24:25Z</time></trkpt>
<trkpt lat="46.59475" lon="6.34877"><ele>1183.8</ele><time>2024-05-20T11:24:31Z</time></trkpt>
<trkpt lat="46.59473" lon="6.34875"><ele>1184.4</ele><time>2024-05-20T11:24:33Z</time></trkpt>
<trkpt lat="46.5947" lon="6.34869"><ele>1185</ele><time>2024-05-20T11:24:38Z</time></trkpt>
<trkpt lat="46.59466" lon="6.34864"><ele>1185.4</ele><time>2024-05-20T11:24:41Z</time></trkpt>
<trkpt lat="46.59463" lon="6.34859"><ele>1185.8</ele><time>2024-05-20T11:24:44Z</time></trkpt>
<trkpt lat="46.59459" lon="6.34853"><ele>1186.6</ele><time>2024-05-20T11:24:49Z</time></trkpt>
<trkpt lat="46.59459" lon="6.34852"><ele>1186.8</ele><time>2024-05-20T11:24:50Z</time></trkpt>
<trkpt lat="46.59455" lon="6.34844"><ele>1187.4</ele><time>2024-05-20T11:24:56Z</time></trkpt>
<trkpt lat="46.59454" lon="6.34842"><ele>1187.6</ele><time>2024-05-20T11:24:57Z</time></trkpt>
<trkpt lat="46.5945" lon="6.34833"><ele>1188.6</ele><time>2024-05-20T11:25:03Z</time></trkpt>
<trkpt lat="46.59449" lon="6.34832"><ele>1188.8</ele><time>2024-05-20T11:25:04Z</time></trkpt>
<trkpt lat="46.59445" lon="6.34822"><ele>1189.8</ele><time>2024-05-20T11:25:10Z</time></trkpt>
<trkpt lat="46.59445" lon="6.3482"><ele>1190</ele><time>2024-05-20T11:25:11Z</time></trkpt>
<trkpt lat="46.5944" lon="6.3481"><ele>1191</ele><time>2024-05-20T11:25:17Z</time></trkpt>
<trkpt lat="46.59439" lon="6.34806"><ele>1191.2</ele><time>2024-05-20T11:25:19Z</time></trkpt>
<trkpt lat="46.59436" lon="6.34799"><ele>1192</ele><time>2024-05-20T11:25:23Z</time></trkpt>
<trkpt lat="46.59434" lon="6.34795"><ele>1192.6</ele><time>2024-05-20T11:25:26Z</time></trkpt>
<trkpt lat="46.59431" lon="6.34791"><ele>1193</ele><time>2024-05-20T11:25:29Z</time></trkpt>
<trkpt lat="46.59424" lon="6.34786"><ele>1194</ele><time>2024-05-20T11:25:35Z</time></trkpt>
<trkpt lat="46.59423" lon="6.34784"><ele>1194.2</ele><time>2024-05-20T11:25:36Z</time></trkpt>
<trkpt lat="46.59417" lon="6.34779"><ele>1194.8</ele><time>2024-05-20T11:25:41Z</time></trkpt>
<trkpt lat="46.59415" lon="6.34777"><ele>1195.2</ele><time>2024-05-20T11:25:43Z</time></trkpt>
<trkpt lat="46.59409" lon="6.34772"><ele>1196</ele><time>2024-05-20T11:25:49Z</time></trkpt>
<trkpt lat="46.59406" lon="6.34769"><ele>1196.2</ele><time>2024-05-20T11:25:52Z</time></trkpt>
<trkpt lat="46.59399" lon="6.34762"><ele>1197.2</ele><time>2024-05-20T11:25:58Z</time></trkpt>
<trkpt lat="46.59393" lon="6.34754"><ele>1198.4</ele><time>2024-05-20T11:26:06Z</time></trkpt>
<trkpt lat="46.59392" lon="6.34752"><ele>1198.8</ele><time>2024-05-20T11:26:08Z</time></trkpt>
<trkpt lat="46.5939" lon="6.34749"><ele>1199</ele><time>2024-05-20T11:26:10Z</time></trkpt>
<trkpt lat="46.59389" lon="6.34747"><ele>1199.2</ele><time>2024-05-20T11:26:11Z</time></trkpt>
<trkpt lat="46.59389" lon="6.34744"><ele>1199.6</ele><time>2024-05-20T11:26:13Z</time></trkpt>
<trkpt lat="46.59386" lon="6.34733"><ele>1200.2</ele><time>2024-05-20T11:26:18Z</time></trkpt>
<trkpt lat="46.59384" lon="6.34728"><ele>1200.6</ele><time>2024-05-20T11:26:21Z</time></trkpt>
<trkpt lat="46.5938" lon="6.34721"><ele>1201.4</ele><time>2024-05-20T11:26:27Z</time></trkpt>
<trkpt lat="46.59377" lon="6.34718"><ele>1201.8</ele><time>2024-05-20T11:26:30Z</time></trkpt>
<trkpt lat="46.59375" lon="6.34712"><ele>1202.2</ele><time>2024-05-20T11:26:34Z</time></trkpt>
<trkpt lat="46.59374" lon="6.34704"><ele>1202.8</ele><time>2024-05-20T11:26:38Z</time></trkpt>
<trkpt lat="46.59373" lon="6.34698"><ele>1203.4</ele><time>2024-05-20T11:26:41Z</time></trkpt>
<trkpt lat="46.59371" lon="6.34692"><ele>1203.8</ele><time>2024-05-20T11:26:45Z</time></trkpt>
<trkpt lat="46.59369" lon="6.34688"><ele>1204.4</ele><time>2024-05-20T11:26:48Z</time></trkpt>
<trkpt lat="46.59367" lon="6.34684"><ele>1205</ele><time>2024-05-20T11:26:52Z</time></trkpt>
<trkpt lat="46.59365" lon="6.3468"><ele>1205.4</ele><time>2024-05-20T11:26:55Z</time></trkpt>
<trkpt lat="46.59363" lon="6.34675"><ele>1205.8</ele><time>2024-05-20T11:26:58Z</time></trkpt>
<trkpt lat="46.59362" lon="6.34672"><ele>1206.2</ele><time>2024-05-20T11:27:00Z</time></trkpt>
<trkpt lat="46.59361" lon="6.34669"><ele>1206.4</ele><time>2024-05-20T11:27:02Z</time></trkpt>
<trkpt lat="46.5936" lon="6.34661"><ele>1207.4</ele><time>2024-05-20T11:27:07Z</time></trkpt>
<trkpt lat="46.5936" lon="6.34659"><ele>1207.6</ele><time>2024-05-20T11:27:09Z</time></trkpt>
<trkpt lat="46.59359" lon="6.34653"><ele>1208</ele><time>2024-05-20T11:27:12Z</time></trkpt>
<trkpt lat="46.59357" lon="6.34649"><ele>1208.4</ele><time>2024-05-20T11:27:15Z</time></trkpt>
<trkpt lat="46.59352" lon="6.34638"><ele>1209.6</ele><time>2024-05-20T11:27:25Z</time></trkpt>
<trkpt lat="46.59348" lon="6.34628"><ele>1210.4</ele><time>2024-05-20T11:27:32Z</time></trkpt>
<trkpt lat="46.59347" lon="6.34625"><ele>1210.8</ele><time>2024-05-20T11:27:34Z</time></trkpt>
<trkpt lat="46.59342" lon="6.3462"><ele>1211.4</ele><time>2024-05-20T11:27:39Z</time></trkpt>
<trkpt lat="46.5934" lon="6.34617"><ele>1211.8</ele><time>2024-05-20T11:27:42Z</time></trkpt>
<trkpt lat="46.59334" lon="6.3461"><ele>1212.6</ele><time>2024-05-20T11:27:49Z</time></trkpt>
<trkpt lat="46.59333" lon="6.34608"><ele>1212.8</ele><time>2024-05-20T11:27:51Z</time></trkpt>
<trkpt lat="46.5933" lon="6.34602"><ele>1213.4</ele><time>2024-05-20T11:27:56Z</time></trkpt>
<trkpt lat="46.59329" lon="6.34597"><ele>1213.8</ele><time>2024-05-20T11:27:59Z</time></trkpt>
<trkpt lat="46.59324" lon="6.34592"><ele>1214.6</ele><time>2024-05-20T11:28:05Z</time></trkpt>
<trkpt lat="46.59321" lon="6.34588"><ele>1215</ele><time>2024-05-20T11:28:09Z</time></trkpt>
<trkpt lat="46.59318" lon="6.34586"><ele>1215.6</ele><time>2024-05-20T11:28:13Z</time></trkpt>
<trkpt lat="46.59315" lon="6.34582"><ele>1216</ele><time>2024-05-20T11:28:16Z</time></trkpt>
<trkpt lat="46.59313" lon="6.34579"><ele>1216.2</ele><time>2024-05-20T11:28:19Z</time></trkpt>
<trkpt lat="46.59307" lon="6.3457"><ele>1217</ele><time>2024-05-20T11:28:26Z</time></trkpt>
<trkpt lat="46.59307" lon="6.34569"><ele>1217</ele><time>2024-05-20T11:28:27Z</time></trkpt>
<trkpt lat="46.59304" lon="6.3456"><ele>1217.8</ele><time>2024-05-20T11:28:34Z</time></trkpt>
<trkpt lat="46.59302" lon="6.34556"><ele>1218.2</ele><time>2024-05-20T11:28:36Z</time></trkpt>
<trkpt lat="46.59299" lon="6.3455"><ele>1218.8</ele><time>2024-05-20T11:28:41Z</time></trkpt>
<trkpt lat="46.59297" lon="6.34544"><ele>1219.2</ele><time>2024-05-20T11:28:46Z</time></trkpt>
<trkpt lat="46.59296" lon="6.34542"><ele>1219.4</ele><time>2024-05-20T11:28:48Z</time></trkpt>
<trkpt lat="46.59294" lon="6.34534"><ele>1220.2</ele><time>2024-05-20T11:28:55Z</time></trkpt>
<trkpt lat="46.59293" lon="6.34532"><ele>1220.4</ele><time>2024-05-20T11:28:56Z</time></trkpt>
<trkpt lat="46.5929" lon="6.34526"><ele>1221</ele><time>2024-05-20T11:29:01Z</time></trkpt>
<trkpt lat="46.5929" lon="6.34524"><ele>1221.2</ele><time>2024-05-20T11:29:02Z</time></trkpt>
<trkpt lat="46.59289" lon="6.34522"><ele>1221.2</ele><time>2024-05-20T11:29:04Z</time></trkpt>
<trkpt lat="46.59286" lon="6.34518"><ele>1221.8</ele><time>2024-05-20T11:29:08Z</time></trkpt>
<trkpt lat="46.59285" lon="6.34513"><ele>1222.2</ele><time>2024-05-20T11:29:12Z</time></trkpt>
<trkpt lat="46.59283" lon="6.3451"><ele>1222.6</ele><time>2024-05-20T11:29:15Z</time></trkpt>
<trkpt lat="46.59279" lon="6.34502"><ele>1223.6</ele><time>2024-05-20T11:29:22Z</time></trkpt>
<trkpt lat="46.59275" lon="6.34494"><ele>1224.4</ele><time>2024-05-20T11:29:29Z</time></trkpt>
<trkpt lat="46.59274" lon="6.34491"><ele>1224.6</ele><time>2024-05-20T11:29:32Z</time></trkpt>
<trkpt lat="46.59273" lon="6.34489"><ele>1224.8</ele><time>2024-05-20T11:29:33Z</time></trkpt>
<trkpt lat="46.59273" lon="6.34488"><ele>1224.8</ele><time>2024-05-20T11:29:34Z</time></trkpt>
<trkpt lat="46.59268" lon="6.34481"><ele>1225.8</ele><time>2024-05-20T11:29:41Z</time></trkpt>
<trkpt lat="46.59268" lon="6.3448"><ele>1225.8</ele><time>2024-05-20T11:29:42Z</time></trkpt>
<trkpt lat="46.59263" lon="6.34469"><ele>1226.8</ele><time>2024-05-20T11:29:51Z</time></trkpt>
<trkpt lat="46.59258" lon="6.34461"><ele>1227.8</ele><time>2024-05-20T11:29:58Z</time></trkpt>
<trkpt lat="46.59257" lon="6.3446"><ele>1227.8</ele><time>2024-05-20T11:29:59Z</time></trkpt>
<trkpt lat="46.59254" lon="6.34452"><ele>1228.4</ele><time>2024-05-20T11:30:04Z</time></trkpt>
<trkpt lat="46.59251" lon="6.34448"><ele>1229</ele><time>2024-05-20T11:30:08Z</time></trkpt>
<trkpt lat="46.5925" lon="6.34447"><ele>1229</ele><time>2024-05-20T11:30:10Z</time></trkpt>
<trkpt lat="46.59247" lon="6.34442"><ele>1229.6</ele><time>2024-05-20T11:30:15Z</time></trkpt>
<trkpt lat="46.59245" lon="6.34439"><ele>1230</ele><time>2024-05-20T11:30:18Z</time></trkpt>
<trkpt lat="46.59245" lon="6.34436"><ele>1230.2</ele><time>2024-05-20T11:30:20Z</time></trkpt>
<trkpt lat="46.59244" lon="6.34433"><ele>1230.6</ele><time>2024-05-20T11:30:22Z</time></trkpt>
<trkpt lat="46.59242" lon="6.34428"><ele>1231</ele><time>2024-05-20T11:30:26Z</time></trkpt>
<trkpt lat="46.59238" lon="6.34419"><ele>1231.8</ele><time>2024-05-20T11:30:34Z</time></trkpt>
<trkpt lat="46.59236" lon="6.34415"><ele>1232</ele><time>2024-05-20T11:30:37Z</time></trkpt>
<trkpt lat="46.59234" lon="6.34412"><ele>1232.6</ele><time>2024-05-20T11:30:40Z</time></trkpt>
<trkpt lat="46.59233" lon="6.34412"><ele>1232.6</ele><time>2024-05-20T11:30:41Z</time></trkpt>
<trkpt lat="46.59228" lon="6.34406"><ele>1233.2</ele><time>2024-05-20T11:30:47Z</time></trkpt>
<trkpt lat="46.59227" lon="6.34403"><ele>1233.4</ele><time>2024-05-20T11:30:49Z</time></trkpt>
<trkpt lat="46.59222" lon="6.34396"><ele>1234</ele><time>2024-05-20T11:30:56Z</time></trkpt>
<trkpt lat="46.59221" lon="6.34396"><ele>1234.2</ele><time>2024-05-20T11:30:57Z</time></trkpt>
<trkpt lat="46.59218" lon="6.3439"><ele>1234.8</ele><time>2024-05-20T11:31:02Z</time></trkpt>
<trkpt lat="46.59217" lon="6.34387"><ele>1235</ele><time>2024-05-20T11:31:04Z</time></trkpt>
<trkpt lat="46.59215" lon="6.34384"><ele>1235.2</ele><time>2024-05-20T11:31:07Z</time></trkpt>
<trkpt lat="46.59215" lon="6.34382"><ele>1235.2</ele><time>2024-05-20T11:31:08Z</time></trkpt>
<trkpt lat="46.59213" lon="6.34378"><ele>1235.6</ele><time>2024-05-20T11:31:11Z</time></trkpt>
<trkpt lat="46.59212" lon="6.34376"><ele>1235.8</ele><time>2024-05-20T11:31:13Z</time></trkpt>
<trkpt lat="46.59209" lon="6.34372"><ele>1236.4</ele><time>2024-05-20T11:31:18Z</time></trkpt>
<trkpt lat="46.59208" lon="6.34369"><ele>1236.6</ele><time>2024-05-20T11:31:20Z</time></trkpt>
<trkpt lat="46.59207" lon="6.34364"><ele>1237</ele><time>2024-05-20T11:31:25Z</time></trkpt>
<trkpt lat="46.59205" lon="6.34359"><ele>1237.4</ele><time>2024-05-20T11:31:29Z</time></trkpt>
<trkpt lat="46.59201" lon="6.3435"><ele>1238.2</ele><time>2024-05-20T11:31:37Z</time></trkpt>
<trkpt lat="46.59201" lon="6.34348"><ele>1238.6</ele><time>2024-05-20T11:31:40Z</time></trkpt>
<trkpt lat="46.59199" lon="6.34344"><ele>1239</ele><time>2024-05-20T11:31:44Z</time></trkpt>
<trkpt lat="46.59196" lon="6.34339"><ele>1239.2</ele><time>2024-05-20T11:31:48Z</time></trkpt>
<trkpt lat="46.59195" lon="6.34333"><ele>1239.8</ele><time>2024-05-20T11:31:52Z</time></trkpt>
<trkpt lat="46.59194" lon="6.34333"><ele>1239.8</ele><time>2024-05-20T11:31:53Z</time></trkpt>
<trkpt lat="46.59193" lon="6.34331"><ele>1239.8</ele><time>2024-05-20T11:31:54Z</time></trkpt>
<trkpt lat="46.5919" lon="6.34327"><ele>1240.4</ele><time>2024-05-20T11:31:57Z</time></trkpt>
<trkpt lat="46.59188" lon="6.34323"><ele>1240.6</ele><time>2024-05-20T11:32:00Z</time></trkpt>
<trkpt lat="46.59187" lon="6.34321"><ele>1240.8</ele><time>2024-05-20T11:32:02Z</time></trkpt>
<trkpt lat="46.59184" lon="6.34316"><ele>1241.2</ele><time>2024-05-20T11:32:07Z</time></trkpt>
<trkpt lat="46.59182" lon="6.34311"><ele>1241.8</ele><time>2024-05-20T11:32:12Z</time></trkpt>
<trkpt lat="46.59181" lon="6.34309"><ele>1242</ele><time>2024-05-20T11:32:15Z</time></trkpt>
<trkpt lat="46.59179" lon="6.34303"><ele>1242.6</ele><time>2024-05-20T11:32:21Z</time></trkpt>
<trkpt lat="46.59177" lon="6.343"><ele>1243</ele><time>2024-05-20T11:32:24Z</time></trkpt>
<trkpt lat="46.59176" lon="6.34297"><ele>1243.2</ele><time>2024-05-20T11:32:27Z</time></trkpt>
<trkpt lat="46.59172" lon="6.34286"><ele>1244.2</ele><time>2024-05-20T11:32:35Z</time></trkpt>
<trkpt lat="46.5917" lon="6.34273"><ele>1245</ele><time>2024-05-20T11:32:44Z</time></trkpt>
<trkpt lat="46.59169" lon="6.34271"><ele>1245.2</ele><time>2024-05-20T11:32:46Z</time></trkpt>
<trkpt lat="46.59167" lon="6.34267"><ele>1245.4</ele><time>2024-05-20T11:32:50Z</time></trkpt>
<trkpt lat="46.59165" lon="6.34263"><ele>1246</ele><time>2024-05-20T11:32:56Z</time></trkpt>
<trkpt lat="46.59164" lon="6.34259"><ele>1246.2</ele><time>2024-05-20T11:32:59Z</time></trkpt>
<trkpt lat="46.59162" lon="6.34255"><ele>1246.8</ele><time>2024-05-20T11:33:03Z</time></trkpt>
<trkpt lat="46.59161" lon="6.34247"><ele>1247.4</ele><time>2024-05-20T11:33:08Z</time></trkpt>
<trkpt lat="46.5916" lon="6.34245"><ele>1247.6</ele><time>2024-05-20T11:33:10Z</time></trkpt>
<trkpt lat="46.59158" lon="6.34242"><ele>1247.8</ele><time>2024-05-20T11:33:13Z</time></trkpt>
<trkpt lat="46.59154" lon="6.34236"><ele>1248.4</ele><time>2024-05-20T11:33:18Z</time></trkpt>
<trkpt lat="46.59154" lon="6.34233"><ele>1248.6</ele><time>2024-05-20T11:33:20Z</time></trkpt>
<trkpt lat="46.59149" lon="6.34226"><ele>1249.4</ele><time>2024-05-20T11:33:27Z</time></trkpt>
<trkpt lat="46.59149" lon="6.34224"><ele>1249.6</ele><time>2024-05-20T11:33:28Z</time></trkpt>
<trkpt lat="46.59145" lon="6.34209"><ele>1250.8</ele><time>2024-05-20T11:33:37Z</time></trkpt>
<trkpt lat="46.59139" lon="6.34198"><ele>1251.6</ele><time>2024-05-20T11:33:46Z</time></trkpt>
<trkpt lat="46.59138" lon="6.34194"><ele>1251.8</ele><time>2024-05-20T11:33:48Z</time></trkpt>
<trkpt lat="46.59135" lon="6.34188"><ele>1252.6</ele><time>2024-05-20T11:33:52Z</time></trkpt>
<trkpt lat="46.59134" lon="6.34187"><ele>1252.8</ele><time>2024-05-20T11:33:54Z</time></trkpt>
<trkpt lat="46.5913" lon="6.34181"><ele>1253.6</ele><time>2024-05-20T11:33:59Z</time></trkpt>
<trkpt lat="46.59127" lon="6.34179"><ele>1254</ele><time>2024-05-20T11:34:02Z</time></trkpt>
<trkpt lat="46.59122" lon="6.34174"><ele>1254.6</ele><time>2024-05-20T11:34:07Z</time></trkpt>
<trkpt lat="46.59121" lon="6.34173"><ele>1255</ele><time>2024-05-20T11:34:09Z</time></trkpt>
<trkpt lat="46.59115" lon="6.3417"><ele>1256</ele><time>2024-05-20T11:34:16Z</time></trkpt>
<trkpt lat="46.59114" lon="6.3417"><ele>1256.2</ele><time>2024-05-20T11:34:17Z</time></trkpt>
<trkpt lat="46.59108" lon="6.34168"><ele>1257</ele><time>2024-05-20T11:34:24Z</time></trkpt>
<trkpt lat="46.59105" lon="6.34167"><ele>1257.4</ele><time>2024-05-20T11:34:26Z</time></trkpt>
<trkpt lat="46.59097" lon="6.34165"><ele>1258.2</ele><time>2024-05-20T11:34:33Z</time></trkpt>
<trkpt lat="46.59097" lon="6.34164"><ele>1258.4</ele><time>2024-05-20T11:34:34Z</time></trkpt>
<trkpt lat="46.59091" lon="6.34159"><ele>1259</ele><time>2024-05-20T11:34:40Z</time></trkpt>
<trkpt lat="46.59088" lon="6.34157"><ele>1259.6</ele><time>2024-05-20T11:34:43Z</time></trkpt>
<trkpt lat="46.59084" lon="6.34152"><ele>1260</ele><time>2024-05-20T11:34:48Z</time></trkpt>
<trkpt lat="46.5908" lon="6.34148"><ele>1260.6</ele><time>2024-05-20T11:34:52Z</time></trkpt>
<trkpt lat="46.59078" lon="6.34144"><ele>1261</ele><time>2024-05-20T11:34:55Z</time></trkpt>
<trkpt lat="46.59074" lon="6.34136"><ele>1261.6</ele><time>2024-05-20T11:35:01Z</time></trkpt>
<trkpt lat="46.59073" lon="6.34135"><ele>1261.8</ele><time>2024-05-20T11:35:02Z</time></trkpt>
<trkpt lat="46.59073" lon="6.34133"><ele>1261.8</ele><time>2024-05-20T11:35:03Z</time></trkpt>
<trkpt lat="46.59071" lon="6.34127"><ele>1262.4</ele><time>2024-05-20T11:35:08Z</time></trkpt>
<trkpt lat="46.59071" lon="6.34124"><ele>1262.6</ele><time>2024-05-20T11:35:10Z</time></trkpt>
<trkpt lat="46.59066" lon="6.34116"><ele>1263.4</ele><time>2024-05-20T11:35:16Z</time></trkpt>
<trkpt lat="46.59064" lon="6.34113"><ele>1263.8</ele><time>2024-05-20T11:35:18Z</time></trkpt>
<trkpt lat="46.59059" lon="6.34104"><ele>1264.6</ele><time>2024-05-20T11:35:26Z</time></trkpt>
<trkpt lat="46.59058" lon="6.34102"><ele>1264.8</ele><time>2024-05-20T11:35:28Z</time></trkpt>
<trkpt lat="46.59056" lon="6.34099"><ele>1265</ele><time>2024-05-20T11:35:30Z</time></trkpt>
<trkpt lat="46.59056" lon="6.34098"><ele>1265</ele><time>2024-05-20T11:35:31Z</time></trkpt>
<trkpt lat="46.59054" lon="6.34091"><ele>1265.8</ele><time>2024-05-20T11:35:36Z</time></trkpt>
<trkpt lat="46.59054" lon="6.34089"><ele>1266</ele><time>2024-05-20T11:35:38Z</time></trkpt>
<trkpt lat="46.59051" lon="6.3408"><ele>1266.6</ele><time>2024-05-20T11:35:44Z</time></trkpt>
<trkpt lat="46.59051" lon="6.34079"><ele>1266.8</ele><time>2024-05-20T11:35:45Z</time></trkpt>
<trkpt lat="46.59047" lon="6.3407"><ele>1267.8</ele><time>2024-05-20T11:35:53Z</time></trkpt>
<trkpt lat="46.59045" lon="6.34069"><ele>1268</ele><time>2024-05-20T11:35:54Z</time></trkpt>
<trkpt lat="46.59043" lon="6.34062"><ele>1268.6</ele><time>2024-05-20T11:35:59Z</time></trkpt>
<trkpt lat="46.5904" lon="6.34057"><ele>1269</ele><time>2024-05-20T11:36:03Z</time></trkpt>
<trkpt lat="46.59039" lon="6.34056"><ele>1269.2</ele><time>2024-05-20T11:36:04Z</time></trkpt>
<trkpt lat="46.59039" lon="6.34054"><ele>1269.2</ele><time>2024-05-20T11:36:05Z</time></trkpt>
<trkpt lat="46.59037" lon="6.34052"><ele>1269.4</ele><time>2024-05-20T11:36:07Z</time></trkpt>
<trkpt lat="46.59034" lon="6.34046"><ele>1270</ele><time>2024-05-20T11:36:12Z</time></trkpt>
<trkpt lat="46.59034" lon="6.34045"><ele>1270</ele><time>2024-05-20T11:36:13Z</time></trkpt>
<trkpt lat="46.59033" lon="6.34043"><ele>1270.2</ele><time>2024-05-20T11:36:14Z</time></trkpt>
<trkpt lat="46.59032" lon="6.34039"><ele>1270.6</ele><time>2024-05-20T11:36:16Z</time></trkpt>
<trkpt lat="46.59032" lon="6.34032"><ele>1271</ele><time>2024-05-20T11:36:19Z</time></trkpt>
<trkpt lat="46.59032" lon="6.3403"><ele>1271</ele><time>2024-05-20T11:36:20Z</time></trkpt>
<trkpt lat="46.59032" lon="6.34028"><ele>1271.2</ele><time>2024-05-20T11:36:21Z</time></trkpt>
<trkpt lat="46.59033" lon="6.34027"><ele>1271.4</ele><time>2024-05-20T11:36:22Z</time></trkpt>
<trkpt lat="46.59034" lon="6.34022"><ele>1272</ele><time>2024-05-20T11:36:25Z</time></trkpt>
<trkpt lat="46.59037" lon="6.34019"><ele>1272.4</ele><time>2024-05-20T11:36:28Z</time></trkpt>
<trkpt lat="46.59039" lon="6.34018"><ele>1272.8</ele><time>2024-05-20T11:36:30Z</time></trkpt>
<trkpt lat="46.59044" lon="6.34022"><ele>1273.6</ele><time>2024-05-20T11:36:35Z</time></trkpt>
<trkpt lat="46.59047" lon="6.34025"><ele>1273.6</ele><time>2024-05-20T11:36:37Z</time></trkpt>
<trkpt lat="46.59057" lon="6.34034"><ele>1274.6</ele><time>2024-05-20T11:36:44Z</time></trkpt>
<trkpt lat="46.59064" lon="6.34039"><ele>1275.6</ele><time>2024-05-20T11:36:51Z</time></trkpt>
<trkpt lat="46.59073" lon="6.34039"><ele>1276.8</ele><time>2024-05-20T11:36:59Z</time></trkpt>
<trkpt lat="46.59081" lon="6.34035"><ele>1277.6</ele><time>2024-05-20T11:37:06Z</time></trkpt>
<trkpt lat="46.59082" lon="6.34034"><ele>1278</ele><time>2024-05-20T11:37:07Z</time></trkpt>
<trkpt lat="46.59087" lon="6.34028"><ele>1278.2</ele><time>2024-05-20T11:37:12Z</time></trkpt>
<trkpt lat="46.59093" lon="6.34018"><ele>1279</ele><time>2024-05-20T11:37:19Z</time></trkpt>
<trkpt lat="46.59094" lon="6.34015"><ele>1279.2</ele><time>2024-05-20T11:37:21Z</time></trkpt>
<trkpt lat="46.59099" lon="6.34002"><ele>1280.2</ele><time>2024-05-20T11:37:29Z</time></trkpt>
<trkpt lat="46.59101" lon="6.33999"><ele>1280.4</ele><time>2024-05-20T11:37:31Z</time></trkpt>
<trkpt lat="46.59105" lon="6.3399"><ele>1281.2</ele><time>2024-05-20T11:37:37Z</time></trkpt>
<trkpt lat="46.59106" lon="6.33986"><ele>1281.4</ele><time>2024-05-20T11:37:39Z</time></trkpt>
<trkpt lat="46.59108" lon="6.33976"><ele>1282.2</ele><time>2024-05-20T11:37:46Z</time></trkpt>
<trkpt lat="46.59109" lon="6.33975"><ele>1282.4</ele><time>2024-05-20T11:37:47Z</time></trkpt>
<trkpt lat="46.59113" lon="6.33966"><ele>1283.2</ele><time>2024-05-20T11:37:53Z</time></trkpt>
<trkpt lat="46.59114" lon="6.33965"><ele>1283.4</ele><time>2024-05-20T11:37:54Z</time></trkpt>
<trkpt lat="46.59114" lon="6.33963"><ele>1283.4</ele><time>2024-05-20T11:37:55Z</time></trkpt>
<trkpt lat="46.59115" lon="6.33957"><ele>1284.2</ele><time>2024-05-20T11:38:00Z</time></trkpt>
<trkpt lat="46.59115" lon="6.33954"><ele>1284.4</ele><time>2024-05-20T11:38:02Z</time></trkpt>
<trkpt lat="46.59116" lon="6.33951"><ele>1284.6</ele><time>2024-05-20T11:38:04Z</time></trkpt>
<trkpt lat="46.59116" lon="6.33949"><ele>1284.6</ele><time>2024-05-20T11:38:05Z</time></trkpt>
<trkpt lat="46.59116" lon="6.33948"><ele>1284.8</ele><time>2024-05-20T11:38:06Z</time></trkpt>
<trkpt lat="46.59116" lon="6.33944"><ele>1285.4</ele><time>2024-05-20T11:38:09Z</time></trkpt>
<trkpt lat="46.59116" lon="6.33942"><ele>1285.4</ele><time>2024-05-20T11:38:10Z</time></trkpt>
<trkpt lat="46.59117" lon="6.33932"><ele>1286.2</ele><time>2024-05-20T11:38:17Z</time></trkpt>
<trkpt lat="46.59116" lon="6.3393"><ele>1286.4</ele><time>2024-05-20T11:38:18Z</time></trkpt>
<trkpt lat="46.59116" lon="6.33928"><ele>1286.6</ele><time>2024-05-20T11:38:19Z</time></trkpt>
<trkpt lat="46.59116" lon="6.33927"><ele>1286.6</ele><time>2024-05-20T11:38:20Z</time></trkpt>
<trkpt lat="46.59114" lon="6.33922"><ele>1287</ele><time>2024-05-20T11:38:24Z</time></trkpt>
<trkpt lat="46.59114" lon="6.33916"><ele>1287.6</ele><time>2024-05-20T11:38:28Z</time></trkpt>
<trkpt lat="46.59113" lon="6.33915"><ele>1287.6</ele><time>2024-05-20T11:38:29Z</time></trkpt>
<trkpt lat="46.59113" lon="6.33915"><ele>1287.8</ele><time>2024-05-20T11:38:30Z</time></trkpt>
<trkpt lat="46.59111" lon="6.3391"><ele>1287.8</ele><time>2024-05-20T11:38:33Z</time></trkpt>
<trkpt lat="46.59109" lon="6.33908"><ele>1288.2</ele><time>2024-05-20T11:38:35Z</time></trkpt>
<trkpt lat="46.59109" lon="6.33906"><ele>1288.2</ele><time>2024-05-20T11:38:36Z</time></trkpt>
<trkpt lat="46.59108" lon="6.33905"><ele>1288.2</ele><time>2024-05-20T11:38:37Z</time></trkpt>
<trkpt lat="46.59107" lon="6.33904"><ele>1288.4</ele><time>2024-05-20T11:38:38Z</time></trkpt>
<trkpt lat="46.59107" lon="6.33902"><ele>1288.6</ele><time>2024-05-20T11:38:39Z</time></trkpt>
<trkpt lat="46.59106" lon="6.339"><ele>1289</ele><time>2024-05-20T11:38:41Z</time></trkpt>
<trkpt lat="46.59103" lon="6.33893"><ele>1289.6</ele><time>2024-05-20T11:38:46Z</time></trkpt>
<trkpt lat="46.591" lon="6.33886"><ele>1290.4</ele><time>2024-05-20T11:38:51Z</time></trkpt>
<trkpt lat="46.59099" lon="6.33882"><ele>1290.8</ele><time>2024-05-20T11:38:54Z</time></trkpt>
<trkpt lat="46.59096" lon="6.33875"><ele>1291.6</ele><time>2024-05-20T11:38:59Z</time></trkpt>
<trkpt lat="46.59094" lon="6.33873"><ele>1292</ele><time>2024-05-20T11:39:01Z</time></trkpt>
<trkpt lat="46.59092" lon="6.33868"><ele>1292.4</ele><time>2024-05-20T11:39:05Z</time></trkpt>
<trkpt lat="46.59091" lon="6.33863"><ele>1293</ele><time>2024-05-20T11:39:09Z</time></trkpt>
<trkpt lat="46.5909" lon="6.3386"><ele>1293.2</ele><time>2024-05-20T11:39:11Z</time></trkpt>
<trkpt lat="46.59088" lon="6.33854"><ele>1293.6</ele><time>2024-05-20T11:39:15Z</time></trkpt>
<trkpt lat="46.59087" lon="6.3385"><ele>1294.2</ele><time>2024-05-20T11:39:18Z</time></trkpt>
<trkpt lat="46.59087" lon="6.33847"><ele>1294.4</ele><time>2024-05-20T11:39:20Z</time></trkpt>
<trkpt lat="46.59084" lon="6.33834"><ele>1295.4</ele><time>2024-05-20T11:39:28Z</time></trkpt>
<trkpt lat="46.59084" lon="6.33821"><ele>1296.2</ele><time>2024-05-20T11:39:36Z</time></trkpt>
<trkpt lat="46.59084" lon="6.33816"><ele>1296.4</ele><time>2024-05-20T11:39:39Z</time></trkpt>
<trkpt lat="46.59083" lon="6.33811"><ele>1296.6</ele><time>2024-05-20T11:39:42Z</time></trkpt>
<trkpt lat="46.59083" lon="6.33799"><ele>1297.4</ele><time>2024-05-20T11:39:49Z</time></trkpt>
<trkpt lat="46.59084" lon="6.33798"><ele>1297.6</ele><time>2024-05-20T11:39:50Z</time></trkpt>
<trkpt lat="46.59084" lon="6.33793"><ele>1298</ele><time>2024-05-20T11:39:54Z</time></trkpt>
<trkpt lat="46.59085" lon="6.33788"><ele>1298.4</ele><time>2024-05-20T11:39:58Z</time></trkpt>
<trkpt lat="46.59085" lon="6.33786"><ele>1298.6</ele><time>2024-05-20T11:39:59Z</time></trkpt>
<trkpt lat="46.59086" lon="6.33778"><ele>1299.2</ele><time>2024-05-20T11:40:04Z</time></trkpt>
<trkpt lat="46.59088" lon="6.33772"><ele>1299.6</ele><time>2024-05-20T11:40:09Z</time></trkpt>
<trkpt lat="46.59089" lon="6.33763"><ele>1300.2</ele><time>2024-05-20T11:40:15Z</time></trkpt>
<trkpt lat="46.59091" lon="6.33755"><ele>1300.8</ele><time>2024-05-20T11:40:20Z</time></trkpt>
<trkpt lat="46.59091" lon="6.33754"><ele>1300.8</ele><time>2024-05-20T11:40:21Z</time></trkpt>
<trkpt lat="46.59093" lon="6.33745"><ele>1301.2</ele><time>2024-05-20T11:40:26Z</time></trkpt>
<trkpt lat="46.59094" lon="6.33741"><ele>1301.8</ele><time>2024-05-20T11:40:29Z</time></trkpt>
<trkpt lat="46.59094" lon="6.33736"><ele>1302</ele><time>2024-05-20T11:40:32Z</time></trkpt>
<trkpt lat="46.59095" lon="6.33727"><ele>1302.6</ele><time>2024-05-20T11:40:38Z</time></trkpt>
<trkpt lat="46.59096" lon="6.33723"><ele>1302.8</ele><time>2024-05-20T11:40:40Z</time></trkpt>
<trkpt lat="46.59096" lon="6.33719"><ele>1303</ele><time>2024-05-20T11:40:42Z</time></trkpt>
<trkpt lat="46.59097" lon="6.33716"><ele>1303.2</ele><time>2024-05-20T11:40:44Z</time></trkpt>
<trkpt lat="46.59097" lon="6.33711"><ele>1303.8</ele><time>2024-05-20T11:40:47Z</time></trkpt>
<trkpt lat="46.59097" lon="6.33708"><ele>1303.8</ele><time>2024-05-20T11:40:49Z</time></trkpt>
<trkpt lat="46.59097" lon="6.33705"><ele>1304</ele><time>2024-05-20T11:40:51Z</time></trkpt>
<trkpt lat="46.59097" lon="6.33691"><ele>1305</ele><time>2024-05-20T11:40:59Z</time></trkpt>
<trkpt lat="46.59097" lon="6.33688"><ele>1305</ele><time>2024-05-20T11:41:01Z</time></trkpt>
<trkpt lat="46.59097" lon="6.33684"><ele>1305.2</ele><time>2024-05-20T11:41:03Z</time></trkpt>
<trkpt lat="46.59097" lon="6.33683"><ele>1305.2</ele><time>2024-05-20T11:41:04Z</time></trkpt>
<trkpt lat="46.59097" lon="6.33681"><ele>1305.6</ele><time>2024-05-20T11:41:05Z</time></trkpt>
<trkpt lat="46.59096" lon="6.33676"><ele>1306</ele><time>2024-05-20T11:41:08Z</time></trkpt>
<trkpt lat="46.59095" lon="6.33675"><ele>1306.2</ele><time>2024-05-20T11:41:09Z</time></trkpt>
<trkpt lat="46.59095" lon="6.33671"><ele>1306.4</ele><time>2024-05-20T11:41:12Z</time></trkpt>
<trkpt lat="46.59094" lon="6.33662"><ele>1307</ele><time>2024-05-20T11:41:17Z</time></trkpt>
<trkpt lat="46.59094" lon="6.33659"><ele>1307.2</ele><time>2024-05-20T11:41:19Z</time></trkpt>
<trkpt lat="46.59093" lon="6.33648"><ele>1308</ele><time>2024-05-20T11:41:26Z</time></trkpt>
<trkpt lat="46.59093" lon="6.33635"><ele>1309.2</ele><time>2024-05-20T11:41:33Z</time></trkpt>
<trkpt lat="46.59092" lon="6.33622"><ele>1310</ele><time>2024-05-20T11:41:41Z</time></trkpt>
<trkpt lat="46.59092" lon="6.3362"><ele>1310.2</ele><time>2024-05-20T11:41:42Z</time></trkpt>
<trkpt lat="46.5909" lon="6.33609"><ele>1311.2</ele><time>2024-05-20T11:41:48Z</time></trkpt>
<trkpt lat="46.59089" lon="6.33606"><ele>1311.4</ele><time>2024-05-20T11:41:50Z</time></trkpt>
<trkpt lat="46.59086" lon="6.33598"><ele>1312.2</ele><time>2024-05-20T11:41:55Z</time></trkpt>
<trkpt lat="46.59084" lon="6.33594"><ele>1312.4</ele><time>2024-05-20T11:41:58Z</time></trkpt>
<trkpt lat="46.59082" lon="6.33588"><ele>1313.2</ele><time>2024-05-20T11:42:02Z</time></trkpt>
<trkpt lat="46.5908" lon="6.33583"><ele>1313.6</ele><time>2024-05-20T11:42:05Z</time></trkpt>
<trkpt lat="46.59078" lon="6.33578"><ele>1314</ele><time>2024-05-20T11:42:08Z</time></trkpt>
<trkpt lat="46.59077" lon="6.33574"><ele>1314.2</ele><time>2024-05-20T11:42:10Z</time></trkpt>
<trkpt lat="46.59074" lon="6.33567"><ele>1314.8</ele><time>2024-05-20T11:42:15Z</time></trkpt>
<trkpt lat="46.59074" lon="6.33565"><ele>1315</ele><time>2024-05-20T11:42:16Z</time></trkpt>
<trkpt lat="46.59071" lon="6.33555"><ele>1315.6</ele><time>2024-05-20T11:42:22Z</time></trkpt>
<trkpt lat="46.59071" lon="6.33553"><ele>1315.8</ele><time>2024-05-20T11:42:23Z</time></trkpt>
<trkpt lat="46.59068" lon="6.33542"><ele>1316.8</ele><time>2024-05-20T11:42:29Z</time></trkpt>
<trkpt lat="46.59069" lon="6.33541"><ele>1316.8</ele><time>2024-05-20T11:42:30Z</time></trkpt>
<trkpt lat="46.59069" lon="6.33529"><ele>1317.6</ele><time>2024-05-20T11:42:36Z</time></trkpt>
<trkpt lat="46.59069" lon="6.33526"><ele>1317.8</ele><time>2024-05-20T11:42:38Z</time></trkpt>
<trkpt lat="46.5907" lon="6.3351"><ele>1319.2</ele><time>2024-05-20T11:42:45Z</time></trkpt>
<trkpt lat="46.59072" lon="6.335"><ele>1320.4</ele><time>2024-05-20T11:42:50Z</time></trkpt>
<trkpt lat="46.59073" lon="6.33497"><ele>1320.8</ele><time>2024-05-20T11:42:52Z</time></trkpt>
<trkpt lat="46.59073" lon="6.33487"><ele>1321.4</ele><time>2024-05-20T11:42:57Z</time></trkpt>
<trkpt lat="46.59073" lon="6.33481"><ele>1321.8</ele><time>2024-05-20T11:43:00Z</time></trkpt>
<trkpt lat="46.59071" lon="6.33474"><ele>1322.4</ele><time>2024-05-20T11:43:04Z</time></trkpt>
<trkpt lat="46.5907" lon="6.33472"><ele>1322.6</ele><time>2024-05-20T11:43:05Z</time></trkpt>
<trkpt lat="46.59069" lon="6.33469"><ele>1322.8</ele><time>2024-05-20T11:43:07Z</time></trkpt>
<trkpt lat="46.59062" lon="6.33459"><ele>1323.6</ele><time>2024-05-20T11:43:14Z</time></trkpt>
<trkpt lat="46.5906" lon="6.33456"><ele>1324</ele><time>2024-05-20T11:43:16Z</time></trkpt>
<trkpt lat="46.59058" lon="6.33453"><ele>1324.4</ele><time>2024-05-20T11:43:18Z</time></trkpt>
<trkpt lat="46.59055" lon="6.33449"><ele>1324.8</ele><time>2024-05-20T11:43:21Z</time></trkpt>
<trkpt lat="46.59053" lon="6.33443"><ele>1325.6</ele><time>2024-05-20T11:43:25Z</time></trkpt>
<trkpt lat="46.59052" lon="6.33435"><ele>1326</ele><time>2024-05-20T11:43:28Z</time></trkpt>
<trkpt lat="46.59051" lon="6.33428"><ele>1326.6</ele><time>2024-05-20T11:43:31Z</time></trkpt>
<trkpt lat="46.59051" lon="6.3342"><ele>1327.2</ele><time>2024-05-20T11:43:34Z</time></trkpt>
<trkpt lat="46.59052" lon="6.33411"><ele>1327.8</ele><time>2024-05-20T11:43:38Z</time></trkpt>
<trkpt lat="46.59053" lon="6.33407"><ele>1328.4</ele><time>2024-05-20T11:43:40Z</time></trkpt>
<trkpt lat="46.59054" lon="6.33398"><ele>1329.2</ele><time>2024-05-20T11:43:45Z</time></trkpt>
<trkpt lat="46.59054" lon="6.33396"><ele>1329.4</ele><time>2024-05-20T11:43:46Z</time></trkpt>
<trkpt lat="46.59056" lon="6.33386"><ele>1330.2</ele><time>2024-05-20T11:43:53Z</time></trkpt>
<trkpt lat="46.59057" lon="6.33384"><ele>1330.4</ele><time>2024-05-20T11:43:54Z</time></trkpt>
<trkpt lat="46.59057" lon="6.33374"><ele>1331</ele><time>2024-05-20T11:43:59Z</time></trkpt>
<trkpt lat="46.59057" lon="6.33369"><ele>1331.4</ele><time>2024-05-20T11:44:02Z</time></trkpt>
<trkpt lat="46.59057" lon="6.33363"><ele>1332</ele><time>2024-05-20T11:44:06Z</time></trkpt>
<trkpt lat="46.59056" lon="6.33357"><ele>1332.6</ele><time>2024-05-20T11:44:09Z</time></trkpt>
<trkpt lat="46.59056" lon="6.3335"><ele>1333.2</ele><time>2024-05-20T11:44:13Z</time></trkpt>
<trkpt lat="46.59057" lon="6.33346"><ele>1333.6</ele><time>2024-05-20T11:44:15Z</time></trkpt>
<trkpt lat="46.5906" lon="6.33337"><ele>1334.8</ele><time>2024-05-20T11:44:20Z</time></trkpt>
<trkpt lat="46.59066" lon="6.33327"><ele>1335.8</ele><time>2024-05-20T11:44:27Z</time></trkpt>
<trkpt lat="46.59067" lon="6.33326"><ele>1335.8</ele><time>2024-05-20T11:44:28Z</time></trkpt>
<trkpt lat="46.59075" lon="6.33322"><ele>1336.6</ele><time>2024-05-20T11:44:34Z</time></trkpt>
<trkpt lat="46.59078" lon="6.33321"><ele>1337</ele><time>2024-05-20T11:44:37Z</time></trkpt>
<trkpt lat="46.59081" lon="6.33318"><ele>1337.4</ele><time>2024-05-20T11:44:40Z</time></trkpt>
<trkpt lat="46.59084" lon="6.33314"><ele>1338.2</ele><time>2024-05-20T11:44:43Z</time></trkpt>
<trkpt lat="46.59085" lon="6.33309"><ele>1338.8</ele><time>2024-05-20T11:44:47Z</time></trkpt>
<trkpt lat="46.59086" lon="6.33306"><ele>1339.2</ele><time>2024-05-20T11:44:49Z</time></trkpt>
<trkpt lat="46.59088" lon="6.33301"><ele>1339.8</ele><time>2024-05-20T11:44:53Z</time></trkpt>
<trkpt lat="46.59087" lon="6.33299"><ele>1340.2</ele><time>2024-05-20T11:44:57Z</time></trkpt>
<trkpt lat="46.59086" lon="6.33297"><ele>1340.6</ele><time>2024-05-20T11:45:00Z</time></trkpt>
<trkpt lat="46.59084" lon="6.3329"><ele>1341.2</ele><time>2024-05-20T11:45:04Z</time></trkpt>
<trkpt lat="46.59084" lon="6.33289"><ele>1341.4</ele><time>2024-05-20T11:45:05Z</time></trkpt>
<trkpt lat="46.59082" lon="6.33287"><ele>1341.6</ele><time>2024-05-20T11:45:07Z</time></trkpt>
<trkpt lat="46.59079" lon="6.33276"><ele>1342.4</ele><time>2024-05-20T11:45:14Z</time></trkpt>
<trkpt lat="46.59074" lon="6.33264"><ele>1343.4</ele><time>2024-05-20T11:45:22Z</time></trkpt>
<trkpt lat="46.59073" lon="6.33262"><ele>1343.4</ele><time>2024-05-20T11:45:23Z</time></trkpt>
<trkpt lat="46.59068" lon="6.3325"><ele>1344.4</ele><time>2024-05-20T11:45:31Z</time></trkpt>
<trkpt lat="46.59062" lon="6.33234"><ele>1345.2</ele><time>2024-05-20T11:45:39Z</time></trkpt>
<trkpt lat="46.59062" lon="6.33232"><ele>1345.4</ele><time>2024-05-20T11:45:40Z</time></trkpt>
<trkpt lat="46.59058" lon="6.33218"><ele>1346.6</ele><time>2024-05-20T11:45:48Z</time></trkpt>
<trkpt lat="46.59053" lon="6.3321"><ele>1347.4</ele><time>2024-05-20T11:45:55Z</time></trkpt>
<trkpt lat="46.59052" lon="6.33208"><ele>1347.6</ele><time>2024-05-20T11:45:56Z</time></trkpt>
<trkpt lat="46.59049" lon="6.33196"><ele>1348.4</ele><time>2024-05-20T11:46:03Z</time></trkpt>
<trkpt lat="46.59049" lon="6.33195"><ele>1348.6</ele><time>2024-05-20T11:46:04Z</time></trkpt>
<trkpt lat="46.59047" lon="6.33186"><ele>1349</ele><time>2024-05-20T11:46:09Z</time></trkpt>
<trkpt lat="46.59046" lon="6.33181"><ele>1349.6</ele><time>2024-05-20T11:46:12Z</time></trkpt>
<trkpt lat="46.59046" lon="6.3318"><ele>1349.8</ele><time>2024-05-20T11:46:13Z</time></trkpt>
<trkpt lat="46.59046" lon="6.33174"><ele>1350</ele><time>2024-05-20T11:46:16Z</time></trkpt>
<trkpt lat="46.59047" lon="6.33166"><ele>1350.8</ele><time>2024-05-20T11:46:20Z</time></trkpt>
<trkpt lat="46.59048" lon="6.33162"><ele>1351.2</ele><time>2024-05-20T11:46:22Z</time></trkpt>
<trkpt lat="46.59051" lon="6.33156"><ele>1352</ele><time>2024-05-20T11:46:26Z</time></trkpt>
<trkpt lat="46.59053" lon="6.3315"><ele>1352.6</ele><time>2024-05-20T11:46:29Z</time></trkpt>
<trkpt lat="46.59056" lon="6.33145"><ele>1353.2</ele><time>2024-05-20T11:46:32Z</time></trkpt>
<trkpt lat="46.59058" lon="6.33141"><ele>1353.6</ele><time>2024-05-20T11:46:35Z</time></trkpt>
<trkpt lat="46.59061" lon="6.33139"><ele>1354.2</ele><time>2024-05-20T11:46:39Z</time></trkpt>
<trkpt lat="46.59063" lon="6.33136"><ele>1354.6</ele><time>2024-05-20T11:46:42Z</time></trkpt>
<trkpt lat="46.59068" lon="6.33129"><ele>1355.4</ele><time>2024-05-20T11:46:47Z</time></trkpt>
<trkpt lat="46.59069" lon="6.33126"><ele>1355.6</ele><time>2024-05-20T11:46:49Z</time></trkpt>
<trkpt lat="46.59072" lon="6.33117"><ele>1356.2</ele><time>2024-05-20T11:46:55Z</time></trkpt>
<trkpt lat="46.59072" lon="6.33116"><ele>1356.4</ele><time>2024-05-20T11:46:56Z</time></trkpt>
<trkpt lat="46.59072" lon="6.33114"><ele>1356.6</ele><time>2024-05-20T11:46:57Z</time></trkpt>
<trkpt lat="46.5907" lon="6.33107"><ele>1357</ele><time>2024-05-20T11:47:01Z</time></trkpt>
<trkpt lat="46.59069" lon="6.33102"><ele>1357.6</ele><time>2024-05-20T11:47:04Z</time></trkpt>
<trkpt lat="46.59069" lon="6.33092"><ele>1358.2</ele><time>2024-05-20T11:47:08Z</time></trkpt>
<trkpt lat="46.5907" lon="6.33088"><ele>1358.6</ele><time>2024-05-20T11:47:10Z</time></trkpt>
<trkpt lat="46.59071" lon="6.33076"><ele>1359.4</ele><time>2024-05-20T11:47:16Z</time></trkpt>
<trkpt lat="46.59071" lon="6.33072"><ele>1359.6</ele><time>2024-05-20T11:47:18Z</time></trkpt>
<trkpt lat="46.59074" lon="6.33066"><ele>1360.2</ele><time>2024-05-20T11:47:23Z</time></trkpt>
<trkpt lat="46.59075" lon="6.33063"><ele>1360.6</ele><time>2024-05-20T11:47:26Z</time></trkpt>
<trkpt lat="46.59075" lon="6.33056"><ele>1361.2</ele><time>2024-05-20T11:47:30Z</time></trkpt>
<trkpt lat="46.59074" lon="6.3305"><ele>1361.6</ele><time>2024-05-20T11:47:33Z</time></trkpt>
<trkpt lat="46.59073" lon="6.33044"><ele>1362.2</ele><time>2024-05-20T11:47:37Z</time></trkpt>
<trkpt lat="46.59072" lon="6.33039"><ele>1362.8</ele><time>2024-05-20T11:47:40Z</time></trkpt>
<trkpt lat="46.59071" lon="6.33035"><ele>1363.2</ele><time>2024-05-20T11:47:43Z</time></trkpt>
<trkpt lat="46.59068" lon="6.33029"><ele>1363.8</ele><time>2024-05-20T11:47:47Z</time></trkpt>
<trkpt lat="46.59067" lon="6.33025"><ele>1364.4</ele><time>2024-05-20T11:47:50Z</time></trkpt>
<trkpt lat="46.59067" lon="6.33018"><ele>1365</ele><time>2024-05-20T11:47:54Z</time></trkpt>
<trkpt lat="46.59068" lon="6.33013"><ele>1365.6</ele><time>2024-05-20T11:47:57Z</time></trkpt>
<trkpt lat="46.59069" lon="6.33006"><ele>1366</ele><time>2024-05-20T11:48:00Z</time></trkpt>
<trkpt lat="46.59071" lon="6.32999"><ele>1366.6</ele><time>2024-05-20T11:48:04Z</time></trkpt>
<trkpt lat="46.59073" lon="6.32995"><ele>1367</ele><time>2024-05-20T11:48:06Z</time></trkpt>
<trkpt lat="46.59075" lon="6.32989"><ele>1367.4</ele><time>2024-05-20T11:48:09Z</time></trkpt>
<trkpt lat="46.59076" lon="6.32982"><ele>1368.2</ele><time>2024-05-20T11:48:12Z</time></trkpt>
<trkpt lat="46.59077" lon="6.32977"><ele>1368.6</ele><time>2024-05-20T11:48:15Z</time></trkpt>
<trkpt lat="46.59078" lon="6.32973"><ele>1368.8</ele><time>2024-05-20T11:48:17Z</time></trkpt>
<trkpt lat="46.59079" lon="6.32971"><ele>1369.2</ele><time>2024-05-20T11:48:18Z</time></trkpt>
<trkpt lat="46.5908" lon="6.32969"><ele>1369.2</ele><time>2024-05-20T11:48:19Z</time></trkpt>
<trkpt lat="46.59081" lon="6.32964"><ele>1369.8</ele><time>2024-05-20T11:48:22Z</time></trkpt>
<trkpt lat="46.59083" lon="6.32961"><ele>1370.2</ele><time>2024-05-20T11:48:25Z</time></trkpt>
<trkpt lat="46.59087" lon="6.32955"><ele>1370.8</ele><time>2024-05-20T11:48:29Z</time></trkpt>
<trkpt lat="46.5909" lon="6.3295"><ele>1371</ele><time>2024-05-20T11:48:31Z</time></trkpt>
<trkpt lat="46.59091" lon="6.32948"><ele>1371.2</ele><time>2024-05-20T11:48:32Z</time></trkpt>
<trkpt lat="46.59093" lon="6.32945"><ele>1371.2</ele><time>2024-05-20T11:48:33Z</time></trkpt>
<trkpt lat="46.59095" lon="6.32941"><ele>1371.6</ele><time>2024-05-20T11:48:35Z</time></trkpt>
<trkpt lat="46.59098" lon="6.32937"><ele>1371.6</ele><time>2024-05-20T11:48:37Z</time></trkpt>
<trkpt lat="46.59102" lon="6.32931"><ele>1372.2</ele><time>2024-05-20T11:48:40Z</time></trkpt>
<trkpt lat="46.59105" lon="6.32928"><ele>1372.8</ele><time>2024-05-20T11:48:42Z</time></trkpt>
<trkpt lat="46.5911" lon="6.32922"><ele>1373.4</ele><time>2024-05-20T11:48:45Z</time></trkpt>
<trkpt lat="46.59116" lon="6.32914"><ele>1374.4</ele><time>2024-05-20T11:48:49Z</time></trkpt>
<trkpt lat="46.59118" lon="6.32912"><ele>1374.8</ele><time>2024-05-20T11:48:50Z</time></trkpt>
<trkpt lat="46.59124" lon="6.32905"><ele>1375.8</ele><time>2024-05-20T11:48:54Z</time></trkpt>
<trkpt lat="46.5913" lon="6.32894"><ele>1376.6</ele><time>2024-05-20T11:48:59Z</time></trkpt>
<trkpt lat="46.59137" lon="6.32879"><ele>1376.8</ele><time>2024-05-20T11:49:04Z</time></trkpt>
<trkpt lat="46.5914" lon="6.32872"><ele>1377</ele><time>2024-05-20T11:49:07Z</time></trkpt>
<trkpt lat="46.59148" lon="6.32855"><ele>1377.8</ele><time>2024-05-20T11:49:15Z</time></trkpt>
<trkpt lat="46.5915" lon="6.32851"><ele>1378</ele><time>2024-05-20T11:49:17Z</time></trkpt>
<trkpt lat="46.59162" lon="6.32847"><ele>1378.6</ele><time>2024-05-20T11:49:24Z</time></trkpt>
<trkpt lat="46.59164" lon="6.32849"><ele>1379</ele><time>2024-05-20T11:49:26Z</time></trkpt>
<trkpt lat="46.59168" lon="6.32859"><ele>1379.6</ele><time>2024-05-20T11:49:30Z</time></trkpt>
<trkpt lat="46.59168" lon="6.32863"><ele>1380</ele><time>2024-05-20T11:49:32Z</time></trkpt>
<trkpt lat="46.59168" lon="6.32869"><ele>1380.8</ele><time>2024-05-20T11:49:36Z</time></trkpt>
<trkpt lat="46.59168" lon="6.32874"><ele>1381</ele><time>2024-05-20T11:49:38Z</time></trkpt>
<trkpt lat="46.59164" lon="6.32885"><ele>1381.6</ele><time>2024-05-20T11:49:43Z</time></trkpt>
<trkpt lat="46.59158" lon="6.32897"><ele>1382.2</ele><time>2024-05-20T11:49:48Z</time></trkpt>
<trkpt lat="46.59157" lon="6.32903"><ele>1382.4</ele><time>2024-05-20T11:49:50Z</time></trkpt>
<trkpt lat="46.59148" lon="6.32925"><ele>1383.2</ele><time>2024-05-20T11:49:58Z</time></trkpt>
<trkpt lat="46.59148" lon="6.32928"><ele>1383.4</ele><time>2024-05-20T11:49:59Z</time></trkpt>
<trkpt lat="46.59146" lon="6.32938"><ele>1383.8</ele><time>2024-05-20T11:50:03Z</time></trkpt>
<trkpt lat="46.59145" lon="6.32945"><ele>1384.6</ele><time>2024-05-20T11:50:06Z</time></trkpt>
<trkpt lat="46.59145" lon="6.32954"><ele>1385</ele><time>2024-05-20T11:50:10Z</time></trkpt>
<trkpt lat="46.59143" lon="6.32964"><ele>1385.6</ele><time>2024-05-20T11:50:14Z</time></trkpt>
<trkpt lat="46.59142" lon="6.32972"><ele>1386</ele><time>2024-05-20T11:50:17Z</time></trkpt>
<trkpt lat="46.59141" lon="6.32983"><ele>1386.6</ele><time>2024-05-20T11:50:22Z</time></trkpt>
<trkpt lat="46.59142" lon="6.3299"><ele>1387.2</ele><time>2024-05-20T11:50:25Z</time></trkpt>
<trkpt lat="46.59146" lon="6.33002"><ele>1387.6</ele><time>2024-05-20T11:50:29Z</time></trkpt>
<trkpt lat="46.59151" lon="6.33008"><ele>1388</ele><time>2024-05-20T11:50:32Z</time></trkpt>
<trkpt lat="46.59158" lon="6.33014"><ele>1388.8</ele><time>2024-05-20T11:50:37Z</time></trkpt>
<trkpt lat="46.59167" lon="6.3302"><ele>1389.8</ele><time>2024-05-20T11:50:43Z</time></trkpt>
<trkpt lat="46.59168" lon="6.33022"><ele>1389.8</ele><time>2024-05-20T11:50:44Z</time></trkpt>
<trkpt lat="46.59172" lon="6.33026"><ele>1390.8</ele><time>2024-05-20T11:50:50Z</time></trkpt>
<trkpt lat="46.59173" lon="6.33027"><ele>1390.8</ele><time>2024-05-20T11:50:51Z</time></trkpt>
<trkpt lat="46.59179" lon="6.33032"><ele>1391.4</ele><time>2024-05-20T11:50:57Z</time></trkpt>
<trkpt lat="46.59182" lon="6.33035"><ele>1391.8</ele><time>2024-05-20T11:51:00Z</time></trkpt>
<trkpt lat="46.59183" lon="6.33035"><ele>1392</ele><time>2024-05-20T11:51:01Z</time></trkpt>
<trkpt lat="46.59187" lon="6.33038"><ele>1392.6</ele><time>2024-05-20T11:51:04Z</time></trkpt>
<trkpt lat="46.59191" lon="6.3304"><ele>1393</ele><time>2024-05-20T11:51:08Z</time></trkpt>
<trkpt lat="46.59193" lon="6.33042"><ele>1393.2</ele><time>2024-05-20T11:51:10Z</time></trkpt>
<trkpt lat="46.59202" lon="6.33048"><ele>1394</ele><time>2024-05-20T11:51:17Z</time></trkpt>
<trkpt lat="46.5921" lon="6.33055"><ele>1395</ele><time>2024-05-20T11:51:25Z</time></trkpt>
<trkpt lat="46.59212" lon="6.33057"><ele>1395.2</ele><time>2024-05-20T11:51:27Z</time></trkpt>
<trkpt lat="46.59215" lon="6.3306"><ele>1395.8</ele><time>2024-05-20T11:51:31Z</time></trkpt>
<trkpt lat="46.59217" lon="6.3306"><ele>1396.2</ele><time>2024-05-20T11:51:33Z</time></trkpt>
<trkpt lat="46.59222" lon="6.33061"><ele>1397</ele><time>2024-05-20T11:51:38Z</time></trkpt>
<trkpt lat="46.59225" lon="6.33059"><ele>1397.2</ele><time>2024-05-20T11:51:40Z</time></trkpt>
<trkpt lat="46.59231" lon="6.33055"><ele>1398.2</ele><time>2024-05-20T11:51:45Z</time></trkpt>
<trkpt lat="46.59232" lon="6.33055"><ele>1398.4</ele><time>2024-05-20T11:51:46Z</time></trkpt>
<trkpt lat="46.59234" lon="6.33052"><ele>1398.6</ele><time>2024-05-20T11:51:48Z</time></trkpt>
<trkpt lat="46.59235" lon="6.3305"><ele>1399</ele><time>2024-05-20T11:51:49Z</time></trkpt>
<trkpt lat="46.59235" lon="6.33049"><ele>1399.2</ele><time>2024-05-20T11:51:50Z</time></trkpt>
<trkpt lat="46.59236" lon="6.33047"><ele>1399.4</ele><time>2024-05-20T11:51:51Z</time></trkpt>
<trkpt lat="46.59241" lon="6.33036"><ele>1400.4</ele><time>2024-05-20T11:51:57Z</time></trkpt>
<trkpt lat="46.59242" lon="6.33035"><ele>1400.4</ele><time>2024-05-20T11:51:58Z</time></trkpt>
<trkpt lat="46.59249" lon="6.3303"><ele>1401</ele><time>2024-05-20T11:52:03Z</time></trkpt>
<trkpt lat="46.59254" lon="6.3303"><ele>1401.6</ele><time>2024-05-20T11:52:06Z</time></trkpt>
<trkpt lat="46.5926" lon="6.33034"><ele>1402.2</ele><time>2024-05-20T11:52:09Z</time></trkpt>
<trkpt lat="46.59268" lon="6.33043"><ele>1402.6</ele><time>2024-05-20T11:52:14Z</time></trkpt>
<trkpt lat="46.5927" lon="6.33048"><ele>1402.8</ele><time>2024-05-20T11:52:16Z</time></trkpt>
<trkpt lat="46.59278" lon="6.33059"><ele>1403.6</ele><time>2024-05-20T11:52:22Z</time></trkpt>
<trkpt lat="46.59282" lon="6.33063"><ele>1403.8</ele><time>2024-05-20T11:52:25Z</time></trkpt>
<trkpt lat="46.5929" lon="6.33069"><ele>1404.6</ele><time>2024-05-20T11:52:30Z</time></trkpt>
<trkpt lat="46.59296" lon="6.33075"><ele>1405.2</ele><time>2024-05-20T11:52:34Z</time></trkpt>
<trkpt lat="46.59299" lon="6.33078"><ele>1405.6</ele><time>2024-05-20T11:52:36Z</time></trkpt>
<trkpt lat="46.59305" lon="6.33088"><ele>1406.4</ele><time>2024-05-20T11:52:41Z</time></trkpt>
<trkpt lat="46.59307" lon="6.33091"><ele>1406.8</ele><time>2024-05-20T11:52:43Z</time></trkpt>
<trkpt lat="46.59311" lon="6.331"><ele>1407.8</ele><time>2024-05-20T11:52:48Z</time></trkpt>
<trkpt lat="46.59312" lon="6.33104"><ele>1408</ele><time>2024-05-20T11:52:50Z</time></trkpt>
<trkpt lat="46.59316" lon="6.33115"><ele>1408.8</ele><time>2024-05-20T11:52:55Z</time></trkpt>
<trkpt lat="46.59318" lon="6.33119"><ele>1409.2</ele><time>2024-05-20T11:52:57Z</time></trkpt>
<trkpt lat="46.5932" lon="6.33126"><ele>1410.2</ele><time>2024-05-20T11:53:03Z</time></trkpt>
<trkpt lat="46.59328" lon="6.33133"><ele>1411</ele><time>2024-05-20T11:53:11Z</time></trkpt>
<trkpt lat="46.59332" lon="6.33134"><ele>1411.4</ele><time>2024-05-20T11:53:15Z</time></trkpt>
<trkpt lat="46.59336" lon="6.33133"><ele>1411.8</ele><time>2024-05-20T11:53:18Z</time></trkpt>
<trkpt lat="46.59341" lon="6.33132"><ele>1412.4</ele><time>2024-05-20T11:53:22Z</time></trkpt>
<trkpt lat="46.59346" lon="6.33132"><ele>1413</ele><time>2024-05-20T11:53:26Z</time></trkpt>
<trkpt lat="46.59353" lon="6.33134"><ele>1413.6</ele><time>2024-05-20T11:53:30Z</time></trkpt>
<trkpt lat="46.59358" lon="6.33138"><ele>1414</ele><time>2024-05-20T11:53:33Z</time></trkpt>
<trkpt lat="46.59363" lon="6.33142"><ele>1414.6</ele><time>2024-05-20T11:53:36Z</time></trkpt>
<trkpt lat="46.59369" lon="6.33147"><ele>1415</ele><time>2024-05-20T11:53:40Z</time></trkpt>
<trkpt lat="46.59378" lon="6.33151"><ele>1415.6</ele><time>2024-05-20T11:53:45Z</time></trkpt>
<trkpt lat="46.59381" lon="6.33151"><ele>1416</ele><time>2024-05-20T11:53:47Z</time></trkpt>
<trkpt lat="46.59386" lon="6.33151"><ele>1416.8</ele><time>2024-05-20T11:53:51Z</time></trkpt>
<trkpt lat="46.59392" lon="6.33151"><ele>1417.2</ele><time>2024-05-20T11:53:55Z</time></trkpt>
<trkpt lat="46.594" lon="6.33151"><ele>1417.8</ele><time>2024-05-20T11:54:00Z</time></trkpt>
<trkpt lat="46.59403" lon="6.33151"><ele>1418.2</ele><time>2024-05-20T11:54:02Z</time></trkpt>
<trkpt lat="46.59406" lon="6.33151"><ele>1418.4</ele><time>2024-05-20T11:54:04Z</time></trkpt>
<trkpt lat="46.59409" lon="6.33152"><ele>1418.8</ele><time>2024-05-20T11:54:06Z</time></trkpt>
<trkpt lat="46.59412" lon="6.33154"><ele>1419.2</ele><time>2024-05-20T11:54:08Z</time></trkpt>
<trkpt lat="46.59419" lon="6.33159"><ele>1420</ele><time>2024-05-20T11:54:14Z</time></trkpt>
<trkpt lat="46.59421" lon="6.3316"><ele>1420.2</ele><time>2024-05-20T11:54:15Z</time></trkpt>
<trkpt lat="46.59432" lon="6.33166"><ele>1421</ele><time>2024-05-20T11:54:22Z</time></trkpt>
<trkpt lat="46.59445" lon="6.33172"><ele>1422</ele><time>2024-05-20T11:54:30Z</time></trkpt>
<trkpt lat="46.59456" lon="6.33184"><ele>1422.8</ele><time>2024-05-20T11:54:38Z</time></trkpt>
<trkpt lat="46.59457" lon="6.33186"><ele>1423.2</ele><time>2024-05-20T11:54:39Z</time></trkpt>
<trkpt lat="46.59461" lon="6.33198"><ele>1424.4</ele><time>2024-05-20T11:54:45Z</time></trkpt>
<trkpt lat="46.59464" lon="6.3321"><ele>1425.4</ele><time>2024-05-20T11:54:53Z</time></trkpt>
<trkpt lat="46.59471" lon="6.33224"><ele>1426.4</ele><time>2024-05-20T11:55:00Z</time></trkpt>
<trkpt lat="46.59472" lon="6.33226"><ele>1426.4</ele><time>2024-05-20T11:55:01Z</time></trkpt>
<trkpt lat="46.59479" lon="6.3323"><ele>1427</ele><time>2024-05-20T11:55:06Z</time></trkpt>
<trkpt lat="46.59483" lon="6.33229"><ele>1427.4</ele><time>2024-05-20T11:55:10Z</time></trkpt>
<trkpt lat="46.5949" lon="6.33227"><ele>1428</ele><time>2024-05-20T11:55:15Z</time></trkpt>
<trkpt lat="46.59493" lon="6.33224"><ele>1428.4</ele><time>2024-05-20T11:55:18Z</time></trkpt>
<trkpt lat="46.59501" lon="6.33222"><ele>1429</ele><time>2024-05-20T11:55:22Z</time></trkpt>
<trkpt lat="46.59505" lon="6.33223"><ele>1429.6</ele><time>2024-05-20T11:55:25Z</time></trkpt>
<trkpt lat="46.5951" lon="6.33224"><ele>1430</ele><time>2024-05-20T11:55:29Z</time></trkpt>
<trkpt lat="46.59515" lon="6.33229"><ele>1430.6</ele><time>2024-05-20T11:55:33Z</time></trkpt>
<trkpt lat="46.59518" lon="6.33232"><ele>1431</ele><time>2024-05-20T11:55:36Z</time></trkpt>
<trkpt lat="46.5952" lon="6.33238"><ele>1431.6</ele><time>2024-05-20T11:55:40Z</time></trkpt>
<trkpt lat="46.59521" lon="6.33245"><ele>1432.2</ele><time>2024-05-20T11:55:44Z</time></trkpt>
<trkpt lat="46.5952" lon="6.33251"><ele>1432.6</ele><time>2024-05-20T11:55:48Z</time></trkpt>
<trkpt lat="46.59519" lon="6.33255"><ele>1432.8</ele><time>2024-05-20T11:55:50Z</time></trkpt>
<trkpt lat="46.59519" lon="6.33257"><ele>1432.8</ele><time>2024-05-20T11:55:51Z</time></trkpt>
<trkpt lat="46.59515" lon="6.33268"><ele>1433.6</ele><time>2024-05-20T11:55:58Z</time></trkpt>
<trkpt lat="46.59514" lon="6.33273"><ele>1433.8</ele><time>2024-05-20T11:56:01Z</time></trkpt>
<trkpt lat="46.59512" lon="6.33284"><ele>1434.6</ele><time>2024-05-20T11:56:07Z</time></trkpt>
<trkpt lat="46.59512" lon="6.33288"><ele>1435</ele><time>2024-05-20T11:56:10Z</time></trkpt>
<trkpt lat="46.59511" lon="6.33298"><ele>1435.8</ele><time>2024-05-20T11:56:16Z</time></trkpt>
<trkpt lat="46.59511" lon="6.33302"><ele>1436</ele><time>2024-05-20T11:56:18Z</time></trkpt>
<trkpt lat="46.5951" lon="6.33309"><ele>1436.8</ele><time>2024-05-20T11:56:22Z</time></trkpt>
<trkpt lat="46.5951" lon="6.33313"><ele>1437.2</ele><time>2024-05-20T11:56:24Z</time></trkpt>
<trkpt lat="46.59511" lon="6.33322"><ele>1438</ele><time>2024-05-20T11:56:30Z</time></trkpt>
<trkpt lat="46.5951" lon="6.33324"><ele>1438.2</ele><time>2024-05-20T11:56:32Z</time></trkpt>
<trkpt lat="46.5951" lon="6.33332"><ele>1439</ele><time>2024-05-20T11:56:37Z</time></trkpt>
<trkpt lat="46.59512" lon="6.33338"><ele>1439.2</ele><time>2024-05-20T11:56:41Z</time></trkpt>
<trkpt lat="46.59513" lon="6.33341"><ele>1439.6</ele><time>2024-05-20T11:56:43Z</time></trkpt>
<trkpt lat="46.59516" lon="6.33347"><ele>1440.4</ele><time>2024-05-20T11:56:49Z</time></trkpt>
<trkpt lat="46.59517" lon="6.33348"><ele>1440.4</ele><time>2024-05-20T11:56:50Z</time></trkpt>
<trkpt lat="46.59523" lon="6.33351"><ele>1441.4</ele><time>2024-05-20T11:56:57Z</time></trkpt>
<trkpt lat="46.59527" lon="6.33353"><ele>1442.4</ele><time>2024-05-20T11:57:04Z</time></trkpt>
<trkpt lat="46.59528" lon="6.33353"><ele>1442.6</ele><time>2024-05-20T11:57:05Z</time></trkpt>
<trkpt lat="46.59534" lon="6.33348"><ele>1443.6</ele><time>2024-05-20T11:57:10Z</time></trkpt>
<trkpt lat="46.59535" lon="6.33346"><ele>1443.8</ele><time>2024-05-20T11:57:11Z</time></trkpt>
<trkpt lat="46.59538" lon="6.33339"><ele>1444.6</ele><time>2024-05-20T11:57:16Z</time></trkpt>
<trkpt lat="46.59538" lon="6.33339"><ele>1444.6</ele><time>2024-05-20T11:57:17Z</time></trkpt>
<trkpt lat="46.59539" lon="6.33337"><ele>1444.8</ele><time>2024-05-20T11:57:18Z</time></trkpt>
<trkpt lat="46.59542" lon="6.33333"><ele>1445.6</ele><time>2024-05-20T11:57:22Z</time></trkpt>
<trkpt lat="46.59543" lon="6.33329"><ele>1445.8</ele><time>2024-05-20T11:57:25Z</time></trkpt>
<trkpt lat="46.59544" lon="6.33328"><ele>1446</ele><time>2024-05-20T11:57:26Z</time></trkpt>
<trkpt lat="46.59544" lon="6.33326"><ele>1446</ele><time>2024-05-20T11:57:27Z</time></trkpt>
<trkpt lat="46.59545" lon="6.33325"><ele>1446.2</ele><time>2024-05-20T11:57:28Z</time></trkpt>
<trkpt lat="46.59549" lon="6.33319"><ele>1447.2</ele><time>2024-05-20T11:57:33Z</time></trkpt>
<trkpt lat="46.59549" lon="6.33316"><ele>1447.4</ele><time>2024-05-20T11:57:35Z</time></trkpt>
<trkpt lat="46.59554" lon="6.33309"><ele>1448.2</ele><time>2024-05-20T11:57:41Z</time></trkpt>
<trkpt lat="46.59555" lon="6.33307"><ele>1448.6</ele><time>2024-05-20T11:57:43Z</time></trkpt>
<trkpt lat="46.59558" lon="6.33304"><ele>1449.2</ele><time>2024-05-20T11:57:47Z</time></trkpt>
<trkpt lat="46.59558" lon="6.33302"><ele>1449.4</ele><time>2024-05-20T11:57:48Z</time></trkpt>
<trkpt lat="46.59561" lon="6.33299"><ele>1449.8</ele><time>2024-05-20T11:57:51Z</time></trkpt>
<trkpt lat="46.59564" lon="6.33296"><ele>1450.4</ele><time>2024-05-20T11:57:55Z</time></trkpt>
<trkpt lat="46.59566" lon="6.33295"><ele>1450.6</ele><time>2024-05-20T11:57:57Z</time></trkpt>
<trkpt lat="46.5957" lon="6.33293"><ele>1451.4</ele><time>2024-05-20T11:58:02Z</time></trkpt>
<trkpt lat="46.59571" lon="6.33291"><ele>1452</ele><time>2024-05-20T11:58:06Z</time></trkpt>
<trkpt lat="46.59578" lon="6.33288"><ele>1452.6</ele><time>2024-05-20T11:58:11Z</time></trkpt>
<trkpt lat="46.59581" lon="6.33286"><ele>1452.8</ele><time>2024-05-20T11:58:13Z</time></trkpt>
<trkpt lat="46.59583" lon="6.33285"><ele>1453</ele><time>2024-05-20T11:58:15Z</time></trkpt>
<trkpt lat="46.59585" lon="6.33284"><ele>1453.4</ele><time>2024-05-20T11:58:17Z</time></trkpt>
<trkpt lat="46.59586" lon="6.33284"><ele>1453.6</ele><time>2024-05-20T11:58:18Z</time></trkpt>
<trkpt lat="46.59587" lon="6.33284"><ele>1453.6</ele><time>2024-05-20T11:58:19Z</time></trkpt>
<trkpt lat="46.59591" lon="6.33283"><ele>1454.4</ele><time>2024-05-20T11:58:26Z</time></trkpt>
<trkpt lat="46.59592" lon="6.33283"><ele>1454.6</ele><time>2024-05-20T11:58:27Z</time></trkpt>
<trkpt lat="46.59597" lon="6.3328"><ele>1455.6</ele><time>2024-05-20T11:58:34Z</time></trkpt>
<trkpt lat="46.59598" lon="6.33279"><ele>1455.8</ele><time>2024-05-20T11:58:35Z</time></trkpt>
<trkpt lat="46.59605" lon="6.33274"><ele>1456.8</ele><time>2024-05-20T11:58:42Z</time></trkpt>
<trkpt lat="46.59608" lon="6.33271"><ele>1457.2</ele><time>2024-05-20T11:58:45Z</time></trkpt>
<trkpt lat="46.59611" lon="6.33266"><ele>1457.8</ele><time>2024-05-20T11:58:50Z</time></trkpt>
<trkpt lat="46.59613" lon="6.33265"><ele>1458.2</ele><time>2024-05-20T11:58:52Z</time></trkpt>
<trkpt lat="46.59617" lon="6.33261"><ele>1458.8</ele><time>2024-05-20T11:58:58Z</time></trkpt>
<trkpt lat="46.59619" lon="6.3326"><ele>1459</ele><time>2024-05-20T11:59:00Z</time></trkpt>
<trkpt lat="46.5962" lon="6.33259"><ele>1459.2</ele><time>2024-05-20T11:59:01Z</time></trkpt>
<trkpt lat="46.59624" lon="6.33258"><ele>1459.8</ele><time>2024-05-20T11:59:05Z</time></trkpt>
<trkpt lat="46.59625" lon="6.33257"><ele>1460</ele><time>2024-05-20T11:59:06Z</time></trkpt>
<trkpt lat="46.59632" lon="6.33252"><ele>1460.8</ele><time>2024-05-20T11:59:12Z</time></trkpt>
<trkpt lat="46.59633" lon="6.33252"><ele>1461</ele><time>2024-05-20T11:59:13Z</time></trkpt>
<trkpt lat="46.59641" lon="6.33241"><ele>1461.8</ele><time>2024-05-20T11:59:21Z</time></trkpt>
<trkpt lat="46.59642" lon="6.3324"><ele>1462</ele><time>2024-05-20T11:59:22Z</time></trkpt>
<trkpt lat="46.59642" lon="6.33237"><ele>1462.2</ele><time>2024-05-20T11:59:23Z</time></trkpt>
<trkpt lat="46.59643" lon="6.33233"><ele>1462.4</ele><time>2024-05-20T11:59:25Z</time></trkpt>
<trkpt lat="46.59644" lon="6.33229"><ele>1462.6</ele><time>2024-05-20T11:59:28Z</time></trkpt>
<trkpt lat="46.59645" lon="6.33224"><ele>1463</ele><time>2024-05-20T11:59:31Z</time></trkpt>
<trkpt lat="46.59646" lon="6.33217"><ele>1463.6</ele><time>2024-05-20T11:59:35Z</time></trkpt>
<trkpt lat="46.59648" lon="6.33208"><ele>1464</ele><time>2024-05-20T11:59:40Z</time></trkpt>
<trkpt lat="46.59649" lon="6.33205"><ele>1464.4</ele><time>2024-05-20T11:59:42Z</time></trkpt>
<trkpt lat="46.59649" lon="6.33191"><ele>1465.2</ele><time>2024-05-20T11:59:49Z</time></trkpt>
<trkpt lat="46.59649" lon="6.33189"><ele>1465.2</ele><time>2024-05-20T11:59:50Z</time></trkpt>
<trkpt lat="46.59645" lon="6.3318"><ele>1466</ele><time>2024-05-20T11:59:57Z</time></trkpt>
<trkpt lat="46.59645" lon="6.33179"><ele>1466.2</ele><time>2024-05-20T11:59:58Z</time></trkpt>
<trkpt lat="46.59639" lon="6.33167"><ele>1467.2</ele><time>2024-05-20T12:00:05Z</time></trkpt>
<trkpt lat="46.59635" lon="6.33158"><ele>1468.2</ele><time>2024-05-20T12:00:11Z</time></trkpt>
<trkpt lat="46.59634" lon="6.33154"><ele>1468.4</ele><time>2024-05-20T12:00:13Z</time></trkpt>
<trkpt lat="46.59632" lon="6.33145"><ele>1469.2</ele><time>2024-05-20T12:00:18Z</time></trkpt>
<trkpt lat="46.59631" lon="6.33141"><ele>1469.6</ele><time>2024-05-20T12:00:20Z</time></trkpt>
<trkpt lat="46.59631" lon="6.33132"><ele>1470.4</ele><time>2024-05-20T12:00:25Z</time></trkpt>
<trkpt lat="46.59631" lon="6.3313"><ele>1470.4</ele><time>2024-05-20T12:00:26Z</time></trkpt>
<trkpt lat="46.59632" lon="6.33119"><ele>1471.4</ele><time>2024-05-20T12:00:32Z</time></trkpt>
<trkpt lat="46.59633" lon="6.33117"><ele>1471.4</ele><time>2024-05-20T12:00:33Z</time></trkpt>
<trkpt lat="46.59634" lon="6.3311"><ele>1472.2</ele><time>2024-05-20T12:00:37Z</time></trkpt>
<trkpt lat="46.59634" lon="6.33105"><ele>1472.6</ele><time>2024-05-20T12:00:40Z</time></trkpt>
<trkpt lat="46.59635" lon="6.33098"><ele>1473</ele><time>2024-05-20T12:00:44Z</time></trkpt>
<trkpt lat="46.59638" lon="6.33089"><ele>1473.6</ele><time>2024-05-20T12:00:49Z</time></trkpt>
<trkpt lat="46.59638" lon="6.33087"><ele>1473.8</ele><time>2024-05-20T12:00:50Z</time></trkpt>
<trkpt lat="46.59641" lon="6.33075"><ele>1474.8</ele><time>2024-05-20T12:00:56Z</time></trkpt>
<trkpt lat="46.59641" lon="6.33071"><ele>1475.2</ele><time>2024-05-20T12:00:58Z</time></trkpt>
<trkpt lat="46.59641" lon="6.33069"><ele>1475.2</ele><time>2024-05-20T12:00:59Z</time></trkpt>
<trkpt lat="46.59642" lon="6.33065"><ele>1475.4</ele><time>2024-05-20T12:01:01Z</time></trkpt>
<trkpt lat="46.59642" lon="6.33062"><ele>1476</ele><time>2024-05-20T12:01:03Z</time></trkpt>
<trkpt lat="46.59642" lon="6.33056"><ele>1476.2</ele><time>2024-05-20T12:01:06Z</time></trkpt>
<trkpt lat="46.59644" lon="6.33049"><ele>1477</ele><time>2024-05-20T12:01:11Z</time></trkpt>
<trkpt lat="46.59643" lon="6.33045"><ele>1477.2</ele><time>2024-05-20T12:01:13Z</time></trkpt>
<trkpt lat="46.59641" lon="6.33036"><ele>1478</ele><time>2024-05-20T12:01:18Z</time></trkpt>
<trkpt lat="46.59639" lon="6.33034"><ele>1478.2</ele><time>2024-05-20T12:01:20Z</time></trkpt>
<trkpt lat="46.59636" lon="6.33028"><ele>1479</ele><time>2024-05-20T12:01:25Z</time></trkpt>
<trkpt lat="46.59636" lon="6.33027"><ele>1479.2</ele><time>2024-05-20T12:01:26Z</time></trkpt>
<trkpt lat="46.5963" lon="6.33015"><ele>1479.6</ele><time>2024-05-20T12:01:32Z</time></trkpt>
<trkpt lat="46.59625" lon="6.32999"><ele>1480</ele><time>2024-05-20T12:01:38Z</time></trkpt>
<trkpt lat="46.59622" lon="6.32981"><ele>1480</ele><time>2024-05-20T12:01:43Z</time></trkpt>
<trkpt lat="46.59621" lon="6.32976"><ele>1480.2</ele><time>2024-05-20T12:01:45Z</time></trkpt>
<trkpt lat="46.5962" lon="6.32973"><ele>1480.2</ele><time>2024-05-20T12:01:46Z</time></trkpt>
<trkpt lat="46.59621" lon="6.32953"><ele>1480.8</ele><time>2024-05-20T12:01:53Z</time></trkpt>
<trkpt lat="46.59623" lon="6.32946"><ele>1481.2</ele><time>2024-05-20T12:01:56Z</time></trkpt>
<trkpt lat="46.59625" lon="6.32943"><ele>1481.2</ele><time>2024-05-20T12:01:57Z</time></trkpt>
<trkpt lat="46.59625" lon="6.3294"><ele>1481.4</ele><time>2024-05-20T12:01:58Z</time></trkpt>
<trkpt lat="46.59628" lon="6.32935"><ele>1481.4</ele><time>2024-05-20T12:02:00Z</time></trkpt>
<trkpt lat="46.59635" lon="6.32919"><ele>1481.8</ele><time>2024-05-20T12:02:06Z</time></trkpt>
<trkpt lat="46.59634" lon="6.32903"><ele>1482.2</ele><time>2024-05-20T12:02:11Z</time></trkpt>
<trkpt lat="46.59633" lon="6.32901"><ele>1482.4</ele><time>2024-05-20T12:02:12Z</time></trkpt>
<trkpt lat="46.5963" lon="6.32894"><ele>1483</ele><time>2024-05-20T12:02:15Z</time></trkpt>
<trkpt lat="46.59628" lon="6.32884"><ele>1483.6</ele><time>2024-05-20T12:02:19Z</time></trkpt>
<trkpt lat="46.59627" lon="6.32879"><ele>1483.8</ele><time>2024-05-20T12:02:21Z</time></trkpt>
<trkpt lat="46.59624" lon="6.32869"><ele>1484.4</ele><time>2024-05-20T12:02:25Z</time></trkpt>
<trkpt lat="46.59623" lon="6.32864"><ele>1484.6</ele><time>2024-05-20T12:02:27Z</time></trkpt>
<trkpt lat="46.59622" lon="6.32859"><ele>1484.8</ele><time>2024-05-20T12:02:29Z</time></trkpt>
<trkpt lat="46.5962" lon="6.32855"><ele>1485.2</ele><time>2024-05-20T12:02:31Z</time></trkpt>
<trkpt lat="46.59618" lon="6.32841"><ele>1485.8</ele><time>2024-05-20T12:02:36Z</time></trkpt>
<trkpt lat="46.59615" lon="6.3282"><ele>1487</ele><time>2024-05-20T12:02:44Z</time></trkpt>
<trkpt lat="46.59608" lon="6.32798"><ele>1488.2</ele><time>2024-05-20T12:02:52Z</time></trkpt>
<trkpt lat="46.59603" lon="6.3279"><ele>1489.2</ele><time>2024-05-20T12:02:58Z</time></trkpt>
<trkpt lat="46.59603" lon="6.32789"><ele>1489.4</ele><time>2024-05-20T12:02:59Z</time></trkpt>
<trkpt lat="46.59589" lon="6.32785"><ele>1490.2</ele><time>2024-05-20T12:03:07Z</time></trkpt>
<trkpt lat="46.59587" lon="6.32785"><ele>1490.4</ele><time>2024-05-20T12:03:08Z</time></trkpt>
<trkpt lat="46.59578" lon="6.32786"><ele>1491</ele><time>2024-05-20T12:03:14Z</time></trkpt>
<trkpt lat="46.59572" lon="6.32787"><ele>1491.4</ele><time>2024-05-20T12:03:19Z</time></trkpt>
<trkpt lat="46.5956" lon="6.32785"><ele>1492.2</ele><time>2024-05-20T12:03:27Z</time></trkpt>
<trkpt lat="46.59558" lon="6.32782"><ele>1492.6</ele><time>2024-05-20T12:03:29Z</time></trkpt>
<trkpt lat="46.59554" lon="6.32775"><ele>1493.2</ele><time>2024-05-20T12:03:34Z</time></trkpt>
<trkpt lat="46.59552" lon="6.3277"><ele>1493.6</ele><time>2024-05-20T12:03:37Z</time></trkpt>
<trkpt lat="46.59546" lon="6.32758"><ele>1494.8</ele><time>2024-05-20T12:03:44Z</time></trkpt>
<trkpt lat="46.59541" lon="6.32747"><ele>1495.8</ele><time>2024-05-20T12:03:51Z</time></trkpt>
<trkpt lat="46.5954" lon="6.32743"><ele>1495.8</ele><time>2024-05-20T12:03:53Z</time></trkpt>
<trkpt lat="46.59536" lon="6.32731"><ele>1496.8</ele><time>2024-05-20T12:03:59Z</time></trkpt>
<trkpt lat="46.59536" lon="6.32724"><ele>1497.2</ele><time>2024-05-20T12:04:02Z</time></trkpt>
<trkpt lat="46.59535" lon="6.32717"><ele>1497.8</ele><time>2024-05-20T12:04:06Z</time></trkpt>
<trkpt lat="46.59536" lon="6.32706"><ele>1498.6</ele><time>2024-05-20T12:04:11Z</time></trkpt>
<trkpt lat="46.59536" lon="6.32703"><ele>1499</ele><time>2024-05-20T12:04:14Z</time></trkpt>
<trkpt lat="46.59536" lon="6.32698"><ele>1499.4</ele><time>2024-05-20T12:04:17Z</time></trkpt>
<trkpt lat="46.59536" lon="6.32686"><ele>1500</ele><time>2024-05-20T12:04:23Z</time></trkpt>
<trkpt lat="46.59536" lon="6.32683"><ele>1500.2</ele><time>2024-05-20T12:04:24Z</time></trkpt>
<trkpt lat="46.59536" lon="6.32675"><ele>1501.2</ele><time>2024-05-20T12:04:28Z</time></trkpt>
<trkpt lat="46.59538" lon="6.32669"><ele>1501.8</ele><time>2024-05-20T12:04:31Z</time></trkpt>
<trkpt lat="46.5954" lon="6.32664"><ele>1502.2</ele><time>2024-05-20T12:04:34Z</time></trkpt>
<trkpt lat="46.59544" lon="6.32658"><ele>1502.8</ele><time>2024-05-20T12:04:38Z</time></trkpt>
<trkpt lat="46.59547" lon="6.32653"><ele>1503.2</ele><time>2024-05-20T12:04:41Z</time></trkpt>
<trkpt lat="46.59555" lon="6.32645"><ele>1504.2</ele><time>2024-05-20T12:04:47Z</time></trkpt>
<trkpt lat="46.59556" lon="6.32644"><ele>1504.4</ele><time>2024-05-20T12:04:48Z</time></trkpt>
<trkpt lat="46.59564" lon="6.32623"><ele>1505.2</ele><time>2024-05-20T12:04:56Z</time></trkpt>
<trkpt lat="46.59565" lon="6.32615"><ele>1505.4</ele><time>2024-05-20T12:04:59Z</time></trkpt>
<trkpt lat="46.59564" lon="6.32602"><ele>1505.8</ele><time>2024-05-20T12:05:03Z</time></trkpt>
<trkpt lat="46.59558" lon="6.32587"><ele>1506.6</ele><time>2024-05-20T12:05:09Z</time></trkpt>
<trkpt lat="46.59556" lon="6.32585"><ele>1506.6</ele><time>2024-05-20T12:05:10Z</time></trkpt>
<trkpt lat="46.59547" lon="6.32577"><ele>1507.6</ele><time>2024-05-20T12:05:16Z</time></trkpt>
<trkpt lat="46.59542" lon="6.32573"><ele>1507.8</ele><time>2024-05-20T12:05:19Z</time></trkpt>
<trkpt lat="46.59534" lon="6.32565"><ele>1508.8</ele><time>2024-05-20T12:05:25Z</time></trkpt>
<trkpt lat="46.59525" lon="6.32554"><ele>1509.8</ele><time>2024-05-20T12:05:32Z</time></trkpt>
<trkpt lat="46.59524" lon="6.32552"><ele>1510</ele><time>2024-05-20T12:05:33Z</time></trkpt>
<trkpt lat="46.59519" lon="6.32535"><ele>1510.8</ele><time>2024-05-20T12:05:41Z</time></trkpt>
<trkpt lat="46.59518" lon="6.32533"><ele>1510.8</ele><time>2024-05-20T12:05:42Z</time></trkpt>
<trkpt lat="46.59514" lon="6.32514"><ele>1512</ele><time>2024-05-20T12:05:50Z</time></trkpt>
<trkpt lat="46.59514" lon="6.325"><ele>1513</ele><time>2024-05-20T12:05:56Z</time></trkpt>
<trkpt lat="46.59515" lon="6.32492"><ele>1513.4</ele><time>2024-05-20T12:05:59Z</time></trkpt>
<trkpt lat="46.59518" lon="6.32485"><ele>1514</ele><time>2024-05-20T12:06:02Z</time></trkpt>
<trkpt lat="46.59525" lon="6.32478"><ele>1515</ele><time>2024-05-20T12:06:07Z</time></trkpt>
<trkpt lat="46.59527" lon="6.32478"><ele>1515.2</ele><time>2024-05-20T12:06:08Z</time></trkpt>
<trkpt lat="46.59537" lon="6.32478"><ele>1515.8</ele><time>2024-05-20T12:06:14Z</time></trkpt>
<trkpt lat="46.59545" lon="6.32485"><ele>1516.4</ele><time>2024-05-20T12:06:19Z</time></trkpt>
<trkpt lat="46.59549" lon="6.32488"><ele>1516.6</ele><time>2024-05-20T12:06:21Z</time></trkpt>
<trkpt lat="46.59558" lon="6.32498"><ele>1517.4</ele><time>2024-05-20T12:06:27Z</time></trkpt>
<trkpt lat="46.59562" lon="6.32503"><ele>1517.4</ele><time>2024-05-20T12:06:29Z</time></trkpt>
<trkpt lat="46.59579" lon="6.32523"><ele>1518.2</ele><time>2024-05-20T12:06:37Z</time></trkpt>
<trkpt lat="46.59589" lon="6.32535"><ele>1518.4</ele><time>2024-05-20T12:06:42Z</time></trkpt>
<trkpt lat="46.59593" lon="6.32539"><ele>1518.8</ele><time>2024-05-20T12:06:44Z</time></trkpt>
<trkpt lat="46.59616" lon="6.32553"><ele>1519</ele><time>2024-05-20T12:06:51Z</time></trkpt>
<trkpt lat="46.59634" lon="6.32561"><ele>1519.2</ele><time>2024-05-20T12:06:56Z</time></trkpt>
<trkpt lat="46.5964" lon="6.32564"><ele>1519.6</ele><time>2024-05-20T12:06:58Z</time></trkpt>
<trkpt lat="46.59647" lon="6.32567"><ele>1520</ele><time>2024-05-20T12:07:00Z</time></trkpt>
<trkpt lat="46.59666" lon="6.32571"><ele>1520.6</ele><time>2024-05-20T12:07:06Z</time></trkpt>
<trkpt lat="46.59678" lon="6.32575"><ele>1521.2</ele><time>2024-05-20T12:07:10Z</time></trkpt>
<trkpt lat="46.59696" lon="6.32574"><ele>1521.8</ele><time>2024-05-20T12:07:15Z</time></trkpt>
<trkpt lat="46.59702" lon="6.32574"><ele>1522</ele><time>2024-05-20T12:07:17Z</time></trkpt>
<trkpt lat="46.59715" lon="6.32573"><ele>1523</ele><time>2024-05-20T12:07:23Z</time></trkpt>
<trkpt lat="46.59722" lon="6.3257"><ele>1523.8</ele><time>2024-05-20T12:07:28Z</time></trkpt>
<trkpt lat="46.59728" lon="6.32569"><ele>1524</ele><time>2024-05-20T12:07:30Z</time></trkpt>
<trkpt lat="46.59737" lon="6.32571"><ele>1524.8</ele><time>2024-05-20T12:07:34Z</time></trkpt>
<trkpt lat="46.5974" lon="6.32573"><ele>1525.2</ele><time>2024-05-20T12:07:36Z</time></trkpt>
<trkpt lat="46.59751" lon="6.3258"><ele>1526</ele><time>2024-05-20T12:07:43Z</time></trkpt>
<trkpt lat="46.59753" lon="6.32583"><ele>1526.4</ele><time>2024-05-20T12:07:45Z</time></trkpt>
<trkpt lat="46.59761" lon="6.32594"><ele>1527</ele><time>2024-05-20T12:07:51Z</time></trkpt>
<trkpt lat="46.59765" lon="6.32599"><ele>1527.6</ele><time>2024-05-20T12:07:54Z</time></trkpt>
<trkpt lat="46.5977" lon="6.32607"><ele>1528.2</ele><time>2024-05-20T12:07:59Z</time></trkpt>
<trkpt lat="46.59772" lon="6.32609"><ele>1528.6</ele><time>2024-05-20T12:08:01Z</time></trkpt>
<trkpt lat="46.59778" lon="6.32616"><ele>1529.4</ele><time>2024-05-20T12:08:06Z</time></trkpt>
<trkpt lat="46.59782" lon="6.32618"><ele>1529.8</ele><time>2024-05-20T12:08:09Z</time></trkpt>
<trkpt lat="46.59786" lon="6.3262"><ele>1530.6</ele><time>2024-05-20T12:08:13Z</time></trkpt>
<trkpt lat="46.59787" lon="6.32621"><ele>1530.8</ele><time>2024-05-20T12:08:14Z</time></trkpt>
<trkpt lat="46.59794" lon="6.32625"><ele>1531.8</ele><time>2024-05-20T12:08:21Z</time></trkpt>
<trkpt lat="46.59801" lon="6.32627"><ele>1532.8</ele><time>2024-05-20T12:08:28Z</time></trkpt>
<trkpt lat="46.59802" lon="6.32628"><ele>1533</ele><time>2024-05-20T12:08:29Z</time></trkpt>
<trkpt lat="46.59808" lon="6.32632"><ele>1534</ele><time>2024-05-20T12:08:34Z</time></trkpt>
<trkpt lat="46.59811" lon="6.32633"><ele>1534.2</ele><time>2024-05-20T12:08:36Z</time></trkpt>
<trkpt lat="46.59817" lon="6.32635"><ele>1534.8</ele><time>2024-05-20T12:08:41Z</time></trkpt>
<trkpt lat="46.59818" lon="6.32634"><ele>1535</ele><time>2024-05-20T12:08:42Z</time></trkpt>
<trkpt lat="46.5982" lon="6.32635"><ele>1535.2</ele><time>2024-05-20T12:08:43Z</time></trkpt>
<trkpt lat="46.59824" lon="6.32637"><ele>1535.8</ele><time>2024-05-20T12:08:47Z</time></trkpt>
<trkpt lat="46.59828" lon="6.3264"><ele>1536.2</ele><time>2024-05-20T12:08:51Z</time></trkpt>
<trkpt lat="46.59831" lon="6.32643"><ele>1536.6</ele><time>2024-05-20T12:08:54Z</time></trkpt>
<trkpt lat="46.59835" lon="6.32645"><ele>1537.4</ele><time>2024-05-20T12:08:58Z</time></trkpt>
<trkpt lat="46.59839" lon="6.32646"><ele>1537.8</ele><time>2024-05-20T12:09:01Z</time></trkpt>
<trkpt lat="46.59843" lon="6.32645"><ele>1538.4</ele><time>2024-05-20T12:09:05Z</time></trkpt>
<trkpt lat="46.59845" lon="6.32645"><ele>1538.8</ele><time>2024-05-20T12:09:07Z</time></trkpt>
<trkpt lat="46.5985" lon="6.32643"><ele>1539.4</ele><time>2024-05-20T12:09:11Z</time></trkpt>
<trkpt lat="46.59854" lon="6.3264"><ele>1540</ele><time>2024-05-20T12:09:15Z</time></trkpt>
<trkpt lat="46.59858" lon="6.32634"><ele>1540.4</ele><time>2024-05-20T12:09:19Z</time></trkpt>
<trkpt lat="46.5986" lon="6.32627"><ele>1541</ele><time>2024-05-20T12:09:23Z</time></trkpt>
<trkpt lat="46.59863" lon="6.32623"><ele>1541.6</ele><time>2024-05-20T12:09:26Z</time></trkpt>
<trkpt lat="46.59865" lon="6.32618"><ele>1542</ele><time>2024-05-20T12:09:30Z</time></trkpt>
<trkpt lat="46.59872" lon="6.32615"><ele>1542.6</ele><time>2024-05-20T12:09:35Z</time></trkpt>
<trkpt lat="46.59873" lon="6.32615"><ele>1542.8</ele><time>2024-05-20T12:09:36Z</time></trkpt>
<trkpt lat="46.59881" lon="6.32614"><ele>1543.8</ele><time>2024-05-20T12:09:42Z</time></trkpt>
<trkpt lat="46.59882" lon="6.32614"><ele>1543.8</ele><time>2024-05-20T12:09:43Z</time></trkpt>
<trkpt lat="46.59891" lon="6.32615"><ele>1544.4</ele><time>2024-05-20T12:09:50Z</time></trkpt>
<trkpt lat="46.59893" lon="6.32617"><ele>1544.8</ele><time>2024-05-20T12:09:52Z</time></trkpt>
<trkpt lat="46.59901" lon="6.3262"><ele>1545.6</ele><time>2024-05-20T12:09:58Z</time></trkpt>
<trkpt lat="46.59905" lon="6.32621"><ele>1546</ele><time>2024-05-20T12:10:01Z</time></trkpt>
<trkpt lat="46.59914" lon="6.32626"><ele>1546.6</ele><time>2024-05-20T12:10:06Z</time></trkpt>
<trkpt lat="46.59925" lon="6.32641"><ele>1546.8</ele><time>2024-05-20T12:10:12Z</time></trkpt>
<trkpt lat="46.59942" lon="6.3266"><ele>1546.6</ele><time>2024-05-20T12:10:18Z</time></trkpt>
<trkpt lat="46.5996" lon="6.32681"><ele>1546.6</ele><time>2024-05-20T12:10:25Z</time></trkpt>
<trkpt lat="46.59979" lon="6.32702"><ele>1546.4</ele><time>2024-05-20T12:10:30Z</time></trkpt>
<trkpt lat="46.59984" lon="6.32705"><ele>1546.2</ele><time>2024-05-20T12:10:31Z</time></trkpt>
<trkpt lat="46.60005" lon="6.32716"><ele>1546.4</ele><time>2024-05-20T12:10:36Z</time></trkpt>
<trkpt lat="46.60009" lon="6.32716"><ele>1547.2</ele><time>2024-05-20T12:10:38Z</time></trkpt>
<trkpt lat="46.60011" lon="6.32717"><ele>1548</ele><time>2024-05-20T12:10:40Z</time></trkpt>
<trkpt lat="46.60012" lon="6.32717"><ele>1548.4</ele><time>2024-05-20T12:10:41Z</time></trkpt>
<trkpt lat="46.60018" lon="6.32714"><ele>1549.4</ele><time>2024-05-20T12:10:47Z</time></trkpt>
<trkpt lat="46.60026" lon="6.3271"><ele>1550.6</ele><time>2024-05-20T12:10:54Z</time></trkpt>
<trkpt lat="46.60032" lon="6.32704"><ele>1551.6</ele><time>2024-05-20T12:11:01Z</time></trkpt>
<trkpt lat="46.60033" lon="6.32702"><ele>1551.8</ele><time>2024-05-20T12:11:02Z</time></trkpt>
<trkpt lat="46.6004" lon="6.32697"><ele>1552.6</ele><time>2024-05-20T12:11:08Z</time></trkpt>
<trkpt lat="46.6005" lon="6.32693"><ele>1553.8</ele><time>2024-05-20T12:11:16Z</time></trkpt>
<trkpt lat="46.60051" lon="6.32692"><ele>1553.8</ele><time>2024-05-20T12:11:17Z</time></trkpt>
<trkpt lat="46.60057" lon="6.32689"><ele>1554.8</ele><time>2024-05-20T12:11:23Z</time></trkpt>
<trkpt lat="46.60061" lon="6.32685"><ele>1555.4</ele><time>2024-05-20T12:11:26Z</time></trkpt>
<trkpt lat="46.60065" lon="6.32681"><ele>1556</ele><time>2024-05-20T12:11:30Z</time></trkpt>
<trkpt lat="46.60068" lon="6.32678"><ele>1556.4</ele><time>2024-05-20T12:11:33Z</time></trkpt>
<trkpt lat="46.60071" lon="6.32671"><ele>1557</ele><time>2024-05-20T12:11:38Z</time></trkpt>
<trkpt lat="46.60072" lon="6.32668"><ele>1557.6</ele><time>2024-05-20T12:11:40Z</time></trkpt>
<trkpt lat="46.60074" lon="6.32664"><ele>1558</ele><time>2024-05-20T12:11:43Z</time></trkpt>
<trkpt lat="46.60074" lon="6.32662"><ele>1558.2</ele><time>2024-05-20T12:11:44Z</time></trkpt>
<trkpt lat="46.60076" lon="6.32658"><ele>1558.6</ele><time>2024-05-20T12:11:47Z</time></trkpt>
<trkpt lat="46.6008" lon="6.32652"><ele>1559.2</ele><time>2024-05-20T12:11:52Z</time></trkpt>
<trkpt lat="46.60084" lon="6.3265"><ele>1559.8</ele><time>2024-05-20T12:11:56Z</time></trkpt>
<trkpt lat="46.60094" lon="6.32646"><ele>1560.2</ele><time>2024-05-20T12:12:02Z</time></trkpt>
<trkpt lat="46.60103" lon="6.32631"><ele>1560.4</ele><time>2024-05-20T12:12:08Z</time></trkpt>
<trkpt lat="46.60108" lon="6.3261"><ele>1560.4</ele><time>2024-05-20T12:12:15Z</time></trkpt>
<trkpt lat="46.60108" lon="6.32607"><ele>1560.6</ele><time>2024-05-20T12:12:16Z</time></trkpt>
<trkpt lat="46.60107" lon="6.32595"><ele>1561.4</ele><time>2024-05-20T12:12:21Z</time></trkpt>
<trkpt lat="46.60106" lon="6.3259"><ele>1561.6</ele><time>2024-05-20T12:12:23Z</time></trkpt>
<trkpt lat="46.60095" lon="6.32569"><ele>1562</ele><time>2024-05-20T12:12:30Z</time></trkpt>
<trkpt lat="46.60092" lon="6.32561"><ele>1562.4</ele><time>2024-05-20T12:12:33Z</time></trkpt>
<trkpt lat="46.60088" lon="6.32549"><ele>1563</ele><time>2024-05-20T12:12:37Z</time></trkpt>
<trkpt lat="46.60085" lon="6.32538"><ele>1563.4</ele><time>2024-05-20T12:12:41Z</time></trkpt>
<trkpt lat="46.60081" lon="6.32521"><ele>1564.2</ele><time>2024-05-20T12:12:46Z</time></trkpt>
<trkpt lat="46.6008" lon="6.32505"><ele>1564.6</ele><time>2024-05-20T12:12:51Z</time></trkpt>
<trkpt lat="46.6008" lon="6.32502"><ele>1564.8</ele><time>2024-05-20T12:12:52Z</time></trkpt>
<trkpt lat="46.60078" lon="6.32493"><ele>1565.6</ele><time>2024-05-20T12:12:56Z</time></trkpt>
<trkpt lat="46.60076" lon="6.32484"><ele>1566.2</ele><time>2024-05-20T12:13:00Z</time></trkpt>
<trkpt lat="46.60074" lon="6.32478"><ele>1566.8</ele><time>2024-05-20T12:13:04Z</time></trkpt>
<trkpt lat="46.60069" lon="6.32471"><ele>1567.4</ele><time>2024-05-20T12:13:08Z</time></trkpt>
<trkpt lat="46.60062" lon="6.32464"><ele>1567.8</ele><time>2024-05-20T12:13:13Z</time></trkpt>
<trkpt lat="46.60055" lon="6.32458"><ele>1568.2</ele><time>2024-05-20T12:13:17Z</time></trkpt>
<trkpt lat="46.6004" lon="6.32448"><ele>1568.8</ele><time>2024-05-20T12:13:26Z</time></trkpt>
<trkpt lat="46.6003" lon="6.32442"><ele>1569.2</ele><time>2024-05-20T12:13:32Z</time></trkpt>
<trkpt lat="46.60018" lon="6.32434"><ele>1570</ele><time>2024-05-20T12:13:38Z</time></trkpt>
<trkpt lat="46.60013" lon="6.3243"><ele>1570</ele><time>2024-05-20T12:13:41Z</time></trkpt>
<trkpt lat="46.60005" lon="6.32415"><ele>1571</ele><time>2024-05-20T12:13:47Z</time></trkpt>
<trkpt lat="46.60005" lon="6.32412"><ele>1571.2</ele><time>2024-05-20T12:13:48Z</time></trkpt>
<trkpt lat="46.60005" lon="6.32404"><ele>1572</ele><time>2024-05-20T12:13:51Z</time></trkpt>
<trkpt lat="46.60006" lon="6.32396"><ele>1572.4</ele><time>2024-05-20T12:13:54Z</time></trkpt>
<trkpt lat="46.60009" lon="6.32388"><ele>1573</ele><time>2024-05-20T12:13:58Z</time></trkpt>
<trkpt lat="46.60011" lon="6.32382"><ele>1573.6</ele><time>2024-05-20T12:14:02Z</time></trkpt>
<trkpt lat="46.60013" lon="6.32376"><ele>1574</ele><time>2024-05-20T12:14:06Z</time></trkpt>
<trkpt lat="46.60014" lon="6.32371"><ele>1574.6</ele><time>2024-05-20T12:14:09Z</time></trkpt>
<trkpt lat="46.60014" lon="6.32367"><ele>1574.6</ele><time>2024-05-20T12:14:11Z</time></trkpt>
<trkpt lat="46.60015" lon="6.32363"><ele>1575.2</ele><time>2024-05-20T12:14:13Z</time></trkpt>
<trkpt lat="46.60013" lon="6.32357"><ele>1575.6</ele><time>2024-05-20T12:14:17Z</time></trkpt>
<trkpt lat="46.60011" lon="6.3235"><ele>1576.2</ele><time>2024-05-20T12:14:22Z</time></trkpt>
<trkpt lat="46.60009" lon="6.32347"><ele>1576.4</ele><time>2024-05-20T12:14:24Z</time></trkpt>
<trkpt lat="46.60008" lon="6.32344"><ele>1576.8</ele><time>2024-05-20T12:14:26Z</time></trkpt>
<trkpt lat="46.60005" lon="6.32339"><ele>1577</ele><time>2024-05-20T12:14:30Z</time></trkpt>
<trkpt lat="46.60005" lon="6.32337"><ele>1577.2</ele><time>2024-05-20T12:14:32Z</time></trkpt>
<trkpt lat="46.60003" lon="6.32335"><ele>1577.4</ele><time>2024-05-20T12:14:34Z</time></trkpt>
<trkpt lat="46.60003" lon="6.32334"><ele>1577.6</ele><time>2024-05-20T12:14:35Z</time></trkpt>
<trkpt lat="46.6" lon="6.32331"><ele>1577.8</ele><time>2024-05-20T12:14:38Z</time></trkpt>
<trkpt lat="46.59999" lon="6.32329"><ele>1578.2</ele><time>2024-05-20T12:14:40Z</time></trkpt>
<trkpt lat="46.59998" lon="6.32328"><ele>1578.2</ele><time>2024-05-20T12:14:41Z</time></trkpt>
<trkpt lat="46.59991" lon="6.32319"><ele>1579.2</ele><time>2024-05-20T12:14:49Z</time></trkpt>
<trkpt lat="46.5999" lon="6.32317"><ele>1579.2</ele><time>2024-05-20T12:14:50Z</time></trkpt>
<trkpt lat="46.59985" lon="6.3231"><ele>1580.2</ele><time>2024-05-20T12:14:57Z</time></trkpt>
<trkpt lat="46.59982" lon="6.32307"><ele>1580.4</ele><time>2024-05-20T12:15:00Z</time></trkpt>
<trkpt lat="46.59979" lon="6.32303"><ele>1580.8</ele><time>2024-05-20T12:15:04Z</time></trkpt>
<trkpt lat="46.59973" lon="6.32295"><ele>1581.4</ele><time>2024-05-20T12:15:11Z</time></trkpt>
<trkpt lat="46.59971" lon="6.32285"><ele>1582</ele><time>2024-05-20T12:15:17Z</time></trkpt>
<trkpt lat="46.59971" lon="6.32283"><ele>1582.2</ele><time>2024-05-20T12:15:18Z</time></trkpt>
<trkpt lat="46.5997" lon="6.3228"><ele>1582.4</ele><time>2024-05-20T12:15:20Z</time></trkpt>
<trkpt lat="46.59969" lon="6.3227"><ele>1582.8</ele><time>2024-05-20T12:15:25Z</time></trkpt>
<trkpt lat="46.59968" lon="6.32266"><ele>1583.2</ele><time>2024-05-20T12:15:27Z</time></trkpt>
<trkpt lat="46.59968" lon="6.32265"><ele>1583.2</ele><time>2024-05-20T12:15:28Z</time></trkpt>
<trkpt lat="46.59969" lon="6.32262"><ele>1583.6</ele><time>2024-05-20T12:15:30Z</time></trkpt>
<trkpt lat="46.59969" lon="6.3226"><ele>1583.6</ele><time>2024-05-20T12:15:31Z</time></trkpt>
<trkpt lat="46.59969" lon="6.32246"><ele>1584.4</ele><time>2024-05-20T12:15:39Z</time></trkpt>
<trkpt lat="46.59968" lon="6.32244"><ele>1584.6</ele><time>2024-05-20T12:15:40Z</time></trkpt>
<trkpt lat="46.59969" lon="6.32235"><ele>1585</ele><time>2024-05-20T12:15:45Z</time></trkpt>
<trkpt lat="46.59969" lon="6.32232"><ele>1585.2</ele><time>2024-05-20T12:15:47Z</time></trkpt>
<trkpt lat="46.59969" lon="6.32227"><ele>1585.4</ele><time>2024-05-20T12:15:50Z</time></trkpt>
<trkpt lat="46.59969" lon="6.32224"><ele>1585.6</ele><time>2024-05-20T12:15:52Z</time></trkpt>
<trkpt lat="46.5997" lon="6.32214"><ele>1586.2</ele><time>2024-05-20T12:15:57Z</time></trkpt>
<trkpt lat="46.5997" lon="6.32213"><ele>1586.4</ele><time>2024-05-20T12:15:58Z</time></trkpt>
<trkpt lat="46.59971" lon="6.32209"><ele>1586.8</ele><time>2024-05-20T12:16:01Z</time></trkpt>
<trkpt lat="46.59972" lon="6.32206"><ele>1587</ele><time>2024-05-20T12:16:03Z</time></trkpt>
<trkpt lat="46.59975" lon="6.32198"><ele>1587.6</ele><time>2024-05-20T12:16:09Z</time></trkpt>
<trkpt lat="46.59975" lon="6.32197"><ele>1587.8</ele><time>2024-05-20T12:16:10Z</time></trkpt>
<trkpt lat="46.59977" lon="6.32191"><ele>1588.6</ele><time>2024-05-20T12:16:16Z</time></trkpt>
<trkpt lat="46.59979" lon="6.32188"><ele>1589</ele><time>2024-05-20T12:16:19Z</time></trkpt>
<trkpt lat="46.5998" lon="6.32185"><ele>1589.2</ele><time>2024-05-20T12:16:21Z</time></trkpt>
<trkpt lat="46.59982" lon="6.32178"><ele>1590</ele><time>2024-05-20T12:16:27Z</time></trkpt>
<trkpt lat="46.59983" lon="6.32177"><ele>1590.2</ele><time>2024-05-20T12:16:28Z</time></trkpt>
<trkpt lat="46.59984" lon="6.32171"><ele>1590.8</ele><time>2024-05-20T12:16:34Z</time></trkpt>
<trkpt lat="46.59984" lon="6.32168"><ele>1591</ele><time>2024-05-20T12:16:36Z</time></trkpt>
<trkpt lat="46.59985" lon="6.32168"><ele>1591.2</ele><time>2024-05-20T12:16:37Z</time></trkpt>
<trkpt lat="46.59986" lon="6.32165"><ele>1591.4</ele><time>2024-05-20T12:16:40Z</time></trkpt>
<trkpt lat="46.59987" lon="6.32159"><ele>1592.2</ele><time>2024-05-20T12:16:44Z</time></trkpt>
<trkpt lat="46.59987" lon="6.32157"><ele>1592.4</ele><time>2024-05-20T12:16:45Z</time></trkpt>
<trkpt lat="46.59987" lon="6.32156"><ele>1592.6</ele><time>2024-05-20T12:16:46Z</time></trkpt>
<trkpt lat="46.59987" lon="6.32149"><ele>1593.2</ele><time>2024-05-20T12:16:52Z</time></trkpt>
<trkpt lat="46.59987" lon="6.32146"><ele>1593.6</ele><time>2024-05-20T12:16:54Z</time></trkpt>
<trkpt lat="46.59986" lon="6.32143"><ele>1594.2</ele><time>2024-05-20T12:16:58Z</time></trkpt>
<trkpt lat="46.59986" lon="6.32142"><ele>1594.4</ele><time>2024-05-20T12:16:59Z</time></trkpt>
<trkpt lat="46.59985" lon="6.32137"><ele>1595</ele><time>2024-05-20T12:17:04Z</time></trkpt>
<trkpt lat="46.59985" lon="6.32134"><ele>1595.2</ele><time>2024-05-20T12:17:06Z</time></trkpt>
<trkpt lat="46.59984" lon="6.32132"><ele>1595.6</ele><time>2024-05-20T12:17:08Z</time></trkpt>
<trkpt lat="46.59984" lon="6.32131"><ele>1595.6</ele><time>2024-05-20T12:17:09Z</time></trkpt>
<trkpt lat="46.59983" lon="6.32129"><ele>1595.6</ele><time>2024-05-20T12:17:10Z</time></trkpt>
<trkpt lat="46.59983" lon="6.32129"><ele>1595.8</ele><time>2024-05-20T12:17:11Z</time></trkpt>
<trkpt lat="46.59982" lon="6.32127"><ele>1595.8</ele><time>2024-05-20T12:17:12Z</time></trkpt>
<trkpt lat="46.59982" lon="6.32126"><ele>1596</ele><time>2024-05-20T12:17:13Z</time></trkpt>
<trkpt lat="46.5998" lon="6.32121"><ele>1596.6</ele><time>2024-05-20T12:17:17Z</time></trkpt>
<trkpt lat="46.59979" lon="6.32118"><ele>1596.8</ele><time>2024-05-20T12:17:19Z</time></trkpt>
<trkpt lat="46.59978" lon="6.32116"><ele>1597</ele><time>2024-05-20T12:17:21Z</time></trkpt>
<trkpt lat="46.59978" lon="6.32115"><ele>1597</ele><time>2024-05-20T12:17:22Z</time></trkpt>
<trkpt lat="46.59978" lon="6.32113"><ele>1597.4</ele><time>2024-05-20T12:17:23Z</time></trkpt>
<trkpt lat="46.59978" lon="6.32111"><ele>1597.6</ele><time>2024-05-20T12:17:24Z</time></trkpt>
<trkpt lat="46.59977" lon="6.32109"><ele>1597.8</ele><time>2024-05-20T12:17:25Z</time></trkpt>
<trkpt lat="46.59977" lon="6.32108"><ele>1597.8</ele><time>2024-05-20T12:17:26Z</time></trkpt>
<trkpt lat="46.59974" lon="6.32104"><ele>1598.4</ele><time>2024-05-20T12:17:30Z</time></trkpt>
<trkpt lat="46.59972" lon="6.32104"><ele>1598.6</ele><time>2024-05-20T12:17:32Z</time></trkpt>
<trkpt lat="46.5997" lon="6.32104"><ele>1598.6</ele><time>2024-05-20T12:17:33Z</time></trkpt>
<trkpt lat="46.5997" lon="6.32103"><ele>1598.8</ele><time>2024-05-20T12:17:34Z</time></trkpt>
<trkpt lat="46.59966" lon="6.32098"><ele>1599.4</ele><time>2024-05-20T12:17:39Z</time></trkpt>
<trkpt lat="46.59965" lon="6.32096"><ele>1599.6</ele><time>2024-05-20T12:17:41Z</time></trkpt>
<trkpt lat="46.59962" lon="6.32091"><ele>1600.2</ele><time>2024-05-20T12:17:46Z</time></trkpt>
<trkpt lat="46.5996" lon="6.32088"><ele>1600.8</ele><time>2024-05-20T12:17:50Z</time></trkpt>
<trkpt lat="46.59958" lon="6.32085"><ele>1601.2</ele><time>2024-05-20T12:17:53Z</time></trkpt>
<trkpt lat="46.59955" lon="6.32082"><ele>1601.8</ele><time>2024-05-20T12:17:58Z</time></trkpt>
<trkpt lat="46.59954" lon="6.3208"><ele>1602</ele><time>2024-05-20T12:17:59Z</time></trkpt>
<trkpt lat="46.5995" lon="6.3207"><ele>1602.4</ele><time>2024-05-20T12:18:08Z</time></trkpt>
<trkpt lat="46.59948" lon="6.32063"><ele>1603</ele><time>2024-05-20T12:18:13Z</time></trkpt>
<trkpt lat="46.59945" lon="6.32053"><ele>1604</ele><time>2024-05-20T12:18:21Z</time></trkpt>
<trkpt lat="46.59943" lon="6.32042"><ele>1604.8</ele><time>2024-05-20T12:18:28Z</time></trkpt>
<trkpt lat="46.59943" lon="6.32041"><ele>1605</ele><time>2024-05-20T12:18:29Z</time></trkpt>
<trkpt lat="46.59942" lon="6.32035"><ele>1605.6</ele><time>2024-05-20T12:18:33Z</time></trkpt>
<trkpt lat="46.59942" lon="6.32031"><ele>1606.2</ele><time>2024-05-20T12:18:36Z</time></trkpt>
<trkpt lat="46.59942" lon="6.32026"><ele>1606.4</ele><time>2024-05-20T12:18:39Z</time></trkpt>
<trkpt lat="46.59942" lon="6.32017"><ele>1607</ele><time>2024-05-20T12:18:44Z</time></trkpt>
<trkpt lat="46.59943" lon="6.32013"><ele>1607.2</ele><time>2024-05-20T12:18:46Z</time></trkpt>
<trkpt lat="46.59944" lon="6.31999"><ele>1607.8</ele><time>2024-05-20T12:18:53Z</time></trkpt>
<trkpt lat="46.59944" lon="6.31991"><ele>1608.4</ele><time>2024-05-20T12:18:57Z</time></trkpt>
<trkpt lat="46.59943" lon="6.31981"><ele>1608.8</ele><time>2024-05-20T12:19:02Z</time></trkpt>
<trkpt lat="46.59942" lon="6.31975"><ele>1609.4</ele><time>2024-05-20T12:19:05Z</time></trkpt>
<trkpt lat="46.59939" lon="6.31965"><ele>1610</ele><time>2024-05-20T12:19:11Z</time></trkpt>
<trkpt lat="46.59938" lon="6.31962"><ele>1610.4</ele><time>2024-05-20T12:19:13Z</time></trkpt>
<trkpt lat="46.59936" lon="6.31954"><ele>1611</ele><time>2024-05-20T12:19:18Z</time></trkpt>
<trkpt lat="46.59933" lon="6.3194"><ele>1611.6</ele><time>2024-05-20T12:19:25Z</time></trkpt>
<trkpt lat="46.59932" lon="6.31937"><ele>1611.8</ele><time>2024-05-20T12:19:27Z</time></trkpt>
<trkpt lat="46.59929" lon="6.31928"><ele>1612.6</ele><time>2024-05-20T12:19:32Z</time></trkpt>
<trkpt lat="46.59928" lon="6.3192"><ele>1613.4</ele><time>2024-05-20T12:19:36Z</time></trkpt>
<trkpt lat="46.59927" lon="6.31916"><ele>1613.6</ele><time>2024-05-20T12:19:38Z</time></trkpt>
<trkpt lat="46.59926" lon="6.31902"><ele>1614.6</ele><time>2024-05-20T12:19:45Z</time></trkpt>
<trkpt lat="46.59926" lon="6.31898"><ele>1615</ele><time>2024-05-20T12:19:47Z</time></trkpt>
<trkpt lat="46.59926" lon="6.31878"><ele>1615.8</ele><time>2024-05-20T12:19:56Z</time></trkpt>
<trkpt lat="46.59926" lon="6.31874"><ele>1616</ele><time>2024-05-20T12:19:58Z</time></trkpt>
<trkpt lat="46.59932" lon="6.31858"><ele>1616.4</ele><time>2024-05-20T12:20:05Z</time></trkpt>
<trkpt lat="46.59934" lon="6.31853"><ele>1616.8</ele><time>2024-05-20T12:20:07Z</time></trkpt>
<trkpt lat="46.5994" lon="6.31846"><ele>1617.4</ele><time>2024-05-20T12:20:12Z</time></trkpt>
<trkpt lat="46.59952" lon="6.31841"><ele>1617.8</ele><time>2024-05-20T12:20:18Z</time></trkpt>
<trkpt lat="46.59954" lon="6.31843"><ele>1617.8</ele><time>2024-05-20T12:20:19Z</time></trkpt>
<trkpt lat="46.59955" lon="6.31845"><ele>1618.4</ele><time>2024-05-20T12:20:20Z</time></trkpt>
<trkpt lat="46.59961" lon="6.31854"><ele>1619</ele><time>2024-05-20T12:20:25Z</time></trkpt>
<trkpt lat="46.59969" lon="6.31864"><ele>1619.4</ele><time>2024-05-20T12:20:31Z</time></trkpt>
<trkpt lat="46.59971" lon="6.31868"><ele>1619.6</ele><time>2024-05-20T12:20:33Z</time></trkpt>
<trkpt lat="46.59983" lon="6.31885"><ele>1620.2</ele><time>2024-05-20T12:20:42Z</time></trkpt>
<trkpt lat="46.59987" lon="6.31889"><ele>1620.4</ele><time>2024-05-20T12:20:45Z</time></trkpt>
<trkpt lat="46.59989" lon="6.31894"><ele>1620.4</ele><time>2024-05-20T12:20:48Z</time></trkpt>
<trkpt lat="46.59995" lon="6.31902"><ele>1620.4</ele><time>2024-05-20T12:20:53Z</time></trkpt>
<trkpt lat="46.60008" lon="6.31916"><ele>1620.2</ele><time>2024-05-20T12:20:59Z</time></trkpt>
<trkpt lat="46.6001" lon="6.31917"><ele>1620.2</ele><time>2024-05-20T12:21:00Z</time></trkpt>
<trkpt lat="46.6003" lon="6.31922"><ele>1619.8</ele><time>2024-05-20T12:21:07Z</time></trkpt>
<trkpt lat="46.60033" lon="6.31923"><ele>1619.8</ele><time>2024-05-20T12:21:08Z</time></trkpt>
<trkpt lat="46.60045" lon="6.31923"><ele>1620.2</ele><time>2024-05-20T12:21:14Z</time></trkpt>
<trkpt lat="46.60059" lon="6.31917"><ele>1620.8</ele><time>2024-05-20T12:21:20Z</time></trkpt>
<trkpt lat="46.60061" lon="6.31917"><ele>1620.8</ele><time>2024-05-20T12:21:21Z</time></trkpt>
<trkpt lat="46.60071" lon="6.31914"><ele>1620.8</ele><time>2024-05-20T12:21:25Z</time></trkpt>
<trkpt lat="46.60078" lon="6.31911"><ele>1620.8</ele><time>2024-05-20T12:21:28Z</time></trkpt>
<trkpt lat="46.60095" lon="6.31903"><ele>1620</ele><time>2024-05-20T12:21:34Z</time></trkpt>
<trkpt lat="46.60099" lon="6.31895"><ele>1620.2</ele><time>2024-05-20T12:21:39Z</time></trkpt>
<trkpt lat="46.60096" lon="6.31889"><ele>1621</ele><time>2024-05-20T12:21:44Z</time></trkpt>
<trkpt lat="46.60094" lon="6.31888"><ele>1621.6</ele><time>2024-05-20T12:21:47Z</time></trkpt>
<trkpt lat="46.60091" lon="6.31886"><ele>1622.4</ele><time>2024-05-20T12:21:51Z</time></trkpt>
<trkpt lat="46.60091" lon="6.31886"><ele>1622.6</ele><time>2024-05-20T12:21:53Z</time></trkpt>
<trkpt lat="46.6009" lon="6.31885"><ele>1622.8</ele><time>2024-05-20T12:21:56Z</time></trkpt>
<trkpt lat="46.60088" lon="6.3188"><ele>1623</ele><time>2024-05-20T12:22:03Z</time></trkpt>
<trkpt lat="46.60084" lon="6.31875"><ele>1623.6</ele><time>2024-05-20T12:22:11Z</time></trkpt>
<trkpt lat="46.60083" lon="6.31874"><ele>1623.6</ele><time>2024-05-20T12:22:12Z</time></trkpt>
<trkpt lat="46.6008" lon="6.3187"><ele>1623.8</ele><time>2024-05-20T12:22:16Z</time></trkpt>
<trkpt lat="46.60077" lon="6.31862"><ele>1624.6</ele><time>2024-05-20T12:22:24Z</time></trkpt>
<trkpt lat="46.60075" lon="6.31857"><ele>1624.8</ele><time>2024-05-20T12:22:27Z</time></trkpt>
<trkpt lat="46.60073" lon="6.31852"><ele>1625</ele><time>2024-05-20T12:22:32Z</time></trkpt>
<trkpt lat="46.6007" lon="6.31845"><ele>1625.6</ele><time>2024-05-20T12:22:38Z</time></trkpt>
<trkpt lat="46.60069" lon="6.31843"><ele>1625.8</ele><time>2024-05-20T12:22:40Z</time></trkpt>
<trkpt lat="46.60066" lon="6.31838"><ele>1626.2</ele><time>2024-05-20T12:22:46Z</time></trkpt>
<trkpt lat="46.60063" lon="6.31835"><ele>1626.8</ele><time>2024-05-20T12:22:50Z</time></trkpt>
<trkpt lat="46.60062" lon="6.31835"><ele>1626.8</ele><time>2024-05-20T12:22:51Z</time></trkpt>
<trkpt lat="46.60061" lon="6.31833"><ele>1627</ele><time>2024-05-20T12:22:53Z</time></trkpt>
<trkpt lat="46.60055" lon="6.31832"><ele>1628</ele><time>2024-05-20T12:23:00Z</time></trkpt>
<trkpt lat="46.60053" lon="6.31831"><ele>1628.2</ele><time>2024-05-20T12:23:03Z</time></trkpt>
<trkpt lat="46.60048" lon="6.31827"><ele>1629</ele><time>2024-05-20T12:23:09Z</time></trkpt>
<trkpt lat="46.60046" lon="6.31825"><ele>1629.2</ele><time>2024-05-20T12:23:12Z</time></trkpt>
<trkpt lat="46.60039" lon="6.31816"><ele>1629.8</ele><time>2024-05-20T12:23:21Z</time></trkpt>
<trkpt lat="46.60033" lon="6.31815"><ele>1630</ele><time>2024-05-20T12:23:28Z</time></trkpt>
<trkpt lat="46.60026" lon="6.31817"><ele>1631</ele><time>2024-05-20T12:23:38Z</time></trkpt>
<trkpt lat="46.60025" lon="6.31817"><ele>1631.2</ele><time>2024-05-20T12:23:39Z</time></trkpt>
<trkpt lat="46.60021" lon="6.31817"><ele>1632.4</ele><time>2024-05-20T12:23:45Z</time></trkpt>
<trkpt lat="46.60017" lon="6.31822"><ele>1633.2</ele><time>2024-05-20T12:23:52Z</time></trkpt>
<trkpt lat="46.60016" lon="6.31823"><ele>1633.4</ele><time>2024-05-20T12:23:53Z</time></trkpt>
<trkpt lat="46.60012" lon="6.31828"><ele>1633.8</ele><time>2024-05-20T12:23:59Z</time></trkpt>
<trkpt lat="46.60009" lon="6.31834"><ele>1633.4</ele><time>2024-05-20T12:24:05Z</time></trkpt>
<trkpt lat="46.60006" lon="6.31843"><ele>1632.2</ele><time>2024-05-20T12:24:12Z</time></trkpt>
<trkpt lat="46.60006" lon="6.31844"><ele>1632.2</ele><time>2024-05-20T12:24:13Z</time></trkpt>
<trkpt lat="46.60005" lon="6.31853"><ele>1632.8</ele><time>2024-05-20T12:24:20Z</time></trkpt>
<trkpt lat="46.60003" lon="6.3186"><ele>1633.2</ele><time>2024-05-20T12:24:26Z</time></trkpt>
<trkpt lat="46.60003" lon="6.31863"><ele>1633.2</ele><time>2024-05-20T12:24:32Z</time></trkpt>
<trkpt lat="46.60005" lon="6.31865"><ele>1633.2</ele><time>2024-05-20T12:24:38Z</time></trkpt>
<trkpt lat="46.60005" lon="6.31866"><ele>1632.8</ele><time>2024-05-20T12:24:43Z</time></trkpt>
<trkpt lat="46.60002" lon="6.31866"><ele>1632.6</ele><time>2024-05-20T12:24:50Z</time></trkpt>
<trkpt lat="46.60003" lon="6.31866"><ele>1632.6</ele><time>2024-05-20T12:24:55Z</time></trkpt>
<trkpt lat="46.60003" lon="6.31867"><ele>1632.8</ele><time>2024-05-20T12:25:02Z</time></trkpt>
<trkpt lat="46.60003" lon="6.31866"><ele>1632.6</ele><time>2024-05-20T12:25:06Z</time></trkpt>
<trkpt lat="46.60003" lon="6.31867"><ele>1632.4</ele><time>2024-05-20T12:25:13Z</time></trkpt>
<trkpt lat="46.60003" lon="6.31867"><ele>1632.4</ele><time>2024-05-20T12:25:14Z</time></trkpt>
<trkpt lat="46.60003" lon="6.31867"><ele>1632.4</ele><time>2024-05-20T12:25:16Z</time></trkpt>
<trkpt lat="46.60003" lon="6.31867"><ele>1632.4</ele><time>2024-05-20T12:25:18Z</time></trkpt>
<trkpt lat="46.60003" lon="6.31867"><ele>1632.4</ele><time>2024-05-20T12:25:19Z</time></trkpt>
<trkpt lat="46.60003" lon="6.31867"><ele>1632.4</ele><time>2024-05-20T12:25:20Z</time></trkpt>
<trkpt lat="46.60002" lon="6.31867"><ele>1632.6</ele><time>2024-05-20T12:25:24Z</time></trkpt>
<trkpt lat="46.60001" lon="6.31866"><ele>1632.6</ele><time>2024-05-20T12:25:26Z</time></trkpt>
<trkpt lat="46.6" lon="6.31862"><ele>1633.2</ele><time>2024-05-20T12:25:32Z</time></trkpt>
<trkpt lat="46.59999" lon="6.31862"><ele>1633</ele><time>2024-05-20T12:25:36Z</time></trkpt>
<trkpt lat="46.59999" lon="6.31863"><ele>1633</ele><time>2024-05-20T12:25:39Z</time></trkpt>
<trkpt lat="46.59997" lon="6.31864"><ele>1633</ele><time>2024-05-20T12:25:44Z</time></trkpt>
<trkpt lat="46.59996" lon="6.31864"><ele>1631</ele><time>2024-05-20T12:25:51Z</time></trkpt>
<trkpt lat="46.59996" lon="6.31865"><ele>1630.4</ele><time>2024-05-20T12:25:57Z</time></trkpt>
<trkpt lat="46.59996" lon="6.31865"><ele>1630.4</ele><time>2024-05-20T12:26:03Z</time></trkpt>
<trkpt lat="46.59996" lon="6.31865"><ele>1630.4</ele><time>2024-05-20T12:26:04Z</time></trkpt>
<trkpt lat="46.59996" lon="6.31865"><ele>1630.4</ele><time>2024-05-20T12:26:09Z</time></trkpt>
<trkpt lat="46.59996" lon="6.31865"><ele>1630</ele><time>2024-05-20T12:26:13Z</time></trkpt>
<trkpt lat="46.59996" lon="6.31864"><ele>1630</ele><time>2024-05-20T12:26:18Z</time></trkpt>
<trkpt lat="46.59996" lon="6.31864"><ele>1630.2</ele><time>2024-05-20T12:26:20Z</time></trkpt>
<trkpt lat="46.59996" lon="6.31864"><ele>1630.2</ele><time>2024-05-20T12:26:25Z</time></trkpt>
<trkpt lat="46.59996" lon="6.31864"><ele>1630</ele><time>2024-05-20T12:26:32Z</time></trkpt>
<trkpt lat="46.59996" lon="6.31864"><ele>1629.8</ele><time>2024-05-20T12:26:44Z</time></trkpt>
<trkpt lat="46.59996" lon="6.31863"><ele>1630</ele><time>2024-05-20T12:26:51Z</time></trkpt>
<trkpt lat="46.59998" lon="6.31863"><ele>1630</ele><time>2024-05-20T12:26:57Z</time></trkpt>
<trkpt lat="46.59997" lon="6.31862"><ele>1630</ele><time>2024-05-20T12:27:00Z</time></trkpt>
<trkpt lat="46.59995" lon="6.31862"><ele>1629.8</ele><time>2024-05-20T12:27:06Z</time></trkpt>
<trkpt lat="46.59996" lon="6.3186"><ele>1629.6</ele><time>2024-05-20T12:27:16Z</time></trkpt>
<trkpt lat="46.59996" lon="6.31862"><ele>1629.8</ele><time>2024-05-20T12:27:24Z</time></trkpt>
<trkpt lat="46.59996" lon="6.31862"><ele>1629.4</ele><time>2024-05-20T12:27:27Z</time></trkpt>
<trkpt lat="46.59995" lon="6.31863"><ele>1629.6</ele><time>2024-05-20T12:27:31Z</time></trkpt>
<trkpt lat="46.59996" lon="6.31864"><ele>1630</ele><time>2024-05-20T12:27:41Z</time></trkpt>
<trkpt lat="46.59996" lon="6.31864"><ele>1630.2</ele><time>2024-05-20T12:27:48Z</time></trkpt>
<trkpt lat="46.59996" lon="6.31864"><ele>1630.2</ele><time>2024-05-20T12:27:49Z</time></trkpt>
<trkpt lat="46.59996" lon="6.31864"><ele>1630.2</ele><time>2024-05-20T12:27:50Z</time></trkpt>
<trkpt lat="46.59996" lon="6.31864"><ele>1630.2</ele><time>2024-05-20T12:27:52Z</time></trkpt>
<trkpt lat="46.59996" lon="6.31864"><ele>1630.2</ele><time>2024-05-20T12:27:55Z</time></trkpt>
<trkpt lat="46.59996" lon="6.31864"><ele>1630.2</ele><time>2024-05-20T12:27:57Z</time></trkpt>
<trkpt lat="46.59996" lon="6.31864"><ele>1630.2</ele><time>2024-05-20T12:28:04Z</time></trkpt>
<trkpt lat="46.59995" lon="6.31864"><ele>1630.2</ele><time>2024-05-20T12:28:06Z</time></trkpt>
<trkpt lat="46.59996" lon="6.31864"><ele>1630.2</ele><time>2024-05-20T12:28:13Z</time></trkpt>
<trkpt lat="46.59996" lon="6.31863"><ele>1630.2</ele><time>2024-05-20T12:28:20Z</time></trkpt>
<trkpt lat="46.59997" lon="6.31863"><ele>1630.2</ele><time>2024-05-20T12:28:27Z</time></trkpt>
<trkpt lat="46.59997" lon="6.31863"><ele>1630.2</ele><time>2024-05-20T12:28:33Z</time></trkpt>
<trkpt lat="46.59998" lon="6.31862"><ele>1630.2</ele><time>2024-05-20T12:28:38Z</time></trkpt>
<trkpt lat="46.59998" lon="6.31864"><ele>1630.2</ele><time>2024-05-20T12:28:53Z</time></trkpt>
<trkpt lat="46.59996" lon="6.31866"><ele>1630.2</ele><time>2024-05-20T12:29:01Z</time></trkpt>
<trkpt lat="46.59996" lon="6.31865"><ele>1630.2</ele><time>2024-05-20T12:29:07Z</time></trkpt>
<trkpt lat="46.59995" lon="6.31865"><ele>1630.2</ele><time>2024-05-20T12:29:14Z</time></trkpt>
<trkpt lat="46.59996" lon="6.31865"><ele>1630.2</ele><time>2024-05-20T12:29:18Z</time></trkpt>
<trkpt lat="46.59996" lon="6.31865"><ele>1630.2</ele><time>2024-05-20T12:29:23Z</time></trkpt>
<trkpt lat="46.59996" lon="6.31863"><ele>1630.2</ele><time>2024-05-20T12:29:30Z</time></trkpt>
<trkpt lat="46.59995" lon="6.31863"><ele>1630.2</ele><time>2024-05-20T12:29:39Z</time></trkpt>
<trkpt lat="46.59995" lon="6.31864"><ele>1630.2</ele><time>2024-05-20T12:29:40Z</time></trkpt>
<trkpt lat="46.59995" lon="6.31864"><ele>1630.2</ele><time>2024-05-20T12:29:44Z</time></trkpt>
<trkpt lat="46.59996" lon="6.31863"><ele>1630.2</ele><time>2024-05-20T12:29:50Z</time></trkpt>
<trkpt lat="46.59996" lon="6.31861"><ele>1630.2</ele><time>2024-05-20T12:29:56Z</time></trkpt>
<trkpt lat="46.59997" lon="6.31862"><ele>1630.2</ele><time>2024-05-20T12:30:00Z</time></trkpt>
<trkpt lat="46.59997" lon="6.31862"><ele>1630.2</ele><time>2024-05-20T12:30:02Z</time></trkpt>
<trkpt lat="46.59997" lon="6.31862"><ele>1630.2</ele><time>2024-05-20T12:30:10Z</time></trkpt>
<trkpt lat="46.59996" lon="6.31863"><ele>1630.2</ele><time>2024-05-20T12:30:19Z</time></trkpt>
<trkpt lat="46.59996" lon="6.31863"><ele>1630.2</ele><time>2024-05-20T12:30:22Z</time></trkpt>
<trkpt lat="46.59997" lon="6.31863"><ele>1630.2</ele><time>2024-05-20T12:30:25Z</time></trkpt>
<trkpt lat="46.59996" lon="6.31863"><ele>1630.2</ele><time>2024-05-20T12:30:28Z</time></trkpt>
<trkpt lat="46.59997" lon="6.31863"><ele>1630.2</ele><time>2024-05-20T12:30:35Z</time></trkpt>
<trkpt lat="46.59997" lon="6.31862"><ele>1630.2</ele><time>2024-05-20T12:30:36Z</time></trkpt>
<trkpt lat="46.59997" lon="6.31863"><ele>1630.2</ele><time>2024-05-20T12:30:41Z</time></trkpt>
<trkpt lat="46.59996" lon="6.31864"><ele>1630.2</ele><time>2024-05-20T12:30:49Z</time></trkpt>
<trkpt lat="46.59996" lon="6.31863"><ele>1630.2</ele><time>2024-05-20T12:30:59Z</time></trkpt>
<trkpt lat="46.59996" lon="6.31863"><ele>1630.2</ele><time>2024-05-20T12:31:08Z</time></trkpt>
<trkpt lat="46.59996" lon="6.31863"><ele>1630.2</ele><time>2024-05-20T12:31:13Z</time></trkpt>
<trkpt lat="46.59996" lon="6.31865"><ele>1630.2</ele><time>2024-05-20T12:31:18Z</time></trkpt>
<trkpt lat="46.59996" lon="6.31865"><ele>1630.2</ele><time>2024-05-20T12:31:21Z</time></trkpt>
<trkpt lat="46.59996" lon="6.31864"><ele>1630.2</ele><time>2024-05-20T12:31:30Z</time></trkpt>
<trkpt lat="46.59997" lon="6.31863"><ele>1630.2</ele><time>2024-05-20T12:31:39Z</time></trkpt>
<trkpt lat="46.59996" lon="6.31863"><ele>1630.2</ele><time>2024-05-20T12:31:41Z</time></trkpt>
<trkpt lat="46.59996" lon="6.31864"><ele>1630.2</ele><time>2024-05-20T12:31:47Z</time></trkpt>
<trkpt lat="46.59996" lon="6.31864"><ele>1630.2</ele><time>2024-05-20T12:31:56Z</time></trkpt>
<trkpt lat="46.59997" lon="6.31865"><ele>1630.2</ele><time>2024-05-20T12:32:04Z</time></trkpt>
<trkpt lat="46.59996" lon="6.31865"><ele>1630.2</ele><time>2024-05-20T12:32:13Z</time></trkpt>
<trkpt lat="46.59997" lon="6.31864"><ele>1630.2</ele><time>2024-05-20T12:32:16Z</time></trkpt>
<trkpt lat="46.59997" lon="6.31863"><ele>1630.2</ele><time>2024-05-20T12:32:17Z</time></trkpt>
<trkpt lat="46.59998" lon="6.31862"><ele>1630.2</ele><time>2024-05-20T12:32:20Z</time></trkpt>
<trkpt lat="46.59996" lon="6.31865"><ele>1630.2</ele><time>2024-05-20T12:32:31Z</time></trkpt>
<trkpt lat="46.59995" lon="6.31864"><ele>1630.2</ele><time>2024-05-20T12:32:36Z</time></trkpt>
<trkpt lat="46.59995" lon="6.31863"><ele>1630.2</ele><time>2024-05-20T12:32:38Z</time></trkpt>
<trkpt lat="46.59996" lon="6.31863"><ele>1630.2</ele><time>2024-05-20T12:32:45Z</time></trkpt>
<trkpt lat="46.59996" lon="6.31863"><ele>1630.2</ele><time>2024-05-20T12:32:54Z</time></trkpt>
<trkpt lat="46.59996" lon="6.31864"><ele>1630.2</ele><time>2024-05-20T12:33:03Z</time></trkpt>
<trkpt lat="46.59997" lon="6.31865"><ele>1630.2</ele><time>2024-05-20T12:33:13Z</time></trkpt>
<trkpt lat="46.59997" lon="6.31865"><ele>1630.2</ele><time>2024-05-20T12:33:14Z</time></trkpt>
<trkpt lat="46.59997" lon="6.31866"><ele>1630.2</ele><time>2024-05-20T12:33:18Z</time></trkpt>
<trkpt lat="46.59995" lon="6.31866"><ele>1630.2</ele><time>2024-05-20T12:33:22Z</time></trkpt>
<trkpt lat="46.59995" lon="6.31865"><ele>1630.2</ele><time>2024-05-20T12:33:32Z</time></trkpt>
<trkpt lat="46.59998" lon="6.31864"><ele>1630.2</ele><time>2024-05-20T12:33:40Z</time></trkpt>
<trkpt lat="46.59997" lon="6.31865"><ele>1630.2</ele><time>2024-05-20T12:33:46Z</time></trkpt>
<trkpt lat="46.59997" lon="6.31866"><ele>1630.2</ele><time>2024-05-20T12:33:51Z</time></trkpt>
<trkpt lat="46.59997" lon="6.31865"><ele>1630.2</ele><time>2024-05-20T12:34:00Z</time></trkpt>
<trkpt lat="46.59995" lon="6.31865"><ele>1630.2</ele><time>2024-05-20T12:34:05Z</time></trkpt>
<trkpt lat="46.59994" lon="6.31865"><ele>1630.2</ele><time>2024-05-20T12:34:09Z</time></trkpt>
<trkpt lat="46.59995" lon="6.31864"><ele>1630.2</ele><time>2024-05-20T12:34:14Z</time></trkpt>
<trkpt lat="46.59994" lon="6.31861"><ele>1630.2</ele><time>2024-05-20T12:34:18Z</time></trkpt>
<trkpt lat="46.59994" lon="6.31864"><ele>1630.2</ele><time>2024-05-20T12:34:28Z</time></trkpt>
<trkpt lat="46.59997" lon="6.31865"><ele>1630.2</ele><time>2024-05-20T12:34:38Z</time></trkpt>
<trkpt lat="46.59995" lon="6.31866"><ele>1630.2</ele><time>2024-05-20T12:34:41Z</time></trkpt>
<trkpt lat="46.59993" lon="6.31868"><ele>1630.2</ele><time>2024-05-20T12:34:46Z</time></trkpt>
<trkpt lat="46.59993" lon="6.31869"><ele>1630.2</ele><time>2024-05-20T12:34:48Z</time></trkpt>
<trkpt lat="46.59995" lon="6.31864"><ele>1630.2</ele><time>2024-05-20T12:34:56Z</time></trkpt>
<trkpt lat="46.59995" lon="6.31864"><ele>1630.2</ele><time>2024-05-20T12:35:06Z</time></trkpt>
<trkpt lat="46.59995" lon="6.31864"><ele>1630.2</ele><time>2024-05-20T12:35:07Z</time></trkpt>
<trkpt lat="46.59995" lon="6.31864"><ele>1630.2</ele><time>2024-05-20T12:35:09Z</time></trkpt>
<trkpt lat="46.59996" lon="6.31862"><ele>1630.2</ele><time>2024-05-20T12:35:18Z</time></trkpt>
<trkpt lat="46.59995" lon="6.31862"><ele>1630.2</ele><time>2024-05-20T12:35:28Z</time></trkpt>
<trkpt lat="46.59995" lon="6.31862"><ele>1630.2</ele><time>2024-05-20T12:35:36Z</time></trkpt>
<trkpt lat="46.59995" lon="6.31862"><ele>1630.2</ele><time>2024-05-20T12:35:38Z</time></trkpt>
<trkpt lat="46.59997" lon="6.31862"><ele>1630.2</ele><time>2024-05-20T12:35:44Z</time></trkpt>
<trkpt lat="46.59997" lon="6.31862"><ele>1630.2</ele><time>2024-05-20T12:35:46Z</time></trkpt>
<trkpt lat="46.59999" lon="6.31861"><ele>1630.2</ele><time>2024-05-20T12:35:56Z</time></trkpt>
<trkpt lat="46.60002" lon="6.31861"><ele>1630.2</ele><time>2024-05-20T12:36:07Z</time></trkpt>
<trkpt lat="46.6" lon="6.31858"><ele>1630.2</ele><time>2024-05-20T12:36:14Z</time></trkpt>
<trkpt lat="46.59997" lon="6.3186"><ele>1629.8</ele><time>2024-05-20T12:36:20Z</time></trkpt>
<trkpt lat="46.59998" lon="6.31863"><ele>1630</ele><time>2024-05-20T12:36:28Z</time></trkpt>
<trkpt lat="46.59998" lon="6.31863"><ele>1629.8</ele><time>2024-05-20T12:36:35Z</time></trkpt>
<trkpt lat="46.59997" lon="6.31863"><ele>1629.6</ele><time>2024-05-20T12:36:38Z</time></trkpt>
<trkpt lat="46.59997" lon="6.3186"><ele>1629.6</ele><time>2024-05-20T12:36:45Z</time></trkpt>
<trkpt lat="46.59996" lon="6.31862"><ele>1629.4</ele><time>2024-05-20T12:36:52Z</time></trkpt>
<trkpt lat="46.59996" lon="6.31862"><ele>1629.4</ele><time>2024-05-20T12:36:54Z</time></trkpt>
<trkpt lat="46.59996" lon="6.31863"><ele>1629.4</ele><time>2024-05-20T12:37:03Z</time></trkpt>
<trkpt lat="46.59996" lon="6.31864"><ele>1629.4</ele><time>2024-05-20T12:37:06Z</time></trkpt>
<trkpt lat="46.59996" lon="6.31864"><ele>1629.4</ele><time>2024-05-20T12:37:07Z</time></trkpt>
<trkpt lat="46.59995" lon="6.31865"><ele>1629.6</ele><time>2024-05-20T12:37:13Z</time></trkpt>
<trkpt lat="46.59995" lon="6.31864"><ele>1629.6</ele><time>2024-05-20T12:37:15Z</time></trkpt>
<trkpt lat="46.59995" lon="6.31864"><ele>1629.6</ele><time>2024-05-20T12:37:17Z</time></trkpt>
<trkpt lat="46.59994" lon="6.31863"><ele>1629.6</ele><time>2024-05-20T12:37:25Z</time></trkpt>
<trkpt lat="46.59997" lon="6.31862"><ele>1629.6</ele><time>2024-05-20T12:37:37Z</time></trkpt>
<trkpt lat="46.59997" lon="6.31863"><ele>1629.6</ele><time>2024-05-20T12:37:48Z</time></trkpt>
<trkpt lat="46.59995" lon="6.31862"><ele>1629.6</ele><time>2024-05-20T12:37:56Z</time></trkpt>
<trkpt lat="46.59994" lon="6.3186"><ele>1629.6</ele><time>2024-05-20T12:38:04Z</time></trkpt>
<trkpt lat="46.59994" lon="6.3186"><ele>1629.6</ele><time>2024-05-20T12:38:07Z</time></trkpt>
<trkpt lat="46.59997" lon="6.31861"><ele>1629.6</ele><time>2024-05-20T12:38:17Z</time></trkpt>
<trkpt lat="46.59997" lon="6.31861"><ele>1629.6</ele><time>2024-05-20T12:38:25Z</time></trkpt>
<trkpt lat="46.59996" lon="6.31863"><ele>1629.6</ele><time>2024-05-20T12:38:31Z</time></trkpt>
<trkpt lat="46.59997" lon="6.31863"><ele>1629.6</ele><time>2024-05-20T12:38:40Z</time></trkpt>
<trkpt lat="46.59997" lon="6.31863"><ele>1629.6</ele><time>2024-05-20T12:38:53Z</time></trkpt>
<trkpt lat="46.59997" lon="6.31863"><ele>1629.6</ele><time>2024-05-20T12:38:56Z</time></trkpt>
<trkpt lat="46.59996" lon="6.31862"><ele>1629.6</ele><time>2024-05-20T12:39:08Z</time></trkpt>
<trkpt lat="46.59996" lon="6.31863"><ele>1629.6</ele><time>2024-05-20T12:39:19Z</time></trkpt>
<trkpt lat="46.59996" lon="6.31861"><ele>1629.6</ele><time>2024-05-20T12:39:25Z</time></trkpt>
<trkpt lat="46.59996" lon="6.31864"><ele>1629.6</ele><time>2024-05-20T12:39:37Z</time></trkpt>
<trkpt lat="46.59996" lon="6.31864"><ele>1629.6</ele><time>2024-05-20T12:39:47Z</time></trkpt>
<trkpt lat="46.59995" lon="6.31864"><ele>1629.6</ele><time>2024-05-20T12:39:56Z</time></trkpt>
<trkpt lat="46.59995" lon="6.31864"><ele>1629.6</ele><time>2024-05-20T12:40:04Z</time></trkpt>
<trkpt lat="46.59995" lon="6.31864"><ele>1629.6</ele><time>2024-05-20T12:40:08Z</time></trkpt>
<trkpt lat="46.59995" lon="6.31864"><ele>1629.6</ele><time>2024-05-20T12:40:18Z</time></trkpt>
<trkpt lat="46.59995" lon="6.31862"><ele>1629.6</ele><time>2024-05-20T12:40:28Z</time></trkpt>
<trkpt lat="46.59995" lon="6.31862"><ele>1629.6</ele><time>2024-05-20T12:40:29Z</time></trkpt>
<trkpt lat="46.59996" lon="6.31865"><ele>1629.6</ele><time>2024-05-20T12:40:38Z</time></trkpt>
<trkpt lat="46.59997" lon="6.31863"><ele>1629.6</ele><time>2024-05-20T12:40:51Z</time></trkpt>
<trkpt lat="46.59995" lon="6.31862"><ele>1629.6</ele><time>2024-05-20T12:41:06Z</time></trkpt>
<trkpt lat="46.59996" lon="6.31862"><ele>1629.6</ele><time>2024-05-20T12:41:15Z</time></trkpt>
<trkpt lat="46.59999" lon="6.31861"><ele>1629.6</ele><time>2024-05-20T12:41:22Z</time></trkpt>
<trkpt lat="46.59999" lon="6.31862"><ele>1629.6</ele><time>2024-05-20T12:41:24Z</time></trkpt>
<trkpt lat="46.59998" lon="6.31864"><ele>1629.6</ele><time>2024-05-20T12:41:26Z</time></trkpt>
<trkpt lat="46.59997" lon="6.31865"><ele>1629.6</ele><time>2024-05-20T12:41:31Z</time></trkpt>
<trkpt lat="46.59997" lon="6.31867"><ele>1629.6</ele><time>2024-05-20T12:41:35Z</time></trkpt>
<trkpt lat="46.59994" lon="6.31867"><ele>1629.6</ele><time>2024-05-20T12:41:39Z</time></trkpt>
<trkpt lat="46.59994" lon="6.31867"><ele>1629.6</ele><time>2024-05-20T12:41:42Z</time></trkpt>
<trkpt lat="46.59994" lon="6.31867"><ele>1629.6</ele><time>2024-05-20T12:41:59Z</time></trkpt>
<trkpt lat="46.59995" lon="6.31865"><ele>1629.6</ele><time>2024-05-20T12:42:12Z</time></trkpt>
<trkpt lat="46.59995" lon="6.31864"><ele>1629.6</ele><time>2024-05-20T12:42:26Z</time></trkpt>
<trkpt lat="46.59995" lon="6.31864"><ele>1629.6</ele><time>2024-05-20T12:42:34Z</time></trkpt>
<trkpt lat="46.59995" lon="6.31866"><ele>1629.6</ele><time>2024-05-20T12:42:45Z</time></trkpt>
<trkpt lat="46.59995" lon="6.31866"><ele>1629.6</ele><time>2024-05-20T12:42:53Z</time></trkpt>
<trkpt lat="46.59995" lon="6.31865"><ele>1629.6</ele><time>2024-05-20T12:42:56Z</time></trkpt>
<trkpt lat="46.59995" lon="6.31863"><ele>1629.6</ele><time>2024-05-20T12:43:02Z</time></trkpt>
<trkpt lat="46.59995" lon="6.31862"><ele>1629.6</ele><time>2024-05-20T12:43:09Z</time></trkpt>
<trkpt lat="46.59996" lon="6.31862"><ele>1629.6</ele><time>2024-05-20T12:43:21Z</time></trkpt>
<trkpt lat="46.59996" lon="6.31862"><ele>1629.6</ele><time>2024-05-20T12:43:30Z</time></trkpt>
<trkpt lat="46.59996" lon="6.31862"><ele>1629.6</ele><time>2024-05-20T12:43:31Z</time></trkpt>
<trkpt lat="46.59996" lon="6.31863"><ele>1629.6</ele><time>2024-05-20T12:43:39Z</time></trkpt>
<trkpt lat="46.59994" lon="6.31864"><ele>1629.6</ele><time>2024-05-20T12:43:43Z</time></trkpt>
<trkpt lat="46.59996" lon="6.31865"><ele>1629.6</ele><time>2024-05-20T12:43:59Z</time></trkpt>
<trkpt lat="46.59996" lon="6.31865"><ele>1629.6</ele><time>2024-05-20T12:44:13Z</time></trkpt>
<trkpt lat="46.59996" lon="6.31864"><ele>1629.6</ele><time>2024-05-20T12:44:24Z</time></trkpt>
<trkpt lat="46.59996" lon="6.31864"><ele>1629.6</ele><time>2024-05-20T12:44:26Z</time></trkpt>
<trkpt lat="46.59996" lon="6.31863"><ele>1629.6</ele><time>2024-05-20T12:44:34Z</time></trkpt>
<trkpt lat="46.59996" lon="6.31862"><ele>1629.6</ele><time>2024-05-20T12:44:43Z</time></trkpt>
<trkpt lat="46.59996" lon="6.31862"><ele>1629.6</ele><time>2024-05-20T12:44:46Z</time></trkpt>
<trkpt lat="46.59995" lon="6.31862"><ele>1629.6</ele><time>2024-05-20T12:44:52Z</time></trkpt>
<trkpt lat="46.59994" lon="6.31863"><ele>1629.6</ele><time>2024-05-20T12:44:55Z</time></trkpt>
<trkpt lat="46.59996" lon="6.31862"><ele>1629.6</ele><time>2024-05-20T12:45:02Z</time></trkpt>
<trkpt lat="46.59996" lon="6.31864"><ele>1629.6</ele><time>2024-05-20T12:45:12Z</time></trkpt>
<trkpt lat="46.59995" lon="6.31863"><ele>1629.6</ele><time>2024-05-20T12:45:26Z</time></trkpt>
<trkpt lat="46.59995" lon="6.31863"><ele>1629.6</ele><time>2024-05-20T12:45:30Z</time></trkpt>
<trkpt lat="46.59995" lon="6.31863"><ele>1629.6</ele><time>2024-05-20T12:45:32Z</time></trkpt>
<trkpt lat="46.59995" lon="6.31863"><ele>1629.6</ele><time>2024-05-20T12:45:37Z</time></trkpt>
<trkpt lat="46.59995" lon="6.31862"><ele>1629.6</ele><time>2024-05-20T12:45:40Z</time></trkpt>
<trkpt lat="46.59995" lon="6.31863"><ele>1629.6</ele><time>2024-05-20T12:45:50Z</time></trkpt>
<trkpt lat="46.59995" lon="6.31862"><ele>1629.6</ele><time>2024-05-20T12:46:01Z</time></trkpt>
<trkpt lat="46.59995" lon="6.31862"><ele>1629.6</ele><time>2024-05-20T12:46:08Z</time></trkpt>
<trkpt lat="46.59995" lon="6.31862"><ele>1629.6</ele><time>2024-05-20T12:46:23Z</time></trkpt>
<trkpt lat="46.59996" lon="6.31862"><ele>1629.6</ele><time>2024-05-20T12:46:39Z</time></trkpt>
<trkpt lat="46.59996" lon="6.31862"><ele>1629.6</ele><time>2024-05-20T12:46:44Z</time></trkpt>
<trkpt lat="46.59996" lon="6.31862"><ele>1629.6</ele><time>2024-05-20T12:46:46Z</time></trkpt>
<trkpt lat="46.59996" lon="6.31862"><ele>1629.6</ele><time>2024-05-20T12:46:50Z</time></trkpt>
<trkpt lat="46.59997" lon="6.31861"><ele>1629.6</ele><time>2024-05-20T12:46:58Z</time></trkpt>
<trkpt lat="46.59995" lon="6.31863"><ele>1629.6</ele><time>2024-05-20T12:47:14Z</time></trkpt>
<trkpt lat="46.59996" lon="6.31864"><ele>1629.6</ele><time>2024-05-20T12:47:29Z</time></trkpt>
<trkpt lat="46.59996" lon="6.31864"><ele>1629.6</ele><time>2024-05-20T12:47:31Z</time></trkpt>
<trkpt lat="46.59995" lon="6.31864"><ele>1629.6</ele><time>2024-05-20T12:47:43Z</time></trkpt>
<trkpt lat="46.59995" lon="6.31864"><ele>1629.6</ele><time>2024-05-20T12:47:44Z</time></trkpt>
<trkpt lat="46.59995" lon="6.31866"><ele>1629.6</ele><time>2024-05-20T12:48:00Z</time></trkpt>
<trkpt lat="46.59996" lon="6.31868"><ele>1629.6</ele><time>2024-05-20T12:48:05Z</time></trkpt>
<trkpt lat="46.59996" lon="6.31866"><ele>1629.6</ele><time>2024-05-20T12:48:13Z</time></trkpt>
<trkpt lat="46.59996" lon="6.31865"><ele>1629.6</ele><time>2024-05-20T12:48:17Z</time></trkpt>
<trkpt lat="46.59996" lon="6.31865"><ele>1629.6</ele><time>2024-05-20T12:48:19Z</time></trkpt>
<trkpt lat="46.59996" lon="6.31865"><ele>1629.6</ele><time>2024-05-20T12:48:27Z</time></trkpt>
<trkpt lat="46.59996" lon="6.31864"><ele>1629.6</ele><time>2024-05-20T12:48:35Z</time></trkpt>
<trkpt lat="46.59995" lon="6.31865"><ele>1629.6</ele><time>2024-05-20T12:48:37Z</time></trkpt>
<trkpt lat="46.59995" lon="6.31864"><ele>1629.6</ele><time>2024-05-20T12:48:44Z</time></trkpt>
<trkpt lat="46.59995" lon="6.31864"><ele>1629.6</ele><time>2024-05-20T12:48:52Z</time></trkpt>
<trkpt lat="46.59996" lon="6.31862"><ele>1629.6</ele><time>2024-05-20T12:49:00Z</time></trkpt>
<trkpt lat="46.59997" lon="6.31862"><ele>1629.6</ele><time>2024-05-20T12:49:08Z</time></trkpt>
<trkpt lat="46.59997" lon="6.31863"><ele>1629.6</ele><time>2024-05-20T12:49:16Z</time></trkpt>
<trkpt lat="46.59996" lon="6.31862"><ele>1629.6</ele><time>2024-05-20T12:49:26Z</time></trkpt>
<trkpt lat="46.59997" lon="6.31861"><ele>1629.6</ele><time>2024-05-20T12:49:36Z</time></trkpt>
<trkpt lat="46.59996" lon="6.31862"><ele>1629.6</ele><time>2024-05-20T12:49:44Z</time></trkpt>
<trkpt lat="46.59996" lon="6.31862"><ele>1629.6</ele><time>2024-05-20T12:49:45Z</time></trkpt>
<trkpt lat="46.59996" lon="6.31861"><ele>1629.6</ele><time>2024-05-20T12:49:48Z</time></trkpt>
<trkpt lat="46.59996" lon="6.31862"><ele>1629.6</ele><time>2024-05-20T12:49:51Z</time></trkpt>
<trkpt lat="46.59996" lon="6.31862"><ele>1629.6</ele><time>2024-05-20T12:50:01Z</time></trkpt>
<trkpt lat="46.59997" lon="6.31863"><ele>1629.6</ele><time>2024-05-20T12:50:08Z</time></trkpt>
<trkpt lat="46.59997" lon="6.31863"><ele>1629.6</ele><time>2024-05-20T12:50:10Z</time></trkpt>
<trkpt lat="46.59995" lon="6.31864"><ele>1629.6</ele><time>2024-05-20T12:50:16Z</time></trkpt>
<trkpt lat="46.59996" lon="6.31865"><ele>1629.6</ele><time>2024-05-20T12:50:20Z</time></trkpt>
<trkpt lat="46.59996" lon="6.31865"><ele>1629.6</ele><time>2024-05-20T12:50:26Z</time></trkpt>
<trkpt lat="46.59997" lon="6.31864"><ele>1629.6</ele><time>2024-05-20T12:50:37Z</time></trkpt>
<trkpt lat="46.59997" lon="6.31864"><ele>1629.6</ele><time>2024-05-20T12:50:39Z</time></trkpt>
<trkpt lat="46.59997" lon="6.31864"><ele>1629.6</ele><time>2024-05-20T12:50:40Z</time></trkpt>
<trkpt lat="46.59996" lon="6.31864"><ele>1629.6</ele><time>2024-05-20T12:50:50Z</time></trkpt>
<trkpt lat="46.59996" lon="6.31863"><ele>1629.6</ele><time>2024-05-20T12:50:58Z</time></trkpt>
<trkpt lat="46.59996" lon="6.31862"><ele>1629.6</ele><time>2024-05-20T12:51:08Z</time></trkpt>
<trkpt lat="46.59996" lon="6.31862"><ele>1629.6</ele><time>2024-05-20T12:51:15Z</time></trkpt>
<trkpt lat="46.59996" lon="6.31863"><ele>1629.6</ele><time>2024-05-20T12:51:21Z</time></trkpt>
<trkpt lat="46.59996" lon="6.31865"><ele>1629.6</ele><time>2024-05-20T12:51:31Z</time></trkpt>
<trkpt lat="46.59996" lon="6.31865"><ele>1629.6</ele><time>2024-05-20T12:51:32Z</time></trkpt>
<trkpt lat="46.59997" lon="6.31865"><ele>1629.6</ele><time>2024-05-20T12:51:34Z</time></trkpt>
<trkpt lat="46.59997" lon="6.31864"><ele>1629.6</ele><time>2024-05-20T12:51:36Z</time></trkpt>
<trkpt lat="46.59999" lon="6.31863"><ele>1632.2</ele><time>2024-05-20T12:51:39Z</time></trkpt>
<trkpt lat="46.6" lon="6.31865"><ele>1633</ele><time>2024-05-20T12:51:42Z</time></trkpt>
<trkpt lat="46.60001" lon="6.31865"><ele>1633.4</ele><time>2024-05-20T12:51:43Z</time></trkpt>
<trkpt lat="46.60002" lon="6.31863"><ele>1634.4</ele><time>2024-05-20T12:51:46Z</time></trkpt>
<trkpt lat="46.60002" lon="6.31863"><ele>1634.6</ele><time>2024-05-20T12:51:47Z</time></trkpt>
<trkpt lat="46.60003" lon="6.31863"><ele>1634.6</ele><time>2024-05-20T12:51:53Z</time></trkpt>
<trkpt lat="46.60004" lon="6.31864"><ele>1635</ele><time>2024-05-20T12:51:58Z</time></trkpt>
<trkpt lat="46.60005" lon="6.31864"><ele>1635</ele><time>2024-05-20T12:52:04Z</time></trkpt>
<trkpt lat="46.60005" lon="6.31863"><ele>1634.8</ele><time>2024-05-20T12:52:09Z</time></trkpt>
<trkpt lat="46.60006" lon="6.31863"><ele>1635</ele><time>2024-05-20T12:52:19Z</time></trkpt>
<trkpt lat="46.60006" lon="6.31864"><ele>1635</ele><time>2024-05-20T12:52:23Z</time></trkpt>
<trkpt lat="46.60005" lon="6.31866"><ele>1634.8</ele><time>2024-05-20T12:52:25Z</time></trkpt>
<trkpt lat="46.60003" lon="6.31864"><ele>1634.8</ele><time>2024-05-20T12:52:28Z</time></trkpt>
<trkpt lat="46.60003" lon="6.31861"><ele>1635.2</ele><time>2024-05-20T12:52:31Z</time></trkpt>
<trkpt lat="46.60006" lon="6.31856"><ele>1635.2</ele><time>2024-05-20T12:52:38Z</time></trkpt>
<trkpt lat="46.60014" lon="6.31855"><ele>1635</ele><time>2024-05-20T12:52:48Z</time></trkpt>
<trkpt lat="46.60019" lon="6.31854"><ele>1634.8</ele><time>2024-05-20T12:52:55Z</time></trkpt>
<trkpt lat="46.60022" lon="6.31853"><ele>1634.6</ele><time>2024-05-20T12:52:58Z</time></trkpt>
<trkpt lat="46.60027" lon="6.31849"><ele>1634.4</ele><time>2024-05-20T12:53:06Z</time></trkpt>
<trkpt lat="46.60028" lon="6.31847"><ele>1634.4</ele><time>2024-05-20T12:53:11Z</time></trkpt>
<trkpt lat="46.6003" lon="6.31846"><ele>1634.2</ele><time>2024-05-20T12:53:12Z</time></trkpt>
<trkpt lat="46.60038" lon="6.31838"><ele>1633.8</ele><time>2024-05-20T12:53:17Z</time></trkpt>
<trkpt lat="46.60046" lon="6.31836"><ele>1632.8</ele><time>2024-05-20T12:53:20Z</time></trkpt>
<trkpt lat="46.6005" lon="6.31834"><ele>1632.4</ele><time>2024-05-20T12:53:22Z</time></trkpt>
<trkpt lat="46.60052" lon="6.31833"><ele>1631.8</ele><time>2024-05-20T12:53:23Z</time></trkpt>
<trkpt lat="46.60055" lon="6.31833"><ele>1631.6</ele><time>2024-05-20T12:53:24Z</time></trkpt>
<trkpt lat="46.60063" lon="6.31835"><ele>1630.6</ele><time>2024-05-20T12:53:27Z</time></trkpt>
<trkpt lat="46.60067" lon="6.31839"><ele>1629.8</ele><time>2024-05-20T12:53:29Z</time></trkpt>
<trkpt lat="46.60069" lon="6.31842"><ele>1629.2</ele><time>2024-05-20T12:53:30Z</time></trkpt>
<trkpt lat="46.60075" lon="6.31853"><ele>1628.2</ele><time>2024-05-20T12:53:33Z</time></trkpt>
<trkpt lat="46.60076" lon="6.31857"><ele>1627.8</ele><time>2024-05-20T12:53:34Z</time></trkpt>
<trkpt lat="46.60077" lon="6.31868"><ele>1626.6</ele><time>2024-05-20T12:53:36Z</time></trkpt>
<trkpt lat="46.60082" lon="6.3188"><ele>1625.6</ele><time>2024-05-20T12:53:39Z</time></trkpt>
<trkpt lat="46.6009" lon="6.3189"><ele>1624.6</ele><time>2024-05-20T12:53:43Z</time></trkpt>
<trkpt lat="46.60096" lon="6.31896"><ele>1624</ele><time>2024-05-20T12:53:45Z</time></trkpt>
<trkpt lat="46.60099" lon="6.31905"><ele>1622.6</ele><time>2024-05-20T12:53:47Z</time></trkpt>
<trkpt lat="46.601" lon="6.31913"><ele>1620.8</ele><time>2024-05-20T12:53:49Z</time></trkpt>
<trkpt lat="46.60106" lon="6.31927"><ele>1621</ele><time>2024-05-20T12:53:54Z</time></trkpt>
<trkpt lat="46.60115" lon="6.31937"><ele>1621.8</ele><time>2024-05-20T12:53:59Z</time></trkpt>
<trkpt lat="46.60117" lon="6.31939"><ele>1621.8</ele><time>2024-05-20T12:54:00Z</time></trkpt>
<trkpt lat="46.60132" lon="6.31942"><ele>1621.8</ele><time>2024-05-20T12:54:06Z</time></trkpt>
<trkpt lat="46.60152" lon="6.31939"><ele>1621.8</ele><time>2024-05-20T12:54:12Z</time></trkpt>
<trkpt lat="46.60169" lon="6.31944"><ele>1621.2</ele><time>2024-05-20T12:54:17Z</time></trkpt>
<trkpt lat="46.60177" lon="6.3195"><ele>1620.8</ele><time>2024-05-20T12:54:20Z</time></trkpt>
<trkpt lat="46.6018" lon="6.31951"><ele>1620.8</ele><time>2024-05-20T12:54:21Z</time></trkpt>
<trkpt lat="46.60187" lon="6.31956"><ele>1620.6</ele><time>2024-05-20T12:54:24Z</time></trkpt>
<trkpt lat="46.60205" lon="6.31959"><ele>1619.8</ele><time>2024-05-20T12:54:30Z</time></trkpt>
<trkpt lat="46.60219" lon="6.31957"><ele>1619.2</ele><time>2024-05-20T12:54:34Z</time></trkpt>
<trkpt lat="46.60226" lon="6.31954"><ele>1618.6</ele><time>2024-05-20T12:54:36Z</time></trkpt>
<trkpt lat="46.6023" lon="6.31953"><ele>1618.4</ele><time>2024-05-20T12:54:37Z</time></trkpt>
<trkpt lat="46.60239" lon="6.3195"><ele>1617.4</ele><time>2024-05-20T12:54:39Z</time></trkpt>
<trkpt lat="46.60251" lon="6.31947"><ele>1616</ele><time>2024-05-20T12:54:42Z</time></trkpt>
<trkpt lat="46.60259" lon="6.31945"><ele>1615.2</ele><time>2024-05-20T12:54:44Z</time></trkpt>
<trkpt lat="46.60264" lon="6.31945"><ele>1614.6</ele><time>2024-05-20T12:54:45Z</time></trkpt>
<trkpt lat="46.60272" lon="6.31945"><ele>1613.6</ele><time>2024-05-20T12:54:47Z</time></trkpt>
<trkpt lat="46.60276" lon="6.31946"><ele>1613</ele><time>2024-05-20T12:54:48Z</time></trkpt>
<trkpt lat="46.6028" lon="6.31948"><ele>1612.6</ele><time>2024-05-20T12:54:49Z</time></trkpt>
<trkpt lat="46.60284" lon="6.3195"><ele>1612.4</ele><time>2024-05-20T12:54:50Z</time></trkpt>
<trkpt lat="46.60288" lon="6.31954"><ele>1611.8</ele><time>2024-05-20T12:54:51Z</time></trkpt>
<trkpt lat="46.60297" lon="6.31959"><ele>1610.6</ele><time>2024-05-20T12:54:53Z</time></trkpt>
<trkpt lat="46.60307" lon="6.31964"><ele>1609.6</ele><time>2024-05-20T12:54:55Z</time></trkpt>
<trkpt lat="46.60317" lon="6.31968"><ele>1608.4</ele><time>2024-05-20T12:54:57Z</time></trkpt>
<trkpt lat="46.60326" lon="6.31972"><ele>1607</ele><time>2024-05-20T12:54:59Z</time></trkpt>
<trkpt lat="46.60335" lon="6.31976"><ele>1605.8</ele><time>2024-05-20T12:55:01Z</time></trkpt>
<trkpt lat="46.60339" lon="6.3198"><ele>1605.4</ele><time>2024-05-20T12:55:02Z</time></trkpt>
<trkpt lat="46.60347" lon="6.31988"><ele>1604.6</ele><time>2024-05-20T12:55:04Z</time></trkpt>
<trkpt lat="46.60357" lon="6.31998"><ele>1603</ele><time>2024-05-20T12:55:07Z</time></trkpt>
<trkpt lat="46.60363" lon="6.31998"><ele>1602.4</ele><time>2024-05-20T12:55:09Z</time></trkpt>
<trkpt lat="46.60365" lon="6.31991"><ele>1602</ele><time>2024-05-20T12:55:11Z</time></trkpt>
<trkpt lat="46.60363" lon="6.31987"><ele>1601.6</ele><time>2024-05-20T12:55:12Z</time></trkpt>
<trkpt lat="46.60361" lon="6.31985"><ele>1601.6</ele><time>2024-05-20T12:55:13Z</time></trkpt>
<trkpt lat="46.60351" lon="6.31976"><ele>1601</ele><time>2024-05-20T12:55:16Z</time></trkpt>
<trkpt lat="46.60348" lon="6.31972"><ele>1600.8</ele><time>2024-05-20T12:55:17Z</time></trkpt>
<trkpt lat="46.6034" lon="6.31962"><ele>1599.6</ele><time>2024-05-20T12:55:20Z</time></trkpt>
<trkpt lat="46.60338" lon="6.31958"><ele>1599.2</ele><time>2024-05-20T12:55:21Z</time></trkpt>
<trkpt lat="46.60328" lon="6.31946"><ele>1598</ele><time>2024-05-20T12:55:24Z</time></trkpt>
<trkpt lat="46.6032" lon="6.31932"><ele>1597</ele><time>2024-05-20T12:55:27Z</time></trkpt>
<trkpt lat="46.60318" lon="6.31927"><ele>1596.6</ele><time>2024-05-20T12:55:28Z</time></trkpt>
<trkpt lat="46.60311" lon="6.31913"><ele>1595.4</ele><time>2024-05-20T12:55:31Z</time></trkpt>
<trkpt lat="46.60303" lon="6.31896"><ele>1594</ele><time>2024-05-20T12:55:35Z</time></trkpt>
<trkpt lat="46.603" lon="6.31893"><ele>1593.6</ele><time>2024-05-20T12:55:36Z</time></trkpt>
<trkpt lat="46.60295" lon="6.31884"><ele>1592.8</ele><time>2024-05-20T12:55:38Z</time></trkpt>
<trkpt lat="46.60288" lon="6.3187"><ele>1591</ele><time>2024-05-20T12:55:41Z</time></trkpt>
<trkpt lat="46.60284" lon="6.31861"><ele>1590.6</ele><time>2024-05-20T12:55:43Z</time></trkpt>
<trkpt lat="46.60282" lon="6.31856"><ele>1590</ele><time>2024-05-20T12:55:44Z</time></trkpt>
<trkpt lat="46.60276" lon="6.31842"><ele>1588.8</ele><time>2024-05-20T12:55:47Z</time></trkpt>
<trkpt lat="46.60272" lon="6.31833"><ele>1587.8</ele><time>2024-05-20T12:55:49Z</time></trkpt>
<trkpt lat="46.60269" lon="6.31829"><ele>1587.4</ele><time>2024-05-20T12:55:50Z</time></trkpt>
<trkpt lat="46.60261" lon="6.31808"><ele>1586.2</ele><time>2024-05-20T12:55:54Z</time></trkpt>
<trkpt lat="46.60258" lon="6.31799"><ele>1585.2</ele><time>2024-05-20T12:55:56Z</time></trkpt>
<trkpt lat="46.60257" lon="6.31794"><ele>1584.6</ele><time>2024-05-20T12:55:57Z</time></trkpt>
<trkpt lat="46.60255" lon="6.31789"><ele>1584.2</ele><time>2024-05-20T12:55:58Z</time></trkpt>
<trkpt lat="46.60252" lon="6.3177"><ele>1582.8</ele><time>2024-05-20T12:56:01Z</time></trkpt>
<trkpt lat="46.60251" lon="6.31759"><ele>1582.2</ele><time>2024-05-20T12:56:03Z</time></trkpt>
<trkpt lat="46.6025" lon="6.31753"><ele>1581.4</ele><time>2024-05-20T12:56:04Z</time></trkpt>
<trkpt lat="46.60245" lon="6.31735"><ele>1580</ele><time>2024-05-20T12:56:07Z</time></trkpt>
<trkpt lat="46.60242" lon="6.31722"><ele>1579.2</ele><time>2024-05-20T12:56:09Z</time></trkpt>
<trkpt lat="46.60239" lon="6.31708"><ele>1578.6</ele><time>2024-05-20T12:56:11Z</time></trkpt>
<trkpt lat="46.60236" lon="6.31695"><ele>1577.2</ele><time>2024-05-20T12:56:13Z</time></trkpt>
<trkpt lat="46.60235" lon="6.31681"><ele>1576.2</ele><time>2024-05-20T12:56:15Z</time></trkpt>
<trkpt lat="46.60231" lon="6.31661"><ele>1575</ele><time>2024-05-20T12:56:18Z</time></trkpt>
<trkpt lat="46.60229" lon="6.31649"><ele>1573.6</ele><time>2024-05-20T12:56:20Z</time></trkpt>
<trkpt lat="46.60228" lon="6.31643"><ele>1573.4</ele><time>2024-05-20T12:56:21Z</time></trkpt>
<trkpt lat="46.60225" lon="6.31623"><ele>1572.2</ele><time>2024-05-20T12:56:24Z</time></trkpt>
<trkpt lat="46.60222" lon="6.31611"><ele>1571</ele><time>2024-05-20T12:56:26Z</time></trkpt>
<trkpt lat="46.60221" lon="6.31598"><ele>1570</ele><time>2024-05-20T12:56:28Z</time></trkpt>
<trkpt lat="46.60221" lon="6.31591"><ele>1569.4</ele><time>2024-05-20T12:56:29Z</time></trkpt>
<trkpt lat="46.60223" lon="6.31579"><ele>1568.4</ele><time>2024-05-20T12:56:31Z</time></trkpt>
<trkpt lat="46.60225" lon="6.31572"><ele>1567.6</ele><time>2024-05-20T12:56:32Z</time></trkpt>
<trkpt lat="46.60226" lon="6.31566"><ele>1567.4</ele><time>2024-05-20T12:56:33Z</time></trkpt>
<trkpt lat="46.6023" lon="6.31553"><ele>1566.2</ele><time>2024-05-20T12:56:35Z</time></trkpt>
<trkpt lat="46.60233" lon="6.31538"><ele>1565</ele><time>2024-05-20T12:56:38Z</time></trkpt>
<trkpt lat="46.6024" lon="6.31523"><ele>1564</ele><time>2024-05-20T12:56:42Z</time></trkpt>
<trkpt lat="46.60242" lon="6.31513"><ele>1562.8</ele><time>2024-05-20T12:56:45Z</time></trkpt>
<trkpt lat="46.60241" lon="6.3151"><ele>1562.6</ele><time>2024-05-20T12:56:46Z</time></trkpt>
<trkpt lat="46.6024" lon="6.31508"><ele>1562.4</ele><time>2024-05-20T12:56:47Z</time></trkpt>
<trkpt lat="46.60238" lon="6.31497"><ele>1561.8</ele><time>2024-05-20T12:56:52Z</time></trkpt>
<trkpt lat="46.60236" lon="6.31489"><ele>1561.6</ele><time>2024-05-20T12:56:54Z</time></trkpt>
<trkpt lat="46.60234" lon="6.31477"><ele>1560.4</ele><time>2024-05-20T12:56:57Z</time></trkpt>
<trkpt lat="46.60231" lon="6.3147"><ele>1559.4</ele><time>2024-05-20T12:56:59Z</time></trkpt>
<trkpt lat="46.60229" lon="6.31468"><ele>1559.2</ele><time>2024-05-20T12:57:00Z</time></trkpt>
<trkpt lat="46.60217" lon="6.31453"><ele>1558.8</ele><time>2024-05-20T12:57:06Z</time></trkpt>
<trkpt lat="46.60213" lon="6.31444"><ele>1558.6</ele><time>2024-05-20T12:57:09Z</time></trkpt>
<trkpt lat="46.60211" lon="6.31438"><ele>1558.4</ele><time>2024-05-20T12:57:11Z</time></trkpt>
<trkpt lat="46.60209" lon="6.31436"><ele>1558</ele><time>2024-05-20T12:57:12Z</time></trkpt>
<trkpt lat="46.60209" lon="6.31436"><ele>1557.8</ele><time>2024-05-20T12:57:14Z</time></trkpt>
<trkpt lat="46.60208" lon="6.31435"><ele>1557.6</ele><time>2024-05-20T12:57:16Z</time></trkpt>
<trkpt lat="46.60205" lon="6.31431"><ele>1557.4</ele><time>2024-05-20T12:57:22Z</time></trkpt>
<trkpt lat="46.60198" lon="6.31423"><ele>1557.2</ele><time>2024-05-20T12:57:28Z</time></trkpt>
<trkpt lat="46.60191" lon="6.31416"><ele>1557</ele><time>2024-05-20T12:57:34Z</time></trkpt>
<trkpt lat="46.60179" lon="6.31401"><ele>1556.6</ele><time>2024-05-20T12:57:42Z</time></trkpt>
<trkpt lat="46.60174" lon="6.31392"><ele>1556</ele><time>2024-05-20T12:57:45Z</time></trkpt>
<trkpt lat="46.60169" lon="6.31385"><ele>1555.6</ele><time>2024-05-20T12:57:49Z</time></trkpt>
<trkpt lat="46.60159" lon="6.31372"><ele>1555.2</ele><time>2024-05-20T12:57:56Z</time></trkpt>
<trkpt lat="46.60156" lon="6.31367"><ele>1554.8</ele><time>2024-05-20T12:57:58Z</time></trkpt>
<trkpt lat="46.60152" lon="6.3136"><ele>1554.4</ele><time>2024-05-20T12:58:01Z</time></trkpt>
<trkpt lat="46.60149" lon="6.31356"><ele>1554.2</ele><time>2024-05-20T12:58:03Z</time></trkpt>
<trkpt lat="46.60144" lon="6.31345"><ele>1553.8</ele><time>2024-05-20T12:58:08Z</time></trkpt>
<trkpt lat="46.6014" lon="6.31337"><ele>1553.8</ele><time>2024-05-20T12:58:11Z</time></trkpt>
<trkpt lat="46.60137" lon="6.31332"><ele>1553.8</ele><time>2024-05-20T12:58:13Z</time></trkpt>
<trkpt lat="46.60135" lon="6.31329"><ele>1553.8</ele><time>2024-05-20T12:58:14Z</time></trkpt>
<trkpt lat="46.60134" lon="6.31327"><ele>1553.8</ele><time>2024-05-20T12:58:15Z</time></trkpt>
<trkpt lat="46.60132" lon="6.31324"><ele>1553.8</ele><time>2024-05-20T12:58:16Z</time></trkpt>
<trkpt lat="46.60128" lon="6.31318"><ele>1553.2</ele><time>2024-05-20T12:58:18Z</time></trkpt>
<trkpt lat="46.60123" lon="6.31308"><ele>1552.6</ele><time>2024-05-20T12:58:21Z</time></trkpt>
<trkpt lat="46.60118" lon="6.31298"><ele>1552.2</ele><time>2024-05-20T12:58:25Z</time></trkpt>
<trkpt lat="46.6011" lon="6.31282"><ele>1552.4</ele><time>2024-05-20T12:58:31Z</time></trkpt>
<trkpt lat="46.601" lon="6.31264"><ele>1552.4</ele><time>2024-05-20T12:58:39Z</time></trkpt>
<trkpt lat="46.60092" lon="6.31247"><ele>1551.8</ele><time>2024-05-20T12:58:45Z</time></trkpt>
<trkpt lat="46.60087" lon="6.31237"><ele>1551.4</ele><time>2024-05-20T12:58:50Z</time></trkpt>
<trkpt lat="46.60085" lon="6.31235"><ele>1551.6</ele><time>2024-05-20T12:58:51Z</time></trkpt>
<trkpt lat="46.60079" lon="6.31222"><ele>1552</ele><time>2024-05-20T12:58:57Z</time></trkpt>
<trkpt lat="46.60072" lon="6.3121"><ele>1552.2</ele><time>2024-05-20T12:59:03Z</time></trkpt>
<trkpt lat="46.60067" lon="6.31202"><ele>1552.4</ele><time>2024-05-20T12:59:09Z</time></trkpt>
<trkpt lat="46.60064" lon="6.31199"><ele>1552.4</ele><time>2024-05-20T12:59:11Z</time></trkpt>
<trkpt lat="46.60061" lon="6.31192"><ele>1552.8</ele><time>2024-05-20T12:59:15Z</time></trkpt>
<trkpt lat="46.60062" lon="6.31178"><ele>1552.8</ele><time>2024-05-20T12:59:19Z</time></trkpt>
<trkpt lat="46.60068" lon="6.31164"><ele>1551</ele><time>2024-05-20T12:59:23Z</time></trkpt>
<trkpt lat="46.60072" lon="6.31161"><ele>1550.6</ele><time>2024-05-20T12:59:25Z</time></trkpt>
<trkpt lat="46.60078" lon="6.31159"><ele>1550</ele><time>2024-05-20T12:59:27Z</time></trkpt>
<trkpt lat="46.60087" lon="6.31156"><ele>1548.8</ele><time>2024-05-20T12:59:30Z</time></trkpt>
<trkpt lat="46.6009" lon="6.31156"><ele>1548.6</ele><time>2024-05-20T12:59:31Z</time></trkpt>
<trkpt lat="46.60096" lon="6.31158"><ele>1547.8</ele><time>2024-05-20T12:59:33Z</time></trkpt>
<trkpt lat="46.60102" lon="6.31162"><ele>1546.6</ele><time>2024-05-20T12:59:35Z</time></trkpt>
<trkpt lat="46.60109" lon="6.31163"><ele>1545.4</ele><time>2024-05-20T12:59:38Z</time></trkpt>
<trkpt lat="46.60116" lon="6.31162"><ele>1544.4</ele><time>2024-05-20T12:59:41Z</time></trkpt>
<trkpt lat="46.60119" lon="6.3116"><ele>1544</ele><time>2024-05-20T12:59:42Z</time></trkpt>
<trkpt lat="46.60122" lon="6.31158"><ele>1543.6</ele><time>2024-05-20T12:59:43Z</time></trkpt>
<trkpt lat="46.60124" lon="6.31156"><ele>1543</ele><time>2024-05-20T12:59:44Z</time></trkpt>
<trkpt lat="46.60127" lon="6.31155"><ele>1542.4</ele><time>2024-05-20T12:59:45Z</time></trkpt>
<trkpt lat="46.60129" lon="6.31152"><ele>1541.6</ele><time>2024-05-20T12:59:46Z</time></trkpt>
<trkpt lat="46.6013" lon="6.31149"><ele>1541</ele><time>2024-05-20T12:59:47Z</time></trkpt>
<trkpt lat="46.60129" lon="6.31139"><ele>1540.2</ele><time>2024-05-20T12:59:50Z</time></trkpt>
<trkpt lat="46.60128" lon="6.31136"><ele>1539.8</ele><time>2024-05-20T12:59:51Z</time></trkpt>
<trkpt lat="46.60125" lon="6.31127"><ele>1538.8</ele><time>2024-05-20T12:59:54Z</time></trkpt>
<trkpt lat="46.60125" lon="6.31123"><ele>1537.4</ele><time>2024-05-20T12:59:56Z</time></trkpt>
<trkpt lat="46.60126" lon="6.31121"><ele>1537</ele><time>2024-05-20T12:59:57Z</time></trkpt>
<trkpt lat="46.60127" lon="6.31118"><ele>1536.4</ele><time>2024-05-20T12:59:59Z</time></trkpt>
<trkpt lat="46.60127" lon="6.31115"><ele>1535.8</ele><time>2024-05-20T13:00:01Z</time></trkpt>
<trkpt lat="46.60128" lon="6.3111"><ele>1535.2</ele><time>2024-05-20T13:00:04Z</time></trkpt>
<trkpt lat="46.6013" lon="6.31101"><ele>1534</ele><time>2024-05-20T13:00:07Z</time></trkpt>
<trkpt lat="46.60131" lon="6.31095"><ele>1533</ele><time>2024-05-20T13:00:09Z</time></trkpt>
<trkpt lat="46.60132" lon="6.31087"><ele>1531.8</ele><time>2024-05-20T13:00:11Z</time></trkpt>
<trkpt lat="46.60132" lon="6.31083"><ele>1531.4</ele><time>2024-05-20T13:00:12Z</time></trkpt>
<trkpt lat="46.6013" lon="6.31074"><ele>1530.6</ele><time>2024-05-20T13:00:14Z</time></trkpt>
<trkpt lat="46.60126" lon="6.31059"><ele>1529.2</ele><time>2024-05-20T13:00:17Z</time></trkpt>
<trkpt lat="46.60125" lon="6.31055"><ele>1528.2</ele><time>2024-05-20T13:00:18Z</time></trkpt>
<trkpt lat="46.60124" lon="6.31051"><ele>1527.8</ele><time>2024-05-20T13:00:19Z</time></trkpt>
<trkpt lat="46.60121" lon="6.31046"><ele>1526.6</ele><time>2024-05-20T13:00:21Z</time></trkpt>
<trkpt lat="46.6012" lon="6.31043"><ele>1526.4</ele><time>2024-05-20T13:00:23Z</time></trkpt>
<trkpt lat="46.60118" lon="6.31043"><ele>1526.4</ele><time>2024-05-20T13:00:24Z</time></trkpt>
<trkpt lat="46.60112" lon="6.31042"><ele>1526.2</ele><time>2024-05-20T13:00:27Z</time></trkpt>
<trkpt lat="46.60111" lon="6.31041"><ele>1526.2</ele><time>2024-05-20T13:00:28Z</time></trkpt>
<trkpt lat="46.60109" lon="6.31037"><ele>1526</ele><time>2024-05-20T13:00:30Z</time></trkpt>
<trkpt lat="46.60108" lon="6.31025"><ele>1525.6</ele><time>2024-05-20T13:00:34Z</time></trkpt>
<trkpt lat="46.60107" lon="6.3102"><ele>1525.6</ele><time>2024-05-20T13:00:36Z</time></trkpt>
<trkpt lat="46.60105" lon="6.31012"><ele>1525.2</ele><time>2024-05-20T13:00:40Z</time></trkpt>
<trkpt lat="46.60101" lon="6.31"><ele>1524.4</ele><time>2024-05-20T13:00:45Z</time></trkpt>
<trkpt lat="46.60101" lon="6.30998"><ele>1524</ele><time>2024-05-20T13:00:46Z</time></trkpt>
<trkpt lat="46.60098" lon="6.30992"><ele>1523.4</ele><time>2024-05-20T13:00:49Z</time></trkpt>
<trkpt lat="46.60095" lon="6.30982"><ele>1522.6</ele><time>2024-05-20T13:00:53Z</time></trkpt>
<trkpt lat="46.60095" lon="6.30977"><ele>1522.2</ele><time>2024-05-20T13:00:55Z</time></trkpt>
<trkpt lat="46.60098" lon="6.30972"><ele>1521.2</ele><time>2024-05-20T13:00:59Z</time></trkpt>
<trkpt lat="46.60099" lon="6.30972"><ele>1521.2</ele><time>2024-05-20T13:01:00Z</time></trkpt>
<trkpt lat="46.60101" lon="6.30971"><ele>1520.8</ele><time>2024-05-20T13:01:01Z</time></trkpt>
<trkpt lat="46.60103" lon="6.30965"><ele>1520</ele><time>2024-05-20T13:01:03Z</time></trkpt>
<trkpt lat="46.6011" lon="6.30959"><ele>1518.6</ele><time>2024-05-20T13:01:06Z</time></trkpt>
<trkpt lat="46.60115" lon="6.30957"><ele>1517.2</ele><time>2024-05-20T13:01:08Z</time></trkpt>
<trkpt lat="46.60126" lon="6.30952"><ele>1516</ele><time>2024-05-20T13:01:12Z</time></trkpt>
<trkpt lat="46.60129" lon="6.30951"><ele>1515.6</ele><time>2024-05-20T13:01:13Z</time></trkpt>
<trkpt lat="46.60133" lon="6.30948"><ele>1514.8</ele><time>2024-05-20T13:01:15Z</time></trkpt>
<trkpt lat="46.60135" lon="6.30944"><ele>1514.2</ele><time>2024-05-20T13:01:18Z</time></trkpt>
<trkpt lat="46.60142" lon="6.30941"><ele>1514</ele><time>2024-05-20T13:01:24Z</time></trkpt>
<trkpt lat="46.60145" lon="6.30938"><ele>1513.8</ele><time>2024-05-20T13:01:27Z</time></trkpt>
<trkpt lat="46.60151" lon="6.30934"><ele>1513.6</ele><time>2024-05-20T13:01:31Z</time></trkpt>
<trkpt lat="46.60155" lon="6.30933"><ele>1513.4</ele><time>2024-05-20T13:01:34Z</time></trkpt>
<trkpt lat="46.60157" lon="6.30932"><ele>1513</ele><time>2024-05-20T13:01:36Z</time></trkpt>
<trkpt lat="46.6016" lon="6.30933"><ele>1513</ele><time>2024-05-20T13:01:39Z</time></trkpt>
<trkpt lat="46.60162" lon="6.30937"><ele>1512.8</ele><time>2024-05-20T13:01:42Z</time></trkpt>
<trkpt lat="46.60173" lon="6.30949"><ele>1512.8</ele><time>2024-05-20T13:01:49Z</time></trkpt>
<trkpt lat="46.60174" lon="6.30951"><ele>1512.6</ele><time>2024-05-20T13:01:50Z</time></trkpt>
<trkpt lat="46.60178" lon="6.30955"><ele>1512.4</ele><time>2024-05-20T13:01:53Z</time></trkpt>
<trkpt lat="46.6018" lon="6.30958"><ele>1512.4</ele><time>2024-05-20T13:01:55Z</time></trkpt>
<trkpt lat="46.60187" lon="6.30969"><ele>1512.4</ele><time>2024-05-20T13:02:01Z</time></trkpt>
<trkpt lat="46.602" lon="6.3099"><ele>1512</ele><time>2024-05-20T13:02:07Z</time></trkpt>
<trkpt lat="46.60208" lon="6.31005"><ele>1511.4</ele><time>2024-05-20T13:02:10Z</time></trkpt>
<trkpt lat="46.60217" lon="6.31024"><ele>1511</ele><time>2024-05-20T13:02:13Z</time></trkpt>
<trkpt lat="46.60225" lon="6.31038"><ele>1510.2</ele><time>2024-05-20T13:02:15Z</time></trkpt>
<trkpt lat="46.60239" lon="6.31058"><ele>1508.6</ele><time>2024-05-20T13:02:18Z</time></trkpt>
<trkpt lat="46.60261" lon="6.31076"><ele>1507.6</ele><time>2024-05-20T13:02:22Z</time></trkpt>
<trkpt lat="46.60278" lon="6.31087"><ele>1506.6</ele><time>2024-05-20T13:02:25Z</time></trkpt>
<trkpt lat="46.60283" lon="6.31091"><ele>1506.4</ele><time>2024-05-20T13:02:26Z</time></trkpt>
<trkpt lat="46.60302" lon="6.3111"><ele>1505.4</ele><time>2024-05-20T13:02:30Z</time></trkpt>
<trkpt lat="46.60306" lon="6.31115"><ele>1505.2</ele><time>2024-05-20T13:02:31Z</time></trkpt>
<trkpt lat="46.60325" lon="6.31146"><ele>1504.8</ele><time>2024-05-20T13:02:37Z</time></trkpt>
<trkpt lat="46.60335" lon="6.31162"><ele>1504</ele><time>2024-05-20T13:02:41Z</time></trkpt>
<trkpt lat="46.60337" lon="6.31166"><ele>1503.8</ele><time>2024-05-20T13:02:42Z</time></trkpt>
<trkpt lat="46.60348" lon="6.31178"><ele>1502.8</ele><time>2024-05-20T13:02:45Z</time></trkpt>
<trkpt lat="46.60352" lon="6.31181"><ele>1502.6</ele><time>2024-05-20T13:02:46Z</time></trkpt>
<trkpt lat="46.60356" lon="6.31182"><ele>1502.2</ele><time>2024-05-20T13:02:47Z</time></trkpt>
<trkpt lat="46.60361" lon="6.31182"><ele>1501.6</ele><time>2024-05-20T13:02:48Z</time></trkpt>
<trkpt lat="46.6037" lon="6.3118"><ele>1501.6</ele><time>2024-05-20T13:02:51Z</time></trkpt>
<trkpt lat="46.60379" lon="6.31183"><ele>1502.4</ele><time>2024-05-20T13:02:56Z</time></trkpt>
<trkpt lat="46.6039" lon="6.31191"><ele>1502.4</ele><time>2024-05-20T13:03:02Z</time></trkpt>
<trkpt lat="46.60409" lon="6.31201"><ele>1500.4</ele><time>2024-05-20T13:03:08Z</time></trkpt>
<trkpt lat="46.60412" lon="6.31203"><ele>1500.2</ele><time>2024-05-20T13:03:09Z</time></trkpt>
<trkpt lat="46.60432" lon="6.3122"><ele>1499.2</ele><time>2024-05-20T13:03:15Z</time></trkpt>
<trkpt lat="46.60436" lon="6.31223"><ele>1499</ele><time>2024-05-20T13:03:16Z</time></trkpt>
<trkpt lat="46.60446" lon="6.31233"><ele>1498.2</ele><time>2024-05-20T13:03:19Z</time></trkpt>
<trkpt lat="46.60457" lon="6.31248"><ele>1497</ele><time>2024-05-20T13:03:23Z</time></trkpt>
<trkpt lat="46.60468" lon="6.31265"><ele>1495.8</ele><time>2024-05-20T13:03:27Z</time></trkpt>
<trkpt lat="46.60473" lon="6.31274"><ele>1495.8</ele><time>2024-05-20T13:03:29Z</time></trkpt>
<trkpt lat="46.60475" lon="6.31279"><ele>1495.6</ele><time>2024-05-20T13:03:30Z</time></trkpt>
<trkpt lat="46.6049" lon="6.31302"><ele>1495.2</ele><time>2024-05-20T13:03:37Z</time></trkpt>
<trkpt lat="46.60498" lon="6.31317"><ele>1495.4</ele><time>2024-05-20T13:03:41Z</time></trkpt>
<trkpt lat="46.60502" lon="6.31324"><ele>1495.4</ele><time>2024-05-20T13:03:43Z</time></trkpt>
<trkpt lat="46.60506" lon="6.31332"><ele>1495.4</ele><time>2024-05-20T13:03:46Z</time></trkpt>
<trkpt lat="46.60512" lon="6.31343"><ele>1495.4</ele><time>2024-05-20T13:03:49Z</time></trkpt>
<trkpt lat="46.60527" lon="6.31368"><ele>1495.4</ele><time>2024-05-20T13:03:56Z</time></trkpt>
<trkpt lat="46.60547" lon="6.31396"><ele>1494.8</ele><time>2024-05-20T13:04:04Z</time></trkpt>
<trkpt lat="46.60553" lon="6.31404"><ele>1493.4</ele><time>2024-05-20T13:04:06Z</time></trkpt>
<trkpt lat="46.60566" lon="6.3142"><ele>1493</ele><time>2024-05-20T13:04:10Z</time></trkpt>
<trkpt lat="46.60581" lon="6.31439"><ele>1493</ele><time>2024-05-20T13:04:16Z</time></trkpt>
<trkpt lat="46.60594" lon="6.31458"><ele>1492.4</ele><time>2024-05-20T13:04:21Z</time></trkpt>
<trkpt lat="46.60597" lon="6.31463"><ele>1491.8</ele><time>2024-05-20T13:04:22Z</time></trkpt>
<trkpt lat="46.60603" lon="6.31472"><ele>1491.2</ele><time>2024-05-20T13:04:24Z</time></trkpt>
<trkpt lat="46.60616" lon="6.31492"><ele>1490.2</ele><time>2024-05-20T13:04:28Z</time></trkpt>
<trkpt lat="46.60623" lon="6.31502"><ele>1490</ele><time>2024-05-20T13:04:30Z</time></trkpt>
<trkpt lat="46.60641" lon="6.31523"><ele>1490.2</ele><time>2024-05-20T13:04:35Z</time></trkpt>
<trkpt lat="46.60661" lon="6.31553"><ele>1490</ele><time>2024-05-20T13:04:42Z</time></trkpt>
<trkpt lat="46.6068" lon="6.31576"><ele>1490</ele><time>2024-05-20T13:04:49Z</time></trkpt>
<trkpt lat="46.60689" lon="6.31591"><ele>1489.4</ele><time>2024-05-20T13:04:54Z</time></trkpt>
<trkpt lat="46.607" lon="6.31606"><ele>1489.6</ele><time>2024-05-20T13:05:00Z</time></trkpt>
<trkpt lat="46.60709" lon="6.31623"><ele>1489</ele><time>2024-05-20T13:05:05Z</time></trkpt>
<trkpt lat="46.60714" lon="6.3163"><ele>1489</ele><time>2024-05-20T13:05:07Z</time></trkpt>
<trkpt lat="46.60729" lon="6.31647"><ele>1488</ele><time>2024-05-20T13:05:12Z</time></trkpt>
<trkpt lat="46.60734" lon="6.31655"><ele>1487.6</ele><time>2024-05-20T13:05:14Z</time></trkpt>
<trkpt lat="46.60742" lon="6.31657"><ele>1487</ele><time>2024-05-20T13:05:18Z</time></trkpt>
<trkpt lat="46.60745" lon="6.31657"><ele>1487.4</ele><time>2024-05-20T13:05:23Z</time></trkpt>
<trkpt lat="46.6075" lon="6.31658"><ele>1488.2</ele><time>2024-05-20T13:05:30Z</time></trkpt>
<trkpt lat="46.6075" lon="6.31659"><ele>1488.2</ele><time>2024-05-20T13:05:36Z</time></trkpt>
<trkpt lat="46.6075" lon="6.31658"><ele>1488.2</ele><time>2024-05-20T13:05:40Z</time></trkpt>
<trkpt lat="46.60751" lon="6.31657"><ele>1488.2</ele><time>2024-05-20T13:05:42Z</time></trkpt>
<trkpt lat="46.6075" lon="6.31657"><ele>1488.2</ele><time>2024-05-20T13:05:46Z</time></trkpt>
<trkpt lat="46.6075" lon="6.31657"><ele>1487.6</ele><time>2024-05-20T13:05:52Z</time></trkpt>
<trkpt lat="46.60749" lon="6.31658"><ele>1487.6</ele><time>2024-05-20T13:06:02Z</time></trkpt>
<trkpt lat="46.6075" lon="6.31657"><ele>1487.6</ele><time>2024-05-20T13:06:08Z</time></trkpt>
<trkpt lat="46.6075" lon="6.31657"><ele>1487.4</ele><time>2024-05-20T13:06:10Z</time></trkpt>
<trkpt lat="46.6075" lon="6.31657"><ele>1487.4</ele><time>2024-05-20T13:06:12Z</time></trkpt>
<trkpt lat="46.60751" lon="6.31657"><ele>1487</ele><time>2024-05-20T13:06:15Z</time></trkpt>
<trkpt lat="46.6075" lon="6.31656"><ele>1486.8</ele><time>2024-05-20T13:06:17Z</time></trkpt>
<trkpt lat="46.6075" lon="6.31656"><ele>1486.8</ele><time>2024-05-20T13:06:18Z</time></trkpt>
<trkpt lat="46.6075" lon="6.31654"><ele>1486.8</ele><time>2024-05-20T13:06:24Z</time></trkpt>
<trkpt lat="46.6075" lon="6.31654"><ele>1486.8</ele><time>2024-05-20T13:06:25Z</time></trkpt>
<trkpt lat="46.6075" lon="6.31655"><ele>1486.8</ele><time>2024-05-20T13:06:27Z</time></trkpt>
<trkpt lat="46.6075" lon="6.31655"><ele>1487</ele><time>2024-05-20T13:06:34Z</time></trkpt>
<trkpt lat="46.6075" lon="6.31656"><ele>1486.8</ele><time>2024-05-20T13:06:40Z</time></trkpt>
<trkpt lat="46.60751" lon="6.31656"><ele>1486.8</ele><time>2024-05-20T13:06:44Z</time></trkpt>
<trkpt lat="46.60753" lon="6.31655"><ele>1487.4</ele><time>2024-05-20T13:06:52Z</time></trkpt>
<trkpt lat="46.60753" lon="6.31654"><ele>1487.4</ele><time>2024-05-20T13:06:59Z</time></trkpt>
<trkpt lat="46.60752" lon="6.31654"><ele>1487.4</ele><time>2024-05-20T13:07:09Z</time></trkpt>
<trkpt lat="46.60752" lon="6.31653"><ele>1487.4</ele><time>2024-05-20T13:07:12Z</time></trkpt>
<trkpt lat="46.60752" lon="6.31653"><ele>1487.2</ele><time>2024-05-20T13:07:19Z</time></trkpt>
<trkpt lat="46.60752" lon="6.31653"><ele>1487.2</ele><time>2024-05-20T13:07:20Z</time></trkpt>
<trkpt lat="46.60752" lon="6.31652"><ele>1487.2</ele><time>2024-05-20T13:07:31Z</time></trkpt>
<trkpt lat="46.60754" lon="6.31654"><ele>1487.4</ele><time>2024-05-20T13:07:41Z</time></trkpt>
<trkpt lat="46.60753" lon="6.31655"><ele>1487.4</ele><time>2024-05-20T13:07:48Z</time></trkpt>
<trkpt lat="46.6075" lon="6.31657"><ele>1487.4</ele><time>2024-05-20T13:07:54Z</time></trkpt>
<trkpt lat="46.6075" lon="6.31657"><ele>1487.4</ele><time>2024-05-20T13:07:57Z</time></trkpt>
<trkpt lat="46.6075" lon="6.31656"><ele>1487.4</ele><time>2024-05-20T13:08:00Z</time></trkpt>
<trkpt lat="46.6075" lon="6.31656"><ele>1487.4</ele><time>2024-05-20T13:08:07Z</time></trkpt>
<trkpt lat="46.6075" lon="6.31657"><ele>1487.4</ele><time>2024-05-20T13:08:12Z</time></trkpt>
<trkpt lat="46.6075" lon="6.31656"><ele>1487.4</ele><time>2024-05-20T13:08:18Z</time></trkpt>
<trkpt lat="46.60751" lon="6.31655"><ele>1487.4</ele><time>2024-05-20T13:08:24Z</time></trkpt>
<trkpt lat="46.60751" lon="6.31656"><ele>1487.4</ele><time>2024-05-20T13:08:32Z</time></trkpt>
<trkpt lat="46.6075" lon="6.31656"><ele>1487.4</ele><time>2024-05-20T13:08:36Z</time></trkpt>
<trkpt lat="46.60749" lon="6.31656"><ele>1487.4</ele><time>2024-05-20T13:08:40Z</time></trkpt>
<trkpt lat="46.6075" lon="6.31655"><ele>1487.4</ele><time>2024-05-20T13:08:46Z</time></trkpt>
<trkpt lat="46.60749" lon="6.31657"><ele>1487.4</ele><time>2024-05-20T13:08:53Z</time></trkpt>
<trkpt lat="46.60749" lon="6.31657"><ele>1487.4</ele><time>2024-05-20T13:08:59Z</time></trkpt>
<trkpt lat="46.6075" lon="6.31659"><ele>1487.4</ele><time>2024-05-20T13:09:05Z</time></trkpt>
<trkpt lat="46.60749" lon="6.31665"><ele>1487.4</ele><time>2024-05-20T13:09:09Z</time></trkpt>
<trkpt lat="46.60749" lon="6.31682"><ele>1487.2</ele><time>2024-05-20T13:09:14Z</time></trkpt>
<trkpt lat="46.60756" lon="6.31701"><ele>1487.2</ele><time>2024-05-20T13:09:20Z</time></trkpt>
<trkpt lat="46.6077" lon="6.31725"><ele>1487.8</ele><time>2024-05-20T13:09:26Z</time></trkpt>
<trkpt lat="46.60772" lon="6.31729"><ele>1488</ele><time>2024-05-20T13:09:27Z</time></trkpt>
<trkpt lat="46.60786" lon="6.31748"><ele>1488.4</ele><time>2024-05-20T13:09:33Z</time></trkpt>
<trkpt lat="46.60803" lon="6.31775"><ele>1488.6</ele><time>2024-05-20T13:09:41Z</time></trkpt>
<trkpt lat="46.60807" lon="6.31787"><ele>1488.6</ele><time>2024-05-20T13:09:45Z</time></trkpt>
<trkpt lat="46.60808" lon="6.31792"><ele>1488.8</ele><time>2024-05-20T13:09:47Z</time></trkpt>
<trkpt lat="46.6081" lon="6.31798"><ele>1489.2</ele><time>2024-05-20T13:09:49Z</time></trkpt>
<trkpt lat="46.60815" lon="6.31808"><ele>1489.6</ele><time>2024-05-20T13:09:53Z</time></trkpt>
<trkpt lat="46.60826" lon="6.3182"><ele>1489.8</ele><time>2024-05-20T13:10:00Z</time></trkpt>
<trkpt lat="46.60838" lon="6.31836"><ele>1489.4</ele><time>2024-05-20T13:10:06Z</time></trkpt>
<trkpt lat="46.60854" lon="6.31853"><ele>1488</ele><time>2024-05-20T13:10:14Z</time></trkpt>
<trkpt lat="46.60866" lon="6.31874"><ele>1487.2</ele><time>2024-05-20T13:10:20Z</time></trkpt>
<trkpt lat="46.60869" lon="6.31879"><ele>1487</ele><time>2024-05-20T13:10:21Z</time></trkpt>
<trkpt lat="46.60872" lon="6.31885"><ele>1486.8</ele><time>2024-05-20T13:10:22Z</time></trkpt>
<trkpt lat="46.60886" lon="6.319"><ele>1485.4</ele><time>2024-05-20T13:10:25Z</time></trkpt>
<trkpt lat="46.60896" lon="6.31905"><ele>1484.2</ele><time>2024-05-20T13:10:27Z</time></trkpt>
<trkpt lat="46.60908" lon="6.3191"><ele>1483.4</ele><time>2024-05-20T13:10:29Z</time></trkpt>
<trkpt lat="46.60915" lon="6.3191"><ele>1482.6</ele><time>2024-05-20T13:10:30Z</time></trkpt>
<trkpt lat="46.60926" lon="6.31907"><ele>1481.4</ele><time>2024-05-20T13:10:32Z</time></trkpt>
<trkpt lat="46.60936" lon="6.31902"><ele>1481</ele><time>2024-05-20T13:10:34Z</time></trkpt>
<trkpt lat="46.60945" lon="6.31903"><ele>1481.2</ele><time>2024-05-20T13:10:36Z</time></trkpt>
<trkpt lat="46.6096" lon="6.31913"><ele>1481.6</ele><time>2024-05-20T13:10:40Z</time></trkpt>
<trkpt lat="46.60963" lon="6.31915"><ele>1481.8</ele><time>2024-05-20T13:10:41Z</time></trkpt>
<trkpt lat="46.60966" lon="6.31917"><ele>1481.8</ele><time>2024-05-20T13:10:42Z</time></trkpt>
<trkpt lat="46.60979" lon="6.31937"><ele>1481.8</ele><time>2024-05-20T13:10:47Z</time></trkpt>
<trkpt lat="46.60987" lon="6.31963"><ele>1481.6</ele><time>2024-05-20T13:10:52Z</time></trkpt>
<trkpt lat="46.61005" lon="6.31986"><ele>1480.4</ele><time>2024-05-20T13:10:58Z</time></trkpt>
<trkpt lat="46.61012" lon="6.31994"><ele>1480.2</ele><time>2024-05-20T13:11:00Z</time></trkpt>
<trkpt lat="46.61022" lon="6.32006"><ele>1479</ele><time>2024-05-20T13:11:03Z</time></trkpt>
<trkpt lat="46.6103" lon="6.32016"><ele>1478.6</ele><time>2024-05-20T13:11:05Z</time></trkpt>
<trkpt lat="46.61042" lon="6.32033"><ele>1478</ele><time>2024-05-20T13:11:08Z</time></trkpt>
<trkpt lat="46.61051" lon="6.3205"><ele>1477.2</ele><time>2024-05-20T13:11:11Z</time></trkpt>
<trkpt lat="46.61053" lon="6.32055"><ele>1476.8</ele><time>2024-05-20T13:11:12Z</time></trkpt>
<trkpt lat="46.61059" lon="6.32066"><ele>1475.4</ele><time>2024-05-20T13:11:14Z</time></trkpt>
<trkpt lat="46.61067" lon="6.32077"><ele>1473.6</ele><time>2024-05-20T13:11:16Z</time></trkpt>
<trkpt lat="46.61071" lon="6.32082"><ele>1473</ele><time>2024-05-20T13:11:17Z</time></trkpt>
<trkpt lat="46.6108" lon="6.32094"><ele>1471.2</ele><time>2024-05-20T13:11:19Z</time></trkpt>
<trkpt lat="46.61084" lon="6.32099"><ele>1469.6</ele><time>2024-05-20T13:11:20Z</time></trkpt>
<trkpt lat="46.61092" lon="6.32109"><ele>1468.2</ele><time>2024-05-20T13:11:22Z</time></trkpt>
<trkpt lat="46.611" lon="6.3212"><ele>1466.4</ele><time>2024-05-20T13:11:24Z</time></trkpt>
<trkpt lat="46.61104" lon="6.32125"><ele>1465.2</ele><time>2024-05-20T13:11:25Z</time></trkpt>
<trkpt lat="46.61111" lon="6.32135"><ele>1464</ele><time>2024-05-20T13:11:27Z</time></trkpt>
<trkpt lat="46.61115" lon="6.32139"><ele>1464</ele><time>2024-05-20T13:11:28Z</time></trkpt>
<trkpt lat="46.61118" lon="6.32144"><ele>1462.8</ele><time>2024-05-20T13:11:29Z</time></trkpt>
<trkpt lat="46.61121" lon="6.3215"><ele>1461.4</ele><time>2024-05-20T13:11:30Z</time></trkpt>
<trkpt lat="46.61123" lon="6.32156"><ele>1459.8</ele><time>2024-05-20T13:11:31Z</time></trkpt>
<trkpt lat="46.61123" lon="6.32162"><ele>1458.6</ele><time>2024-05-20T13:11:32Z</time></trkpt>
<trkpt lat="46.61116" lon="6.32183"><ele>1457.4</ele><time>2024-05-20T13:11:36Z</time></trkpt>
<trkpt lat="46.61108" lon="6.32189"><ele>1456</ele><time>2024-05-20T13:11:39Z</time></trkpt>
<trkpt lat="46.61105" lon="6.32188"><ele>1455.8</ele><time>2024-05-20T13:11:40Z</time></trkpt>
<trkpt lat="46.61092" lon="6.32174"><ele>1455</ele><time>2024-05-20T13:11:45Z</time></trkpt>
<trkpt lat="46.61078" lon="6.3216"><ele>1454.8</ele><time>2024-05-20T13:11:49Z</time></trkpt>
<trkpt lat="46.6107" lon="6.32157"><ele>1455</ele><time>2024-05-20T13:11:51Z</time></trkpt>
<trkpt lat="46.61053" lon="6.32162"><ele>1455.4</ele><time>2024-05-20T13:11:56Z</time></trkpt>
<trkpt lat="46.61041" lon="6.32172"><ele>1455.8</ele><time>2024-05-20T13:12:00Z</time></trkpt>
<trkpt lat="46.61036" lon="6.32181"><ele>1455.8</ele><time>2024-05-20T13:12:02Z</time></trkpt>
<trkpt lat="46.61032" lon="6.322"><ele>1455.4</ele><time>2024-05-20T13:12:05Z</time></trkpt>
<trkpt lat="46.61031" lon="6.32208"><ele>1455.4</ele><time>2024-05-20T13:12:06Z</time></trkpt>
<trkpt lat="46.61025" lon="6.3225"><ele>1454.2</ele><time>2024-05-20T13:12:11Z</time></trkpt>
<trkpt lat="46.61026" lon="6.32261"><ele>1453.6</ele><time>2024-05-20T13:12:12Z</time></trkpt>
<trkpt lat="46.6103" lon="6.32271"><ele>1453</ele><time>2024-05-20T13:12:13Z</time></trkpt>
<trkpt lat="46.61035" lon="6.3228"><ele>1452.2</ele><time>2024-05-20T13:12:14Z</time></trkpt>
<trkpt lat="46.61041" lon="6.32288"><ele>1451.8</ele><time>2024-05-20T13:12:15Z</time></trkpt>
<trkpt lat="46.61052" lon="6.32305"><ele>1451</ele><time>2024-05-20T13:12:17Z</time></trkpt>
<trkpt lat="46.61066" lon="6.3233"><ele>1449.6</ele><time>2024-05-20T13:12:20Z</time></trkpt>
<trkpt lat="46.61071" lon="6.32336"><ele>1449.4</ele><time>2024-05-20T13:12:21Z</time></trkpt>
<trkpt lat="46.61075" lon="6.32342"><ele>1449.4</ele><time>2024-05-20T13:12:22Z</time></trkpt>
<trkpt lat="46.61094" lon="6.32364"><ele>1448.6</ele><time>2024-05-20T13:12:26Z</time></trkpt>
<trkpt lat="46.61098" lon="6.32368"><ele>1448.4</ele><time>2024-05-20T13:12:27Z</time></trkpt>
<trkpt lat="46.61108" lon="6.32378"><ele>1447.4</ele><time>2024-05-20T13:12:30Z</time></trkpt>
<trkpt lat="46.61112" lon="6.3238"><ele>1447.2</ele><time>2024-05-20T13:12:31Z</time></trkpt>
<trkpt lat="46.61115" lon="6.32384"><ele>1447</ele><time>2024-05-20T13:12:32Z</time></trkpt>
<trkpt lat="46.61126" lon="6.32401"><ele>1446.8</ele><time>2024-05-20T13:12:35Z</time></trkpt>
<trkpt lat="46.61129" lon="6.3242"><ele>1446</ele><time>2024-05-20T13:12:37Z</time></trkpt>
<trkpt lat="46.6113" lon="6.3243"><ele>1445.6</ele><time>2024-05-20T13:12:38Z</time></trkpt>
<trkpt lat="46.61132" lon="6.3245"><ele>1444.8</ele><time>2024-05-20T13:12:40Z</time></trkpt>
<trkpt lat="46.61133" lon="6.32469"><ele>1443</ele><time>2024-05-20T13:12:42Z</time></trkpt>
<trkpt lat="46.61131" lon="6.32488"><ele>1442</ele><time>2024-05-20T13:12:44Z</time></trkpt>
<trkpt lat="46.6113" lon="6.32498"><ele>1441.2</ele><time>2024-05-20T13:12:45Z</time></trkpt>
<trkpt lat="46.61131" lon="6.32519"><ele>1440.4</ele><time>2024-05-20T13:12:47Z</time></trkpt>
<trkpt lat="46.61132" lon="6.32529"><ele>1439.8</ele><time>2024-05-20T13:12:48Z</time></trkpt>
<trkpt lat="46.61139" lon="6.3256"><ele>1438.4</ele><time>2024-05-20T13:12:51Z</time></trkpt>
<trkpt lat="46.61144" lon="6.32583"><ele>1437.2</ele><time>2024-05-20T13:12:53Z</time></trkpt>
<trkpt lat="46.61152" lon="6.32604"><ele>1435.6</ele><time>2024-05-20T13:12:55Z</time></trkpt>
<trkpt lat="46.61165" lon="6.32633"><ele>1434.6</ele><time>2024-05-20T13:12:58Z</time></trkpt>
<trkpt lat="46.6117" lon="6.32643"><ele>1434.4</ele><time>2024-05-20T13:12:59Z</time></trkpt>
<trkpt lat="46.61181" lon="6.32675"><ele>1433</ele><time>2024-05-20T13:13:02Z</time></trkpt>
<trkpt lat="46.6119" lon="6.32696"><ele>1432.2</ele><time>2024-05-20T13:13:04Z</time></trkpt>
<trkpt lat="46.612" lon="6.32716"><ele>1431.6</ele><time>2024-05-20T13:13:06Z</time></trkpt>
<trkpt lat="46.61218" lon="6.32741"><ele>1430.8</ele><time>2024-05-20T13:13:09Z</time></trkpt>
<trkpt lat="46.61225" lon="6.32747"><ele>1430.6</ele><time>2024-05-20T13:13:10Z</time></trkpt>
<trkpt lat="46.61246" lon="6.32761"><ele>1430.4</ele><time>2024-05-20T13:13:13Z</time></trkpt>
<trkpt lat="46.61282" lon="6.32782"><ele>1430.2</ele><time>2024-05-20T13:13:19Z</time></trkpt>
<trkpt lat="46.61328" lon="6.3281"><ele>1429.6</ele><time>2024-05-20T13:13:27Z</time></trkpt>
<trkpt lat="46.6134" lon="6.32818"><ele>1428.6</ele><time>2024-05-20T13:13:29Z</time></trkpt>
<trkpt lat="46.61345" lon="6.32821"><ele>1428.6</ele><time>2024-05-20T13:13:30Z</time></trkpt>
<trkpt lat="46.61386" lon="6.3284"><ele>1428</ele><time>2024-05-20T13:13:37Z</time></trkpt>
<trkpt lat="46.61402" lon="6.3285"><ele>1427.8</ele><time>2024-05-20T13:13:40Z</time></trkpt>
<trkpt lat="46.61407" lon="6.32854"><ele>1427.8</ele><time>2024-05-20T13:13:41Z</time></trkpt>
<trkpt lat="46.61416" lon="6.32863"><ele>1427.4</ele><time>2024-05-20T13:13:43Z</time></trkpt>
<trkpt lat="46.61442" lon="6.32894"><ele>1426.4</ele><time>2024-05-20T13:13:49Z</time></trkpt>
<trkpt lat="46.61447" lon="6.32901"><ele>1425.8</ele><time>2024-05-20T13:13:50Z</time></trkpt>
<trkpt lat="46.61451" lon="6.32909"><ele>1425.4</ele><time>2024-05-20T13:13:51Z</time></trkpt>
<trkpt lat="46.61463" lon="6.32938"><ele>1423.4</ele><time>2024-05-20T13:13:54Z</time></trkpt>
<trkpt lat="46.61477" lon="6.32971"><ele>1421.8</ele><time>2024-05-20T13:13:57Z</time></trkpt>
<trkpt lat="46.61483" lon="6.32982"><ele>1421</ele><time>2024-05-20T13:13:58Z</time></trkpt>
<trkpt lat="46.61491" lon="6.32991"><ele>1420.6</ele><time>2024-05-20T13:13:59Z</time></trkpt>
<trkpt lat="46.615" lon="6.33"><ele>1420</ele><time>2024-05-20T13:14:00Z</time></trkpt>
<trkpt lat="46.61508" lon="6.33008"><ele>1419.4</ele><time>2024-05-20T13:14:01Z</time></trkpt>
<trkpt lat="46.61515" lon="6.33015"><ele>1418.4</ele><time>2024-05-20T13:14:02Z</time></trkpt>
<trkpt lat="46.61521" lon="6.33022"><ele>1417.4</ele><time>2024-05-20T13:14:03Z</time></trkpt>
<trkpt lat="46.61526" lon="6.3303"><ele>1416.2</ele><time>2024-05-20T13:14:04Z</time></trkpt>
<trkpt lat="46.61532" lon="6.33049"><ele>1415.2</ele><time>2024-05-20T13:14:06Z</time></trkpt>
<trkpt lat="46.61536" lon="6.33059"><ele>1414.8</ele><time>2024-05-20T13:14:07Z</time></trkpt>
<trkpt lat="46.61545" lon="6.3308"><ele>1413.4</ele><time>2024-05-20T13:14:09Z</time></trkpt>
<trkpt lat="46.6155" lon="6.3309"><ele>1412.2</ele><time>2024-05-20T13:14:10Z</time></trkpt>
<trkpt lat="46.61556" lon="6.33099"><ele>1411.2</ele><time>2024-05-20T13:14:11Z</time></trkpt>
<trkpt lat="46.61567" lon="6.33115"><ele>1409.6</ele><time>2024-05-20T13:14:13Z</time></trkpt>
<trkpt lat="46.61577" lon="6.3313"><ele>1408</ele><time>2024-05-20T13:14:15Z</time></trkpt>
<trkpt lat="46.61587" lon="6.33144"><ele>1406.8</ele><time>2024-05-20T13:14:17Z</time></trkpt>
<trkpt lat="46.61597" lon="6.33157"><ele>1405.4</ele><time>2024-05-20T13:14:19Z</time></trkpt>
<trkpt lat="46.61607" lon="6.33169"><ele>1404.2</ele><time>2024-05-20T13:14:21Z</time></trkpt>
<trkpt lat="46.61616" lon="6.33179"><ele>1403.2</ele><time>2024-05-20T13:14:23Z</time></trkpt>
<trkpt lat="46.61621" lon="6.33183"><ele>1402.6</ele><time>2024-05-20T13:14:24Z</time></trkpt>
<trkpt lat="46.61625" lon="6.33187"><ele>1401.4</ele><time>2024-05-20T13:14:25Z</time></trkpt>
<trkpt lat="46.61638" lon="6.33199"><ele>1400.4</ele><time>2024-05-20T13:14:28Z</time></trkpt>
<trkpt lat="46.61642" lon="6.33202"><ele>1400</ele><time>2024-05-20T13:14:29Z</time></trkpt>
<trkpt lat="46.61647" lon="6.33205"><ele>1399.4</ele><time>2024-05-20T13:14:30Z</time></trkpt>
<trkpt lat="46.61653" lon="6.33209"><ele>1399.2</ele><time>2024-05-20T13:14:31Z</time></trkpt>
<trkpt lat="46.61678" lon="6.3323"><ele>1397.6</ele><time>2024-05-20T13:14:35Z</time></trkpt>
<trkpt lat="46.61692" lon="6.33239"><ele>1396.4</ele><time>2024-05-20T13:14:37Z</time></trkpt>
<trkpt lat="46.617" lon="6.33241"><ele>1396</ele><time>2024-05-20T13:14:38Z</time></trkpt>
<trkpt lat="46.61707" lon="6.33242"><ele>1395.4</ele><time>2024-05-20T13:14:39Z</time></trkpt>
<trkpt lat="46.61715" lon="6.33241"><ele>1395</ele><time>2024-05-20T13:14:40Z</time></trkpt>
<trkpt lat="46.61722" lon="6.3324"><ele>1394.2</ele><time>2024-05-20T13:14:41Z</time></trkpt>
<trkpt lat="46.61729" lon="6.33238"><ele>1393.8</ele><time>2024-05-20T13:14:42Z</time></trkpt>
<trkpt lat="46.61736" lon="6.33235"><ele>1393.4</ele><time>2024-05-20T13:14:43Z</time></trkpt>
<trkpt lat="46.61743" lon="6.3323"><ele>1393.4</ele><time>2024-05-20T13:14:44Z</time></trkpt>
<trkpt lat="46.6175" lon="6.33225"><ele>1392.6</ele><time>2024-05-20T13:14:45Z</time></trkpt>
<trkpt lat="46.61764" lon="6.33218"><ele>1392.2</ele><time>2024-05-20T13:14:47Z</time></trkpt>
<trkpt lat="46.61771" lon="6.33215"><ele>1391.6</ele><time>2024-05-20T13:14:48Z</time></trkpt>
<trkpt lat="46.61778" lon="6.33213"><ele>1391.4</ele><time>2024-05-20T13:14:49Z</time></trkpt>
<trkpt lat="46.61792" lon="6.33211"><ele>1389.8</ele><time>2024-05-20T13:14:51Z</time></trkpt>
<trkpt lat="46.61798" lon="6.33212"><ele>1389.4</ele><time>2024-05-20T13:14:52Z</time></trkpt>
<trkpt lat="46.61805" lon="6.33213"><ele>1388.6</ele><time>2024-05-20T13:14:53Z</time></trkpt>
<trkpt lat="46.61811" lon="6.33217"><ele>1388.2</ele><time>2024-05-20T13:14:54Z</time></trkpt>
<trkpt lat="46.61818" lon="6.33222"><ele>1387</ele><time>2024-05-20T13:14:55Z</time></trkpt>
<trkpt lat="46.61824" lon="6.33228"><ele>1386.6</ele><time>2024-05-20T13:14:56Z</time></trkpt>
<trkpt lat="46.6183" lon="6.33236"><ele>1386</ele><time>2024-05-20T13:14:58Z</time></trkpt>
<trkpt lat="46.61834" lon="6.33246"><ele>1385.4</ele><time>2024-05-20T13:14:59Z</time></trkpt>
<trkpt lat="46.61841" lon="6.33266"><ele>1385</ele><time>2024-05-20T13:15:00Z</time></trkpt>
<trkpt lat="46.61846" lon="6.33274"><ele>1384.6</ele><time>2024-05-20T13:15:01Z</time></trkpt>
<trkpt lat="46.61852" lon="6.33281"><ele>1383.4</ele><time>2024-05-20T13:15:02Z</time></trkpt>
<trkpt lat="46.61859" lon="6.33287"><ele>1383.2</ele><time>2024-05-20T13:15:03Z</time></trkpt>
<trkpt lat="46.6187" lon="6.33302"><ele>1382.6</ele><time>2024-05-20T13:15:05Z</time></trkpt>
<trkpt lat="46.61874" lon="6.33311"><ele>1382</ele><time>2024-05-20T13:15:06Z</time></trkpt>
<trkpt lat="46.61876" lon="6.3332"><ele>1381.6</ele><time>2024-05-20T13:15:07Z</time></trkpt>
<trkpt lat="46.61879" lon="6.33342"><ele>1380.8</ele><time>2024-05-20T13:15:10Z</time></trkpt>
<trkpt lat="46.6188" lon="6.33348"><ele>1380.6</ele><time>2024-05-20T13:15:12Z</time></trkpt>
<trkpt lat="46.61883" lon="6.3337"><ele>1380.2</ele><time>2024-05-20T13:15:16Z</time></trkpt>
<trkpt lat="46.61885" lon="6.33374"><ele>1380.2</ele><time>2024-05-20T13:15:17Z</time></trkpt>
<trkpt lat="46.61895" lon="6.33389"><ele>1380.2</ele><time>2024-05-20T13:15:19Z</time></trkpt>
<trkpt lat="46.61899" lon="6.33393"><ele>1380.2</ele><time>2024-05-20T13:15:20Z</time></trkpt>
<trkpt lat="46.6191" lon="6.33405"><ele>1380.2</ele><time>2024-05-20T13:15:23Z</time></trkpt>
<trkpt lat="46.61932" lon="6.33427"><ele>1380</ele><time>2024-05-20T13:15:29Z</time></trkpt>
<trkpt lat="46.61945" lon="6.33444"><ele>1379.8</ele><time>2024-05-20T13:15:33Z</time></trkpt>
<trkpt lat="46.61948" lon="6.33454"><ele>1379.8</ele><time>2024-05-20T13:15:35Z</time></trkpt>
<trkpt lat="46.61955" lon="6.33472"><ele>1379.8</ele><time>2024-05-20T13:15:38Z</time></trkpt>
<trkpt lat="46.61958" lon="6.33478"><ele>1379.6</ele><time>2024-05-20T13:15:39Z</time></trkpt>
<trkpt lat="46.61967" lon="6.33489"><ele>1379</ele><time>2024-05-20T13:15:41Z</time></trkpt>
<trkpt lat="46.61973" lon="6.33494"><ele>1378.6</ele><time>2024-05-20T13:15:42Z</time></trkpt>
<trkpt lat="46.61985" lon="6.33505"><ele>1377.6</ele><time>2024-05-20T13:15:44Z</time></trkpt>
<trkpt lat="46.6199" lon="6.33511"><ele>1377.2</ele><time>2024-05-20T13:15:45Z</time></trkpt>
<trkpt lat="46.61995" lon="6.33518"><ele>1376.4</ele><time>2024-05-20T13:15:46Z</time></trkpt>
<trkpt lat="46.62" lon="6.33524"><ele>1375.8</ele><time>2024-05-20T13:15:47Z</time></trkpt>
<trkpt lat="46.62008" lon="6.33539"><ele>1374</ele><time>2024-05-20T13:15:49Z</time></trkpt>
<trkpt lat="46.62011" lon="6.33547"><ele>1373.2</ele><time>2024-05-20T13:15:50Z</time></trkpt>
<trkpt lat="46.62014" lon="6.33554"><ele>1372.4</ele><time>2024-05-20T13:15:51Z</time></trkpt>
<trkpt lat="46.62016" lon="6.3356"><ele>1371.2</ele><time>2024-05-20T13:15:52Z</time></trkpt>
<trkpt lat="46.62023" lon="6.33571"><ele>1369.8</ele><time>2024-05-20T13:15:54Z</time></trkpt>
<trkpt lat="46.62028" lon="6.33576"><ele>1369</ele><time>2024-05-20T13:15:55Z</time></trkpt>
<trkpt lat="46.62033" lon="6.33582"><ele>1368.4</ele><time>2024-05-20T13:15:56Z</time></trkpt>
<trkpt lat="46.62043" lon="6.33595"><ele>1366.6</ele><time>2024-05-20T13:15:58Z</time></trkpt>
<trkpt lat="46.62053" lon="6.33608"><ele>1365.4</ele><time>2024-05-20T13:16:00Z</time></trkpt>
<trkpt lat="46.62057" lon="6.33615"><ele>1364.4</ele><time>2024-05-20T13:16:01Z</time></trkpt>
<trkpt lat="46.62062" lon="6.33622"><ele>1363</ele><time>2024-05-20T13:16:02Z</time></trkpt>
<trkpt lat="46.62068" lon="6.33638"><ele>1361</ele><time>2024-05-20T13:16:04Z</time></trkpt>
<trkpt lat="46.62073" lon="6.33656"><ele>1359.8</ele><time>2024-05-20T13:16:06Z</time></trkpt>
<trkpt lat="46.62075" lon="6.33666"><ele>1358.6</ele><time>2024-05-20T13:16:07Z</time></trkpt>
<trkpt lat="46.62079" lon="6.33684"><ele>1357.2</ele><time>2024-05-20T13:16:09Z</time></trkpt>
<trkpt lat="46.62083" lon="6.33699"><ele>1355.8</ele><time>2024-05-20T13:16:11Z</time></trkpt>
<trkpt lat="46.62088" lon="6.33713"><ele>1354.8</ele><time>2024-05-20T13:16:13Z</time></trkpt>
<trkpt lat="46.621" lon="6.33731"><ele>1353.4</ele><time>2024-05-20T13:16:16Z</time></trkpt>
<trkpt lat="46.62109" lon="6.3374"><ele>1352.2</ele><time>2024-05-20T13:16:18Z</time></trkpt>
<trkpt lat="46.62113" lon="6.33745"><ele>1351.2</ele><time>2024-05-20T13:16:19Z</time></trkpt>
<trkpt lat="46.62117" lon="6.33748"><ele>1350</ele><time>2024-05-20T13:16:20Z</time></trkpt>
<trkpt lat="46.62125" lon="6.33756"><ele>1348.4</ele><time>2024-05-20T13:16:22Z</time></trkpt>
<trkpt lat="46.62132" lon="6.33763"><ele>1347.2</ele><time>2024-05-20T13:16:24Z</time></trkpt>
<trkpt lat="46.62143" lon="6.33774"><ele>1345.6</ele><time>2024-05-20T13:16:27Z</time></trkpt>
<trkpt lat="46.62146" lon="6.33778"><ele>1344.8</ele><time>2024-05-20T13:16:28Z</time></trkpt>
<trkpt lat="46.62149" lon="6.33782"><ele>1344.2</ele><time>2024-05-20T13:16:29Z</time></trkpt>
<trkpt lat="46.62156" lon="6.33791"><ele>1343</ele><time>2024-05-20T13:16:31Z</time></trkpt>
<trkpt lat="46.62164" lon="6.33803"><ele>1341.6</ele><time>2024-05-20T13:16:33Z</time></trkpt>
<trkpt lat="46.62169" lon="6.33809"><ele>1341.2</ele><time>2024-05-20T13:16:34Z</time></trkpt>
<trkpt lat="46.6218" lon="6.33823"><ele>1340.4</ele><time>2024-05-20T13:16:36Z</time></trkpt>
<trkpt lat="46.62185" lon="6.33832"><ele>1339</ele><time>2024-05-20T13:16:37Z</time></trkpt>
<trkpt lat="46.6219" lon="6.33841"><ele>1338.6</ele><time>2024-05-20T13:16:38Z</time></trkpt>
<trkpt lat="46.62195" lon="6.33849"><ele>1337.8</ele><time>2024-05-20T13:16:39Z</time></trkpt>
<trkpt lat="46.622" lon="6.33857"><ele>1336.6</ele><time>2024-05-20T13:16:40Z</time></trkpt>
<trkpt lat="46.62213" lon="6.33878"><ele>1335.6</ele><time>2024-05-20T13:16:43Z</time></trkpt>
<trkpt lat="46.62229" lon="6.339"><ele>1334.6</ele><time>2024-05-20T13:16:47Z</time></trkpt>
<trkpt lat="46.62237" lon="6.33914"><ele>1334</ele><time>2024-05-20T13:16:49Z</time></trkpt>
<trkpt lat="46.62244" lon="6.33929"><ele>1333.4</ele><time>2024-05-20T13:16:51Z</time></trkpt>
<trkpt lat="46.62251" lon="6.33953"><ele>1333</ele><time>2024-05-20T13:16:54Z</time></trkpt>
<trkpt lat="46.62255" lon="6.33969"><ele>1332.2</ele><time>2024-05-20T13:16:56Z</time></trkpt>
<trkpt lat="46.62263" lon="6.33992"><ele>1331.6</ele><time>2024-05-20T13:16:59Z</time></trkpt>
<trkpt lat="46.62268" lon="6.34006"><ele>1331.6</ele><time>2024-05-20T13:17:01Z</time></trkpt>
<trkpt lat="46.62273" lon="6.34018"><ele>1331.4</ele><time>2024-05-20T13:17:03Z</time></trkpt>
<trkpt lat="46.62279" lon="6.34025"><ele>1331.4</ele><time>2024-05-20T13:17:05Z</time></trkpt>
<trkpt lat="46.62283" lon="6.34029"><ele>1331.2</ele><time>2024-05-20T13:17:06Z</time></trkpt>
<trkpt lat="46.62287" lon="6.34033"><ele>1331</ele><time>2024-05-20T13:17:07Z</time></trkpt>
<trkpt lat="46.62295" lon="6.34041"><ele>1329.8</ele><time>2024-05-20T13:17:09Z</time></trkpt>
<trkpt lat="46.623" lon="6.34043"><ele>1329</ele><time>2024-05-20T13:17:10Z</time></trkpt>
<trkpt lat="46.62305" lon="6.34045"><ele>1328.4</ele><time>2024-05-20T13:17:11Z</time></trkpt>
<trkpt lat="46.62311" lon="6.34046"><ele>1328</ele><time>2024-05-20T13:17:12Z</time></trkpt>
<trkpt lat="46.62317" lon="6.34046"><ele>1327.8</ele><time>2024-05-20T13:17:13Z</time></trkpt>
<trkpt lat="46.62322" lon="6.34047"><ele>1327.4</ele><time>2024-05-20T13:17:14Z</time></trkpt>
<trkpt lat="46.62328" lon="6.34048"><ele>1326.8</ele><time>2024-05-20T13:17:15Z</time></trkpt>
<trkpt lat="46.62334" lon="6.34048"><ele>1326.2</ele><time>2024-05-20T13:17:16Z</time></trkpt>
<trkpt lat="46.62341" lon="6.34047"><ele>1326</ele><time>2024-05-20T13:17:17Z</time></trkpt>
<trkpt lat="46.62349" lon="6.34048"><ele>1325.6</ele><time>2024-05-20T13:17:18Z</time></trkpt>
<trkpt lat="46.62357" lon="6.34048"><ele>1324.2</ele><time>2024-05-20T13:17:19Z</time></trkpt>
<trkpt lat="46.62365" lon="6.34051"><ele>1323.2</ele><time>2024-05-20T13:17:20Z</time></trkpt>
<trkpt lat="46.62372" lon="6.34055"><ele>1323.2</ele><time>2024-05-20T13:17:21Z</time></trkpt>
<trkpt lat="46.62393" lon="6.34071"><ele>1321.2</ele><time>2024-05-20T13:17:24Z</time></trkpt>
<trkpt lat="46.62408" lon="6.34083"><ele>1320.2</ele><time>2024-05-20T13:17:26Z</time></trkpt>
<trkpt lat="46.62425" lon="6.34094"><ele>1319</ele><time>2024-05-20T13:17:28Z</time></trkpt>
<trkpt lat="46.62434" lon="6.341"><ele>1318</ele><time>2024-05-20T13:17:29Z</time></trkpt>
<trkpt lat="46.6244" lon="6.34109"><ele>1317.2</ele><time>2024-05-20T13:17:30Z</time></trkpt>
<trkpt lat="46.62448" lon="6.34132"><ele>1315.6</ele><time>2024-05-20T13:17:32Z</time></trkpt>
<trkpt lat="46.62456" lon="6.34155"><ele>1314.6</ele><time>2024-05-20T13:17:34Z</time></trkpt>
<trkpt lat="46.62462" lon="6.34164"><ele>1314</ele><time>2024-05-20T13:17:35Z</time></trkpt>
<trkpt lat="46.62468" lon="6.34172"><ele>1313</ele><time>2024-05-20T13:17:36Z</time></trkpt>
<trkpt lat="46.62475" lon="6.34179"><ele>1312</ele><time>2024-05-20T13:17:37Z</time></trkpt>
<trkpt lat="46.62489" lon="6.34196"><ele>1310.6</ele><time>2024-05-20T13:17:39Z</time></trkpt>
<trkpt lat="46.62493" lon="6.34207"><ele>1310.4</ele><time>2024-05-20T13:17:40Z</time></trkpt>
<trkpt lat="46.62498" lon="6.34218"><ele>1309.4</ele><time>2024-05-20T13:17:41Z</time></trkpt>
<trkpt lat="46.62507" lon="6.34239"><ele>1308.2</ele><time>2024-05-20T13:17:43Z</time></trkpt>
<trkpt lat="46.62515" lon="6.34262"><ele>1307.2</ele><time>2024-05-20T13:17:45Z</time></trkpt>
<trkpt lat="46.62529" lon="6.34306"><ele>1306.6</ele><time>2024-05-20T13:17:49Z</time></trkpt>
<trkpt lat="46.62535" lon="6.34327"><ele>1305.8</ele><time>2024-05-20T13:17:51Z</time></trkpt>
<trkpt lat="46.62543" lon="6.34365"><ele>1305</ele><time>2024-05-20T13:17:55Z</time></trkpt>
<trkpt lat="46.62544" lon="6.34372"><ele>1304.6</ele><time>2024-05-20T13:17:56Z</time></trkpt>
<trkpt lat="46.62545" lon="6.34388"><ele>1303.4</ele><time>2024-05-20T13:17:59Z</time></trkpt>
<trkpt lat="46.62546" lon="6.34403"><ele>1302.6</ele><time>2024-05-20T13:18:04Z</time></trkpt>
<trkpt lat="46.62549" lon="6.34425"><ele>1302.6</ele><time>2024-05-20T13:18:09Z</time></trkpt>
<trkpt lat="46.62556" lon="6.34464"><ele>1302.6</ele><time>2024-05-20T13:18:16Z</time></trkpt>
<trkpt lat="46.62558" lon="6.34469"><ele>1302.6</ele><time>2024-05-20T13:18:17Z</time></trkpt>
<trkpt lat="46.62562" lon="6.34479"><ele>1302.4</ele><time>2024-05-20T13:18:19Z</time></trkpt>
<trkpt lat="46.62569" lon="6.34487"><ele>1302.2</ele><time>2024-05-20T13:18:21Z</time></trkpt>
<trkpt lat="46.62594" lon="6.34501"><ele>1301.6</ele><time>2024-05-20T13:18:27Z</time></trkpt>
<trkpt lat="46.62605" lon="6.34506"><ele>1301.2</ele><time>2024-05-20T13:18:30Z</time></trkpt>
<trkpt lat="46.62615" lon="6.34514"><ele>1301</ele><time>2024-05-20T13:18:33Z</time></trkpt>
<trkpt lat="46.62635" lon="6.34533"><ele>1300.4</ele><time>2024-05-20T13:18:39Z</time></trkpt>
<trkpt lat="46.62638" lon="6.34537"><ele>1300.2</ele><time>2024-05-20T13:18:40Z</time></trkpt>
<trkpt lat="46.62666" lon="6.34568"><ele>1299.4</ele><time>2024-05-20T13:18:48Z</time></trkpt>
<trkpt lat="46.62673" lon="6.34576"><ele>1299.2</ele><time>2024-05-20T13:18:50Z</time></trkpt>
<trkpt lat="46.62692" lon="6.34596"><ele>1298.8</ele><time>2024-05-20T13:18:56Z</time></trkpt>
<trkpt lat="46.62713" lon="6.34619"><ele>1298</ele><time>2024-05-20T13:19:01Z</time></trkpt>
<trkpt lat="46.62736" lon="6.34644"><ele>1297.6</ele><time>2024-05-20T13:19:06Z</time></trkpt>
<trkpt lat="46.62745" lon="6.34654"><ele>1297.4</ele><time>2024-05-20T13:19:08Z</time></trkpt>
<trkpt lat="46.6275" lon="6.34659"><ele>1297</ele><time>2024-05-20T13:19:09Z</time></trkpt>
<trkpt lat="46.62754" lon="6.34664"><ele>1296.8</ele><time>2024-05-20T13:19:10Z</time></trkpt>
<trkpt lat="46.62763" lon="6.34674"><ele>1296.2</ele><time>2024-05-20T13:19:12Z</time></trkpt>
<trkpt lat="46.62785" lon="6.347"><ele>1295.8</ele><time>2024-05-20T13:19:17Z</time></trkpt>
<trkpt lat="46.62789" lon="6.34707"><ele>1295.8</ele><time>2024-05-20T13:19:18Z</time></trkpt>
<trkpt lat="46.62794" lon="6.34722"><ele>1295.6</ele><time>2024-05-20T13:19:20Z</time></trkpt>
<trkpt lat="46.62795" lon="6.34729"><ele>1295.6</ele><time>2024-05-20T13:19:21Z</time></trkpt>
<trkpt lat="46.62804" lon="6.34769"><ele>1294.8</ele><time>2024-05-20T13:19:26Z</time></trkpt>
<trkpt lat="46.62811" lon="6.3479"><ele>1294.6</ele><time>2024-05-20T13:19:29Z</time></trkpt>
<trkpt lat="46.62821" lon="6.34806"><ele>1294.6</ele><time>2024-05-20T13:19:32Z</time></trkpt>
<trkpt lat="46.62825" lon="6.34809"><ele>1294.6</ele><time>2024-05-20T13:19:33Z</time></trkpt>
<trkpt lat="46.6285" lon="6.34825"><ele>1295.6</ele><time>2024-05-20T13:19:40Z</time></trkpt>
<trkpt lat="46.62861" lon="6.3483"><ele>1295.8</ele><time>2024-05-20T13:19:44Z</time></trkpt>
<trkpt lat="46.62865" lon="6.34834"><ele>1296</ele><time>2024-05-20T13:19:46Z</time></trkpt>
<trkpt lat="46.6288" lon="6.34839"><ele>1296.8</ele><time>2024-05-20T13:19:53Z</time></trkpt>
<trkpt lat="46.62886" lon="6.34839"><ele>1297</ele><time>2024-05-20T13:19:55Z</time></trkpt>
<trkpt lat="46.62893" lon="6.34843"><ele>1297.6</ele><time>2024-05-20T13:20:01Z</time></trkpt>
<trkpt lat="46.62896" lon="6.34843"><ele>1298</ele><time>2024-05-20T13:20:03Z</time></trkpt>
<trkpt lat="46.62905" lon="6.34845"><ele>1298.4</ele><time>2024-05-20T13:20:09Z</time></trkpt>
<trkpt lat="46.62912" lon="6.34846"><ele>1299</ele><time>2024-05-20T13:20:14Z</time></trkpt>
<trkpt lat="46.62913" lon="6.34845"><ele>1299.2</ele><time>2024-05-20T13:20:15Z</time></trkpt>
<trkpt lat="46.62923" lon="6.34848"><ele>1300</ele><time>2024-05-20T13:20:23Z</time></trkpt>
<trkpt lat="46.62924" lon="6.34848"><ele>1300.2</ele><time>2024-05-20T13:20:24Z</time></trkpt>
<trkpt lat="46.62932" lon="6.3485"><ele>1300.6</ele><time>2024-05-20T13:20:30Z</time></trkpt>
<trkpt lat="46.62939" lon="6.34854"><ele>1301.2</ele><time>2024-05-20T13:20:36Z</time></trkpt>
<trkpt lat="46.62942" lon="6.34856"><ele>1301.4</ele><time>2024-05-20T13:20:38Z</time></trkpt>
<trkpt lat="46.62954" lon="6.34862"><ele>1302.4</ele><time>2024-05-20T13:20:46Z</time></trkpt>
<trkpt lat="46.62957" lon="6.34863"><ele>1302.6</ele><time>2024-05-20T13:20:48Z</time></trkpt>
<trkpt lat="46.62967" lon="6.34868"><ele>1303.2</ele><time>2024-05-20T13:20:56Z</time></trkpt>
<trkpt lat="46.6297" lon="6.3487"><ele>1303.4</ele><time>2024-05-20T13:20:58Z</time></trkpt>
<trkpt lat="46.62979" lon="6.34873"><ele>1304</ele><time>2024-05-20T13:21:05Z</time></trkpt>
<trkpt lat="46.62982" lon="6.34875"><ele>1304.4</ele><time>2024-05-20T13:21:08Z</time></trkpt>
<trkpt lat="46.62991" lon="6.34877"><ele>1305.2</ele><time>2024-05-20T13:21:14Z</time></trkpt>
<trkpt lat="46.62994" lon="6.34878"><ele>1305.4</ele><time>2024-05-20T13:21:16Z</time></trkpt>
<trkpt lat="46.62998" lon="6.34879"><ele>1305.6</ele><time>2024-05-20T13:21:19Z</time></trkpt>
<trkpt lat="46.63001" lon="6.3488"><ele>1305.6</ele><time>2024-05-20T13:21:21Z</time></trkpt>
<trkpt lat="46.63011" lon="6.34881"><ele>1306.8</ele><time>2024-05-20T13:21:28Z</time></trkpt>
<trkpt lat="46.63015" lon="6.34883"><ele>1307</ele><time>2024-05-20T13:21:31Z</time></trkpt>
<trkpt lat="46.63016" lon="6.34883"><ele>1307.2</ele><time>2024-05-20T13:21:32Z</time></trkpt>
<trkpt lat="46.6302" lon="6.34883"><ele>1307.8</ele><time>2024-05-20T13:21:35Z</time></trkpt>
<trkpt lat="46.63023" lon="6.34884"><ele>1308.2</ele><time>2024-05-20T13:21:38Z</time></trkpt>
<trkpt lat="46.63035" lon="6.34887"><ele>1308.6</ele><time>2024-05-20T13:21:47Z</time></trkpt>
<trkpt lat="46.63036" lon="6.34888"><ele>1308.8</ele><time>2024-05-20T13:21:48Z</time></trkpt>
<trkpt lat="46.63038" lon="6.34892"><ele>1309</ele><time>2024-05-20T13:21:50Z</time></trkpt>
<trkpt lat="46.63038" lon="6.34896"><ele>1309.6</ele><time>2024-05-20T13:21:52Z</time></trkpt>
<trkpt lat="46.63037" lon="6.34904"><ele>1309.8</ele><time>2024-05-20T13:21:56Z</time></trkpt>
<trkpt lat="46.63038" lon="6.34914"><ele>1310.4</ele><time>2024-05-20T13:22:01Z</time></trkpt>
<trkpt lat="46.6304" lon="6.34922"><ele>1311</ele><time>2024-05-20T13:22:04Z</time></trkpt>
<trkpt lat="46.63042" lon="6.34933"><ele>1311.2</ele><time>2024-05-20T13:22:07Z</time></trkpt>
<trkpt lat="46.63043" lon="6.34937"><ele>1311.2</ele><time>2024-05-20T13:22:08Z</time></trkpt>
<trkpt lat="46.63056" lon="6.34954"><ele>1311.2</ele><time>2024-05-20T13:22:14Z</time></trkpt>
<trkpt lat="46.63068" lon="6.34965"><ele>1311.6</ele><time>2024-05-20T13:22:21Z</time></trkpt>
<trkpt lat="46.6307" lon="6.34968"><ele>1312</ele><time>2024-05-20T13:22:23Z</time></trkpt>
<trkpt lat="46.63075" lon="6.34975"><ele>1312.8</ele><time>2024-05-20T13:22:29Z</time></trkpt>
<trkpt lat="46.63076" lon="6.34976"><ele>1313</ele><time>2024-05-20T13:22:30Z</time></trkpt>
<trkpt lat="46.63077" lon="6.34987"><ele>1314.2</ele><time>2024-05-20T13:22:36Z</time></trkpt>
<trkpt lat="46.63074" lon="6.34993"><ele>1315.2</ele><time>2024-05-20T13:22:42Z</time></trkpt>
<trkpt lat="46.63073" lon="6.34994"><ele>1315.4</ele><time>2024-05-20T13:22:43Z</time></trkpt>
<trkpt lat="46.63064" lon="6.34997"><ele>1316.4</ele><time>2024-05-20T13:22:51Z</time></trkpt>
<trkpt lat="46.63055" lon="6.35001"><ele>1317.2</ele><time>2024-05-20T13:22:59Z</time></trkpt>
<trkpt lat="46.63051" lon="6.35001"><ele>1317.4</ele><time>2024-05-20T13:23:02Z</time></trkpt>
<trkpt lat="46.6304" lon="6.35003"><ele>1318.4</ele><time>2024-05-20T13:23:11Z</time></trkpt>
<trkpt lat="46.63039" lon="6.35003"><ele>1318.6</ele><time>2024-05-20T13:23:12Z</time></trkpt>
<trkpt lat="46.63035" lon="6.35004"><ele>1319</ele><time>2024-05-20T13:23:15Z</time></trkpt>
<trkpt lat="46.63033" lon="6.35005"><ele>1319.2</ele><time>2024-05-20T13:23:17Z</time></trkpt>
<trkpt lat="46.6303" lon="6.35007"><ele>1319.4</ele><time>2024-05-20T13:23:20Z</time></trkpt>
<trkpt lat="46.63027" lon="6.35008"><ele>1319.8</ele><time>2024-05-20T13:23:22Z</time></trkpt>
<trkpt lat="46.63026" lon="6.35008"><ele>1319.8</ele><time>2024-05-20T13:23:23Z</time></trkpt>
<trkpt lat="46.6302" lon="6.35009"><ele>1320.4</ele><time>2024-05-20T13:23:28Z</time></trkpt>
<trkpt lat="46.63016" lon="6.3501"><ele>1320.8</ele><time>2024-05-20T13:23:31Z</time></trkpt>
<trkpt lat="46.63007" lon="6.35014"><ele>1321.6</ele><time>2024-05-20T13:23:39Z</time></trkpt>
<trkpt lat="46.63006" lon="6.35015"><ele>1321.8</ele><time>2024-05-20T13:23:40Z</time></trkpt>
<trkpt lat="46.63001" lon="6.35019"><ele>1322.2</ele><time>2024-05-20T13:23:45Z</time></trkpt>
<trkpt lat="46.62994" lon="6.35022"><ele>1322.8</ele><time>2024-05-20T13:23:50Z</time></trkpt>
<trkpt lat="46.62993" lon="6.35022"><ele>1322.8</ele><time>2024-05-20T13:23:51Z</time></trkpt>
<trkpt lat="46.62989" lon="6.35026"><ele>1323.2</ele><time>2024-05-20T13:23:55Z</time></trkpt>
<trkpt lat="46.62987" lon="6.35027"><ele>1323.8</ele><time>2024-05-20T13:23:57Z</time></trkpt>
<trkpt lat="46.62985" lon="6.35028"><ele>1323.8</ele><time>2024-05-20T13:23:58Z</time></trkpt>
<trkpt lat="46.62974" lon="6.35035"><ele>1325</ele><time>2024-05-20T13:24:08Z</time></trkpt>
<trkpt lat="46.6296" lon="6.35043"><ele>1325.8</ele><time>2024-05-20T13:24:18Z</time></trkpt>
<trkpt lat="46.62959" lon="6.35043"><ele>1326</ele><time>2024-05-20T13:24:19Z</time></trkpt>
<trkpt lat="46.62958" lon="6.35044"><ele>1326</ele><time>2024-05-20T13:24:20Z</time></trkpt>
<trkpt lat="46.62945" lon="6.35054"><ele>1326.4</ele><time>2024-05-20T13:24:28Z</time></trkpt>
<trkpt lat="46.62929" lon="6.3506"><ele>1326.8</ele><time>2024-05-20T13:24:35Z</time></trkpt>
<trkpt lat="46.62923" lon="6.35059"><ele>1327.2</ele><time>2024-05-20T13:24:38Z</time></trkpt>
<trkpt lat="46.62916" lon="6.35058"><ele>1328</ele><time>2024-05-20T13:24:42Z</time></trkpt>
<trkpt lat="46.62914" lon="6.35058"><ele>1328.2</ele><time>2024-05-20T13:24:43Z</time></trkpt>
<trkpt lat="46.62905" lon="6.35056"><ele>1329.2</ele><time>2024-05-20T13:24:49Z</time></trkpt>
<trkpt lat="46.62904" lon="6.35055"><ele>1329.4</ele><time>2024-05-20T13:24:50Z</time></trkpt>
<trkpt lat="46.62897" lon="6.35054"><ele>1330</ele><time>2024-05-20T13:24:56Z</time></trkpt>
<trkpt lat="46.62896" lon="6.35054"><ele>1330.2</ele><time>2024-05-20T13:24:57Z</time></trkpt>
<trkpt lat="46.62895" lon="6.35053"><ele>1330.4</ele><time>2024-05-20T13:24:58Z</time></trkpt>
<trkpt lat="46.62887" lon="6.35053"><ele>1331.2</ele><time>2024-05-20T13:25:05Z</time></trkpt>
<trkpt lat="46.62885" lon="6.35052"><ele>1331.4</ele><time>2024-05-20T13:25:07Z</time></trkpt>
<trkpt lat="46.62881" lon="6.3505"><ele>1332</ele><time>2024-05-20T13:25:12Z</time></trkpt>
<trkpt lat="46.62873" lon="6.3505"><ele>1332.6</ele><time>2024-05-20T13:25:18Z</time></trkpt>
<trkpt lat="46.62867" lon="6.35051"><ele>1333.4</ele><time>2024-05-20T13:25:23Z</time></trkpt>
<trkpt lat="46.62864" lon="6.35051"><ele>1333.8</ele><time>2024-05-20T13:25:25Z</time></trkpt>
<trkpt lat="46.62863" lon="6.35051"><ele>1333.8</ele><time>2024-05-20T13:25:26Z</time></trkpt>
<trkpt lat="46.6286" lon="6.35051"><ele>1334</ele><time>2024-05-20T13:25:29Z</time></trkpt>
<trkpt lat="46.62859" lon="6.35051"><ele>1334</ele><time>2024-05-20T13:25:30Z</time></trkpt>
<trkpt lat="46.62857" lon="6.35052"><ele>1334.4</ele><time>2024-05-20T13:25:32Z</time></trkpt>
<trkpt lat="46.62854" lon="6.35052"><ele>1334.6</ele><time>2024-05-20T13:25:34Z</time></trkpt>
<trkpt lat="46.62851" lon="6.35052"><ele>1334.8</ele><time>2024-05-20T13:25:36Z</time></trkpt>
<trkpt lat="46.62845" lon="6.35052"><ele>1335.4</ele><time>2024-05-20T13:25:42Z</time></trkpt>
<trkpt lat="46.62842" lon="6.35053"><ele>1336</ele><time>2024-05-20T13:25:45Z</time></trkpt>
<trkpt lat="46.62838" lon="6.35054"><ele>1336.4</ele><time>2024-05-20T13:25:49Z</time></trkpt>
<trkpt lat="46.62832" lon="6.35055"><ele>1337</ele><time>2024-05-20T13:25:55Z</time></trkpt>
<trkpt lat="46.62831" lon="6.35055"><ele>1337.2</ele><time>2024-05-20T13:25:56Z</time></trkpt>
<trkpt lat="46.62825" lon="6.35056"><ele>1338.2</ele><time>2024-05-20T13:26:02Z</time></trkpt>
<trkpt lat="46.62822" lon="6.35056"><ele>1338.6</ele><time>2024-05-20T13:26:05Z</time></trkpt>
<trkpt lat="46.62816" lon="6.35059"><ele>1339.4</ele><time>2024-05-20T13:26:11Z</time></trkpt>
<trkpt lat="46.62813" lon="6.3506"><ele>1339.6</ele><time>2024-05-20T13:26:14Z</time></trkpt>
<trkpt lat="46.62807" lon="6.35062"><ele>1340.4</ele><time>2024-05-20T13:26:19Z</time></trkpt>
<trkpt lat="46.628" lon="6.35065"><ele>1341.4</ele><time>2024-05-20T13:26:25Z</time></trkpt>
<trkpt lat="46.62799" lon="6.35066"><ele>1341.6</ele><time>2024-05-20T13:26:26Z</time></trkpt>
<trkpt lat="46.62792" lon="6.3507"><ele>1342</ele><time>2024-05-20T13:26:32Z</time></trkpt>
<trkpt lat="46.62788" lon="6.35072"><ele>1342.6</ele><time>2024-05-20T13:26:36Z</time></trkpt>
<trkpt lat="46.62783" lon="6.35074"><ele>1343.2</ele><time>2024-05-20T13:26:40Z</time></trkpt>
<trkpt lat="46.62781" lon="6.35074"><ele>1343.6</ele><time>2024-05-20T13:26:42Z</time></trkpt>
<trkpt lat="46.62779" lon="6.35075"><ele>1344</ele><time>2024-05-20T13:26:45Z</time></trkpt>
<trkpt lat="46.62778" lon="6.35075"><ele>1344.2</ele><time>2024-05-20T13:26:46Z</time></trkpt>
<trkpt lat="46.62776" lon="6.35076"><ele>1344.2</ele><time>2024-05-20T13:26:47Z</time></trkpt>
<trkpt lat="46.62774" lon="6.35077"><ele>1344.8</ele><time>2024-05-20T13:26:49Z</time></trkpt>
<trkpt lat="46.62769" lon="6.35079"><ele>1345.8</ele><time>2024-05-20T13:26:55Z</time></trkpt>
<trkpt lat="46.62768" lon="6.3508"><ele>1346</ele><time>2024-05-20T13:26:56Z</time></trkpt>
<trkpt lat="46.62761" lon="6.35085"><ele>1347</ele><time>2024-05-20T13:27:03Z</time></trkpt>
<trkpt lat="46.62758" lon="6.35086"><ele>1347.6</ele><time>2024-05-20T13:27:06Z</time></trkpt>
<trkpt lat="46.62755" lon="6.35086"><ele>1348</ele><time>2024-05-20T13:27:09Z</time></trkpt>
<trkpt lat="46.62752" lon="6.35089"><ele>1348.6</ele><time>2024-05-20T13:27:13Z</time></trkpt>
<trkpt lat="46.62749" lon="6.35093"><ele>1349.2</ele><time>2024-05-20T13:27:16Z</time></trkpt>
<trkpt lat="46.62747" lon="6.35095"><ele>1349.8</ele><time>2024-05-20T13:27:19Z</time></trkpt>
<trkpt lat="46.62747" lon="6.35096"><ele>1350</ele><time>2024-05-20T13:27:20Z</time></trkpt>
<trkpt lat="46.62746" lon="6.35099"><ele>1350.2</ele><time>2024-05-20T13:27:22Z</time></trkpt>
<trkpt lat="46.62748" lon="6.35104"><ele>1351.2</ele><time>2024-05-20T13:27:26Z</time></trkpt>
<trkpt lat="46.62748" lon="6.35105"><ele>1351.2</ele><time>2024-05-20T13:27:27Z</time></trkpt>
<trkpt lat="46.62751" lon="6.35109"><ele>1352</ele><time>2024-05-20T13:27:32Z</time></trkpt>
<trkpt lat="46.62753" lon="6.3511"><ele>1352.4</ele><time>2024-05-20T13:27:34Z</time></trkpt>
<trkpt lat="46.62754" lon="6.35111"><ele>1352.4</ele><time>2024-05-20T13:27:35Z</time></trkpt>
<trkpt lat="46.62756" lon="6.35112"><ele>1352.8</ele><time>2024-05-20T13:27:37Z</time></trkpt>
<trkpt lat="46.62757" lon="6.35113"><ele>1352.8</ele><time>2024-05-20T13:27:38Z</time></trkpt>
<trkpt lat="46.62758" lon="6.35114"><ele>1353</ele><time>2024-05-20T13:27:39Z</time></trkpt>
<trkpt lat="46.6276" lon="6.35115"><ele>1353.6</ele><time>2024-05-20T13:27:42Z</time></trkpt>
<trkpt lat="46.62767" lon="6.35119"><ele>1354.6</ele><time>2024-05-20T13:27:49Z</time></trkpt>
<trkpt lat="46.62773" lon="6.35123"><ele>1355.4</ele><time>2024-05-20T13:27:56Z</time></trkpt>
<trkpt lat="46.62776" lon="6.35125"><ele>1355.8</ele><time>2024-05-20T13:27:59Z</time></trkpt>
<trkpt lat="46.6278" lon="6.35129"><ele>1356.4</ele><time>2024-05-20T13:28:03Z</time></trkpt>
<trkpt lat="46.62782" lon="6.3513"><ele>1356.6</ele><time>2024-05-20T13:28:05Z</time></trkpt>
<trkpt lat="46.62786" lon="6.35132"><ele>1356.8</ele><time>2024-05-20T13:28:09Z</time></trkpt>
<trkpt lat="46.62788" lon="6.35134"><ele>1357.2</ele><time>2024-05-20T13:28:12Z</time></trkpt>
<trkpt lat="46.62792" lon="6.35136"><ele>1358</ele><time>2024-05-20T13:28:17Z</time></trkpt>
<trkpt lat="46.62795" lon="6.35139"><ele>1358.2</ele><time>2024-05-20T13:28:20Z</time></trkpt>
<trkpt lat="46.628" lon="6.35146"><ele>1359</ele><time>2024-05-20T13:28:26Z</time></trkpt>
<trkpt lat="46.62806" lon="6.35152"><ele>1359.6</ele><time>2024-05-20T13:28:33Z</time></trkpt>
<trkpt lat="46.62807" lon="6.35154"><ele>1359.6</ele><time>2024-05-20T13:28:34Z</time></trkpt>
<trkpt lat="46.62808" lon="6.35155"><ele>1359.8</ele><time>2024-05-20T13:28:35Z</time></trkpt>
<trkpt lat="46.6281" lon="6.35156"><ele>1360</ele><time>2024-05-20T13:28:36Z</time></trkpt>
<trkpt lat="46.62814" lon="6.35159"><ele>1360.4</ele><time>2024-05-20T13:28:40Z</time></trkpt>
<trkpt lat="46.62818" lon="6.35161"><ele>1360.8</ele><time>2024-05-20T13:28:44Z</time></trkpt>
<trkpt lat="46.6282" lon="6.35162"><ele>1360.8</ele><time>2024-05-20T13:28:45Z</time></trkpt>
<trkpt lat="46.62824" lon="6.35166"><ele>1361</ele><time>2024-05-20T13:28:49Z</time></trkpt>
<trkpt lat="46.62828" lon="6.35169"><ele>1361.2</ele><time>2024-05-20T13:28:52Z</time></trkpt>
<trkpt lat="46.6283" lon="6.35171"><ele>1361.4</ele><time>2024-05-20T13:28:54Z</time></trkpt>
<trkpt lat="46.62832" lon="6.35173"><ele>1361.6</ele><time>2024-05-20T13:28:56Z</time></trkpt>
<trkpt lat="46.62837" lon="6.35175"><ele>1361.8</ele><time>2024-05-20T13:29:00Z</time></trkpt>
<trkpt lat="46.62842" lon="6.35178"><ele>1362.2</ele><time>2024-05-20T13:29:04Z</time></trkpt>
<trkpt lat="46.62846" lon="6.35182"><ele>1362.4</ele><time>2024-05-20T13:29:08Z</time></trkpt>
<trkpt lat="46.62848" lon="6.35181"><ele>1362.4</ele><time>2024-05-20T13:29:09Z</time></trkpt>
<trkpt lat="46.62852" lon="6.35184"><ele>1362.8</ele><time>2024-05-20T13:29:13Z</time></trkpt>
<trkpt lat="46.62856" lon="6.35187"><ele>1363.2</ele><time>2024-05-20T13:29:17Z</time></trkpt>
<trkpt lat="46.62861" lon="6.35189"><ele>1363.6</ele><time>2024-05-20T13:29:21Z</time></trkpt>
<trkpt lat="46.62868" lon="6.35193"><ele>1364.2</ele><time>2024-05-20T13:29:27Z</time></trkpt>
<trkpt lat="46.62872" lon="6.35195"><ele>1364.6</ele><time>2024-05-20T13:29:31Z</time></trkpt>
<trkpt lat="46.62879" lon="6.35198"><ele>1365.4</ele><time>2024-05-20T13:29:38Z</time></trkpt>
<trkpt lat="46.62881" lon="6.35199"><ele>1365.6</ele><time>2024-05-20T13:29:39Z</time></trkpt>
<trkpt lat="46.62887" lon="6.35202"><ele>1366.4</ele><time>2024-05-20T13:29:45Z</time></trkpt>
<trkpt lat="46.6289" lon="6.35204"><ele>1366.6</ele><time>2024-05-20T13:29:47Z</time></trkpt>
<trkpt lat="46.62893" lon="6.35203"><ele>1367</ele><time>2024-05-20T13:29:50Z</time></trkpt>
<trkpt lat="46.62895" lon="6.35204"><ele>1367.2</ele><time>2024-05-20T13:29:52Z</time></trkpt>
<trkpt lat="46.62897" lon="6.35206"><ele>1367.8</ele><time>2024-05-20T13:29:54Z</time></trkpt>
<trkpt lat="46.629" lon="6.35208"><ele>1367.8</ele><time>2024-05-20T13:29:57Z</time></trkpt>
<trkpt lat="46.629" lon="6.35208"><ele>1367.8</ele><time>2024-05-20T13:29:58Z</time></trkpt>
<trkpt lat="46.62903" lon="6.35208"><ele>1367.8</ele><time>2024-05-20T13:30:01Z</time></trkpt>
<trkpt lat="46.62906" lon="6.3521"><ele>1368.2</ele><time>2024-05-20T13:30:04Z</time></trkpt>
<trkpt lat="46.6291" lon="6.35212"><ele>1368.8</ele><time>2024-05-20T13:30:09Z</time></trkpt>
<trkpt lat="46.62914" lon="6.35218"><ele>1369.8</ele><time>2024-05-20T13:30:16Z</time></trkpt>
<trkpt lat="46.62914" lon="6.35219"><ele>1370</ele><time>2024-05-20T13:30:17Z</time></trkpt>
<trkpt lat="46.62917" lon="6.35225"><ele>1371</ele><time>2024-05-20T13:30:22Z</time></trkpt>
<trkpt lat="46.62917" lon="6.35226"><ele>1371.2</ele><time>2024-05-20T13:30:23Z</time></trkpt>
<trkpt lat="46.62919" lon="6.35232"><ele>1371.8</ele><time>2024-05-20T13:30:27Z</time></trkpt>
<trkpt lat="46.62918" lon="6.35234"><ele>1372.2</ele><time>2024-05-20T13:30:28Z</time></trkpt>
<trkpt lat="46.62918" lon="6.35235"><ele>1372.2</ele><time>2024-05-20T13:30:29Z</time></trkpt>
<trkpt lat="46.62913" lon="6.35242"><ele>1373.2</ele><time>2024-05-20T13:30:36Z</time></trkpt>
<trkpt lat="46.62911" lon="6.35248"><ele>1373.8</ele><time>2024-05-20T13:30:42Z</time></trkpt>
<trkpt lat="46.62909" lon="6.35249"><ele>1374.2</ele><time>2024-05-20T13:30:44Z</time></trkpt>
<trkpt lat="46.62905" lon="6.35253"><ele>1374.8</ele><time>2024-05-20T13:30:49Z</time></trkpt>
<trkpt lat="46.62902" lon="6.35256"><ele>1375.2</ele><time>2024-05-20T13:30:52Z</time></trkpt>
<trkpt lat="46.62899" lon="6.35257"><ele>1375.8</ele><time>2024-05-20T13:30:56Z</time></trkpt>
<trkpt lat="46.62895" lon="6.35258"><ele>1376.4</ele><time>2024-05-20T13:31:01Z</time></trkpt>
<trkpt lat="46.62894" lon="6.35259"><ele>1376.6</ele><time>2024-05-20T13:31:02Z</time></trkpt>
<trkpt lat="46.62892" lon="6.35263"><ele>1377</ele><time>2024-05-20T13:31:05Z</time></trkpt>
<trkpt lat="46.6289" lon="6.35264"><ele>1377.4</ele><time>2024-05-20T13:31:08Z</time></trkpt>
<trkpt lat="46.62885" lon="6.35265"><ele>1377.8</ele><time>2024-05-20T13:31:14Z</time></trkpt>
<trkpt lat="46.6288" lon="6.35268"><ele>1378.4</ele><time>2024-05-20T13:31:19Z</time></trkpt>
<trkpt lat="46.62879" lon="6.35269"><ele>1378.6</ele><time>2024-05-20T13:31:21Z</time></trkpt>
<trkpt lat="46.62873" lon="6.35273"><ele>1379.4</ele><time>2024-05-20T13:31:27Z</time></trkpt>
<trkpt lat="46.62872" lon="6.35273"><ele>1379.6</ele><time>2024-05-20T13:31:28Z</time></trkpt>
<trkpt lat="46.62868" lon="6.35274"><ele>1379.8</ele><time>2024-05-20T13:31:32Z</time></trkpt>
<trkpt lat="46.62861" lon="6.35277"><ele>1380.6</ele><time>2024-05-20T13:31:37Z</time></trkpt>
<trkpt lat="46.6286" lon="6.35278"><ele>1380.6</ele><time>2024-05-20T13:31:38Z</time></trkpt>
<trkpt lat="46.62853" lon="6.35281"><ele>1381.6</ele><time>2024-05-20T13:31:45Z</time></trkpt>
<trkpt lat="46.62851" lon="6.35282"><ele>1381.8</ele><time>2024-05-20T13:31:46Z</time></trkpt>
<trkpt lat="46.62847" lon="6.35282"><ele>1382.2</ele><time>2024-05-20T13:31:49Z</time></trkpt>
<trkpt lat="46.62844" lon="6.35282"><ele>1382.6</ele><time>2024-05-20T13:31:52Z</time></trkpt>
<trkpt lat="46.62843" lon="6.35283"><ele>1382.8</ele><time>2024-05-20T13:31:54Z</time></trkpt>
<trkpt lat="46.62839" lon="6.35285"><ele>1383.4</ele><time>2024-05-20T13:31:58Z</time></trkpt>
<trkpt lat="46.62835" lon="6.35285"><ele>1383.8</ele><time>2024-05-20T13:32:02Z</time></trkpt>
<trkpt lat="46.62834" lon="6.35286"><ele>1384</ele><time>2024-05-20T13:32:03Z</time></trkpt>
<trkpt lat="46.62825" lon="6.35288"><ele>1385</ele><time>2024-05-20T13:32:11Z</time></trkpt>
<trkpt lat="46.62818" lon="6.35292"><ele>1385.8</ele><time>2024-05-20T13:32:18Z</time></trkpt>
<trkpt lat="46.62815" lon="6.35292"><ele>1386</ele><time>2024-05-20T13:32:20Z</time></trkpt>
<trkpt lat="46.62811" lon="6.35295"><ele>1386.4</ele><time>2024-05-20T13:32:24Z</time></trkpt>
<trkpt lat="46.62808" lon="6.35297"><ele>1387</ele><time>2024-05-20T13:32:27Z</time></trkpt>
<trkpt lat="46.62806" lon="6.35297"><ele>1387.4</ele><time>2024-05-20T13:32:29Z</time></trkpt>
<trkpt lat="46.62804" lon="6.35298"><ele>1387.6</ele><time>2024-05-20T13:32:32Z</time></trkpt>
<trkpt lat="46.62804" lon="6.35298"><ele>1387.6</ele><time>2024-05-20T13:32:38Z</time></trkpt>
<trkpt lat="46.62804" lon="6.35299"><ele>1387.4</ele><time>2024-05-20T13:32:46Z</time></trkpt>
<trkpt lat="46.62804" lon="6.35299"><ele>1387.4</ele><time>2024-05-20T13:32:50Z</time></trkpt>
<trkpt lat="46.62804" lon="6.35299"><ele>1387.4</ele><time>2024-05-20T13:32:51Z</time></trkpt>
<trkpt lat="46.62804" lon="6.35299"><ele>1387.6</ele><time>2024-05-20T13:32:59Z</time></trkpt>
<trkpt lat="46.62804" lon="6.35299"><ele>1387.6</ele><time>2024-05-20T13:33:02Z</time></trkpt>
<trkpt lat="46.62804" lon="6.35299"><ele>1387.6</ele><time>2024-05-20T13:33:04Z</time></trkpt>
<trkpt lat="46.62804" lon="6.35299"><ele>1387.6</ele><time>2024-05-20T13:33:07Z</time></trkpt>
<trkpt lat="46.62804" lon="6.35299"><ele>1387.6</ele><time>2024-05-20T13:33:08Z</time></trkpt>
<trkpt lat="46.62803" lon="6.35298"><ele>1387.8</ele><time>2024-05-20T13:33:13Z</time></trkpt>
<trkpt lat="46.62802" lon="6.35298"><ele>1387.8</ele><time>2024-05-20T13:33:14Z</time></trkpt>
<trkpt lat="46.62798" lon="6.35303"><ele>1388.2</ele><time>2024-05-20T13:33:18Z</time></trkpt>
<trkpt lat="46.62797" lon="6.35304"><ele>1388.4</ele><time>2024-05-20T13:33:19Z</time></trkpt>
<trkpt lat="46.62793" lon="6.35306"><ele>1388.8</ele><time>2024-05-20T13:33:22Z</time></trkpt>
<trkpt lat="46.6279" lon="6.35306"><ele>1389</ele><time>2024-05-20T13:33:25Z</time></trkpt>
<trkpt lat="46.62787" lon="6.35309"><ele>1389.4</ele><time>2024-05-20T13:33:28Z</time></trkpt>
<trkpt lat="46.6278" lon="6.35314"><ele>1390.2</ele><time>2024-05-20T13:33:33Z</time></trkpt>
<trkpt lat="46.62778" lon="6.35315"><ele>1390.6</ele><time>2024-05-20T13:33:35Z</time></trkpt>
<trkpt lat="46.62771" lon="6.35318"><ele>1391.2</ele><time>2024-05-20T13:33:41Z</time></trkpt>
<trkpt lat="46.62768" lon="6.35322"><ele>1391.8</ele><time>2024-05-20T13:33:44Z</time></trkpt>
<trkpt lat="46.62766" lon="6.35322"><ele>1392</ele><time>2024-05-20T13:33:46Z</time></trkpt>
<trkpt lat="46.62765" lon="6.35323"><ele>1392.2</ele><time>2024-05-20T13:33:47Z</time></trkpt>
<trkpt lat="46.62762" lon="6.35325"><ele>1392.8</ele><time>2024-05-20T13:33:50Z</time></trkpt>
<trkpt lat="46.62758" lon="6.35328"><ele>1393.2</ele><time>2024-05-20T13:33:54Z</time></trkpt>
<trkpt lat="46.62753" lon="6.35333"><ele>1393.8</ele><time>2024-05-20T13:33:59Z</time></trkpt>
<trkpt lat="46.62752" lon="6.35335"><ele>1394</ele><time>2024-05-20T13:34:00Z</time></trkpt>
<trkpt lat="46.62745" lon="6.35341"><ele>1394.6</ele><time>2024-05-20T13:34:07Z</time></trkpt>
<trkpt lat="46.62743" lon="6.35344"><ele>1394.8</ele><time>2024-05-20T13:34:09Z</time></trkpt>
<trkpt lat="46.62734" lon="6.35356"><ele>1395.6</ele><time>2024-05-20T13:34:17Z</time></trkpt>
<trkpt lat="46.62732" lon="6.35359"><ele>1395.8</ele><time>2024-05-20T13:34:19Z</time></trkpt>
<trkpt lat="46.62725" lon="6.35368"><ele>1396.8</ele><time>2024-05-20T13:34:26Z</time></trkpt>
<trkpt lat="46.62725" lon="6.35369"><ele>1397</ele><time>2024-05-20T13:34:27Z</time></trkpt>
<trkpt lat="46.62722" lon="6.35381"><ele>1397.6</ele><time>2024-05-20T13:34:33Z</time></trkpt>
<trkpt lat="46.62721" lon="6.35392"><ele>1397.4</ele><time>2024-05-20T13:34:39Z</time></trkpt>
<trkpt lat="46.62723" lon="6.35402"><ele>1397.2</ele><time>2024-05-20T13:34:45Z</time></trkpt>
<trkpt lat="46.62723" lon="6.35402"><ele>1396.8</ele><time>2024-05-20T13:34:51Z</time></trkpt>
<trkpt lat="46.62722" lon="6.35403"><ele>1396.6</ele><time>2024-05-20T13:34:58Z</time></trkpt>
<trkpt lat="46.62722" lon="6.35403"><ele>1396.6</ele><time>2024-05-20T13:34:59Z</time></trkpt>
<trkpt lat="46.62722" lon="6.35403"><ele>1396.6</ele><time>2024-05-20T13:35:00Z</time></trkpt>
<trkpt lat="46.62722" lon="6.35402"><ele>1396.6</ele><time>2024-05-20T13:35:08Z</time></trkpt>
<trkpt lat="46.62723" lon="6.35401"><ele>1397</ele><time>2024-05-20T13:35:16Z</time></trkpt>
<trkpt lat="46.62723" lon="6.35402"><ele>1397</ele><time>2024-05-20T13:35:24Z</time></trkpt>
<trkpt lat="46.62725" lon="6.35403"><ele>1397</ele><time>2024-05-20T13:35:25Z</time></trkpt>
<trkpt lat="46.62727" lon="6.3541"><ele>1396.8</ele><time>2024-05-20T13:35:28Z</time></trkpt>
<trkpt lat="46.62731" lon="6.35431"><ele>1396.4</ele><time>2024-05-20T13:35:34Z</time></trkpt>
<trkpt lat="46.62734" lon="6.35453"><ele>1396.2</ele><time>2024-05-20T13:35:42Z</time></trkpt>
<trkpt lat="46.62738" lon="6.35472"><ele>1396.6</ele><time>2024-05-20T13:35:49Z</time></trkpt>
<trkpt lat="46.62744" lon="6.35496"><ele>1396.6</ele><time>2024-05-20T13:35:57Z</time></trkpt>
<trkpt lat="46.62751" lon="6.35518"><ele>1396.4</ele><time>2024-05-20T13:36:04Z</time></trkpt>
<trkpt lat="46.62756" lon="6.35528"><ele>1396.4</ele><time>2024-05-20T13:36:09Z</time></trkpt>
<trkpt lat="46.6276" lon="6.35538"><ele>1396.6</ele><time>2024-05-20T13:36:13Z</time></trkpt>
<trkpt lat="46.62769" lon="6.35558"><ele>1396.2</ele><time>2024-05-20T13:36:22Z</time></trkpt>
<trkpt lat="46.62775" lon="6.35567"><ele>1395.8</ele><time>2024-05-20T13:36:26Z</time></trkpt>
<trkpt lat="46.62781" lon="6.3558"><ele>1395.2</ele><time>2024-05-20T13:36:31Z</time></trkpt>
<trkpt lat="46.62782" lon="6.35586"><ele>1394.6</ele><time>2024-05-20T13:36:33Z</time></trkpt>
<trkpt lat="46.6279" lon="6.35594"><ele>1393.4</ele><time>2024-05-20T13:36:37Z</time></trkpt>
<trkpt lat="46.62797" lon="6.356"><ele>1392</ele><time>2024-05-20T13:36:40Z</time></trkpt>
<trkpt lat="46.62804" lon="6.35602"><ele>1390.8</ele><time>2024-05-20T13:36:42Z</time></trkpt>
<trkpt lat="46.62808" lon="6.35604"><ele>1390.2</ele><time>2024-05-20T13:36:43Z</time></trkpt>
<trkpt lat="46.62812" lon="6.35606"><ele>1389.4</ele><time>2024-05-20T13:36:44Z</time></trkpt>
<trkpt lat="46.62815" lon="6.35609"><ele>1388.4</ele><time>2024-05-20T13:36:45Z</time></trkpt>
<trkpt lat="46.62819" lon="6.35612"><ele>1387.2</ele><time>2024-05-20T13:36:46Z</time></trkpt>
<trkpt lat="46.62826" lon="6.35617"><ele>1385.8</ele><time>2024-05-20T13:36:48Z</time></trkpt>
<trkpt lat="46.62829" lon="6.3562"><ele>1385.6</ele><time>2024-05-20T13:36:49Z</time></trkpt>
<trkpt lat="46.62833" lon="6.35624"><ele>1384.6</ele><time>2024-05-20T13:36:50Z</time></trkpt>
<trkpt lat="46.62839" lon="6.35629"><ele>1383.2</ele><time>2024-05-20T13:36:52Z</time></trkpt>
<trkpt lat="46.62847" lon="6.35631"><ele>1381.8</ele><time>2024-05-20T13:36:54Z</time></trkpt>
<trkpt lat="46.62854" lon="6.35633"><ele>1380.6</ele><time>2024-05-20T13:36:56Z</time></trkpt>
<trkpt lat="46.62866" lon="6.35634"><ele>1378.6</ele><time>2024-05-20T13:36:59Z</time></trkpt>
<trkpt lat="46.6287" lon="6.35633"><ele>1378</ele><time>2024-05-20T13:37:00Z</time></trkpt>
<trkpt lat="46.62874" lon="6.35631"><ele>1377.2</ele><time>2024-05-20T13:37:01Z</time></trkpt>
<trkpt lat="46.62887" lon="6.35629"><ele>1376</ele><time>2024-05-20T13:37:04Z</time></trkpt>
<trkpt lat="46.62895" lon="6.35626"><ele>1374.8</ele><time>2024-05-20T13:37:06Z</time></trkpt>
<trkpt lat="46.62903" lon="6.35627"><ele>1373.2</ele><time>2024-05-20T13:37:08Z</time></trkpt>
<trkpt lat="46.6291" lon="6.3563"><ele>1372.2</ele><time>2024-05-20T13:37:11Z</time></trkpt>
<trkpt lat="46.62915" lon="6.35631"><ele>1371.8</ele><time>2024-05-20T13:37:13Z</time></trkpt>
<trkpt lat="46.6292" lon="6.35633"><ele>1371</ele><time>2024-05-20T13:37:15Z</time></trkpt>
<trkpt lat="46.62928" lon="6.35638"><ele>1369.4</ele><time>2024-05-20T13:37:18Z</time></trkpt>
<trkpt lat="46.6293" lon="6.3564"><ele>1369</ele><time>2024-05-20T13:37:19Z</time></trkpt>
<trkpt lat="46.62932" lon="6.35644"><ele>1368.2</ele><time>2024-05-20T13:37:20Z</time></trkpt>
<trkpt lat="46.62935" lon="6.35653"><ele>1366.2</ele><time>2024-05-20T13:37:22Z</time></trkpt>
<trkpt lat="46.62938" lon="6.35662"><ele>1365.6</ele><time>2024-05-20T13:37:24Z</time></trkpt>
<trkpt lat="46.62939" lon="6.35666"><ele>1364.8</ele><time>2024-05-20T13:37:25Z</time></trkpt>
<trkpt lat="46.62944" lon="6.35673"><ele>1363.6</ele><time>2024-05-20T13:37:27Z</time></trkpt>
<trkpt lat="46.62947" lon="6.35677"><ele>1362.6</ele><time>2024-05-20T13:37:28Z</time></trkpt>
<trkpt lat="46.62952" lon="6.35679"><ele>1362</ele><time>2024-05-20T13:37:29Z</time></trkpt>
<trkpt lat="46.62958" lon="6.35686"><ele>1361</ele><time>2024-05-20T13:37:31Z</time></trkpt>
<trkpt lat="46.62961" lon="6.35693"><ele>1358.6</ele><time>2024-05-20T13:37:33Z</time></trkpt>
<trkpt lat="46.62964" lon="6.35699"><ele>1357.4</ele><time>2024-05-20T13:37:36Z</time></trkpt>
<trkpt lat="46.62968" lon="6.35703"><ele>1356.6</ele><time>2024-05-20T13:37:38Z</time></trkpt>
<trkpt lat="46.6297" lon="6.35705"><ele>1356</ele><time>2024-05-20T13:37:39Z</time></trkpt>
<trkpt lat="46.62975" lon="6.35706"><ele>1354.6</ele><time>2024-05-20T13:37:41Z</time></trkpt>
<trkpt lat="46.62978" lon="6.35706"><ele>1353.4</ele><time>2024-05-20T13:37:43Z</time></trkpt>
<trkpt lat="46.62982" lon="6.35704"><ele>1352.2</ele><time>2024-05-20T13:37:45Z</time></trkpt>
<trkpt lat="46.62988" lon="6.35703"><ele>1351</ele><time>2024-05-20T13:37:47Z</time></trkpt>
<trkpt lat="46.62995" lon="6.35704"><ele>1349.2</ele><time>2024-05-20T13:37:49Z</time></trkpt>
<trkpt lat="46.63002" lon="6.35703"><ele>1348.2</ele><time>2024-05-20T13:37:51Z</time></trkpt>
<trkpt lat="46.63008" lon="6.35702"><ele>1347.2</ele><time>2024-05-20T13:37:53Z</time></trkpt>
<trkpt lat="46.63018" lon="6.357"><ele>1346.2</ele><time>2024-05-20T13:37:56Z</time></trkpt>
<trkpt lat="46.63021" lon="6.357"><ele>1346.2</ele><time>2024-05-20T13:37:57Z</time></trkpt>
<trkpt lat="46.6303" lon="6.35699"><ele>1344.8</ele><time>2024-05-20T13:38:00Z</time></trkpt>
<trkpt lat="46.63036" lon="6.357"><ele>1343.2</ele><time>2024-05-20T13:38:02Z</time></trkpt>
<trkpt lat="46.63045" lon="6.35698"><ele>1341.4</ele><time>2024-05-20T13:38:05Z</time></trkpt>
<trkpt lat="46.63049" lon="6.357"><ele>1340.6</ele><time>2024-05-20T13:38:07Z</time></trkpt>
<trkpt lat="46.6305" lon="6.35701"><ele>1339.8</ele><time>2024-05-20T13:38:08Z</time></trkpt>
<trkpt lat="46.63055" lon="6.35705"><ele>1338.4</ele><time>2024-05-20T13:38:11Z</time></trkpt>
<trkpt lat="46.63058" lon="6.35707"><ele>1337</ele><time>2024-05-20T13:38:13Z</time></trkpt>
<trkpt lat="46.63063" lon="6.35711"><ele>1335.4</ele><time>2024-05-20T13:38:16Z</time></trkpt>
<trkpt lat="46.63068" lon="6.35716"><ele>1334.6</ele><time>2024-05-20T13:38:18Z</time></trkpt>
<trkpt lat="46.63071" lon="6.3572"><ele>1333.8</ele><time>2024-05-20T13:38:19Z</time></trkpt>
<trkpt lat="46.63074" lon="6.35723"><ele>1332.6</ele><time>2024-05-20T13:38:20Z</time></trkpt>
<trkpt lat="46.63081" lon="6.35727"><ele>1330.4</ele><time>2024-05-20T13:38:22Z</time></trkpt>
<trkpt lat="46.63085" lon="6.35728"><ele>1330</ele><time>2024-05-20T13:38:23Z</time></trkpt>
<trkpt lat="46.63093" lon="6.35725"><ele>1329</ele><time>2024-05-20T13:38:26Z</time></trkpt>
<trkpt lat="46.63094" lon="6.35724"><ele>1328.8</ele><time>2024-05-20T13:38:27Z</time></trkpt>
<trkpt lat="46.63094" lon="6.35723"><ele>1327.6</ele><time>2024-05-20T13:38:29Z</time></trkpt>
<trkpt lat="46.63096" lon="6.35723"><ele>1327.2</ele><time>2024-05-20T13:38:32Z</time></trkpt>
<trkpt lat="46.63101" lon="6.35728"><ele>1326.4</ele><time>2024-05-20T13:38:39Z</time></trkpt>
<trkpt lat="46.63105" lon="6.35727"><ele>1325.4</ele><time>2024-05-20T13:38:46Z</time></trkpt>
<trkpt lat="46.63105" lon="6.35727"><ele>1325.2</ele><time>2024-05-20T13:38:47Z</time></trkpt>
<trkpt lat="46.63107" lon="6.35726"><ele>1325</ele><time>2024-05-20T13:38:53Z</time></trkpt>
<trkpt lat="46.63103" lon="6.35727"><ele>1324.8</ele><time>2024-05-20T13:39:00Z</time></trkpt>
<trkpt lat="46.63104" lon="6.35727"><ele>1325.2</ele><time>2024-05-20T13:39:07Z</time></trkpt>
<trkpt lat="46.63107" lon="6.3573"><ele>1325.2</ele><time>2024-05-20T13:39:13Z</time></trkpt>
<trkpt lat="46.63111" lon="6.35739"><ele>1324.2</ele><time>2024-05-20T13:39:17Z</time></trkpt>
<trkpt lat="46.63113" lon="6.35744"><ele>1323</ele><time>2024-05-20T13:39:19Z</time></trkpt>
<trkpt lat="46.63114" lon="6.35749"><ele>1321.6</ele><time>2024-05-20T13:39:21Z</time></trkpt>
<trkpt lat="46.63116" lon="6.35755"><ele>1320</ele><time>2024-05-20T13:39:24Z</time></trkpt>
<trkpt lat="46.63117" lon="6.35756"><ele>1319.6</ele><time>2024-05-20T13:39:25Z</time></trkpt>
<trkpt lat="46.63119" lon="6.35758"><ele>1318.8</ele><time>2024-05-20T13:39:27Z</time></trkpt>
<trkpt lat="46.6312" lon="6.35759"><ele>1317.8</ele><time>2024-05-20T13:39:30Z</time></trkpt>
<trkpt lat="46.63124" lon="6.35765"><ele>1316.4</ele><time>2024-05-20T13:39:36Z</time></trkpt>
<trkpt lat="46.63124" lon="6.35766"><ele>1316.2</ele><time>2024-05-20T13:39:37Z</time></trkpt>
<trkpt lat="46.63124" lon="6.35768"><ele>1316</ele><time>2024-05-20T13:39:38Z</time></trkpt>
<trkpt lat="46.63125" lon="6.35772"><ele>1315</ele><time>2024-05-20T13:39:41Z</time></trkpt>
<trkpt lat="46.63126" lon="6.35774"><ele>1314.4</ele><time>2024-05-20T13:39:43Z</time></trkpt>
<trkpt lat="46.63126" lon="6.35775"><ele>1314</ele><time>2024-05-20T13:39:44Z</time></trkpt>
<trkpt lat="46.63128" lon="6.3578"><ele>1312.6</ele><time>2024-05-20T13:39:48Z</time></trkpt>
<trkpt lat="46.63131" lon="6.35782"><ele>1311.8</ele><time>2024-05-20T13:39:51Z</time></trkpt>
<trkpt lat="46.63131" lon="6.35783"><ele>1311.6</ele><time>2024-05-20T13:39:52Z</time></trkpt>
<trkpt lat="46.63133" lon="6.35785"><ele>1310.4</ele><time>2024-05-20T13:39:55Z</time></trkpt>
<trkpt lat="46.63135" lon="6.35784"><ele>1309.4</ele><time>2024-05-20T13:39:58Z</time></trkpt>
<trkpt lat="46.63138" lon="6.35784"><ele>1309.4</ele><time>2024-05-20T13:40:00Z</time></trkpt>
<trkpt lat="46.63145" lon="6.35786"><ele>1308</ele><time>2024-05-20T13:40:03Z</time></trkpt>
<trkpt lat="46.6315" lon="6.35788"><ele>1306.8</ele><time>2024-05-20T13:40:05Z</time></trkpt>
<trkpt lat="46.63156" lon="6.3579"><ele>1305.6</ele><time>2024-05-20T13:40:07Z</time></trkpt>
<trkpt lat="46.63161" lon="6.3579"><ele>1304.4</ele><time>2024-05-20T13:40:09Z</time></trkpt>
<trkpt lat="46.63163" lon="6.3579"><ele>1304</ele><time>2024-05-20T13:40:10Z</time></trkpt>
<trkpt lat="46.63167" lon="6.35791"><ele>1303.2</ele><time>2024-05-20T13:40:12Z</time></trkpt>
<trkpt lat="46.63171" lon="6.35793"><ele>1302</ele><time>2024-05-20T13:40:14Z</time></trkpt>
<trkpt lat="46.63177" lon="6.35797"><ele>1300.6</ele><time>2024-05-20T13:40:17Z</time></trkpt>
<trkpt lat="46.6318" lon="6.35799"><ele>1300.2</ele><time>2024-05-20T13:40:18Z</time></trkpt>
<trkpt lat="46.63189" lon="6.35807"><ele>1299.6</ele><time>2024-05-20T13:40:21Z</time></trkpt>
<trkpt lat="46.63192" lon="6.3581"><ele>1299.2</ele><time>2024-05-20T13:40:22Z</time></trkpt>
<trkpt lat="46.63196" lon="6.35813"><ele>1298.2</ele><time>2024-05-20T13:40:23Z</time></trkpt>
<trkpt lat="46.63204" lon="6.35827"><ele>1296.6</ele><time>2024-05-20T13:40:26Z</time></trkpt>
<trkpt lat="46.63206" lon="6.35831"><ele>1296</ele><time>2024-05-20T13:40:27Z</time></trkpt>
<trkpt lat="46.63208" lon="6.35835"><ele>1295.2</ele><time>2024-05-20T13:40:28Z</time></trkpt>
<trkpt lat="46.63211" lon="6.35846"><ele>1293.6</ele><time>2024-05-20T13:40:31Z</time></trkpt>
<trkpt lat="46.63211" lon="6.3585"><ele>1293.4</ele><time>2024-05-20T13:40:32Z</time></trkpt>
<trkpt lat="46.63212" lon="6.35855"><ele>1292.4</ele><time>2024-05-20T13:40:34Z</time></trkpt>
<trkpt lat="46.63213" lon="6.35865"><ele>1291.4</ele><time>2024-05-20T13:40:38Z</time></trkpt>
<trkpt lat="46.63215" lon="6.35873"><ele>1290</ele><time>2024-05-20T13:40:41Z</time></trkpt>
<trkpt lat="46.63216" lon="6.35878"><ele>1288.8</ele><time>2024-05-20T13:40:44Z</time></trkpt>
<trkpt lat="46.63218" lon="6.35887"><ele>1287.6</ele><time>2024-05-20T13:40:48Z</time></trkpt>
<trkpt lat="46.6322" lon="6.35891"><ele>1286.4</ele><time>2024-05-20T13:40:50Z</time></trkpt>
<trkpt lat="46.63221" lon="6.35893"><ele>1286</ele><time>2024-05-20T13:40:51Z</time></trkpt>
<trkpt lat="46.63222" lon="6.35895"><ele>1285.4</ele><time>2024-05-20T13:40:52Z</time></trkpt>
<trkpt lat="46.63225" lon="6.35898"><ele>1284.2</ele><time>2024-05-20T13:40:54Z</time></trkpt>
<trkpt lat="46.63229" lon="6.35902"><ele>1283</ele><time>2024-05-20T13:40:56Z</time></trkpt>
<trkpt lat="46.63235" lon="6.35905"><ele>1281.6</ele><time>2024-05-20T13:40:58Z</time></trkpt>
<trkpt lat="46.6324" lon="6.35906"><ele>1280</ele><time>2024-05-20T13:41:00Z</time></trkpt>
<trkpt lat="46.63243" lon="6.35907"><ele>1278.8</ele><time>2024-05-20T13:41:01Z</time></trkpt>
<trkpt lat="46.63248" lon="6.35907"><ele>1277.4</ele><time>2024-05-20T13:41:04Z</time></trkpt>
<trkpt lat="46.63254" lon="6.35906"><ele>1276.2</ele><time>2024-05-20T13:41:07Z</time></trkpt>
<trkpt lat="46.63257" lon="6.35905"><ele>1274.8</ele><time>2024-05-20T13:41:09Z</time></trkpt>
<trkpt lat="46.63259" lon="6.35905"><ele>1274.4</ele><time>2024-05-20T13:41:10Z</time></trkpt>
<trkpt lat="46.63265" lon="6.35905"><ele>1273.4</ele><time>2024-05-20T13:41:13Z</time></trkpt>
<trkpt lat="46.63268" lon="6.35904"><ele>1272.4</ele><time>2024-05-20T13:41:15Z</time></trkpt>
<trkpt lat="46.63271" lon="6.35903"><ele>1271.4</ele><time>2024-05-20T13:41:17Z</time></trkpt>
<trkpt lat="46.63273" lon="6.35902"><ele>1271.2</ele><time>2024-05-20T13:41:18Z</time></trkpt>
<trkpt lat="46.63278" lon="6.35902"><ele>1269.6</ele><time>2024-05-20T13:41:21Z</time></trkpt>
<trkpt lat="46.63283" lon="6.35903"><ele>1267.8</ele><time>2024-05-20T13:41:23Z</time></trkpt>
<trkpt lat="46.63285" lon="6.35904"><ele>1267</ele><time>2024-05-20T13:41:24Z</time></trkpt>
<trkpt lat="46.63288" lon="6.35904"><ele>1266.4</ele><time>2024-05-20T13:41:25Z</time></trkpt>
<trkpt lat="46.63291" lon="6.35904"><ele>1265</ele><time>2024-05-20T13:41:27Z</time></trkpt>
<trkpt lat="46.63293" lon="6.35903"><ele>1263.6</ele><time>2024-05-20T13:41:29Z</time></trkpt>
<trkpt lat="46.63295" lon="6.35902"><ele>1263</ele><time>2024-05-20T13:41:31Z</time></trkpt>
<trkpt lat="46.633" lon="6.35902"><ele>1261.8</ele><time>2024-05-20T13:41:37Z</time></trkpt>
<trkpt lat="46.63302" lon="6.35901"><ele>1261.4</ele><time>2024-05-20T13:41:39Z</time></trkpt>
<trkpt lat="46.63304" lon="6.359"><ele>1260.8</ele><time>2024-05-20T13:41:41Z</time></trkpt>
<trkpt lat="46.63305" lon="6.35898"><ele>1259.8</ele><time>2024-05-20T13:41:44Z</time></trkpt>
<trkpt lat="46.63307" lon="6.35896"><ele>1259</ele><time>2024-05-20T13:41:47Z</time></trkpt>
<trkpt lat="46.63309" lon="6.35895"><ele>1258.6</ele><time>2024-05-20T13:41:49Z</time></trkpt>
<trkpt lat="46.63312" lon="6.35895"><ele>1257.4</ele><time>2024-05-20T13:41:52Z</time></trkpt>
<trkpt lat="46.63315" lon="6.35895"><ele>1257.2</ele><time>2024-05-20T13:41:54Z</time></trkpt>
<trkpt lat="46.63317" lon="6.35895"><ele>1256</ele><time>2024-05-20T13:41:56Z</time></trkpt>
<trkpt lat="46.63322" lon="6.35894"><ele>1255</ele><time>2024-05-20T13:42:00Z</time></trkpt>
<trkpt lat="46.63323" lon="6.35893"><ele>1254.8</ele><time>2024-05-20T13:42:01Z</time></trkpt>
<trkpt lat="46.63339" lon="6.35884"><ele>1253.8</ele><time>2024-05-20T13:42:07Z</time></trkpt>
<trkpt lat="46.63355" lon="6.35873"><ele>1252.8</ele><time>2024-05-20T13:42:12Z</time></trkpt>
<trkpt lat="46.63358" lon="6.35871"><ele>1252.4</ele><time>2024-05-20T13:42:13Z</time></trkpt>
<trkpt lat="46.63365" lon="6.35868"><ele>1251.6</ele><time>2024-05-20T13:42:16Z</time></trkpt>
<trkpt lat="46.63372" lon="6.35867"><ele>1250.8</ele><time>2024-05-20T13:42:19Z</time></trkpt>
<trkpt lat="46.63377" lon="6.35866"><ele>1250.4</ele><time>2024-05-20T13:42:21Z</time></trkpt>
<trkpt lat="46.63391" lon="6.35861"><ele>1250.2</ele><time>2024-05-20T13:42:25Z</time></trkpt>
<trkpt lat="46.63407" lon="6.35856"><ele>1249.4</ele><time>2024-05-20T13:42:29Z</time></trkpt>
<trkpt lat="46.63417" lon="6.35855"><ele>1248.8</ele><time>2024-05-20T13:42:32Z</time></trkpt>
<trkpt lat="46.63421" lon="6.35855"><ele>1248.4</ele><time>2024-05-20T13:42:33Z</time></trkpt>
<trkpt lat="46.63446" lon="6.35854"><ele>1247.8</ele><time>2024-05-20T13:42:39Z</time></trkpt>
<trkpt lat="46.63459" lon="6.3585"><ele>1247.2</ele><time>2024-05-20T13:42:42Z</time></trkpt>
<trkpt lat="46.63472" lon="6.35842"><ele>1246.6</ele><time>2024-05-20T13:42:45Z</time></trkpt>
<trkpt lat="46.63488" lon="6.35829"><ele>1246</ele><time>2024-05-20T13:42:49Z</time></trkpt>
<trkpt lat="46.63507" lon="6.35817"><ele>1245</ele><time>2024-05-20T13:42:53Z</time></trkpt>
<trkpt lat="46.63512" lon="6.35816"><ele>1244.4</ele><time>2024-05-20T13:42:54Z</time></trkpt>
<trkpt lat="46.63523" lon="6.35815"><ele>1244</ele><time>2024-05-20T13:42:56Z</time></trkpt>
<trkpt lat="46.63529" lon="6.35816"><ele>1244</ele><time>2024-05-20T13:42:57Z</time></trkpt>
<trkpt lat="46.63536" lon="6.35818"><ele>1243.8</ele><time>2024-05-20T13:42:58Z</time></trkpt>
<trkpt lat="46.63554" lon="6.35827"><ele>1242.2</ele><time>2024-05-20T13:43:01Z</time></trkpt>
<trkpt lat="46.6356" lon="6.3583"><ele>1242.2</ele><time>2024-05-20T13:43:02Z</time></trkpt>
<trkpt lat="46.63572" lon="6.35833"><ele>1241.8</ele><time>2024-05-20T13:43:04Z</time></trkpt>
<trkpt lat="46.63583" lon="6.3583"><ele>1241.2</ele><time>2024-05-20T13:43:06Z</time></trkpt>
<trkpt lat="46.63588" lon="6.35827"><ele>1241.2</ele><time>2024-05-20T13:43:07Z</time></trkpt>
<trkpt lat="46.63605" lon="6.3582"><ele>1240.4</ele><time>2024-05-20T13:43:10Z</time></trkpt>
<trkpt lat="46.6361" lon="6.35821"><ele>1239.8</ele><time>2024-05-20T13:43:11Z</time></trkpt>
<trkpt lat="46.63622" lon="6.35824"><ele>1238</ele><time>2024-05-20T13:43:13Z</time></trkpt>
<trkpt lat="46.63634" lon="6.35825"><ele>1236.8</ele><time>2024-05-20T13:43:15Z</time></trkpt>
<trkpt lat="46.6364" lon="6.35823"><ele>1235.6</ele><time>2024-05-20T13:43:16Z</time></trkpt>
<trkpt lat="46.63646" lon="6.35819"><ele>1234.8</ele><time>2024-05-20T13:43:17Z</time></trkpt>
<trkpt lat="46.63651" lon="6.35816"><ele>1234.2</ele><time>2024-05-20T13:43:18Z</time></trkpt>
<trkpt lat="46.63655" lon="6.35811"><ele>1233.2</ele><time>2024-05-20T13:43:19Z</time></trkpt>
<trkpt lat="46.63659" lon="6.35808"><ele>1232.2</ele><time>2024-05-20T13:43:20Z</time></trkpt>
<trkpt lat="46.63663" lon="6.35804"><ele>1232</ele><time>2024-05-20T13:43:21Z</time></trkpt>
<trkpt lat="46.63667" lon="6.35801"><ele>1231.2</ele><time>2024-05-20T13:43:22Z</time></trkpt>
<trkpt lat="46.63676" lon="6.35799"><ele>1230</ele><time>2024-05-20T13:43:24Z</time></trkpt>
<trkpt lat="46.63683" lon="6.35801"><ele>1228.4</ele><time>2024-05-20T13:43:26Z</time></trkpt>
<trkpt lat="46.63687" lon="6.35803"><ele>1227.4</ele><time>2024-05-20T13:43:27Z</time></trkpt>
<trkpt lat="46.63693" lon="6.35807"><ele>1226</ele><time>2024-05-20T13:43:29Z</time></trkpt>
<trkpt lat="46.63698" lon="6.35811"><ele>1224.6</ele><time>2024-05-20T13:43:31Z</time></trkpt>
<trkpt lat="46.63699" lon="6.35815"><ele>1224.2</ele><time>2024-05-20T13:43:32Z</time></trkpt>
<trkpt lat="46.63699" lon="6.35824"><ele>1224</ele><time>2024-05-20T13:43:34Z</time></trkpt>
<trkpt lat="46.63697" lon="6.35829"><ele>1223.8</ele><time>2024-05-20T13:43:35Z</time></trkpt>
<trkpt lat="46.63695" lon="6.35835"><ele>1223.4</ele><time>2024-05-20T13:43:36Z</time></trkpt>
<trkpt lat="46.63689" lon="6.3585"><ele>1222.4</ele><time>2024-05-20T13:43:38Z</time></trkpt>
<trkpt lat="46.63686" lon="6.35858"><ele>1221.2</ele><time>2024-05-20T13:43:39Z</time></trkpt>
<trkpt lat="46.63675" lon="6.35873"><ele>1219.2</ele><time>2024-05-20T13:43:41Z</time></trkpt>
<trkpt lat="46.63668" lon="6.35879"><ele>1218.2</ele><time>2024-05-20T13:43:42Z</time></trkpt>
<trkpt lat="46.63659" lon="6.35885"><ele>1217.2</ele><time>2024-05-20T13:43:43Z</time></trkpt>
<trkpt lat="46.63651" lon="6.35891"><ele>1215</ele><time>2024-05-20T13:43:44Z</time></trkpt>
<trkpt lat="46.63633" lon="6.35901"><ele>1212.6</ele><time>2024-05-20T13:43:46Z</time></trkpt>
<trkpt lat="46.63625" lon="6.35905"><ele>1211.4</ele><time>2024-05-20T13:43:47Z</time></trkpt>
<trkpt lat="46.63615" lon="6.35908"><ele>1209.8</ele><time>2024-05-20T13:43:48Z</time></trkpt>
<trkpt lat="46.63606" lon="6.3591"><ele>1208.6</ele><time>2024-05-20T13:43:49Z</time></trkpt>
<trkpt lat="46.63597" lon="6.35913"><ele>1207.2</ele><time>2024-05-20T13:43:50Z</time></trkpt>
<trkpt lat="46.6358" lon="6.35922"><ele>1205.6</ele><time>2024-05-20T13:43:52Z</time></trkpt>
<trkpt lat="46.63565" lon="6.35936"><ele>1204</ele><time>2024-05-20T13:43:54Z</time></trkpt>
<trkpt lat="46.63549" lon="6.35951"><ele>1202.4</ele><time>2024-05-20T13:43:56Z</time></trkpt>
<trkpt lat="46.6354" lon="6.35959"><ele>1201.2</ele><time>2024-05-20T13:43:57Z</time></trkpt>
<trkpt lat="46.63531" lon="6.35966"><ele>1199.8</ele><time>2024-05-20T13:43:58Z</time></trkpt>
<trkpt lat="46.63521" lon="6.35972"><ele>1198.4</ele><time>2024-05-20T13:43:59Z</time></trkpt>
<trkpt lat="46.63511" lon="6.35978"><ele>1197</ele><time>2024-05-20T13:44:00Z</time></trkpt>
<trkpt lat="46.63494" lon="6.35989"><ele>1194.6</ele><time>2024-05-20T13:44:02Z</time></trkpt>
<trkpt lat="46.63487" lon="6.35995"><ele>1193.2</ele><time>2024-05-20T13:44:03Z</time></trkpt>
<trkpt lat="46.6348" lon="6.36001"><ele>1191.8</ele><time>2024-05-20T13:44:04Z</time></trkpt>
<trkpt lat="46.63476" lon="6.36008"><ele>1190.8</ele><time>2024-05-20T13:44:05Z</time></trkpt>
<trkpt lat="46.63473" lon="6.36015"><ele>1190.2</ele><time>2024-05-20T13:44:06Z</time></trkpt>
<trkpt lat="46.63473" lon="6.36022"><ele>1189</ele><time>2024-05-20T13:44:07Z</time></trkpt>
<trkpt lat="46.63474" lon="6.36028"><ele>1188.2</ele><time>2024-05-20T13:44:08Z</time></trkpt>
<trkpt lat="46.63477" lon="6.36033"><ele>1187.8</ele><time>2024-05-20T13:44:09Z</time></trkpt>
<trkpt lat="46.63481" lon="6.36038"><ele>1187.2</ele><time>2024-05-20T13:44:10Z</time></trkpt>
<trkpt lat="46.63487" lon="6.36042"><ele>1186.6</ele><time>2024-05-20T13:44:11Z</time></trkpt>
<trkpt lat="46.63494" lon="6.36046"><ele>1186.2</ele><time>2024-05-20T13:44:12Z</time></trkpt>
<trkpt lat="46.63502" lon="6.36049"><ele>1185</ele><time>2024-05-20T13:44:13Z</time></trkpt>
<trkpt lat="46.63512" lon="6.3605"><ele>1184.4</ele><time>2024-05-20T13:44:14Z</time></trkpt>
<trkpt lat="46.63521" lon="6.36051"><ele>1183.6</ele><time>2024-05-20T13:44:15Z</time></trkpt>
<trkpt lat="46.63531" lon="6.3605"><ele>1182.6</ele><time>2024-05-20T13:44:16Z</time></trkpt>
<trkpt lat="46.63552" lon="6.36047"><ele>1181</ele><time>2024-05-20T13:44:18Z</time></trkpt>
<trkpt lat="46.63561" lon="6.36049"><ele>1180.2</ele><time>2024-05-20T13:44:19Z</time></trkpt>
<trkpt lat="46.63568" lon="6.36056"><ele>1179</ele><time>2024-05-20T13:44:20Z</time></trkpt>
<trkpt lat="46.63573" lon="6.36066"><ele>1177.6</ele><time>2024-05-20T13:44:21Z</time></trkpt>
<trkpt lat="46.63574" lon="6.36078"><ele>1176.8</ele><time>2024-05-20T13:44:22Z</time></trkpt>
<trkpt lat="46.63573" lon="6.36089"><ele>1176.2</ele><time>2024-05-20T13:44:23Z</time></trkpt>
<trkpt lat="46.6357" lon="6.36111"><ele>1174.6</ele><time>2024-05-20T13:44:25Z</time></trkpt>
<trkpt lat="46.63571" lon="6.36134"><ele>1174</ele><time>2024-05-20T13:44:27Z</time></trkpt>
<trkpt lat="46.63576" lon="6.36154"><ele>1173.8</ele><time>2024-05-20T13:44:29Z</time></trkpt>
<trkpt lat="46.63584" lon="6.36184"><ele>1173.4</ele><time>2024-05-20T13:44:32Z</time></trkpt>
<trkpt lat="46.63593" lon="6.36215"><ele>1172</ele><time>2024-05-20T13:44:35Z</time></trkpt>
<trkpt lat="46.63597" lon="6.36224"><ele>1171.6</ele><time>2024-05-20T13:44:36Z</time></trkpt>
<trkpt lat="46.636" lon="6.36232"><ele>1170.6</ele><time>2024-05-20T13:44:37Z</time></trkpt>
<trkpt lat="46.63602" lon="6.36241"><ele>1169.8</ele><time>2024-05-20T13:44:38Z</time></trkpt>
<trkpt lat="46.63603" lon="6.36249"><ele>1169.2</ele><time>2024-05-20T13:44:39Z</time></trkpt>
<trkpt lat="46.63602" lon="6.36258"><ele>1168.6</ele><time>2024-05-20T13:44:40Z</time></trkpt>
<trkpt lat="46.636" lon="6.36267"><ele>1168</ele><time>2024-05-20T13:44:41Z</time></trkpt>
<trkpt lat="46.63595" lon="6.36286"><ele>1166.2</ele><time>2024-05-20T13:44:43Z</time></trkpt>
<trkpt lat="46.63594" lon="6.36297"><ele>1164.8</ele><time>2024-05-20T13:44:44Z</time></trkpt>
<trkpt lat="46.63592" lon="6.36308"><ele>1163.6</ele><time>2024-05-20T13:44:45Z</time></trkpt>
<trkpt lat="46.63591" lon="6.3632"><ele>1162.4</ele><time>2024-05-20T13:44:46Z</time></trkpt>
<trkpt lat="46.63589" lon="6.36333"><ele>1161.4</ele><time>2024-05-20T13:44:47Z</time></trkpt>
<trkpt lat="46.63588" lon="6.36346"><ele>1159.8</ele><time>2024-05-20T13:44:48Z</time></trkpt>
<trkpt lat="46.63587" lon="6.3636"><ele>1158.4</ele><time>2024-05-20T13:44:49Z</time></trkpt>
<trkpt lat="46.63586" lon="6.36374"><ele>1157.2</ele><time>2024-05-20T13:44:50Z</time></trkpt>
<trkpt lat="46.63585" lon="6.36389"><ele>1155.6</ele><time>2024-05-20T13:44:51Z</time></trkpt>
<trkpt lat="46.63583" lon="6.36404"><ele>1153.6</ele><time>2024-05-20T13:44:52Z</time></trkpt>
<trkpt lat="46.63582" lon="6.3642"><ele>1152.4</ele><time>2024-05-20T13:44:53Z</time></trkpt>
<trkpt lat="46.63581" lon="6.36437"><ele>1150.6</ele><time>2024-05-20T13:44:54Z</time></trkpt>
<trkpt lat="46.6358" lon="6.36454"><ele>1148.2</ele><time>2024-05-20T13:44:55Z</time></trkpt>
<trkpt lat="46.63581" lon="6.36471"><ele>1146.8</ele><time>2024-05-20T13:44:56Z</time></trkpt>
<trkpt lat="46.63582" lon="6.36501"><ele>1143</ele><time>2024-05-20T13:44:58Z</time></trkpt>
<trkpt lat="46.63582" lon="6.36516"><ele>1141.8</ele><time>2024-05-20T13:44:59Z</time></trkpt>
<trkpt lat="46.63582" lon="6.36529"><ele>1140.2</ele><time>2024-05-20T13:45:00Z</time></trkpt>
<trkpt lat="46.6358" lon="6.36542"><ele>1139.4</ele><time>2024-05-20T13:45:01Z</time></trkpt>
<trkpt lat="46.63578" lon="6.36553"><ele>1137.6</ele><time>2024-05-20T13:45:02Z</time></trkpt>
<trkpt lat="46.63576" lon="6.36565"><ele>1137</ele><time>2024-05-20T13:45:03Z</time></trkpt>
<trkpt lat="46.63573" lon="6.36577"><ele>1136.4</ele><time>2024-05-20T13:45:04Z</time></trkpt>
<trkpt lat="46.6357" lon="6.36595"><ele>1135.2</ele><time>2024-05-20T13:45:06Z</time></trkpt>
<trkpt lat="46.63568" lon="6.36602"><ele>1134</ele><time>2024-05-20T13:45:07Z</time></trkpt>
<trkpt lat="46.63557" lon="6.36635"><ele>1132.6</ele><time>2024-05-20T13:45:11Z</time></trkpt>
<trkpt lat="46.63553" lon="6.36643"><ele>1132</ele><time>2024-05-20T13:45:12Z</time></trkpt>
<trkpt lat="46.63547" lon="6.3665"><ele>1131</ele><time>2024-05-20T13:45:13Z</time></trkpt>
<trkpt lat="46.63541" lon="6.36656"><ele>1129.6</ele><time>2024-05-20T13:45:14Z</time></trkpt>
<trkpt lat="46.63536" lon="6.36663"><ele>1127</ele><time>2024-05-20T13:45:15Z</time></trkpt>
<trkpt lat="46.63531" lon="6.36669"><ele>1126</ele><time>2024-05-20T13:45:16Z</time></trkpt>
<trkpt lat="46.63525" lon="6.36676"><ele>1125</ele><time>2024-05-20T13:45:17Z</time></trkpt>
<trkpt lat="46.63515" lon="6.36689"><ele>1123.4</ele><time>2024-05-20T13:45:19Z</time></trkpt>
<trkpt lat="46.63497" lon="6.36712"><ele>1122.4</ele><time>2024-05-20T13:45:22Z</time></trkpt>
<trkpt lat="46.6349" lon="6.36723"><ele>1122.4</ele><time>2024-05-20T13:45:23Z</time></trkpt>
<trkpt lat="46.63464" lon="6.36752"><ele>1121.4</ele><time>2024-05-20T13:45:27Z</time></trkpt>
<trkpt lat="46.63452" lon="6.36762"><ele>1121</ele><time>2024-05-20T13:45:29Z</time></trkpt>
<trkpt lat="46.63438" lon="6.36767"><ele>1119.8</ele><time>2024-05-20T13:45:31Z</time></trkpt>
<trkpt lat="46.63416" lon="6.36773"><ele>1118.4</ele><time>2024-05-20T13:45:34Z</time></trkpt>
<trkpt lat="46.63408" lon="6.36772"><ele>1117.8</ele><time>2024-05-20T13:45:35Z</time></trkpt>
<trkpt lat="46.63393" lon="6.36765"><ele>1115.6</ele><time>2024-05-20T13:45:37Z</time></trkpt>
<trkpt lat="46.63386" lon="6.36761"><ele>1113.8</ele><time>2024-05-20T13:45:38Z</time></trkpt>
<trkpt lat="46.6338" lon="6.36755"><ele>1113</ele><time>2024-05-20T13:45:39Z</time></trkpt>
<trkpt lat="46.63373" lon="6.36749"><ele>1112.6</ele><time>2024-05-20T13:45:40Z</time></trkpt>
<trkpt lat="46.63361" lon="6.36737"><ele>1112.2</ele><time>2024-05-20T13:45:42Z</time></trkpt>
<trkpt lat="46.63342" lon="6.36718"><ele>1111.6</ele><time>2024-05-20T13:45:45Z</time></trkpt>
<trkpt lat="46.63328" lon="6.36706"><ele>1111.2</ele><time>2024-05-20T13:45:47Z</time></trkpt>
<trkpt lat="46.63314" lon="6.36697"><ele>1110.6</ele><time>2024-05-20T13:45:49Z</time></trkpt>
<trkpt lat="46.63306" lon="6.36695"><ele>1110.4</ele><time>2024-05-20T13:45:50Z</time></trkpt>
<trkpt lat="46.63299" lon="6.36694"><ele>1110.4</ele><time>2024-05-20T13:45:51Z</time></trkpt>
<trkpt lat="46.63264" lon="6.36697"><ele>1109.6</ele><time>2024-05-20T13:45:56Z</time></trkpt>
<trkpt lat="46.6323" lon="6.36708"><ele>1110.8</ele><time>2024-05-20T13:46:02Z</time></trkpt>
<trkpt lat="46.63204" lon="6.36714"><ele>1111.2</ele><time>2024-05-20T13:46:07Z</time></trkpt>
<trkpt lat="46.63195" lon="6.36714"><ele>1111</ele><time>2024-05-20T13:46:09Z</time></trkpt>
<trkpt lat="46.63164" lon="6.36711"><ele>1110.8</ele><time>2024-05-20T13:46:16Z</time></trkpt>
<trkpt lat="46.63155" lon="6.36708"><ele>1110.8</ele><time>2024-05-20T13:46:18Z</time></trkpt>
<trkpt lat="46.63151" lon="6.36705"><ele>1110.6</ele><time>2024-05-20T13:46:19Z</time></trkpt>
<trkpt lat="46.63136" lon="6.367"><ele>1110.2</ele><time>2024-05-20T13:46:22Z</time></trkpt>
<trkpt lat="46.63117" lon="6.36692"><ele>1109.2</ele><time>2024-05-20T13:46:26Z</time></trkpt>
<trkpt lat="46.63107" lon="6.36689"><ele>1109</ele><time>2024-05-20T13:46:28Z</time></trkpt>
<trkpt lat="46.63102" lon="6.3669"><ele>1109</ele><time>2024-05-20T13:46:29Z</time></trkpt>
<trkpt lat="46.63097" lon="6.36691"><ele>1108.8</ele><time>2024-05-20T13:46:30Z</time></trkpt>
<trkpt lat="46.63087" lon="6.36696"><ele>1108</ele><time>2024-05-20T13:46:32Z</time></trkpt>
<trkpt lat="46.63081" lon="6.367"><ele>1107.4</ele><time>2024-05-20T13:46:33Z</time></trkpt>
<trkpt lat="46.6307" lon="6.36708"><ele>1107</ele><time>2024-05-20T13:46:35Z</time></trkpt>
<trkpt lat="46.63054" lon="6.36723"><ele>1105.6</ele><time>2024-05-20T13:46:38Z</time></trkpt>
<trkpt lat="46.63049" lon="6.36728"><ele>1105.2</ele><time>2024-05-20T13:46:39Z</time></trkpt>
<trkpt lat="46.63037" lon="6.36739"><ele>1103.8</ele><time>2024-05-20T13:46:41Z</time></trkpt>
<trkpt lat="46.63025" lon="6.36752"><ele>1102.4</ele><time>2024-05-20T13:46:43Z</time></trkpt>
<trkpt lat="46.63019" lon="6.36761"><ele>1102.4</ele><time>2024-05-20T13:46:44Z</time></trkpt>
<trkpt lat="46.63014" lon="6.36772"><ele>1102.4</ele><time>2024-05-20T13:46:45Z</time></trkpt>
<trkpt lat="46.63006" lon="6.36799"><ele>1102.4</ele><time>2024-05-20T13:46:47Z</time></trkpt>
<trkpt lat="46.63003" lon="6.36812"><ele>1102.6</ele><time>2024-05-20T13:46:48Z</time></trkpt>
<trkpt lat="46.62991" lon="6.36849"><ele>1102.2</ele><time>2024-05-20T13:46:51Z</time></trkpt>
<trkpt lat="46.62986" lon="6.36861"><ele>1101.8</ele><time>2024-05-20T13:46:52Z</time></trkpt>
<trkpt lat="46.62981" lon="6.36872"><ele>1101.4</ele><time>2024-05-20T13:46:53Z</time></trkpt>
<trkpt lat="46.62959" lon="6.36917"><ele>1100.2</ele><time>2024-05-20T13:46:57Z</time></trkpt>
<trkpt lat="46.62954" lon="6.3693"><ele>1099.6</ele><time>2024-05-20T13:46:58Z</time></trkpt>
<trkpt lat="46.62948" lon="6.36942"><ele>1099.2</ele><time>2024-05-20T13:46:59Z</time></trkpt>
<trkpt lat="46.62937" lon="6.36968"><ele>1098.2</ele><time>2024-05-20T13:47:01Z</time></trkpt>
<trkpt lat="46.62924" lon="6.37002"><ele>1097.4</ele><time>2024-05-20T13:47:04Z</time></trkpt>
<trkpt lat="46.6292" lon="6.37014"><ele>1097</ele><time>2024-05-20T13:47:05Z</time></trkpt>
<trkpt lat="46.62905" lon="6.37057"><ele>1095.8</ele><time>2024-05-20T13:47:09Z</time></trkpt>
<trkpt lat="46.62901" lon="6.37068"><ele>1095.4</ele><time>2024-05-20T13:47:10Z</time></trkpt>
<trkpt lat="46.62897" lon="6.37089"><ele>1095.2</ele><time>2024-05-20T13:47:12Z</time></trkpt>
<trkpt lat="46.62894" lon="6.37121"><ele>1094.8</ele><time>2024-05-20T13:47:15Z</time></trkpt>
<trkpt lat="46.62893" lon="6.37131"><ele>1094.6</ele><time>2024-05-20T13:47:16Z</time></trkpt>
<trkpt lat="46.62884" lon="6.37177"><ele>1094.2</ele><time>2024-05-20T13:47:21Z</time></trkpt>
<trkpt lat="46.62875" lon="6.37197"><ele>1094</ele><time>2024-05-20T13:47:24Z</time></trkpt>
<trkpt lat="46.62871" lon="6.37202"><ele>1094</ele><time>2024-05-20T13:47:25Z</time></trkpt>
<trkpt lat="46.62867" lon="6.37206"><ele>1094</ele><time>2024-05-20T13:47:26Z</time></trkpt>
<trkpt lat="46.6286" lon="6.37212"><ele>1094</ele><time>2024-05-20T13:47:28Z</time></trkpt>
<trkpt lat="46.62856" lon="6.37214"><ele>1094</ele><time>2024-05-20T13:47:29Z</time></trkpt>
<trkpt lat="46.62836" lon="6.37217"><ele>1094</ele><time>2024-05-20T13:47:34Z</time></trkpt>
<trkpt lat="46.628" lon="6.37215"><ele>1093.8</ele><time>2024-05-20T13:47:41Z</time></trkpt>
<trkpt lat="46.62793" lon="6.37209"><ele>1093.8</ele><time>2024-05-20T13:47:43Z</time></trkpt>
<trkpt lat="46.62786" lon="6.37201"><ele>1093.8</ele><time>2024-05-20T13:47:45Z</time></trkpt>
<trkpt lat="46.62772" lon="6.37173"><ele>1093.6</ele><time>2024-05-20T13:47:51Z</time></trkpt>
<trkpt lat="46.62756" lon="6.37135"><ele>1093.2</ele><time>2024-05-20T13:47:58Z</time></trkpt>
<trkpt lat="46.62737" lon="6.37099"><ele>1093.4</ele><time>2024-05-20T13:48:05Z</time></trkpt>
<trkpt lat="46.62714" lon="6.37056"><ele>1093</ele><time>2024-05-20T13:48:13Z</time></trkpt>
<trkpt lat="46.62693" lon="6.37033"><ele>1093</ele><time>2024-05-20T13:48:19Z</time></trkpt>
<trkpt lat="46.6268" lon="6.37022"><ele>1093</ele><time>2024-05-20T13:48:22Z</time></trkpt>
<trkpt lat="46.62656" lon="6.37006"><ele>1092.8</ele><time>2024-05-20T13:48:27Z</time></trkpt>
<trkpt lat="46.62642" lon="6.37"><ele>1092.8</ele><time>2024-05-20T13:48:30Z</time></trkpt>
<trkpt lat="46.62627" lon="6.36996"><ele>1092.6</ele><time>2024-05-20T13:48:33Z</time></trkpt>
<trkpt lat="46.62595" lon="6.36986"><ele>1092.2</ele><time>2024-05-20T13:48:39Z</time></trkpt>
<trkpt lat="46.62589" lon="6.36985"><ele>1092</ele><time>2024-05-20T13:48:40Z</time></trkpt>
<trkpt lat="46.62557" lon="6.36971"><ele>1091.4</ele><time>2024-05-20T13:48:46Z</time></trkpt>
<trkpt lat="46.62538" lon="6.36961"><ele>1091.2</ele><time>2024-05-20T13:48:50Z</time></trkpt>
<trkpt lat="46.62529" lon="6.36956"><ele>1090.8</ele><time>2024-05-20T13:48:52Z</time></trkpt>
<trkpt lat="46.62524" lon="6.36954"><ele>1090.4</ele><time>2024-05-20T13:48:53Z</time></trkpt>
<trkpt lat="46.62496" lon="6.36945"><ele>1089.4</ele><time>2024-05-20T13:48:58Z</time></trkpt>
<trkpt lat="46.6249" lon="6.36943"><ele>1089</ele><time>2024-05-20T13:48:59Z</time></trkpt>
<trkpt lat="46.62469" lon="6.36939"><ele>1087.6</ele><time>2024-05-20T13:49:02Z</time></trkpt>
<trkpt lat="46.62453" lon="6.36938"><ele>1087.2</ele><time>2024-05-20T13:49:04Z</time></trkpt>
<trkpt lat="46.62423" lon="6.36931"><ele>1086.4</ele><time>2024-05-20T13:49:08Z</time></trkpt>
<trkpt lat="46.62401" lon="6.36929"><ele>1085.2</ele><time>2024-05-20T13:49:11Z</time></trkpt>
<trkpt lat="46.62394" lon="6.3693"><ele>1084.8</ele><time>2024-05-20T13:49:12Z</time></trkpt>
<trkpt lat="46.62379" lon="6.36935"><ele>1083.8</ele><time>2024-05-20T13:49:14Z</time></trkpt>
<trkpt lat="46.62371" lon="6.36939"><ele>1083.6</ele><time>2024-05-20T13:49:15Z</time></trkpt>
<trkpt lat="46.62355" lon="6.36949"><ele>1081.6</ele><time>2024-05-20T13:49:17Z</time></trkpt>
<trkpt lat="46.62341" lon="6.3696"><ele>1080.4</ele><time>2024-05-20T13:49:19Z</time></trkpt>
<trkpt lat="46.62333" lon="6.36965"><ele>1079.4</ele><time>2024-05-20T13:49:20Z</time></trkpt>
<trkpt lat="46.62325" lon="6.3697"><ele>1078</ele><time>2024-05-20T13:49:21Z</time></trkpt>
<trkpt lat="46.62315" lon="6.36972"><ele>1077.8</ele><time>2024-05-20T13:49:22Z</time></trkpt>
<trkpt lat="46.62305" lon="6.36973"><ele>1076.4</ele><time>2024-05-20T13:49:23Z</time></trkpt>
<trkpt lat="46.62295" lon="6.36974"><ele>1075.6</ele><time>2024-05-20T13:49:24Z</time></trkpt>
<trkpt lat="46.62283" lon="6.36971"><ele>1074.6</ele><time>2024-05-20T13:49:25Z</time></trkpt>
<trkpt lat="46.62272" lon="6.36968"><ele>1072.8</ele><time>2024-05-20T13:49:26Z</time></trkpt>
<trkpt lat="46.62261" lon="6.36966"><ele>1071.6</ele><time>2024-05-20T13:49:27Z</time></trkpt>
<trkpt lat="46.62239" lon="6.36964"><ele>1069.8</ele><time>2024-05-20T13:49:29Z</time></trkpt>
<trkpt lat="46.62218" lon="6.36966"><ele>1068</ele><time>2024-05-20T13:49:31Z</time></trkpt>
<trkpt lat="46.62209" lon="6.36967"><ele>1066.6</ele><time>2024-05-20T13:49:32Z</time></trkpt>
<trkpt lat="46.62193" lon="6.3697"><ele>1065</ele><time>2024-05-20T13:49:34Z</time></trkpt>
<trkpt lat="46.62185" lon="6.36972"><ele>1063.4</ele><time>2024-05-20T13:49:35Z</time></trkpt>
<trkpt lat="46.62169" lon="6.36975"><ele>1061.6</ele><time>2024-05-20T13:49:37Z</time></trkpt>
<trkpt lat="46.62161" lon="6.36974"><ele>1060.4</ele><time>2024-05-20T13:49:38Z</time></trkpt>
<trkpt lat="46.62152" lon="6.36971"><ele>1059.8</ele><time>2024-05-20T13:49:39Z</time></trkpt>
<trkpt lat="46.62143" lon="6.36968"><ele>1058.2</ele><time>2024-05-20T13:49:40Z</time></trkpt>
<trkpt lat="46.62123" lon="6.36962"><ele>1057</ele><time>2024-05-20T13:49:42Z</time></trkpt>
<trkpt lat="46.62113" lon="6.3696"><ele>1055.8</ele><time>2024-05-20T13:49:43Z</time></trkpt>
<trkpt lat="46.62102" lon="6.36957"><ele>1054.8</ele><time>2024-05-20T13:49:44Z</time></trkpt>
<trkpt lat="46.62092" lon="6.36954"><ele>1053.8</ele><time>2024-05-20T13:49:45Z</time></trkpt>
<trkpt lat="46.6207" lon="6.36948"><ele>1051.8</ele><time>2024-05-20T13:49:47Z</time></trkpt>
<trkpt lat="46.62059" lon="6.36944"><ele>1050.8</ele><time>2024-05-20T13:49:48Z</time></trkpt>
<trkpt lat="46.62046" lon="6.3694"><ele>1049</ele><time>2024-05-20T13:49:49Z</time></trkpt>
<trkpt lat="46.62034" lon="6.36938"><ele>1048</ele><time>2024-05-20T13:49:50Z</time></trkpt>
<trkpt lat="46.62023" lon="6.36934"><ele>1046.2</ele><time>2024-05-20T13:49:51Z</time></trkpt>
<trkpt lat="46.62012" lon="6.36929"><ele>1044.4</ele><time>2024-05-20T13:49:52Z</time></trkpt>
<trkpt lat="46.62" lon="6.36927"><ele>1043.4</ele><time>2024-05-20T13:49:53Z</time></trkpt>
<trkpt lat="46.6199" lon="6.36924"><ele>1042</ele><time>2024-05-20T13:49:54Z</time></trkpt>
<trkpt lat="46.6198" lon="6.36925"><ele>1041.2</ele><time>2024-05-20T13:49:55Z</time></trkpt>
<trkpt lat="46.61972" lon="6.36929"><ele>1039.4</ele><time>2024-05-20T13:49:56Z</time></trkpt>
<trkpt lat="46.61963" lon="6.36935"><ele>1038.4</ele><time>2024-05-20T13:49:57Z</time></trkpt>
<trkpt lat="46.61935" lon="6.36957"><ele>1036.6</ele><time>2024-05-20T13:50:00Z</time></trkpt>
<trkpt lat="46.61925" lon="6.36961"><ele>1035.2</ele><time>2024-05-20T13:50:01Z</time></trkpt>
<trkpt lat="46.61913" lon="6.36965"><ele>1034</ele><time>2024-05-20T13:50:02Z</time></trkpt>
<trkpt lat="46.61902" lon="6.36969"><ele>1032.8</ele><time>2024-05-20T13:50:03Z</time></trkpt>
<trkpt lat="46.61891" lon="6.36973"><ele>1030.8</ele><time>2024-05-20T13:50:04Z</time></trkpt>
<trkpt lat="46.61872" lon="6.3698"><ele>1029</ele><time>2024-05-20T13:50:06Z</time></trkpt>
<trkpt lat="46.61864" lon="6.36982"><ele>1027.6</ele><time>2024-05-20T13:50:07Z</time></trkpt>
<trkpt lat="46.61857" lon="6.36984"><ele>1026</ele><time>2024-05-20T13:50:08Z</time></trkpt>
<trkpt lat="46.61851" lon="6.36984"><ele>1024.6</ele><time>2024-05-20T13:50:09Z</time></trkpt>
<trkpt lat="46.61841" lon="6.36985"><ele>1023.4</ele><time>2024-05-20T13:50:11Z</time></trkpt>
<trkpt lat="46.61837" lon="6.36983"><ele>1022.6</ele><time>2024-05-20T13:50:12Z</time></trkpt>
<trkpt lat="46.61833" lon="6.36979"><ele>1021.6</ele><time>2024-05-20T13:50:13Z</time></trkpt>
<trkpt lat="46.61831" lon="6.36971"><ele>1021.4</ele><time>2024-05-20T13:50:14Z</time></trkpt>
<trkpt lat="46.61823" lon="6.36956"><ele>1020.6</ele><time>2024-05-20T13:50:16Z</time></trkpt>
<trkpt lat="46.61809" lon="6.36947"><ele>1019.6</ele><time>2024-05-20T13:50:18Z</time></trkpt>
<trkpt lat="46.61795" lon="6.36953"><ele>1017.6</ele><time>2024-05-20T13:50:20Z</time></trkpt>
<trkpt lat="46.61791" lon="6.36971"><ele>1016.2</ele><time>2024-05-20T13:50:22Z</time></trkpt>
<trkpt lat="46.61791" lon="6.36983"><ele>1015.2</ele><time>2024-05-20T13:50:23Z</time></trkpt>
<trkpt lat="46.61791" lon="6.36996"><ele>1014.6</ele><time>2024-05-20T13:50:24Z</time></trkpt>
<trkpt lat="46.61792" lon="6.37008"><ele>1013.6</ele><time>2024-05-20T13:50:25Z</time></trkpt>
<trkpt lat="46.61795" lon="6.37028"><ele>1012</ele><time>2024-05-20T13:50:27Z</time></trkpt>
<trkpt lat="46.61799" lon="6.37038"><ele>1011</ele><time>2024-05-20T13:50:28Z</time></trkpt>
<trkpt lat="46.61804" lon="6.37047"><ele>1010.4</ele><time>2024-05-20T13:50:29Z</time></trkpt>
<trkpt lat="46.6181" lon="6.37054"><ele>1009.8</ele><time>2024-05-20T13:50:30Z</time></trkpt>
<trkpt lat="46.61823" lon="6.37067"><ele>1008.8</ele><time>2024-05-20T13:50:32Z</time></trkpt>
<trkpt lat="46.61831" lon="6.37073"><ele>1008.4</ele><time>2024-05-20T13:50:33Z</time></trkpt>
<trkpt lat="46.61848" lon="6.37086"><ele>1006.4</ele><time>2024-05-20T13:50:35Z</time></trkpt>
<trkpt lat="46.61857" lon="6.37091"><ele>1005.6</ele><time>2024-05-20T13:50:36Z</time></trkpt>
<trkpt lat="46.61866" lon="6.37095"><ele>1004.2</ele><time>2024-05-20T13:50:37Z</time></trkpt>
<trkpt lat="46.61885" lon="6.37099"><ele>1002</ele><time>2024-05-20T13:50:39Z</time></trkpt>
<trkpt lat="46.619" lon="6.37103"><ele>1000</ele><time>2024-05-20T13:50:41Z</time></trkpt>
<trkpt lat="46.61906" lon="6.37106"><ele>999</ele><time>2024-05-20T13:50:42Z</time></trkpt>
<trkpt lat="46.61911" lon="6.37111"><ele>997.8</ele><time>2024-05-20T13:50:43Z</time></trkpt>
<trkpt lat="46.61916" lon="6.3712"><ele>997.2</ele><time>2024-05-20T13:50:44Z</time></trkpt>
<trkpt lat="46.6192" lon="6.3713"><ele>996.4</ele><time>2024-05-20T13:50:45Z</time></trkpt>
<trkpt lat="46.61925" lon="6.3714"><ele>995.4</ele><time>2024-05-20T13:50:46Z</time></trkpt>
<trkpt lat="46.61929" lon="6.37151"><ele>994.2</ele><time>2024-05-20T13:50:47Z</time></trkpt>
<trkpt lat="46.61947" lon="6.37185"><ele>991.6</ele><time>2024-05-20T13:50:50Z</time></trkpt>
<trkpt lat="46.61953" lon="6.37198"><ele>990.4</ele><time>2024-05-20T13:50:51Z</time></trkpt>
<trkpt lat="46.6196" lon="6.37211"><ele>989.4</ele><time>2024-05-20T13:50:52Z</time></trkpt>
<trkpt lat="46.61967" lon="6.37224"><ele>988.4</ele><time>2024-05-20T13:50:53Z</time></trkpt>
<trkpt lat="46.61975" lon="6.37236"><ele>987.2</ele><time>2024-05-20T13:50:54Z</time></trkpt>
<trkpt lat="46.61984" lon="6.37248"><ele>985.8</ele><time>2024-05-20T13:50:55Z</time></trkpt>
<trkpt lat="46.61994" lon="6.37258"><ele>984.4</ele><time>2024-05-20T13:50:56Z</time></trkpt>
<trkpt lat="46.62002" lon="6.37267"><ele>983.2</ele><time>2024-05-20T13:50:57Z</time></trkpt>
<trkpt lat="46.62009" lon="6.37275"><ele>981.6</ele><time>2024-05-20T13:50:58Z</time></trkpt>
<trkpt lat="46.62015" lon="6.37281"><ele>981</ele><time>2024-05-20T13:50:59Z</time></trkpt>
<trkpt lat="46.62018" lon="6.37288"><ele>979.6</ele><time>2024-05-20T13:51:00Z</time></trkpt>
<trkpt lat="46.62015" lon="6.37302"><ele>977.6</ele><time>2024-05-20T13:51:02Z</time></trkpt>
<trkpt lat="46.62002" lon="6.37305"><ele>976.4</ele><time>2024-05-20T13:51:04Z</time></trkpt>
<trkpt lat="46.61996" lon="6.37303"><ele>976</ele><time>2024-05-20T13:51:05Z</time></trkpt>
<trkpt lat="46.6199" lon="6.373"><ele>975</ele><time>2024-05-20T13:51:06Z</time></trkpt>
<trkpt lat="46.61976" lon="6.37295"><ele>974</ele><time>2024-05-20T13:51:08Z</time></trkpt>
<trkpt lat="46.61969" lon="6.37292"><ele>973.4</ele><time>2024-05-20T13:51:09Z</time></trkpt>
<trkpt lat="46.61954" lon="6.37285"><ele>972.2</ele><time>2024-05-20T13:51:11Z</time></trkpt>
<trkpt lat="46.61938" lon="6.37278"><ele>970.8</ele><time>2024-05-20T13:51:13Z</time></trkpt>
<trkpt lat="46.61929" lon="6.37277"><ele>970.4</ele><time>2024-05-20T13:51:14Z</time></trkpt>
<trkpt lat="46.61915" lon="6.37284"><ele>969.2</ele><time>2024-05-20T13:51:16Z</time></trkpt>
<trkpt lat="46.61909" lon="6.3729"><ele>968</ele><time>2024-05-20T13:51:17Z</time></trkpt>
<trkpt lat="46.61895" lon="6.373"><ele>966.2</ele><time>2024-05-20T13:51:19Z</time></trkpt>
<trkpt lat="46.61887" lon="6.37301"><ele>964.8</ele><time>2024-05-20T13:51:20Z</time></trkpt>
<trkpt lat="46.6188" lon="6.37299"><ele>964.2</ele><time>2024-05-20T13:51:21Z</time></trkpt>
<trkpt lat="46.61874" lon="6.37295"><ele>963.6</ele><time>2024-05-20T13:51:22Z</time></trkpt>
<trkpt lat="46.61867" lon="6.37289"><ele>962.8</ele><time>2024-05-20T13:51:23Z</time></trkpt>
<trkpt lat="46.61862" lon="6.3728"><ele>962.4</ele><time>2024-05-20T13:51:24Z</time></trkpt>
<trkpt lat="46.61857" lon="6.37271"><ele>962</ele><time>2024-05-20T13:51:25Z</time></trkpt>
<trkpt lat="46.61849" lon="6.37262"><ele>961.4</ele><time>2024-05-20T13:51:26Z</time></trkpt>
<trkpt lat="46.61842" lon="6.37256"><ele>960.8</ele><time>2024-05-20T13:51:27Z</time></trkpt>
<trkpt lat="46.61828" lon="6.37257"><ele>959.4</ele><time>2024-05-20T13:51:29Z</time></trkpt>
<trkpt lat="46.61825" lon="6.37271"><ele>958.4</ele><time>2024-05-20T13:51:31Z</time></trkpt>
<trkpt lat="46.61827" lon="6.37278"><ele>957.2</ele><time>2024-05-20T13:51:32Z</time></trkpt>
<trkpt lat="46.61833" lon="6.37282"><ele>956.8</ele><time>2024-05-20T13:51:33Z</time></trkpt>
<trkpt lat="46.61839" lon="6.37288"><ele>956.4</ele><time>2024-05-20T13:51:34Z</time></trkpt>
<trkpt lat="46.61843" lon="6.37296"><ele>956.2</ele><time>2024-05-20T13:51:35Z</time></trkpt>
<trkpt lat="46.61849" lon="6.37318"><ele>955</ele><time>2024-05-20T13:51:37Z</time></trkpt>
<trkpt lat="46.61856" lon="6.37341"><ele>953.6</ele><time>2024-05-20T13:51:39Z</time></trkpt>
<trkpt lat="46.6186" lon="6.37351"><ele>952.4</ele><time>2024-05-20T13:51:40Z</time></trkpt>
<trkpt lat="46.61869" lon="6.37365"><ele>950.8</ele><time>2024-05-20T13:51:42Z</time></trkpt>
<trkpt lat="46.61886" lon="6.37371"><ele>949.2</ele><time>2024-05-20T13:51:44Z</time></trkpt>
<trkpt lat="46.61894" lon="6.37377"><ele>948</ele><time>2024-05-20T13:51:45Z</time></trkpt>
<trkpt lat="46.61899" lon="6.37388"><ele>946.8</ele><time>2024-05-20T13:51:46Z</time></trkpt>
<trkpt lat="46.61903" lon="6.37401"><ele>946.2</ele><time>2024-05-20T13:51:47Z</time></trkpt>
<trkpt lat="46.61907" lon="6.37413"><ele>944.8</ele><time>2024-05-20T13:51:48Z</time></trkpt>
<trkpt lat="46.61919" lon="6.37437"><ele>943.8</ele><time>2024-05-20T13:51:50Z</time></trkpt>
<trkpt lat="46.61924" lon="6.37447"><ele>942.2</ele><time>2024-05-20T13:51:51Z</time></trkpt>
<trkpt lat="46.61929" lon="6.37468"><ele>940.6</ele><time>2024-05-20T13:51:53Z</time></trkpt>
<trkpt lat="46.61929" lon="6.37478"><ele>939.4</ele><time>2024-05-20T13:51:54Z</time></trkpt>
<trkpt lat="46.61926" lon="6.37485"><ele>938.4</ele><time>2024-05-20T13:51:55Z</time></trkpt>
<trkpt lat="46.61921" lon="6.37489"><ele>937.6</ele><time>2024-05-20T13:51:56Z</time></trkpt>
<trkpt lat="46.61916" lon="6.3749"><ele>936.4</ele><time>2024-05-20T13:51:57Z</time></trkpt>
<trkpt lat="46.61909" lon="6.37487"><ele>935</ele><time>2024-05-20T13:51:58Z</time></trkpt>
<trkpt lat="46.61894" lon="6.37478"><ele>934</ele><time>2024-05-20T13:51:59Z</time></trkpt>
<trkpt lat="46.61886" lon="6.37473"><ele>933.6</ele><time>2024-05-20T13:52:00Z</time></trkpt>
<trkpt lat="46.61876" lon="6.37467"><ele>932.4</ele><time>2024-05-20T13:52:01Z</time></trkpt>
<trkpt lat="46.61866" lon="6.37461"><ele>930.4</ele><time>2024-05-20T13:52:03Z</time></trkpt>
<trkpt lat="46.61845" lon="6.3745"><ele>928.6</ele><time>2024-05-20T13:52:05Z</time></trkpt>
<trkpt lat="46.61834" lon="6.37447"><ele>927</ele><time>2024-05-20T13:52:06Z</time></trkpt>
<trkpt lat="46.61821" lon="6.37444"><ele>925.4</ele><time>2024-05-20T13:52:07Z</time></trkpt>
<trkpt lat="46.61808" lon="6.37444"><ele>923.8</ele><time>2024-05-20T13:52:08Z</time></trkpt>
<trkpt lat="46.61783" lon="6.37441"><ele>921.4</ele><time>2024-05-20T13:52:10Z</time></trkpt>
<trkpt lat="46.61771" lon="6.37438"><ele>919.8</ele><time>2024-05-20T13:52:11Z</time></trkpt>
<trkpt lat="46.61746" lon="6.37427"><ele>916.8</ele><time>2024-05-20T13:52:13Z</time></trkpt>
<trkpt lat="46.61734" lon="6.3742"><ele>915.4</ele><time>2024-05-20T13:52:14Z</time></trkpt>
<trkpt lat="46.61723" lon="6.37413"><ele>914</ele><time>2024-05-20T13:52:15Z</time></trkpt>
<trkpt lat="46.61699" lon="6.37403"><ele>912.2</ele><time>2024-05-20T13:52:17Z</time></trkpt>
<trkpt lat="46.61677" lon="6.37396"><ele>911.4</ele><time>2024-05-20T13:52:19Z</time></trkpt>
<trkpt lat="46.61666" lon="6.37392"><ele>910.8</ele><time>2024-05-20T13:52:20Z</time></trkpt>
<trkpt lat="46.61646" lon="6.37384"><ele>909.8</ele><time>2024-05-20T13:52:22Z</time></trkpt>
<trkpt lat="46.61627" lon="6.37373"><ele>908.2</ele><time>2024-05-20T13:52:24Z</time></trkpt>
<trkpt lat="46.61609" lon="6.3736"><ele>907</ele><time>2024-05-20T13:52:26Z</time></trkpt>
<trkpt lat="46.61599" lon="6.37357"><ele>906.2</ele><time>2024-05-20T13:52:27Z</time></trkpt>
<trkpt lat="46.61589" lon="6.37357"><ele>905.2</ele><time>2024-05-20T13:52:28Z</time></trkpt>
<trkpt lat="46.6158" lon="6.37362"><ele>904.4</ele><time>2024-05-20T13:52:29Z</time></trkpt>
<trkpt lat="46.61573" lon="6.37369"><ele>903.8</ele><time>2024-05-20T13:52:30Z</time></trkpt>
<trkpt lat="46.6156" lon="6.37379"><ele>902.6</ele><time>2024-05-20T13:52:32Z</time></trkpt>
<trkpt lat="46.61551" lon="6.37381"><ele>901.8</ele><time>2024-05-20T13:52:33Z</time></trkpt>
<trkpt lat="46.61542" lon="6.3738"><ele>901</ele><time>2024-05-20T13:52:34Z</time></trkpt>
<trkpt lat="46.61524" lon="6.37379"><ele>899</ele><time>2024-05-20T13:52:36Z</time></trkpt>
<trkpt lat="46.61507" lon="6.37392"><ele>897.2</ele><time>2024-05-20T13:52:38Z</time></trkpt>
<trkpt lat="46.61499" lon="6.37402"><ele>896.4</ele><time>2024-05-20T13:52:39Z</time></trkpt>
<trkpt lat="46.61492" lon="6.37411"><ele>895.2</ele><time>2024-05-20T13:52:40Z</time></trkpt>
<trkpt lat="46.61484" lon="6.37418"><ele>894.4</ele><time>2024-05-20T13:52:41Z</time></trkpt>
<trkpt lat="46.61476" lon="6.37425"><ele>893</ele><time>2024-05-20T13:52:42Z</time></trkpt>
<trkpt lat="46.61466" lon="6.3743"><ele>892</ele><time>2024-05-20T13:52:43Z</time></trkpt>
<trkpt lat="46.61456" lon="6.37433"><ele>890.8</ele><time>2024-05-20T13:52:44Z</time></trkpt>
<trkpt lat="46.61445" lon="6.37436"><ele>889.2</ele><time>2024-05-20T13:52:45Z</time></trkpt>
<trkpt lat="46.61435" lon="6.37438"><ele>888</ele><time>2024-05-20T13:52:46Z</time></trkpt>
<trkpt lat="46.61425" lon="6.37438"><ele>887.2</ele><time>2024-05-20T13:52:47Z</time></trkpt>
<trkpt lat="46.61415" lon="6.37437"><ele>886</ele><time>2024-05-20T13:52:48Z</time></trkpt>
<trkpt lat="46.61406" lon="6.37436"><ele>884.4</ele><time>2024-05-20T13:52:49Z</time></trkpt>
<trkpt lat="46.61398" lon="6.37435"><ele>882.6</ele><time>2024-05-20T13:52:50Z</time></trkpt>
<trkpt lat="46.61391" lon="6.37435"><ele>880.8</ele><time>2024-05-20T13:52:51Z</time></trkpt>
<trkpt lat="46.61384" lon="6.37434"><ele>879.2</ele><time>2024-05-20T13:52:52Z</time></trkpt>
<trkpt lat="46.61378" lon="6.37433"><ele>877.6</ele><time>2024-05-20T13:52:53Z</time></trkpt>
<trkpt lat="46.61372" lon="6.37432"><ele>876.4</ele><time>2024-05-20T13:52:54Z</time></trkpt>
<trkpt lat="46.61361" lon="6.3743"><ele>874.8</ele><time>2024-05-20T13:52:56Z</time></trkpt>
<trkpt lat="46.61357" lon="6.37429"><ele>873.2</ele><time>2024-05-20T13:52:57Z</time></trkpt>
<trkpt lat="46.61346" lon="6.37424"><ele>871.6</ele><time>2024-05-20T13:52:59Z</time></trkpt>
<trkpt lat="46.61341" lon="6.37421"><ele>870.8</ele><time>2024-05-20T13:53:00Z</time></trkpt>
<trkpt lat="46.61333" lon="6.37417"><ele>870.2</ele><time>2024-05-20T13:53:01Z</time></trkpt>
<trkpt lat="46.61318" lon="6.37409"><ele>868.4</ele><time>2024-05-20T13:53:03Z</time></trkpt>
<trkpt lat="46.61308" lon="6.37407"><ele>868</ele><time>2024-05-20T13:53:04Z</time></trkpt>
<trkpt lat="46.61298" lon="6.37407"><ele>866.6</ele><time>2024-05-20T13:53:05Z</time></trkpt>
<trkpt lat="46.61289" lon="6.37408"><ele>865.6</ele><time>2024-05-20T13:53:06Z</time></trkpt>
<trkpt lat="46.61279" lon="6.37412"><ele>864</ele><time>2024-05-20T13:53:07Z</time></trkpt>
<trkpt lat="46.61268" lon="6.37417"><ele>862.2</ele><time>2024-05-20T13:53:08Z</time></trkpt>
<trkpt lat="46.61258" lon="6.37421"><ele>860.8</ele><time>2024-05-20T13:53:09Z</time></trkpt>
<trkpt lat="46.61246" lon="6.37426"><ele>859</ele><time>2024-05-20T13:53:10Z</time></trkpt>
<trkpt lat="46.61234" lon="6.37429"><ele>857.8</ele><time>2024-05-20T13:53:11Z</time></trkpt>
<trkpt lat="46.61223" lon="6.37434"><ele>856.6</ele><time>2024-05-20T13:53:12Z</time></trkpt>
<trkpt lat="46.61211" lon="6.37439"><ele>855</ele><time>2024-05-20T13:53:13Z</time></trkpt>
<trkpt lat="46.612" lon="6.37446"><ele>854.2</ele><time>2024-05-20T13:53:14Z</time></trkpt>
<trkpt lat="46.61189" lon="6.37453"><ele>852.6</ele><time>2024-05-20T13:53:15Z</time></trkpt>
<trkpt lat="46.61179" lon="6.3746"><ele>851</ele><time>2024-05-20T13:53:16Z</time></trkpt>
<trkpt lat="46.61169" lon="6.37467"><ele>848.8</ele><time>2024-05-20T13:53:17Z</time></trkpt>
<trkpt lat="46.61159" lon="6.37471"><ele>847.2</ele><time>2024-05-20T13:53:18Z</time></trkpt>
<trkpt lat="46.61148" lon="6.37473"><ele>846.2</ele><time>2024-05-20T13:53:19Z</time></trkpt>
<trkpt lat="46.61137" lon="6.37475"><ele>845</ele><time>2024-05-20T13:53:20Z</time></trkpt>
<trkpt lat="46.61126" lon="6.37475"><ele>843.4</ele><time>2024-05-20T13:53:21Z</time></trkpt>
<trkpt lat="46.61104" lon="6.37476"><ele>841.8</ele><time>2024-05-20T13:53:23Z</time></trkpt>
<trkpt lat="46.61094" lon="6.37477"><ele>840.4</ele><time>2024-05-20T13:53:24Z</time></trkpt>
<trkpt lat="46.61084" lon="6.37481"><ele>838.6</ele><time>2024-05-20T13:53:25Z</time></trkpt>
<trkpt lat="46.61074" lon="6.37487"><ele>837.6</ele><time>2024-05-20T13:53:26Z</time></trkpt>
<trkpt lat="46.61064" lon="6.37495"><ele>836.2</ele><time>2024-05-20T13:53:27Z</time></trkpt>
<trkpt lat="46.61055" lon="6.37505"><ele>834.6</ele><time>2024-05-20T13:53:28Z</time></trkpt>
<trkpt lat="46.61046" lon="6.37515"><ele>833.2</ele><time>2024-05-20T13:53:29Z</time></trkpt>
<trkpt lat="46.61026" lon="6.3753"><ele>831</ele><time>2024-05-20T13:53:31Z</time></trkpt>
<trkpt lat="46.61015" lon="6.37536"><ele>829.2</ele><time>2024-05-20T13:53:32Z</time></trkpt>
<trkpt lat="46.61004" lon="6.37539"><ele>828.4</ele><time>2024-05-20T13:53:33Z</time></trkpt>
<trkpt lat="46.60992" lon="6.37543"><ele>826.6</ele><time>2024-05-20T13:53:34Z</time></trkpt>
<trkpt lat="46.60981" lon="6.37547"><ele>825.4</ele><time>2024-05-20T13:53:35Z</time></trkpt>
<trkpt lat="46.6097" lon="6.37553"><ele>824.2</ele><time>2024-05-20T13:53:36Z</time></trkpt>
<trkpt lat="46.60958" lon="6.37559"><ele>823.2</ele><time>2024-05-20T13:53:37Z</time></trkpt>
<trkpt lat="46.60947" lon="6.37565"><ele>822.2</ele><time>2024-05-20T13:53:38Z</time></trkpt>
<trkpt lat="46.60924" lon="6.37574"><ele>820.6</ele><time>2024-05-20T13:53:40Z</time></trkpt>
<trkpt lat="46.60913" lon="6.37578"><ele>819.4</ele><time>2024-05-20T13:53:41Z</time></trkpt>
<trkpt lat="46.60891" lon="6.37589"><ele>817.2</ele><time>2024-05-20T13:53:43Z</time></trkpt>
<trkpt lat="46.60868" lon="6.376"><ele>815</ele><time>2024-05-20T13:53:45Z</time></trkpt>
<trkpt lat="46.60846" lon="6.37612"><ele>813.6</ele><time>2024-05-20T13:53:47Z</time></trkpt>
<trkpt lat="46.60825" lon="6.37625"><ele>811.4</ele><time>2024-05-20T13:53:49Z</time></trkpt>
<trkpt lat="46.60803" lon="6.37637"><ele>809.6</ele><time>2024-05-20T13:53:51Z</time></trkpt>
<trkpt lat="46.60792" lon="6.37643"><ele>808</ele><time>2024-05-20T13:53:52Z</time></trkpt>
<trkpt lat="46.60772" lon="6.37653"><ele>806</ele><time>2024-05-20T13:53:54Z</time></trkpt>
<trkpt lat="46.60764" lon="6.37659"><ele>805</ele><time>2024-05-20T13:53:55Z</time></trkpt>
<trkpt lat="46.60756" lon="6.37666"><ele>803.4</ele><time>2024-05-20T13:53:56Z</time></trkpt>
<trkpt lat="46.6075" lon="6.37675"><ele>802.6</ele><time>2024-05-20T13:53:57Z</time></trkpt>
<trkpt lat="46.60745" lon="6.37684"><ele>802</ele><time>2024-05-20T13:53:58Z</time></trkpt>
<trkpt lat="46.60736" lon="6.37694"><ele>800</ele><time>2024-05-20T13:54:00Z</time></trkpt>
<trkpt lat="46.60731" lon="6.37695"><ele>799</ele><time>2024-05-20T13:54:01Z</time></trkpt>
<trkpt lat="46.60726" lon="6.37693"><ele>798.4</ele><time>2024-05-20T13:54:02Z</time></trkpt>
<trkpt lat="46.60718" lon="6.37686"><ele>797.8</ele><time>2024-05-20T13:54:04Z</time></trkpt>
<trkpt lat="46.60694" lon="6.3767"><ele>797.6</ele><time>2024-05-20T13:54:10Z</time></trkpt>
<trkpt lat="46.60685" lon="6.37666"><ele>797.6</ele><time>2024-05-20T13:54:12Z</time></trkpt>
<trkpt lat="46.60681" lon="6.37664"><ele>797.2</ele><time>2024-05-20T13:54:13Z</time></trkpt>
<trkpt lat="46.60666" lon="6.37664"><ele>797.2</ele><time>2024-05-20T13:54:16Z</time></trkpt>
<trkpt lat="46.60646" lon="6.3766"><ele>797.4</ele><time>2024-05-20T13:54:20Z</time></trkpt>
<trkpt lat="46.60633" lon="6.37653"><ele>797.4</ele><time>2024-05-20T13:54:23Z</time></trkpt>
<trkpt lat="46.60611" lon="6.37637"><ele>796.8</ele><time>2024-05-20T13:54:28Z</time></trkpt>
<trkpt lat="46.60607" lon="6.37632"><ele>796.8</ele><time>2024-05-20T13:54:29Z</time></trkpt>
<trkpt lat="46.6059" lon="6.37619"><ele>796.4</ele><time>2024-05-20T13:54:33Z</time></trkpt>
<trkpt lat="46.60586" lon="6.37616"><ele>796.4</ele><time>2024-05-20T13:54:34Z</time></trkpt>
<trkpt lat="46.6056" lon="6.37604"><ele>796.8</ele><time>2024-05-20T13:54:40Z</time></trkpt>
<trkpt lat="46.60544" lon="6.37592"><ele>797</ele><time>2024-05-20T13:54:45Z</time></trkpt>
<trkpt lat="46.60528" lon="6.37583"><ele>797.4</ele><time>2024-05-20T13:54:50Z</time></trkpt>
<trkpt lat="46.60521" lon="6.37577"><ele>797.8</ele><time>2024-05-20T13:54:52Z</time></trkpt>
<trkpt lat="46.60514" lon="6.37573"><ele>797.8</ele><time>2024-05-20T13:54:54Z</time></trkpt>
<trkpt lat="46.605" lon="6.37563"><ele>798</ele><time>2024-05-20T13:54:58Z</time></trkpt>
<trkpt lat="46.60493" lon="6.37558"><ele>798</ele><time>2024-05-20T13:55:00Z</time></trkpt>
<trkpt lat="46.6046" lon="6.37532"><ele>798</ele><time>2024-05-20T13:55:09Z</time></trkpt>
<trkpt lat="46.60434" lon="6.37511"><ele>798</ele><time>2024-05-20T13:55:16Z</time></trkpt>
<trkpt lat="46.60431" lon="6.37508"><ele>798</ele><time>2024-05-20T13:55:17Z</time></trkpt>
<trkpt lat="46.60414" lon="6.37495"><ele>798.2</ele><time>2024-05-20T13:55:22Z</time></trkpt>
<trkpt lat="46.6041" lon="6.37493"><ele>798.2</ele><time>2024-05-20T13:55:23Z</time></trkpt>
<trkpt lat="46.60399" lon="6.37484"><ele>798</ele><time>2024-05-20T13:55:26Z</time></trkpt>
<trkpt lat="46.60391" lon="6.37477"><ele>798</ele><time>2024-05-20T13:55:28Z</time></trkpt>
<trkpt lat="46.60387" lon="6.37472"><ele>797.8</ele><time>2024-05-20T13:55:29Z</time></trkpt>
<trkpt lat="46.60383" lon="6.37468"><ele>797.8</ele><time>2024-05-20T13:55:30Z</time></trkpt>
<trkpt lat="46.60365" lon="6.37455"><ele>797.8</ele><time>2024-05-20T13:55:34Z</time></trkpt>
<trkpt lat="46.60342" lon="6.37443"><ele>797.8</ele><time>2024-05-20T13:55:40Z</time></trkpt>
<trkpt lat="46.60333" lon="6.37443"><ele>798</ele><time>2024-05-20T13:55:42Z</time></trkpt>
<trkpt lat="46.60319" lon="6.37446"><ele>798</ele><time>2024-05-20T13:55:45Z</time></trkpt>
<trkpt lat="46.60295" lon="6.37448"><ele>797.8</ele><time>2024-05-20T13:55:52Z</time></trkpt>
<trkpt lat="46.60291" lon="6.37448"><ele>797.6</ele><time>2024-05-20T13:55:53Z</time></trkpt>
<trkpt lat="46.60275" lon="6.37448"><ele>796.6</ele><time>2024-05-20T13:55:56Z</time></trkpt>
<trkpt lat="46.60251" lon="6.37449"><ele>796.8</ele><time>2024-05-20T13:56:02Z</time></trkpt>
<trkpt lat="46.60225" lon="6.3744"><ele>797.2</ele><time>2024-05-20T13:56:09Z</time></trkpt>
<trkpt lat="46.6022" lon="6.37436"><ele>797.6</ele><time>2024-05-20T13:56:11Z</time></trkpt>
<trkpt lat="46.60213" lon="6.37426"><ele>798.2</ele><time>2024-05-20T13:56:15Z</time></trkpt>
<trkpt lat="46.60213" lon="6.37424"><ele>798.4</ele><time>2024-05-20T13:56:16Z</time></trkpt>
<trkpt lat="46.60212" lon="6.37421"><ele>798.6</ele><time>2024-05-20T13:56:17Z</time></trkpt>
<trkpt lat="46.60212" lon="6.37412"><ele>799.2</ele><time>2024-05-20T13:56:20Z</time></trkpt>
<trkpt lat="46.60211" lon="6.37398"><ele>799.2</ele><time>2024-05-20T13:56:24Z</time></trkpt>
<trkpt lat="46.60212" lon="6.37393"><ele>799.2</ele><time>2024-05-20T13:56:25Z</time></trkpt>
<trkpt lat="46.60213" lon="6.3739"><ele>799.2</ele><time>2024-05-20T13:56:26Z</time></trkpt>
<trkpt lat="46.60211" lon="6.37375"><ele>799</ele><time>2024-05-20T13:56:30Z</time></trkpt>
<trkpt lat="46.60208" lon="6.37356"><ele>798.6</ele><time>2024-05-20T13:56:35Z</time></trkpt>
<trkpt lat="46.60207" lon="6.37348"><ele>798.6</ele><time>2024-05-20T13:56:37Z</time></trkpt>
<trkpt lat="46.60205" lon="6.37343"><ele>798.6</ele><time>2024-05-20T13:56:38Z</time></trkpt>
<trkpt lat="46.60186" lon="6.37319"><ele>797.8</ele><time>2024-05-20T13:56:44Z</time></trkpt>
<trkpt lat="46.60181" lon="6.37315"><ele>797.6</ele><time>2024-05-20T13:56:45Z</time></trkpt>
<trkpt lat="46.60176" lon="6.37312"><ele>797.6</ele><time>2024-05-20T13:56:46Z</time></trkpt>
<trkpt lat="46.60163" lon="6.37307"><ele>797.6</ele><time>2024-05-20T13:56:50Z</time></trkpt>
<trkpt lat="46.60138" lon="6.37293"><ele>797.6</ele><time>2024-05-20T13:56:57Z</time></trkpt>
<trkpt lat="46.60114" lon="6.37275"><ele>797.6</ele><time>2024-05-20T13:57:04Z</time></trkpt>
<trkpt lat="46.60106" lon="6.37267"><ele>797.4</ele><time>2024-05-20T13:57:06Z</time></trkpt>
<trkpt lat="46.60103" lon="6.37254"><ele>797.2</ele><time>2024-05-20T13:57:08Z</time></trkpt>
<trkpt lat="46.60105" lon="6.3724"><ele>796.4</ele><time>2024-05-20T13:57:10Z</time></trkpt>
<trkpt lat="46.60111" lon="6.37222"><ele>795.8</ele><time>2024-05-20T13:57:12Z</time></trkpt>
<trkpt lat="46.60119" lon="6.37203"><ele>794.8</ele><time>2024-05-20T13:57:14Z</time></trkpt>
<trkpt lat="46.60126" lon="6.37183"><ele>793.2</ele><time>2024-05-20T13:57:16Z</time></trkpt>
<trkpt lat="46.6013" lon="6.37172"><ele>792.8</ele><time>2024-05-20T13:57:17Z</time></trkpt>
<trkpt lat="46.60136" lon="6.37148"><ele>791.6</ele><time>2024-05-20T13:57:19Z</time></trkpt>
<trkpt lat="46.60138" lon="6.37126"><ele>790.8</ele><time>2024-05-20T13:57:21Z</time></trkpt>
<trkpt lat="46.60137" lon="6.37115"><ele>790.6</ele><time>2024-05-20T13:57:22Z</time></trkpt>
<trkpt lat="46.60135" lon="6.37105"><ele>790.4</ele><time>2024-05-20T13:57:23Z</time></trkpt>
<trkpt lat="46.60125" lon="6.37074"><ele>789.4</ele><time>2024-05-20T13:57:26Z</time></trkpt>
<trkpt lat="46.60122" lon="6.37065"><ele>789.2</ele><time>2024-05-20T13:57:27Z</time></trkpt>
<trkpt lat="46.60118" lon="6.37046"><ele>788.8</ele><time>2024-05-20T13:57:29Z</time></trkpt>
<trkpt lat="46.60118" lon="6.37028"><ele>788.4</ele><time>2024-05-20T13:57:31Z</time></trkpt>
<trkpt lat="46.60118" lon="6.37019"><ele>788</ele><time>2024-05-20T13:57:32Z</time></trkpt>
<trkpt lat="46.6012" lon="6.36978"><ele>787.2</ele><time>2024-05-20T13:57:36Z</time></trkpt>
<trkpt lat="46.6012" lon="6.36968"><ele>787</ele><time>2024-05-20T13:57:37Z</time></trkpt>
<trkpt lat="46.60118" lon="6.36958"><ele>787</ele><time>2024-05-20T13:57:38Z</time></trkpt>
<trkpt lat="46.60109" lon="6.36922"><ele>786.8</ele><time>2024-05-20T13:57:42Z</time></trkpt>
<trkpt lat="46.601" lon="6.369"><ele>787.4</ele><time>2024-05-20T13:57:45Z</time></trkpt>
<trkpt lat="46.60092" lon="6.36882"><ele>787.8</ele><time>2024-05-20T13:57:48Z</time></trkpt>
<trkpt lat="46.60086" lon="6.36872"><ele>788</ele><time>2024-05-20T13:57:50Z</time></trkpt>
<trkpt lat="46.6007" lon="6.36846"><ele>788.4</ele><time>2024-05-20T13:57:56Z</time></trkpt>
<trkpt lat="46.60063" lon="6.36834"><ele>788.4</ele><time>2024-05-20T13:57:59Z</time></trkpt>
<trkpt lat="46.60061" lon="6.36831"><ele>788.4</ele><time>2024-05-20T13:58:00Z</time></trkpt>
<trkpt lat="46.60057" lon="6.3683"><ele>788.4</ele><time>2024-05-20T13:58:01Z</time></trkpt>
<trkpt lat="46.60054" lon="6.3683"><ele>788.4</ele><time>2024-05-20T13:58:02Z</time></trkpt>
<trkpt lat="46.60051" lon="6.36834"><ele>788.4</ele><time>2024-05-20T13:58:03Z</time></trkpt>
<trkpt lat="46.60047" lon="6.36847"><ele>788</ele><time>2024-05-20T13:58:05Z</time></trkpt>
<trkpt lat="46.60045" lon="6.36886"><ele>786.4</ele><time>2024-05-20T13:58:09Z</time></trkpt>
<trkpt lat="46.60043" lon="6.36917"><ele>785</ele><time>2024-05-20T13:58:12Z</time></trkpt>
<trkpt lat="46.60042" lon="6.36937"><ele>784</ele><time>2024-05-20T13:58:14Z</time></trkpt>
<trkpt lat="46.60041" lon="6.36946"><ele>783.4</ele><time>2024-05-20T13:58:15Z</time></trkpt>
<trkpt lat="46.6004" lon="6.36953"><ele>782.6</ele><time>2024-05-20T13:58:16Z</time></trkpt>
<trkpt lat="46.60039" lon="6.36975"><ele>781.2</ele><time>2024-05-20T13:58:19Z</time></trkpt>
<trkpt lat="46.60038" lon="6.36988"><ele>780.6</ele><time>2024-05-20T13:58:21Z</time></trkpt>
<trkpt lat="46.60037" lon="6.36999"><ele>780</ele><time>2024-05-20T13:58:23Z</time></trkpt>
<trkpt lat="46.60036" lon="6.3701"><ele>779</ele><time>2024-05-20T13:58:26Z</time></trkpt>
<trkpt lat="46.60034" lon="6.37014"><ele>778.2</ele><time>2024-05-20T13:58:31Z</time></trkpt>
<trkpt lat="46.60033" lon="6.37014"><ele>778.2</ele><time>2024-05-20T13:58:34Z</time></trkpt>
</trkseg></trk></gpx>